<?xml version="1.0" encoding="UTF-8" standalone="no" ?>
<gpx xmlns="http://www.topografix.com/GPX/1/1" xmlns:xsi="http://www.w3.org/2001/XMLSchema-instance" xsi:schemaLocation="http://www.topografix.com/GPX/1/1 http://www.topografix.com/GPX/1/1/gpx.xsd" version="1.1" creator="VisuGPX - https://www.visugpx.com">
  <metadata>
    <name>Sortie gravel le matin</name>
  </metadata>
  <trk>
    <name><![CDATA[Sortie gravel le matin_1]]></name>
    <trkseg>
      <trkpt lat="43.5869" lon="1.32235">
        <ele>183.6</ele>
        <time>2022-12-28T08:15:29Z</time>
      </trkpt>
      <trkpt lat="43.58689" lon="1.32234">
        <ele>185.2</ele>
        <time>2022-12-28T08:15:30Z</time>
      </trkpt>
      <trkpt lat="43.58686" lon="1.32224">
        <ele>185.6</ele>
        <time>2022-12-28T08:16:04Z</time>
      </trkpt>
      <trkpt lat="43.58685" lon="1.32218">
        <ele>185.6</ele>
        <time>2022-12-28T08:16:06Z</time>
      </trkpt>
      <trkpt lat="43.58686" lon="1.32194">
        <ele>185.6</ele>
        <time>2022-12-28T08:16:12Z</time>
      </trkpt>
      <trkpt lat="43.58687" lon="1.32183">
        <ele>186</ele>
        <time>2022-12-28T08:16:14Z</time>
      </trkpt>
      <trkpt lat="43.58689" lon="1.32156">
        <ele>186.8</ele>
        <time>2022-12-28T08:16:19Z</time>
      </trkpt>
      <trkpt lat="43.58689" lon="1.32143">
        <ele>187</ele>
        <time>2022-12-28T08:16:21Z</time>
      </trkpt>
      <trkpt lat="43.58692" lon="1.32107">
        <ele>187.4</ele>
        <time>2022-12-28T08:16:26Z</time>
      </trkpt>
      <trkpt lat="43.58692" lon="1.32058">
        <ele>187.4</ele>
        <time>2022-12-28T08:16:32Z</time>
      </trkpt>
      <trkpt lat="43.58689" lon="1.32009">
        <ele>187.2</ele>
        <time>2022-12-28T08:16:38Z</time>
      </trkpt>
      <trkpt lat="43.58684" lon="1.31988">
        <ele>187.2</ele>
        <time>2022-12-28T08:16:41Z</time>
      </trkpt>
      <trkpt lat="43.58678" lon="1.31978">
        <ele>187.2</ele>
        <time>2022-12-28T08:16:43Z</time>
      </trkpt>
      <trkpt lat="43.58675" lon="1.31973">
        <ele>187.2</ele>
        <time>2022-12-28T08:16:44Z</time>
      </trkpt>
      <trkpt lat="43.5867" lon="1.31964">
        <ele>187.4</ele>
        <time>2022-12-28T08:16:46Z</time>
      </trkpt>
      <trkpt lat="43.58668" lon="1.3196">
        <ele>187.4</ele>
        <time>2022-12-28T08:16:47Z</time>
      </trkpt>
      <trkpt lat="43.58667" lon="1.31952">
        <ele>187.6</ele>
        <time>2022-12-28T08:16:49Z</time>
      </trkpt>
      <trkpt lat="43.58669" lon="1.31949">
        <ele>187.8</ele>
        <time>2022-12-28T08:16:50Z</time>
      </trkpt>
      <trkpt lat="43.58682" lon="1.31938">
        <ele>188</ele>
        <time>2022-12-28T08:16:55Z</time>
      </trkpt>
      <trkpt lat="43.5868" lon="1.31922">
        <ele>188</ele>
        <time>2022-12-28T08:16:58Z</time>
      </trkpt>
      <trkpt lat="43.58673" lon="1.31889">
        <ele>188</ele>
        <time>2022-12-28T08:17:03Z</time>
      </trkpt>
      <trkpt lat="43.58672" lon="1.31882">
        <ele>188.2</ele>
        <time>2022-12-28T08:17:04Z</time>
      </trkpt>
      <trkpt lat="43.58672" lon="1.31869">
        <ele>188.2</ele>
        <time>2022-12-28T08:17:06Z</time>
      </trkpt>
      <trkpt lat="43.58672" lon="1.31857">
        <ele>188.2</ele>
        <time>2022-12-28T08:17:08Z</time>
      </trkpt>
      <trkpt lat="43.58665" lon="1.31841">
        <ele>188.4</ele>
        <time>2022-12-28T08:17:11Z</time>
      </trkpt>
      <trkpt lat="43.58664" lon="1.31834">
        <ele>188.6</ele>
        <time>2022-12-28T08:17:12Z</time>
      </trkpt>
      <trkpt lat="43.58656" lon="1.31782">
        <ele>189</ele>
        <time>2022-12-28T08:17:19Z</time>
      </trkpt>
      <trkpt lat="43.58655" lon="1.31775">
        <ele>189.2</ele>
        <time>2022-12-28T08:17:20Z</time>
      </trkpt>
      <trkpt lat="43.5865" lon="1.31738">
        <ele>189.4</ele>
        <time>2022-12-28T08:17:25Z</time>
      </trkpt>
      <trkpt lat="43.58651" lon="1.31731">
        <ele>189.6</ele>
        <time>2022-12-28T08:17:26Z</time>
      </trkpt>
      <trkpt lat="43.58653" lon="1.3171">
        <ele>189.8</ele>
        <time>2022-12-28T08:17:29Z</time>
      </trkpt>
      <trkpt lat="43.58652" lon="1.31697">
        <ele>189.8</ele>
        <time>2022-12-28T08:17:31Z</time>
      </trkpt>
      <trkpt lat="43.58649" lon="1.31689">
        <ele>189.8</ele>
        <time>2022-12-28T08:17:33Z</time>
      </trkpt>
      <trkpt lat="43.58646" lon="1.31688">
        <ele>189.8</ele>
        <time>2022-12-28T08:17:34Z</time>
      </trkpt>
      <trkpt lat="43.58644" lon="1.31686">
        <ele>189.8</ele>
        <time>2022-12-28T08:17:35Z</time>
      </trkpt>
      <trkpt lat="43.58642" lon="1.31678">
        <ele>189.8</ele>
        <time>2022-12-28T08:17:37Z</time>
      </trkpt>
      <trkpt lat="43.5864" lon="1.31651">
        <ele>189.6</ele>
        <time>2022-12-28T08:17:41Z</time>
      </trkpt>
      <trkpt lat="43.58638" lon="1.31615">
        <ele>189.6</ele>
        <time>2022-12-28T08:17:46Z</time>
      </trkpt>
      <trkpt lat="43.58636" lon="1.31593">
        <ele>189.6</ele>
        <time>2022-12-28T08:17:49Z</time>
      </trkpt>
      <trkpt lat="43.58629" lon="1.31522">
        <ele>190.2</ele>
        <time>2022-12-28T08:17:58Z</time>
      </trkpt>
      <trkpt lat="43.58624" lon="1.31466">
        <ele>190.4</ele>
        <time>2022-12-28T08:18:05Z</time>
      </trkpt>
      <trkpt lat="43.58622" lon="1.3145">
        <ele>190.4</ele>
        <time>2022-12-28T08:18:07Z</time>
      </trkpt>
      <trkpt lat="43.5862" lon="1.31434">
        <ele>190.4</ele>
        <time>2022-12-28T08:18:09Z</time>
      </trkpt>
      <trkpt lat="43.58619" lon="1.31418">
        <ele>190.8</ele>
        <time>2022-12-28T08:18:11Z</time>
      </trkpt>
      <trkpt lat="43.58617" lon="1.31401">
        <ele>190.8</ele>
        <time>2022-12-28T08:18:13Z</time>
      </trkpt>
      <trkpt lat="43.58614" lon="1.31377">
        <ele>191</ele>
        <time>2022-12-28T08:18:16Z</time>
      </trkpt>
      <trkpt lat="43.58611" lon="1.31352">
        <ele>191.2</ele>
        <time>2022-12-28T08:18:19Z</time>
      </trkpt>
      <trkpt lat="43.58611" lon="1.31293">
        <ele>191.2</ele>
        <time>2022-12-28T08:18:26Z</time>
      </trkpt>
      <trkpt lat="43.58608" lon="1.3125">
        <ele>191.2</ele>
        <time>2022-12-28T08:18:31Z</time>
      </trkpt>
      <trkpt lat="43.58605" lon="1.31233">
        <ele>191</ele>
        <time>2022-12-28T08:18:33Z</time>
      </trkpt>
      <trkpt lat="43.58599" lon="1.31216">
        <ele>191</ele>
        <time>2022-12-28T08:18:35Z</time>
      </trkpt>
      <trkpt lat="43.58592" lon="1.31201">
        <ele>190.8</ele>
        <time>2022-12-28T08:18:37Z</time>
      </trkpt>
      <trkpt lat="43.58588" lon="1.31194">
        <ele>190.8</ele>
        <time>2022-12-28T08:18:38Z</time>
      </trkpt>
      <trkpt lat="43.58581" lon="1.31181">
        <ele>190.8</ele>
        <time>2022-12-28T08:18:40Z</time>
      </trkpt>
      <trkpt lat="43.58572" lon="1.31164">
        <ele>190.6</ele>
        <time>2022-12-28T08:18:43Z</time>
      </trkpt>
      <trkpt lat="43.58565" lon="1.31155">
        <ele>190.4</ele>
        <time>2022-12-28T08:18:46Z</time>
      </trkpt>
      <trkpt lat="43.58563" lon="1.31155">
        <ele>190.4</ele>
        <time>2022-12-28T08:18:47Z</time>
      </trkpt>
      <trkpt lat="43.58557" lon="1.31157">
        <ele>190.4</ele>
        <time>2022-12-28T08:18:49Z</time>
      </trkpt>
      <trkpt lat="43.58555" lon="1.31156">
        <ele>190.4</ele>
        <time>2022-12-28T08:18:50Z</time>
      </trkpt>
      <trkpt lat="43.5855" lon="1.31148">
        <ele>190.2</ele>
        <time>2022-12-28T08:18:52Z</time>
      </trkpt>
      <trkpt lat="43.58535" lon="1.31115">
        <ele>190.4</ele>
        <time>2022-12-28T08:18:58Z</time>
      </trkpt>
      <trkpt lat="43.5853" lon="1.31102">
        <ele>190.4</ele>
        <time>2022-12-28T08:19:01Z</time>
      </trkpt>
      <trkpt lat="43.58527" lon="1.31098">
        <ele>190.4</ele>
        <time>2022-12-28T08:19:02Z</time>
      </trkpt>
      <trkpt lat="43.58516" lon="1.31072">
        <ele>190.6</ele>
        <time>2022-12-28T08:19:07Z</time>
      </trkpt>
      <trkpt lat="43.58495" lon="1.31029">
        <ele>191</ele>
        <time>2022-12-28T08:19:14Z</time>
      </trkpt>
      <trkpt lat="43.58482" lon="1.31005">
        <ele>191.4</ele>
        <time>2022-12-28T08:19:18Z</time>
      </trkpt>
      <trkpt lat="43.58468" lon="1.30979">
        <ele>191.6</ele>
        <time>2022-12-28T08:19:22Z</time>
      </trkpt>
      <trkpt lat="43.58443" lon="1.30937">
        <ele>191.8</ele>
        <time>2022-12-28T08:19:29Z</time>
      </trkpt>
      <trkpt lat="43.58439" lon="1.30931">
        <ele>191.8</ele>
        <time>2022-12-28T08:19:30Z</time>
      </trkpt>
      <trkpt lat="43.5841" lon="1.30879">
        <ele>191.8</ele>
        <time>2022-12-28T08:19:38Z</time>
      </trkpt>
      <trkpt lat="43.58377" lon="1.30819">
        <ele>191.6</ele>
        <time>2022-12-28T08:19:47Z</time>
      </trkpt>
      <trkpt lat="43.58353" lon="1.30762">
        <ele>191.4</ele>
        <time>2022-12-28T08:19:55Z</time>
      </trkpt>
      <trkpt lat="43.58328" lon="1.30696">
        <ele>191.6</ele>
        <time>2022-12-28T08:20:04Z</time>
      </trkpt>
      <trkpt lat="43.58319" lon="1.30665">
        <ele>191.6</ele>
        <time>2022-12-28T08:20:08Z</time>
      </trkpt>
      <trkpt lat="43.58313" lon="1.3065">
        <ele>191.6</ele>
        <time>2022-12-28T08:20:10Z</time>
      </trkpt>
      <trkpt lat="43.58288" lon="1.30593">
        <ele>191.6</ele>
        <time>2022-12-28T08:20:18Z</time>
      </trkpt>
      <trkpt lat="43.58262" lon="1.30546">
        <ele>192</ele>
        <time>2022-12-28T08:20:25Z</time>
      </trkpt>
      <trkpt lat="43.5823" lon="1.30487">
        <ele>191.8</ele>
        <time>2022-12-28T08:20:34Z</time>
      </trkpt>
      <trkpt lat="43.58201" lon="1.30432">
        <ele>191.8</ele>
        <time>2022-12-28T08:20:42Z</time>
      </trkpt>
      <trkpt lat="43.58194" lon="1.30419">
        <ele>191.6</ele>
        <time>2022-12-28T08:20:44Z</time>
      </trkpt>
      <trkpt lat="43.58174" lon="1.30374">
        <ele>191.8</ele>
        <time>2022-12-28T08:20:50Z</time>
      </trkpt>
      <trkpt lat="43.58162" lon="1.30327">
        <ele>191.8</ele>
        <time>2022-12-28T08:20:56Z</time>
      </trkpt>
      <trkpt lat="43.58159" lon="1.30312">
        <ele>191.8</ele>
        <time>2022-12-28T08:20:58Z</time>
      </trkpt>
      <trkpt lat="43.58155" lon="1.30298">
        <ele>191.8</ele>
        <time>2022-12-28T08:21:00Z</time>
      </trkpt>
      <trkpt lat="43.58152" lon="1.30292">
        <ele>191.8</ele>
        <time>2022-12-28T08:21:01Z</time>
      </trkpt>
      <trkpt lat="43.58142" lon="1.30273">
        <ele>191.8</ele>
        <time>2022-12-28T08:21:04Z</time>
      </trkpt>
      <trkpt lat="43.58136" lon="1.30261">
        <ele>192</ele>
        <time>2022-12-28T08:21:06Z</time>
      </trkpt>
      <trkpt lat="43.58128" lon="1.30255">
        <ele>192.2</ele>
        <time>2022-12-28T08:21:08Z</time>
      </trkpt>
      <trkpt lat="43.58125" lon="1.30253">
        <ele>192.4</ele>
        <time>2022-12-28T08:21:09Z</time>
      </trkpt>
      <trkpt lat="43.58123" lon="1.3025">
        <ele>192.4</ele>
        <time>2022-12-28T08:21:10Z</time>
      </trkpt>
      <trkpt lat="43.58125" lon="1.30241">
        <ele>192.4</ele>
        <time>2022-12-28T08:21:12Z</time>
      </trkpt>
      <trkpt lat="43.58128" lon="1.3023">
        <ele>192.4</ele>
        <time>2022-12-28T08:21:14Z</time>
      </trkpt>
      <trkpt lat="43.58127" lon="1.30224">
        <ele>192.4</ele>
        <time>2022-12-28T08:21:15Z</time>
      </trkpt>
      <trkpt lat="43.58124" lon="1.30204">
        <ele>192.4</ele>
        <time>2022-12-28T08:21:18Z</time>
      </trkpt>
      <trkpt lat="43.58124" lon="1.30189">
        <ele>192.4</ele>
        <time>2022-12-28T08:21:20Z</time>
      </trkpt>
      <trkpt lat="43.58122" lon="1.30137">
        <ele>192.4</ele>
        <time>2022-12-28T08:21:27Z</time>
      </trkpt>
      <trkpt lat="43.58125" lon="1.30099">
        <ele>192.6</ele>
        <time>2022-12-28T08:21:32Z</time>
      </trkpt>
      <trkpt lat="43.58128" lon="1.30081">
        <ele>192.6</ele>
        <time>2022-12-28T08:21:34Z</time>
      </trkpt>
      <trkpt lat="43.58131" lon="1.30058">
        <ele>192.6</ele>
        <time>2022-12-28T08:21:37Z</time>
      </trkpt>
      <trkpt lat="43.58136" lon="1.30017">
        <ele>192.8</ele>
        <time>2022-12-28T08:21:42Z</time>
      </trkpt>
      <trkpt lat="43.58137" lon="1.29991">
        <ele>192.8</ele>
        <time>2022-12-28T08:21:45Z</time>
      </trkpt>
      <trkpt lat="43.58139" lon="1.29959">
        <ele>192.8</ele>
        <time>2022-12-28T08:21:49Z</time>
      </trkpt>
      <trkpt lat="43.58141" lon="1.29894">
        <ele>192.8</ele>
        <time>2022-12-28T08:21:57Z</time>
      </trkpt>
      <trkpt lat="43.58142" lon="1.29857">
        <ele>192.6</ele>
        <time>2022-12-28T08:22:01Z</time>
      </trkpt>
      <trkpt lat="43.58143" lon="1.29833">
        <ele>192.6</ele>
        <time>2022-12-28T08:22:04Z</time>
      </trkpt>
      <trkpt lat="43.58143" lon="1.29766">
        <ele>192.2</ele>
        <time>2022-12-28T08:22:12Z</time>
      </trkpt>
      <trkpt lat="43.58141" lon="1.29752">
        <ele>192.2</ele>
        <time>2022-12-28T08:22:14Z</time>
      </trkpt>
      <trkpt lat="43.58141" lon="1.29735">
        <ele>192.2</ele>
        <time>2022-12-28T08:22:16Z</time>
      </trkpt>
      <trkpt lat="43.58144" lon="1.29722">
        <ele>192.2</ele>
        <time>2022-12-28T08:22:18Z</time>
      </trkpt>
      <trkpt lat="43.58148" lon="1.29706">
        <ele>192.2</ele>
        <time>2022-12-28T08:22:20Z</time>
      </trkpt>
      <trkpt lat="43.58155" lon="1.29643">
        <ele>192.2</ele>
        <time>2022-12-28T08:22:28Z</time>
      </trkpt>
      <trkpt lat="43.58158" lon="1.29586">
        <ele>192</ele>
        <time>2022-12-28T08:22:35Z</time>
      </trkpt>
      <trkpt lat="43.58159" lon="1.29559">
        <ele>192</ele>
        <time>2022-12-28T08:22:38Z</time>
      </trkpt>
      <trkpt lat="43.5816" lon="1.2951">
        <ele>192</ele>
        <time>2022-12-28T08:22:44Z</time>
      </trkpt>
      <trkpt lat="43.58159" lon="1.29452">
        <ele>192.4</ele>
        <time>2022-12-28T08:22:51Z</time>
      </trkpt>
      <trkpt lat="43.58153" lon="1.29403">
        <ele>192.6</ele>
        <time>2022-12-28T08:22:57Z</time>
      </trkpt>
      <trkpt lat="43.58145" lon="1.29352">
        <ele>192.8</ele>
        <time>2022-12-28T08:23:03Z</time>
      </trkpt>
      <trkpt lat="43.58132" lon="1.29277">
        <ele>192.8</ele>
        <time>2022-12-28T08:23:12Z</time>
      </trkpt>
      <trkpt lat="43.5812" lon="1.29214">
        <ele>192.8</ele>
        <time>2022-12-28T08:23:20Z</time>
      </trkpt>
      <trkpt lat="43.58117" lon="1.2919">
        <ele>193</ele>
        <time>2022-12-28T08:23:23Z</time>
      </trkpt>
      <trkpt lat="43.5811" lon="1.29159">
        <ele>193</ele>
        <time>2022-12-28T08:23:27Z</time>
      </trkpt>
      <trkpt lat="43.58102" lon="1.29129">
        <ele>193</ele>
        <time>2022-12-28T08:23:31Z</time>
      </trkpt>
      <trkpt lat="43.58101" lon="1.29122">
        <ele>193</ele>
        <time>2022-12-28T08:23:32Z</time>
      </trkpt>
      <trkpt lat="43.58094" lon="1.29063">
        <ele>193</ele>
        <time>2022-12-28T08:23:39Z</time>
      </trkpt>
      <trkpt lat="43.5809" lon="1.29011">
        <ele>192.8</ele>
        <time>2022-12-28T08:23:47Z</time>
      </trkpt>
      <trkpt lat="43.58086" lon="1.28982">
        <ele>192.8</ele>
        <time>2022-12-28T08:23:53Z</time>
      </trkpt>
      <trkpt lat="43.5808" lon="1.28939">
        <ele>192.8</ele>
        <time>2022-12-28T08:23:59Z</time>
      </trkpt>
      <trkpt lat="43.58074" lon="1.2887">
        <ele>193</ele>
        <time>2022-12-28T08:24:08Z</time>
      </trkpt>
      <trkpt lat="43.58064" lon="1.28796">
        <ele>193.2</ele>
        <time>2022-12-28T08:24:17Z</time>
      </trkpt>
      <trkpt lat="43.58056" lon="1.28763">
        <ele>193.4</ele>
        <time>2022-12-28T08:24:21Z</time>
      </trkpt>
      <trkpt lat="43.58051" lon="1.2875">
        <ele>193.4</ele>
        <time>2022-12-28T08:24:23Z</time>
      </trkpt>
      <trkpt lat="43.58026" lon="1.28696">
        <ele>193.8</ele>
        <time>2022-12-28T08:24:31Z</time>
      </trkpt>
      <trkpt lat="43.58015" lon="1.28676">
        <ele>194</ele>
        <time>2022-12-28T08:24:34Z</time>
      </trkpt>
      <trkpt lat="43.57996" lon="1.28643">
        <ele>194.2</ele>
        <time>2022-12-28T08:24:39Z</time>
      </trkpt>
      <trkpt lat="43.57959" lon="1.28582">
        <ele>194.4</ele>
        <time>2022-12-28T08:24:49Z</time>
      </trkpt>
      <trkpt lat="43.57955" lon="1.28575">
        <ele>194.4</ele>
        <time>2022-12-28T08:24:50Z</time>
      </trkpt>
      <trkpt lat="43.57949" lon="1.28564">
        <ele>194.4</ele>
        <time>2022-12-28T08:24:52Z</time>
      </trkpt>
      <trkpt lat="43.5794" lon="1.28551">
        <ele>194.4</ele>
        <time>2022-12-28T08:24:55Z</time>
      </trkpt>
      <trkpt lat="43.57932" lon="1.28531">
        <ele>194.2</ele>
        <time>2022-12-28T08:25:00Z</time>
      </trkpt>
      <trkpt lat="43.57925" lon="1.28505">
        <ele>194.2</ele>
        <time>2022-12-28T08:25:05Z</time>
      </trkpt>
      <trkpt lat="43.5792" lon="1.28467">
        <ele>194</ele>
        <time>2022-12-28T08:25:10Z</time>
      </trkpt>
      <trkpt lat="43.57914" lon="1.28409">
        <ele>194</ele>
        <time>2022-12-28T08:25:17Z</time>
      </trkpt>
      <trkpt lat="43.57906" lon="1.28345">
        <ele>194.4</ele>
        <time>2022-12-28T08:25:25Z</time>
      </trkpt>
      <trkpt lat="43.57896" lon="1.28266">
        <ele>194.4</ele>
        <time>2022-12-28T08:25:34Z</time>
      </trkpt>
      <trkpt lat="43.57895" lon="1.28257">
        <ele>194.4</ele>
        <time>2022-12-28T08:25:35Z</time>
      </trkpt>
      <trkpt lat="43.57885" lon="1.28181">
        <ele>194.2</ele>
        <time>2022-12-28T08:25:44Z</time>
      </trkpt>
      <trkpt lat="43.57883" lon="1.28166">
        <ele>194.2</ele>
        <time>2022-12-28T08:25:46Z</time>
      </trkpt>
      <trkpt lat="43.57873" lon="1.28088">
        <ele>194.4</ele>
        <time>2022-12-28T08:25:55Z</time>
      </trkpt>
      <trkpt lat="43.57871" lon="1.28073">
        <ele>194.6</ele>
        <time>2022-12-28T08:25:57Z</time>
      </trkpt>
      <trkpt lat="43.57868" lon="1.28045">
        <ele>194.6</ele>
        <time>2022-12-28T08:26:00Z</time>
      </trkpt>
      <trkpt lat="43.5787" lon="1.28028">
        <ele>194.6</ele>
        <time>2022-12-28T08:26:02Z</time>
      </trkpt>
      <trkpt lat="43.57872" lon="1.2802">
        <ele>194.6</ele>
        <time>2022-12-28T08:26:03Z</time>
      </trkpt>
      <trkpt lat="43.57887" lon="1.27964">
        <ele>194.4</ele>
        <time>2022-12-28T08:26:10Z</time>
      </trkpt>
      <trkpt lat="43.57898" lon="1.27906">
        <ele>194.6</ele>
        <time>2022-12-28T08:26:17Z</time>
      </trkpt>
      <trkpt lat="43.57903" lon="1.27879">
        <ele>194.4</ele>
        <time>2022-12-28T08:26:20Z</time>
      </trkpt>
      <trkpt lat="43.5791" lon="1.27837">
        <ele>194.4</ele>
        <time>2022-12-28T08:26:25Z</time>
      </trkpt>
      <trkpt lat="43.57921" lon="1.27761">
        <ele>194.4</ele>
        <time>2022-12-28T08:26:34Z</time>
      </trkpt>
      <trkpt lat="43.57932" lon="1.27684">
        <ele>194.6</ele>
        <time>2022-12-28T08:26:43Z</time>
      </trkpt>
      <trkpt lat="43.57947" lon="1.27612">
        <ele>194.6</ele>
        <time>2022-12-28T08:26:51Z</time>
      </trkpt>
      <trkpt lat="43.57952" lon="1.27585">
        <ele>194.4</ele>
        <time>2022-12-28T08:26:54Z</time>
      </trkpt>
      <trkpt lat="43.57962" lon="1.27511">
        <ele>194.2</ele>
        <time>2022-12-28T08:27:02Z</time>
      </trkpt>
      <trkpt lat="43.57974" lon="1.27437">
        <ele>194.2</ele>
        <time>2022-12-28T08:27:10Z</time>
      </trkpt>
      <trkpt lat="43.57984" lon="1.27358">
        <ele>194.2</ele>
        <time>2022-12-28T08:27:19Z</time>
      </trkpt>
      <trkpt lat="43.57985" lon="1.2735">
        <ele>194.2</ele>
        <time>2022-12-28T08:27:20Z</time>
      </trkpt>
      <trkpt lat="43.5799" lon="1.27311">
        <ele>194.4</ele>
        <time>2022-12-28T08:27:26Z</time>
      </trkpt>
      <trkpt lat="43.5799" lon="1.27302">
        <ele>194.4</ele>
        <time>2022-12-28T08:27:30Z</time>
      </trkpt>
      <trkpt lat="43.57979" lon="1.27297">
        <ele>194.2</ele>
        <time>2022-12-28T08:27:33Z</time>
      </trkpt>
      <trkpt lat="43.57943" lon="1.27291">
        <ele>194.2</ele>
        <time>2022-12-28T08:27:40Z</time>
      </trkpt>
      <trkpt lat="43.57898" lon="1.27281">
        <ele>194.4</ele>
        <time>2022-12-28T08:27:48Z</time>
      </trkpt>
      <trkpt lat="43.57848" lon="1.27272">
        <ele>195</ele>
        <time>2022-12-28T08:27:57Z</time>
      </trkpt>
      <trkpt lat="43.57832" lon="1.27268">
        <ele>195</ele>
        <time>2022-12-28T08:28:00Z</time>
      </trkpt>
      <trkpt lat="43.57822" lon="1.27266">
        <ele>195.2</ele>
        <time>2022-12-28T08:28:02Z</time>
      </trkpt>
      <trkpt lat="43.57815" lon="1.27262">
        <ele>195.2</ele>
        <time>2022-12-28T08:28:04Z</time>
      </trkpt>
      <trkpt lat="43.57799" lon="1.27249">
        <ele>195.2</ele>
        <time>2022-12-28T08:28:09Z</time>
      </trkpt>
      <trkpt lat="43.57773" lon="1.27242">
        <ele>195.2</ele>
        <time>2022-12-28T08:28:18Z</time>
      </trkpt>
      <trkpt lat="43.5777" lon="1.27241">
        <ele>195.2</ele>
        <time>2022-12-28T08:28:20Z</time>
      </trkpt>
      <trkpt lat="43.57766" lon="1.27242">
        <ele>195</ele>
        <time>2022-12-28T08:28:23Z</time>
      </trkpt>
      <trkpt lat="43.57766" lon="1.27241">
        <ele>195</ele>
        <time>2022-12-28T08:28:24Z</time>
      </trkpt>
      <trkpt lat="43.57766" lon="1.27238">
        <ele>195</ele>
        <time>2022-12-28T08:28:26Z</time>
      </trkpt>
      <trkpt lat="43.57765" lon="1.27237">
        <ele>195</ele>
        <time>2022-12-28T08:28:27Z</time>
      </trkpt>
      <trkpt lat="43.57764" lon="1.27238">
        <ele>194.8</ele>
        <time>2022-12-28T08:28:29Z</time>
      </trkpt>
      <trkpt lat="43.57764" lon="1.27239">
        <ele>194.8</ele>
        <time>2022-12-28T08:28:31Z</time>
      </trkpt>
      <trkpt lat="43.57762" lon="1.27234">
        <ele>194.2</ele>
        <time>2022-12-28T08:34:39Z</time>
      </trkpt>
      <trkpt lat="43.57761" lon="1.27232">
        <ele>194.2</ele>
        <time>2022-12-28T08:34:42Z</time>
      </trkpt>
      <trkpt lat="43.57751" lon="1.27231">
        <ele>194</ele>
        <time>2022-12-28T08:34:47Z</time>
      </trkpt>
      <trkpt lat="43.57743" lon="1.27216">
        <ele>194</ele>
        <time>2022-12-28T08:34:51Z</time>
      </trkpt>
      <trkpt lat="43.57737" lon="1.27192">
        <ele>193.8</ele>
        <time>2022-12-28T08:34:54Z</time>
      </trkpt>
      <trkpt lat="43.57733" lon="1.27182">
        <ele>193.8</ele>
        <time>2022-12-28T08:34:55Z</time>
      </trkpt>
      <trkpt lat="43.57728" lon="1.27176">
        <ele>193.6</ele>
        <time>2022-12-28T08:34:56Z</time>
      </trkpt>
      <trkpt lat="43.57713" lon="1.27158">
        <ele>193</ele>
        <time>2022-12-28T08:34:58Z</time>
      </trkpt>
      <trkpt lat="43.57698" lon="1.27142">
        <ele>191.8</ele>
        <time>2022-12-28T08:35:00Z</time>
      </trkpt>
      <trkpt lat="43.57671" lon="1.27119">
        <ele>191</ele>
        <time>2022-12-28T08:35:03Z</time>
      </trkpt>
      <trkpt lat="43.57662" lon="1.27112">
        <ele>190.4</ele>
        <time>2022-12-28T08:35:04Z</time>
      </trkpt>
      <trkpt lat="43.57649" lon="1.271">
        <ele>188.8</ele>
        <time>2022-12-28T08:35:06Z</time>
      </trkpt>
      <trkpt lat="43.57636" lon="1.27086">
        <ele>186.6</ele>
        <time>2022-12-28T08:35:08Z</time>
      </trkpt>
      <trkpt lat="43.57627" lon="1.27071">
        <ele>184.8</ele>
        <time>2022-12-28T08:35:10Z</time>
      </trkpt>
      <trkpt lat="43.57623" lon="1.27061">
        <ele>184</ele>
        <time>2022-12-28T08:35:11Z</time>
      </trkpt>
      <trkpt lat="43.57621" lon="1.27048">
        <ele>183.8</ele>
        <time>2022-12-28T08:35:12Z</time>
      </trkpt>
      <trkpt lat="43.57621" lon="1.27036">
        <ele>183</ele>
        <time>2022-12-28T08:35:13Z</time>
      </trkpt>
      <trkpt lat="43.57624" lon="1.27016">
        <ele>181.4</ele>
        <time>2022-12-28T08:35:15Z</time>
      </trkpt>
      <trkpt lat="43.57626" lon="1.27006">
        <ele>180.8</ele>
        <time>2022-12-28T08:35:16Z</time>
      </trkpt>
      <trkpt lat="43.57627" lon="1.26996">
        <ele>180</ele>
        <time>2022-12-28T08:35:17Z</time>
      </trkpt>
      <trkpt lat="43.57629" lon="1.26987">
        <ele>179.6</ele>
        <time>2022-12-28T08:35:18Z</time>
      </trkpt>
      <trkpt lat="43.57631" lon="1.26979">
        <ele>178.8</ele>
        <time>2022-12-28T08:35:19Z</time>
      </trkpt>
      <trkpt lat="43.57638" lon="1.26965">
        <ele>177.4</ele>
        <time>2022-12-28T08:35:21Z</time>
      </trkpt>
      <trkpt lat="43.57644" lon="1.26955">
        <ele>176.8</ele>
        <time>2022-12-28T08:35:22Z</time>
      </trkpt>
      <trkpt lat="43.57652" lon="1.26938">
        <ele>176</ele>
        <time>2022-12-28T08:35:24Z</time>
      </trkpt>
      <trkpt lat="43.57666" lon="1.26907">
        <ele>175.4</ele>
        <time>2022-12-28T08:35:27Z</time>
      </trkpt>
      <trkpt lat="43.57673" lon="1.26889">
        <ele>175.2</ele>
        <time>2022-12-28T08:35:29Z</time>
      </trkpt>
      <trkpt lat="43.57678" lon="1.2688">
        <ele>175</ele>
        <time>2022-12-28T08:35:30Z</time>
      </trkpt>
      <trkpt lat="43.57683" lon="1.26869">
        <ele>174.8</ele>
        <time>2022-12-28T08:35:31Z</time>
      </trkpt>
      <trkpt lat="43.5769" lon="1.26853">
        <ele>174.6</ele>
        <time>2022-12-28T08:35:33Z</time>
      </trkpt>
      <trkpt lat="43.57695" lon="1.26836">
        <ele>174.4</ele>
        <time>2022-12-28T08:35:35Z</time>
      </trkpt>
      <trkpt lat="43.57708" lon="1.26808">
        <ele>174.2</ele>
        <time>2022-12-28T08:35:39Z</time>
      </trkpt>
      <trkpt lat="43.57722" lon="1.26786">
        <ele>174.2</ele>
        <time>2022-12-28T08:35:43Z</time>
      </trkpt>
      <trkpt lat="43.5773" lon="1.26775">
        <ele>174.2</ele>
        <time>2022-12-28T08:35:45Z</time>
      </trkpt>
      <trkpt lat="43.57757" lon="1.26747">
        <ele>174.4</ele>
        <time>2022-12-28T08:35:52Z</time>
      </trkpt>
      <trkpt lat="43.57766" lon="1.26739">
        <ele>174.4</ele>
        <time>2022-12-28T08:35:54Z</time>
      </trkpt>
      <trkpt lat="43.57784" lon="1.26731">
        <ele>174.6</ele>
        <time>2022-12-28T08:35:58Z</time>
      </trkpt>
      <trkpt lat="43.57796" lon="1.26727">
        <ele>174.6</ele>
        <time>2022-12-28T08:36:00Z</time>
      </trkpt>
      <trkpt lat="43.57823" lon="1.26725">
        <ele>174.6</ele>
        <time>2022-12-28T08:36:05Z</time>
      </trkpt>
      <trkpt lat="43.57871" lon="1.2673">
        <ele>174.4</ele>
        <time>2022-12-28T08:36:14Z</time>
      </trkpt>
      <trkpt lat="43.57905" lon="1.26736">
        <ele>174</ele>
        <time>2022-12-28T08:36:21Z</time>
      </trkpt>
      <trkpt lat="43.5791" lon="1.26736">
        <ele>174</ele>
        <time>2022-12-28T08:36:22Z</time>
      </trkpt>
      <trkpt lat="43.57944" lon="1.2674">
        <ele>174</ele>
        <time>2022-12-28T08:36:28Z</time>
      </trkpt>
      <trkpt lat="43.57965" lon="1.26742">
        <ele>174</ele>
        <time>2022-12-28T08:36:32Z</time>
      </trkpt>
      <trkpt lat="43.57976" lon="1.26738">
        <ele>174.2</ele>
        <time>2022-12-28T08:36:34Z</time>
      </trkpt>
      <trkpt lat="43.57997" lon="1.26724">
        <ele>174.2</ele>
        <time>2022-12-28T08:36:39Z</time>
      </trkpt>
      <trkpt lat="43.58008" lon="1.26723">
        <ele>174.4</ele>
        <time>2022-12-28T08:36:42Z</time>
      </trkpt>
      <trkpt lat="43.58012" lon="1.26721">
        <ele>174.4</ele>
        <time>2022-12-28T08:36:43Z</time>
      </trkpt>
      <trkpt lat="43.58015" lon="1.26717">
        <ele>174.4</ele>
        <time>2022-12-28T08:36:44Z</time>
      </trkpt>
      <trkpt lat="43.58018" lon="1.26707">
        <ele>174.4</ele>
        <time>2022-12-28T08:36:46Z</time>
      </trkpt>
      <trkpt lat="43.5802" lon="1.26701">
        <ele>174.4</ele>
        <time>2022-12-28T08:36:47Z</time>
      </trkpt>
      <trkpt lat="43.58032" lon="1.26671">
        <ele>174.4</ele>
        <time>2022-12-28T08:36:52Z</time>
      </trkpt>
      <trkpt lat="43.58046" lon="1.26634">
        <ele>174.8</ele>
        <time>2022-12-28T08:36:58Z</time>
      </trkpt>
      <trkpt lat="43.58056" lon="1.26611">
        <ele>175</ele>
        <time>2022-12-28T08:37:02Z</time>
      </trkpt>
      <trkpt lat="43.5806" lon="1.26605">
        <ele>175.2</ele>
        <time>2022-12-28T08:37:04Z</time>
      </trkpt>
      <trkpt lat="43.58061" lon="1.26602">
        <ele>175.2</ele>
        <time>2022-12-28T08:37:05Z</time>
      </trkpt>
      <trkpt lat="43.58061" lon="1.266">
        <ele>175.2</ele>
        <time>2022-12-28T08:37:07Z</time>
      </trkpt>
      <trkpt lat="43.58061" lon="1.266">
        <ele>175.4</ele>
        <time>2022-12-28T08:37:09Z</time>
      </trkpt>
      <trkpt lat="43.58063" lon="1.26592">
        <ele>175.2</ele>
        <time>2022-12-28T08:37:15Z</time>
      </trkpt>
      <trkpt lat="43.58064" lon="1.26589">
        <ele>175.2</ele>
        <time>2022-12-28T08:37:16Z</time>
      </trkpt>
      <trkpt lat="43.58072" lon="1.26568">
        <ele>175.2</ele>
        <time>2022-12-28T08:37:21Z</time>
      </trkpt>
      <trkpt lat="43.58084" lon="1.26537">
        <ele>175.6</ele>
        <time>2022-12-28T08:37:27Z</time>
      </trkpt>
      <trkpt lat="43.58091" lon="1.26522">
        <ele>176</ele>
        <time>2022-12-28T08:37:30Z</time>
      </trkpt>
      <trkpt lat="43.58108" lon="1.26478">
        <ele>176.8</ele>
        <time>2022-12-28T08:37:38Z</time>
      </trkpt>
      <trkpt lat="43.5811" lon="1.26473">
        <ele>176.8</ele>
        <time>2022-12-28T08:37:39Z</time>
      </trkpt>
      <trkpt lat="43.58115" lon="1.26464">
        <ele>177.2</ele>
        <time>2022-12-28T08:37:41Z</time>
      </trkpt>
      <trkpt lat="43.58126" lon="1.26439">
        <ele>178.2</ele>
        <time>2022-12-28T08:37:46Z</time>
      </trkpt>
      <trkpt lat="43.58139" lon="1.26407">
        <ele>179.4</ele>
        <time>2022-12-28T08:37:52Z</time>
      </trkpt>
      <trkpt lat="43.58143" lon="1.26398">
        <ele>180</ele>
        <time>2022-12-28T08:37:54Z</time>
      </trkpt>
      <trkpt lat="43.58147" lon="1.26387">
        <ele>180.8</ele>
        <time>2022-12-28T08:37:56Z</time>
      </trkpt>
      <trkpt lat="43.58156" lon="1.26364">
        <ele>182.2</ele>
        <time>2022-12-28T08:38:01Z</time>
      </trkpt>
      <trkpt lat="43.5816" lon="1.26354">
        <ele>182.6</ele>
        <time>2022-12-28T08:38:03Z</time>
      </trkpt>
      <trkpt lat="43.58167" lon="1.26335">
        <ele>183.4</ele>
        <time>2022-12-28T08:38:07Z</time>
      </trkpt>
      <trkpt lat="43.58174" lon="1.26312">
        <ele>184.6</ele>
        <time>2022-12-28T08:38:12Z</time>
      </trkpt>
      <trkpt lat="43.58176" lon="1.26309">
        <ele>184.8</ele>
        <time>2022-12-28T08:38:13Z</time>
      </trkpt>
      <trkpt lat="43.58182" lon="1.26297">
        <ele>185.8</ele>
        <time>2022-12-28T08:38:16Z</time>
      </trkpt>
      <trkpt lat="43.58184" lon="1.26295">
        <ele>185.8</ele>
        <time>2022-12-28T08:38:17Z</time>
      </trkpt>
      <trkpt lat="43.58185" lon="1.26295">
        <ele>186.4</ele>
        <time>2022-12-28T08:38:18Z</time>
      </trkpt>
      <trkpt lat="43.58187" lon="1.26295">
        <ele>186.8</ele>
        <time>2022-12-28T08:38:19Z</time>
      </trkpt>
      <trkpt lat="43.58191" lon="1.26299">
        <ele>187.8</ele>
        <time>2022-12-28T08:38:21Z</time>
      </trkpt>
      <trkpt lat="43.58193" lon="1.26301">
        <ele>188</ele>
        <time>2022-12-28T08:38:22Z</time>
      </trkpt>
      <trkpt lat="43.58211" lon="1.2632">
        <ele>188.6</ele>
        <time>2022-12-28T08:38:28Z</time>
      </trkpt>
      <trkpt lat="43.58219" lon="1.26318">
        <ele>188.6</ele>
        <time>2022-12-28T08:38:30Z</time>
      </trkpt>
      <trkpt lat="43.58222" lon="1.26315">
        <ele>188.8</ele>
        <time>2022-12-28T08:38:31Z</time>
      </trkpt>
      <trkpt lat="43.58227" lon="1.26306">
        <ele>188.8</ele>
        <time>2022-12-28T08:38:33Z</time>
      </trkpt>
      <trkpt lat="43.58233" lon="1.2629">
        <ele>189</ele>
        <time>2022-12-28T08:38:36Z</time>
      </trkpt>
      <trkpt lat="43.58242" lon="1.26261">
        <ele>190</ele>
        <time>2022-12-28T08:38:42Z</time>
      </trkpt>
      <trkpt lat="43.58244" lon="1.26255">
        <ele>190.4</ele>
        <time>2022-12-28T08:38:43Z</time>
      </trkpt>
      <trkpt lat="43.58248" lon="1.26242">
        <ele>191.2</ele>
        <time>2022-12-28T08:38:46Z</time>
      </trkpt>
      <trkpt lat="43.58255" lon="1.26222">
        <ele>192</ele>
        <time>2022-12-28T08:38:50Z</time>
      </trkpt>
      <trkpt lat="43.58256" lon="1.26218">
        <ele>192.4</ele>
        <time>2022-12-28T08:38:51Z</time>
      </trkpt>
      <trkpt lat="43.58265" lon="1.26187">
        <ele>193.2</ele>
        <time>2022-12-28T08:38:57Z</time>
      </trkpt>
      <trkpt lat="43.58269" lon="1.26177">
        <ele>193.4</ele>
        <time>2022-12-28T08:38:59Z</time>
      </trkpt>
      <trkpt lat="43.58275" lon="1.26175">
        <ele>193.6</ele>
        <time>2022-12-28T08:39:01Z</time>
      </trkpt>
      <trkpt lat="43.58282" lon="1.26178">
        <ele>193.6</ele>
        <time>2022-12-28T08:39:03Z</time>
      </trkpt>
      <trkpt lat="43.58284" lon="1.26177">
        <ele>193.6</ele>
        <time>2022-12-28T08:39:04Z</time>
      </trkpt>
      <trkpt lat="43.58293" lon="1.26167">
        <ele>193.6</ele>
        <time>2022-12-28T08:39:09Z</time>
      </trkpt>
      <trkpt lat="43.58301" lon="1.26166">
        <ele>193.6</ele>
        <time>2022-12-28T08:39:11Z</time>
      </trkpt>
      <trkpt lat="43.58307" lon="1.26167">
        <ele>193.6</ele>
        <time>2022-12-28T08:39:12Z</time>
      </trkpt>
      <trkpt lat="43.58327" lon="1.26166">
        <ele>192.8</ele>
        <time>2022-12-28T08:39:16Z</time>
      </trkpt>
      <trkpt lat="43.58333" lon="1.26162">
        <ele>192.2</ele>
        <time>2022-12-28T08:39:17Z</time>
      </trkpt>
      <trkpt lat="43.58336" lon="1.26157">
        <ele>191.6</ele>
        <time>2022-12-28T08:39:18Z</time>
      </trkpt>
      <trkpt lat="43.58339" lon="1.26153">
        <ele>191.2</ele>
        <time>2022-12-28T08:39:19Z</time>
      </trkpt>
      <trkpt lat="43.58341" lon="1.26147">
        <ele>190.6</ele>
        <time>2022-12-28T08:39:20Z</time>
      </trkpt>
      <trkpt lat="43.58341" lon="1.26139">
        <ele>190.2</ele>
        <time>2022-12-28T08:39:21Z</time>
      </trkpt>
      <trkpt lat="43.5834" lon="1.26132">
        <ele>188.8</ele>
        <time>2022-12-28T08:39:22Z</time>
      </trkpt>
      <trkpt lat="43.5834" lon="1.26126">
        <ele>188.4</ele>
        <time>2022-12-28T08:39:23Z</time>
      </trkpt>
      <trkpt lat="43.58339" lon="1.26119">
        <ele>187.8</ele>
        <time>2022-12-28T08:39:24Z</time>
      </trkpt>
      <trkpt lat="43.58339" lon="1.26106">
        <ele>187.2</ele>
        <time>2022-12-28T08:39:26Z</time>
      </trkpt>
      <trkpt lat="43.58342" lon="1.26085">
        <ele>187.2</ele>
        <time>2022-12-28T08:39:30Z</time>
      </trkpt>
      <trkpt lat="43.58342" lon="1.26052">
        <ele>187.4</ele>
        <time>2022-12-28T08:39:35Z</time>
      </trkpt>
      <trkpt lat="43.58345" lon="1.2603">
        <ele>187.8</ele>
        <time>2022-12-28T08:39:38Z</time>
      </trkpt>
      <trkpt lat="43.58346" lon="1.2602">
        <ele>187.8</ele>
        <time>2022-12-28T08:39:39Z</time>
      </trkpt>
      <trkpt lat="43.58347" lon="1.26011">
        <ele>187.8</ele>
        <time>2022-12-28T08:39:40Z</time>
      </trkpt>
      <trkpt lat="43.58346" lon="1.26003">
        <ele>188</ele>
        <time>2022-12-28T08:39:41Z</time>
      </trkpt>
      <trkpt lat="43.58346" lon="1.25983">
        <ele>188.2</ele>
        <time>2022-12-28T08:39:44Z</time>
      </trkpt>
      <trkpt lat="43.58346" lon="1.2597">
        <ele>188.4</ele>
        <time>2022-12-28T08:39:46Z</time>
      </trkpt>
      <trkpt lat="43.58343" lon="1.25937">
        <ele>188.8</ele>
        <time>2022-12-28T08:39:51Z</time>
      </trkpt>
      <trkpt lat="43.58343" lon="1.2593">
        <ele>189</ele>
        <time>2022-12-28T08:39:52Z</time>
      </trkpt>
      <trkpt lat="43.58344" lon="1.25921">
        <ele>188.8</ele>
        <time>2022-12-28T08:39:53Z</time>
      </trkpt>
      <trkpt lat="43.58346" lon="1.259">
        <ele>189</ele>
        <time>2022-12-28T08:39:56Z</time>
      </trkpt>
      <trkpt lat="43.58347" lon="1.25894">
        <ele>189.2</ele>
        <time>2022-12-28T08:39:57Z</time>
      </trkpt>
      <trkpt lat="43.58348" lon="1.25869">
        <ele>189.4</ele>
        <time>2022-12-28T08:40:01Z</time>
      </trkpt>
      <trkpt lat="43.58345" lon="1.25862">
        <ele>189.4</ele>
        <time>2022-12-28T08:40:03Z</time>
      </trkpt>
      <trkpt lat="43.58343" lon="1.2586">
        <ele>189.6</ele>
        <time>2022-12-28T08:40:04Z</time>
      </trkpt>
      <trkpt lat="43.5833" lon="1.2585">
        <ele>190</ele>
        <time>2022-12-28T08:40:09Z</time>
      </trkpt>
      <trkpt lat="43.58319" lon="1.25837">
        <ele>190.6</ele>
        <time>2022-12-28T08:40:13Z</time>
      </trkpt>
      <trkpt lat="43.5831" lon="1.25829">
        <ele>191.4</ele>
        <time>2022-12-28T08:40:16Z</time>
      </trkpt>
      <trkpt lat="43.58304" lon="1.25826">
        <ele>191.8</ele>
        <time>2022-12-28T08:40:18Z</time>
      </trkpt>
      <trkpt lat="43.5829" lon="1.25814">
        <ele>192.6</ele>
        <time>2022-12-28T08:40:22Z</time>
      </trkpt>
      <trkpt lat="43.58286" lon="1.25811">
        <ele>192.8</ele>
        <time>2022-12-28T08:40:23Z</time>
      </trkpt>
      <trkpt lat="43.58273" lon="1.25793">
        <ele>193.8</ele>
        <time>2022-12-28T08:40:27Z</time>
      </trkpt>
      <trkpt lat="43.58265" lon="1.25785">
        <ele>193.8</ele>
        <time>2022-12-28T08:40:29Z</time>
      </trkpt>
      <trkpt lat="43.58252" lon="1.25769">
        <ele>194.4</ele>
        <time>2022-12-28T08:40:33Z</time>
      </trkpt>
      <trkpt lat="43.58228" lon="1.25753">
        <ele>194.8</ele>
        <time>2022-12-28T08:40:39Z</time>
      </trkpt>
      <trkpt lat="43.58224" lon="1.25749">
        <ele>195</ele>
        <time>2022-12-28T08:40:40Z</time>
      </trkpt>
      <trkpt lat="43.58201" lon="1.25729">
        <ele>195.2</ele>
        <time>2022-12-28T08:40:46Z</time>
      </trkpt>
      <trkpt lat="43.58195" lon="1.25721">
        <ele>195.2</ele>
        <time>2022-12-28T08:40:49Z</time>
      </trkpt>
      <trkpt lat="43.58196" lon="1.25718">
        <ele>195.2</ele>
        <time>2022-12-28T08:40:50Z</time>
      </trkpt>
      <trkpt lat="43.58198" lon="1.25708">
        <ele>195.2</ele>
        <time>2022-12-28T08:40:56Z</time>
      </trkpt>
      <trkpt lat="43.58203" lon="1.25696">
        <ele>195</ele>
        <time>2022-12-28T08:41:02Z</time>
      </trkpt>
      <trkpt lat="43.58208" lon="1.25675">
        <ele>195</ele>
        <time>2022-12-28T08:41:07Z</time>
      </trkpt>
      <trkpt lat="43.58216" lon="1.25657">
        <ele>195</ele>
        <time>2022-12-28T08:41:11Z</time>
      </trkpt>
      <trkpt lat="43.5823" lon="1.25624">
        <ele>195.2</ele>
        <time>2022-12-28T08:41:17Z</time>
      </trkpt>
      <trkpt lat="43.58234" lon="1.25613">
        <ele>195.4</ele>
        <time>2022-12-28T08:41:19Z</time>
      </trkpt>
      <trkpt lat="43.58245" lon="1.25592">
        <ele>195.4</ele>
        <time>2022-12-28T08:41:23Z</time>
      </trkpt>
      <trkpt lat="43.58258" lon="1.25565">
        <ele>195.6</ele>
        <time>2022-12-28T08:41:29Z</time>
      </trkpt>
      <trkpt lat="43.58262" lon="1.25561">
        <ele>195.6</ele>
        <time>2022-12-28T08:41:32Z</time>
      </trkpt>
      <trkpt lat="43.58266" lon="1.25559">
        <ele>195.6</ele>
        <time>2022-12-28T08:41:34Z</time>
      </trkpt>
      <trkpt lat="43.58272" lon="1.25551">
        <ele>195.6</ele>
        <time>2022-12-28T08:41:38Z</time>
      </trkpt>
      <trkpt lat="43.58276" lon="1.2553">
        <ele>195.4</ele>
        <time>2022-12-28T08:41:43Z</time>
      </trkpt>
      <trkpt lat="43.5829" lon="1.255">
        <ele>195.8</ele>
        <time>2022-12-28T08:41:49Z</time>
      </trkpt>
      <trkpt lat="43.58294" lon="1.25492">
        <ele>195.8</ele>
        <time>2022-12-28T08:41:51Z</time>
      </trkpt>
      <trkpt lat="43.58294" lon="1.25482">
        <ele>195.8</ele>
        <time>2022-12-28T08:41:53Z</time>
      </trkpt>
      <trkpt lat="43.58287" lon="1.25471">
        <ele>195.6</ele>
        <time>2022-12-28T08:41:56Z</time>
      </trkpt>
      <trkpt lat="43.58264" lon="1.25446">
        <ele>195.2</ele>
        <time>2022-12-28T08:42:03Z</time>
      </trkpt>
      <trkpt lat="43.58231" lon="1.25412">
        <ele>195.6</ele>
        <time>2022-12-28T08:42:12Z</time>
      </trkpt>
      <trkpt lat="43.58217" lon="1.25397">
        <ele>196</ele>
        <time>2022-12-28T08:42:16Z</time>
      </trkpt>
      <trkpt lat="43.58209" lon="1.25386">
        <ele>196.2</ele>
        <time>2022-12-28T08:42:19Z</time>
      </trkpt>
      <trkpt lat="43.58206" lon="1.25383">
        <ele>196.2</ele>
        <time>2022-12-28T08:42:20Z</time>
      </trkpt>
      <trkpt lat="43.58186" lon="1.25364">
        <ele>196.2</ele>
        <time>2022-12-28T08:42:26Z</time>
      </trkpt>
      <trkpt lat="43.58175" lon="1.25354">
        <ele>196.2</ele>
        <time>2022-12-28T08:42:29Z</time>
      </trkpt>
      <trkpt lat="43.58161" lon="1.25347">
        <ele>196.2</ele>
        <time>2022-12-28T08:42:32Z</time>
      </trkpt>
      <trkpt lat="43.58157" lon="1.25346">
        <ele>196.2</ele>
        <time>2022-12-28T08:42:33Z</time>
      </trkpt>
      <trkpt lat="43.58131" lon="1.25346">
        <ele>196.2</ele>
        <time>2022-12-28T08:42:38Z</time>
      </trkpt>
      <trkpt lat="43.58115" lon="1.25345">
        <ele>196</ele>
        <time>2022-12-28T08:42:41Z</time>
      </trkpt>
      <trkpt lat="43.58107" lon="1.25342">
        <ele>196</ele>
        <time>2022-12-28T08:42:43Z</time>
      </trkpt>
      <trkpt lat="43.58087" lon="1.25323">
        <ele>195.6</ele>
        <time>2022-12-28T08:42:48Z</time>
      </trkpt>
      <trkpt lat="43.58069" lon="1.2531">
        <ele>195.8</ele>
        <time>2022-12-28T08:42:52Z</time>
      </trkpt>
      <trkpt lat="43.58059" lon="1.25307">
        <ele>195.8</ele>
        <time>2022-12-28T08:42:54Z</time>
      </trkpt>
      <trkpt lat="43.58023" lon="1.25314">
        <ele>196.2</ele>
        <time>2022-12-28T08:43:02Z</time>
      </trkpt>
      <trkpt lat="43.5801" lon="1.25317">
        <ele>196</ele>
        <time>2022-12-28T08:43:06Z</time>
      </trkpt>
      <trkpt lat="43.57987" lon="1.25323">
        <ele>195.8</ele>
        <time>2022-12-28T08:43:11Z</time>
      </trkpt>
      <trkpt lat="43.57982" lon="1.25323">
        <ele>195.8</ele>
        <time>2022-12-28T08:43:12Z</time>
      </trkpt>
      <trkpt lat="43.57971" lon="1.25317">
        <ele>195.6</ele>
        <time>2022-12-28T08:43:14Z</time>
      </trkpt>
      <trkpt lat="43.57937" lon="1.25288">
        <ele>195.8</ele>
        <time>2022-12-28T08:43:21Z</time>
      </trkpt>
      <trkpt lat="43.57908" lon="1.25267">
        <ele>195</ele>
        <time>2022-12-28T08:43:26Z</time>
      </trkpt>
      <trkpt lat="43.57884" lon="1.25242">
        <ele>194</ele>
        <time>2022-12-28T08:43:31Z</time>
      </trkpt>
      <trkpt lat="43.57875" lon="1.25241">
        <ele>193.4</ele>
        <time>2022-12-28T08:43:33Z</time>
      </trkpt>
      <trkpt lat="43.57872" lon="1.25243">
        <ele>193.4</ele>
        <time>2022-12-28T08:43:34Z</time>
      </trkpt>
      <trkpt lat="43.57868" lon="1.25247">
        <ele>193.2</ele>
        <time>2022-12-28T08:43:35Z</time>
      </trkpt>
      <trkpt lat="43.57856" lon="1.25267">
        <ele>193</ele>
        <time>2022-12-28T08:43:38Z</time>
      </trkpt>
      <trkpt lat="43.57832" lon="1.25294">
        <ele>192.6</ele>
        <time>2022-12-28T08:43:43Z</time>
      </trkpt>
      <trkpt lat="43.57828" lon="1.25298">
        <ele>192.4</ele>
        <time>2022-12-28T08:43:44Z</time>
      </trkpt>
      <trkpt lat="43.57823" lon="1.25302">
        <ele>192.4</ele>
        <time>2022-12-28T08:43:45Z</time>
      </trkpt>
      <trkpt lat="43.57809" lon="1.25305">
        <ele>192.2</ele>
        <time>2022-12-28T08:43:47Z</time>
      </trkpt>
      <trkpt lat="43.57778" lon="1.25307">
        <ele>192</ele>
        <time>2022-12-28T08:43:52Z</time>
      </trkpt>
      <trkpt lat="43.57773" lon="1.25306">
        <ele>192</ele>
        <time>2022-12-28T08:43:53Z</time>
      </trkpt>
      <trkpt lat="43.57762" lon="1.253">
        <ele>192.2</ele>
        <time>2022-12-28T08:43:55Z</time>
      </trkpt>
      <trkpt lat="43.57754" lon="1.25293">
        <ele>192.2</ele>
        <time>2022-12-28T08:43:57Z</time>
      </trkpt>
      <trkpt lat="43.57745" lon="1.25291">
        <ele>193</ele>
        <time>2022-12-28T08:43:59Z</time>
      </trkpt>
      <trkpt lat="43.57733" lon="1.25291">
        <ele>193.4</ele>
        <time>2022-12-28T08:44:01Z</time>
      </trkpt>
      <trkpt lat="43.57724" lon="1.25292">
        <ele>194</ele>
        <time>2022-12-28T08:44:03Z</time>
      </trkpt>
      <trkpt lat="43.57718" lon="1.2529">
        <ele>194.2</ele>
        <time>2022-12-28T08:44:04Z</time>
      </trkpt>
      <trkpt lat="43.57712" lon="1.25287">
        <ele>194.4</ele>
        <time>2022-12-28T08:44:05Z</time>
      </trkpt>
      <trkpt lat="43.57707" lon="1.25285">
        <ele>194.6</ele>
        <time>2022-12-28T08:44:06Z</time>
      </trkpt>
      <trkpt lat="43.57686" lon="1.25266">
        <ele>195.2</ele>
        <time>2022-12-28T08:44:11Z</time>
      </trkpt>
      <trkpt lat="43.57677" lon="1.2526">
        <ele>195.4</ele>
        <time>2022-12-28T08:44:13Z</time>
      </trkpt>
      <trkpt lat="43.57649" lon="1.25232">
        <ele>195.6</ele>
        <time>2022-12-28T08:44:19Z</time>
      </trkpt>
      <trkpt lat="43.57645" lon="1.25225">
        <ele>195.6</ele>
        <time>2022-12-28T08:44:20Z</time>
      </trkpt>
      <trkpt lat="43.57639" lon="1.25213">
        <ele>195.4</ele>
        <time>2022-12-28T08:44:22Z</time>
      </trkpt>
      <trkpt lat="43.57636" lon="1.25198">
        <ele>195</ele>
        <time>2022-12-28T08:44:24Z</time>
      </trkpt>
      <trkpt lat="43.57633" lon="1.25162">
        <ele>194.2</ele>
        <time>2022-12-28T08:44:29Z</time>
      </trkpt>
      <trkpt lat="43.57631" lon="1.25148">
        <ele>194</ele>
        <time>2022-12-28T08:44:31Z</time>
      </trkpt>
      <trkpt lat="43.57624" lon="1.25091">
        <ele>193.8</ele>
        <time>2022-12-28T08:44:38Z</time>
      </trkpt>
      <trkpt lat="43.57619" lon="1.25069">
        <ele>193.4</ele>
        <time>2022-12-28T08:44:42Z</time>
      </trkpt>
      <trkpt lat="43.57617" lon="1.25046">
        <ele>193.4</ele>
        <time>2022-12-28T08:44:46Z</time>
      </trkpt>
      <trkpt lat="43.57617" lon="1.25038">
        <ele>193.4</ele>
        <time>2022-12-28T08:44:47Z</time>
      </trkpt>
      <trkpt lat="43.57616" lon="1.2503">
        <ele>193.4</ele>
        <time>2022-12-28T08:44:48Z</time>
      </trkpt>
      <trkpt lat="43.57613" lon="1.24997">
        <ele>193.6</ele>
        <time>2022-12-28T08:44:52Z</time>
      </trkpt>
      <trkpt lat="43.57608" lon="1.24971">
        <ele>193.8</ele>
        <time>2022-12-28T08:44:56Z</time>
      </trkpt>
      <trkpt lat="43.576" lon="1.24959">
        <ele>194</ele>
        <time>2022-12-28T08:44:58Z</time>
      </trkpt>
      <trkpt lat="43.57573" lon="1.24936">
        <ele>194.2</ele>
        <time>2022-12-28T08:45:04Z</time>
      </trkpt>
      <trkpt lat="43.5757" lon="1.2493">
        <ele>194.2</ele>
        <time>2022-12-28T08:45:05Z</time>
      </trkpt>
      <trkpt lat="43.57568" lon="1.24922">
        <ele>194.2</ele>
        <time>2022-12-28T08:45:06Z</time>
      </trkpt>
      <trkpt lat="43.5756" lon="1.24897">
        <ele>194.4</ele>
        <time>2022-12-28T08:45:10Z</time>
      </trkpt>
      <trkpt lat="43.57552" lon="1.24872">
        <ele>194.4</ele>
        <time>2022-12-28T08:45:14Z</time>
      </trkpt>
      <trkpt lat="43.57544" lon="1.24861">
        <ele>194.6</ele>
        <time>2022-12-28T08:45:16Z</time>
      </trkpt>
      <trkpt lat="43.57541" lon="1.24855">
        <ele>194.6</ele>
        <time>2022-12-28T08:45:17Z</time>
      </trkpt>
      <trkpt lat="43.57537" lon="1.24845">
        <ele>194.6</ele>
        <time>2022-12-28T08:45:19Z</time>
      </trkpt>
      <trkpt lat="43.57536" lon="1.24837">
        <ele>194.6</ele>
        <time>2022-12-28T08:45:20Z</time>
      </trkpt>
      <trkpt lat="43.57535" lon="1.24831">
        <ele>194.6</ele>
        <time>2022-12-28T08:45:21Z</time>
      </trkpt>
      <trkpt lat="43.57529" lon="1.24814">
        <ele>194.8</ele>
        <time>2022-12-28T08:45:24Z</time>
      </trkpt>
      <trkpt lat="43.57527" lon="1.24807">
        <ele>194.8</ele>
        <time>2022-12-28T08:45:25Z</time>
      </trkpt>
      <trkpt lat="43.5752" lon="1.24791">
        <ele>194.8</ele>
        <time>2022-12-28T08:45:28Z</time>
      </trkpt>
      <trkpt lat="43.57515" lon="1.24772">
        <ele>194.2</ele>
        <time>2022-12-28T08:45:31Z</time>
      </trkpt>
      <trkpt lat="43.57509" lon="1.24748">
        <ele>194.8</ele>
        <time>2022-12-28T08:45:35Z</time>
      </trkpt>
      <trkpt lat="43.57508" lon="1.24738">
        <ele>195</ele>
        <time>2022-12-28T08:45:37Z</time>
      </trkpt>
      <trkpt lat="43.57501" lon="1.24715">
        <ele>195.2</ele>
        <time>2022-12-28T08:45:41Z</time>
      </trkpt>
      <trkpt lat="43.57493" lon="1.24705">
        <ele>195.2</ele>
        <time>2022-12-28T08:45:43Z</time>
      </trkpt>
      <trkpt lat="43.57488" lon="1.24694">
        <ele>195.2</ele>
        <time>2022-12-28T08:45:46Z</time>
      </trkpt>
      <trkpt lat="43.57487" lon="1.2469">
        <ele>195.4</ele>
        <time>2022-12-28T08:45:47Z</time>
      </trkpt>
      <trkpt lat="43.57484" lon="1.24687">
        <ele>195.4</ele>
        <time>2022-12-28T08:45:50Z</time>
      </trkpt>
      <trkpt lat="43.57482" lon="1.24687">
        <ele>195.4</ele>
        <time>2022-12-28T08:45:53Z</time>
      </trkpt>
      <trkpt lat="43.57479" lon="1.24688">
        <ele>195.4</ele>
        <time>2022-12-28T08:45:55Z</time>
      </trkpt>
      <trkpt lat="43.57472" lon="1.24693">
        <ele>195.4</ele>
        <time>2022-12-28T08:45:58Z</time>
      </trkpt>
      <trkpt lat="43.57469" lon="1.24693">
        <ele>195.4</ele>
        <time>2022-12-28T08:45:59Z</time>
      </trkpt>
      <trkpt lat="43.57449" lon="1.24685">
        <ele>195.6</ele>
        <time>2022-12-28T08:46:04Z</time>
      </trkpt>
      <trkpt lat="43.57421" lon="1.24671">
        <ele>196</ele>
        <time>2022-12-28T08:46:11Z</time>
      </trkpt>
      <trkpt lat="43.57409" lon="1.24665">
        <ele>196.2</ele>
        <time>2022-12-28T08:46:14Z</time>
      </trkpt>
      <trkpt lat="43.57383" lon="1.24654">
        <ele>196.8</ele>
        <time>2022-12-28T08:46:20Z</time>
      </trkpt>
      <trkpt lat="43.57378" lon="1.24652">
        <ele>196.8</ele>
        <time>2022-12-28T08:46:21Z</time>
      </trkpt>
      <trkpt lat="43.57374" lon="1.24653">
        <ele>196.8</ele>
        <time>2022-12-28T08:46:22Z</time>
      </trkpt>
      <trkpt lat="43.57366" lon="1.24656">
        <ele>197</ele>
        <time>2022-12-28T08:46:24Z</time>
      </trkpt>
      <trkpt lat="43.57347" lon="1.24651">
        <ele>197</ele>
        <time>2022-12-28T08:46:28Z</time>
      </trkpt>
      <trkpt lat="43.5732" lon="1.24633">
        <ele>197</ele>
        <time>2022-12-28T08:46:34Z</time>
      </trkpt>
      <trkpt lat="43.57277" lon="1.24605">
        <ele>197.4</ele>
        <time>2022-12-28T08:46:44Z</time>
      </trkpt>
      <trkpt lat="43.57272" lon="1.24604">
        <ele>197.4</ele>
        <time>2022-12-28T08:46:45Z</time>
      </trkpt>
      <trkpt lat="43.57265" lon="1.24608">
        <ele>197.4</ele>
        <time>2022-12-28T08:46:47Z</time>
      </trkpt>
      <trkpt lat="43.57262" lon="1.24613">
        <ele>197.4</ele>
        <time>2022-12-28T08:46:48Z</time>
      </trkpt>
      <trkpt lat="43.5726" lon="1.24619">
        <ele>197.4</ele>
        <time>2022-12-28T08:46:49Z</time>
      </trkpt>
      <trkpt lat="43.57253" lon="1.24623">
        <ele>197.4</ele>
        <time>2022-12-28T08:46:51Z</time>
      </trkpt>
      <trkpt lat="43.57223" lon="1.24616">
        <ele>197.6</ele>
        <time>2022-12-28T08:46:58Z</time>
      </trkpt>
      <trkpt lat="43.57218" lon="1.24617">
        <ele>197.8</ele>
        <time>2022-12-28T08:46:59Z</time>
      </trkpt>
      <trkpt lat="43.57201" lon="1.24626">
        <ele>197.8</ele>
        <time>2022-12-28T08:47:04Z</time>
      </trkpt>
      <trkpt lat="43.57194" lon="1.24628">
        <ele>197.8</ele>
        <time>2022-12-28T08:47:07Z</time>
      </trkpt>
      <trkpt lat="43.57192" lon="1.24627">
        <ele>197.8</ele>
        <time>2022-12-28T08:47:08Z</time>
      </trkpt>
      <trkpt lat="43.57172" lon="1.24623">
        <ele>197.6</ele>
        <time>2022-12-28T08:47:14Z</time>
      </trkpt>
      <trkpt lat="43.57145" lon="1.24617">
        <ele>197.6</ele>
        <time>2022-12-28T08:47:21Z</time>
      </trkpt>
      <trkpt lat="43.57109" lon="1.24609">
        <ele>197.8</ele>
        <time>2022-12-28T08:47:29Z</time>
      </trkpt>
      <trkpt lat="43.57073" lon="1.24603">
        <ele>197.6</ele>
        <time>2022-12-28T08:47:37Z</time>
      </trkpt>
      <trkpt lat="43.57069" lon="1.24604">
        <ele>197.6</ele>
        <time>2022-12-28T08:47:38Z</time>
      </trkpt>
      <trkpt lat="43.57065" lon="1.24598">
        <ele>197.6</ele>
        <time>2022-12-28T08:47:40Z</time>
      </trkpt>
      <trkpt lat="43.57061" lon="1.24585">
        <ele>197.4</ele>
        <time>2022-12-28T08:47:43Z</time>
      </trkpt>
      <trkpt lat="43.57058" lon="1.24581">
        <ele>197.4</ele>
        <time>2022-12-28T08:47:44Z</time>
      </trkpt>
      <trkpt lat="43.57035" lon="1.24561">
        <ele>198</ele>
        <time>2022-12-28T08:47:50Z</time>
      </trkpt>
      <trkpt lat="43.57031" lon="1.24551">
        <ele>198.2</ele>
        <time>2022-12-28T08:47:52Z</time>
      </trkpt>
      <trkpt lat="43.5703" lon="1.24545">
        <ele>198.4</ele>
        <time>2022-12-28T08:47:53Z</time>
      </trkpt>
      <trkpt lat="43.57029" lon="1.24531">
        <ele>198.4</ele>
        <time>2022-12-28T08:47:55Z</time>
      </trkpt>
      <trkpt lat="43.57025" lon="1.2452">
        <ele>198.2</ele>
        <time>2022-12-28T08:47:57Z</time>
      </trkpt>
      <trkpt lat="43.57018" lon="1.24508">
        <ele>198.2</ele>
        <time>2022-12-28T08:48:00Z</time>
      </trkpt>
      <trkpt lat="43.57014" lon="1.24504">
        <ele>198.2</ele>
        <time>2022-12-28T08:48:01Z</time>
      </trkpt>
      <trkpt lat="43.57006" lon="1.24497">
        <ele>198.2</ele>
        <time>2022-12-28T08:48:03Z</time>
      </trkpt>
      <trkpt lat="43.56999" lon="1.24486">
        <ele>198.2</ele>
        <time>2022-12-28T08:48:05Z</time>
      </trkpt>
      <trkpt lat="43.56993" lon="1.24466">
        <ele>198.2</ele>
        <time>2022-12-28T08:48:08Z</time>
      </trkpt>
      <trkpt lat="43.56987" lon="1.24446">
        <ele>198.2</ele>
        <time>2022-12-28T08:48:11Z</time>
      </trkpt>
      <trkpt lat="43.56981" lon="1.24425">
        <ele>198.4</ele>
        <time>2022-12-28T08:48:14Z</time>
      </trkpt>
      <trkpt lat="43.56972" lon="1.24398">
        <ele>198.6</ele>
        <time>2022-12-28T08:48:18Z</time>
      </trkpt>
      <trkpt lat="43.56954" lon="1.2435">
        <ele>198.6</ele>
        <time>2022-12-28T08:48:25Z</time>
      </trkpt>
      <trkpt lat="43.56939" lon="1.24297">
        <ele>198.8</ele>
        <time>2022-12-28T08:48:32Z</time>
      </trkpt>
      <trkpt lat="43.56933" lon="1.24224">
        <ele>199</ele>
        <time>2022-12-28T08:48:41Z</time>
      </trkpt>
      <trkpt lat="43.56936" lon="1.24163">
        <ele>198.8</ele>
        <time>2022-12-28T08:48:48Z</time>
      </trkpt>
      <trkpt lat="43.56936" lon="1.2413">
        <ele>198.8</ele>
        <time>2022-12-28T08:48:52Z</time>
      </trkpt>
      <trkpt lat="43.56935" lon="1.24114">
        <ele>198.8</ele>
        <time>2022-12-28T08:48:54Z</time>
      </trkpt>
      <trkpt lat="43.56937" lon="1.24074">
        <ele>198.8</ele>
        <time>2022-12-28T08:48:59Z</time>
      </trkpt>
      <trkpt lat="43.56941" lon="1.24009">
        <ele>198.8</ele>
        <time>2022-12-28T08:49:08Z</time>
      </trkpt>
      <trkpt lat="43.56952" lon="1.23936">
        <ele>198.8</ele>
        <time>2022-12-28T08:49:16Z</time>
      </trkpt>
      <trkpt lat="43.56955" lon="1.23919">
        <ele>198.8</ele>
        <time>2022-12-28T08:49:18Z</time>
      </trkpt>
      <trkpt lat="43.56973" lon="1.23846">
        <ele>198.6</ele>
        <time>2022-12-28T08:49:27Z</time>
      </trkpt>
      <trkpt lat="43.56986" lon="1.23775">
        <ele>198.6</ele>
        <time>2022-12-28T08:49:36Z</time>
      </trkpt>
      <trkpt lat="43.56986" lon="1.23759">
        <ele>198.4</ele>
        <time>2022-12-28T08:49:38Z</time>
      </trkpt>
      <trkpt lat="43.56985" lon="1.23744">
        <ele>198.4</ele>
        <time>2022-12-28T08:49:40Z</time>
      </trkpt>
      <trkpt lat="43.56983" lon="1.23737">
        <ele>198.4</ele>
        <time>2022-12-28T08:49:41Z</time>
      </trkpt>
      <trkpt lat="43.56972" lon="1.23697">
        <ele>198.4</ele>
        <time>2022-12-28T08:49:47Z</time>
      </trkpt>
      <trkpt lat="43.56967" lon="1.23685">
        <ele>198.2</ele>
        <time>2022-12-28T08:49:49Z</time>
      </trkpt>
      <trkpt lat="43.5696" lon="1.23678">
        <ele>198.2</ele>
        <time>2022-12-28T08:49:51Z</time>
      </trkpt>
      <trkpt lat="43.5694" lon="1.23678">
        <ele>198.2</ele>
        <time>2022-12-28T08:49:55Z</time>
      </trkpt>
      <trkpt lat="43.56901" lon="1.2368">
        <ele>198.6</ele>
        <time>2022-12-28T08:50:02Z</time>
      </trkpt>
      <trkpt lat="43.56845" lon="1.23683">
        <ele>198</ele>
        <time>2022-12-28T08:50:11Z</time>
      </trkpt>
      <trkpt lat="43.5679" lon="1.23684">
        <ele>198</ele>
        <time>2022-12-28T08:50:20Z</time>
      </trkpt>
      <trkpt lat="43.56785" lon="1.23684">
        <ele>198</ele>
        <time>2022-12-28T08:50:21Z</time>
      </trkpt>
      <trkpt lat="43.56746" lon="1.23684">
        <ele>198</ele>
        <time>2022-12-28T08:50:27Z</time>
      </trkpt>
      <trkpt lat="43.56732" lon="1.23685">
        <ele>197.8</ele>
        <time>2022-12-28T08:50:29Z</time>
      </trkpt>
      <trkpt lat="43.56724" lon="1.23685">
        <ele>197.6</ele>
        <time>2022-12-28T08:50:30Z</time>
      </trkpt>
      <trkpt lat="43.56691" lon="1.23684">
        <ele>196.8</ele>
        <time>2022-12-28T08:50:34Z</time>
      </trkpt>
      <trkpt lat="43.56684" lon="1.23685">
        <ele>196.2</ele>
        <time>2022-12-28T08:50:35Z</time>
      </trkpt>
      <trkpt lat="43.56672" lon="1.23685">
        <ele>194.2</ele>
        <time>2022-12-28T08:50:37Z</time>
      </trkpt>
      <trkpt lat="43.56666" lon="1.23685">
        <ele>193.8</ele>
        <time>2022-12-28T08:50:38Z</time>
      </trkpt>
      <trkpt lat="43.56661" lon="1.23685">
        <ele>193</ele>
        <time>2022-12-28T08:50:39Z</time>
      </trkpt>
      <trkpt lat="43.56655" lon="1.23693">
        <ele>192</ele>
        <time>2022-12-28T08:50:41Z</time>
      </trkpt>
      <trkpt lat="43.5665" lon="1.23712">
        <ele>190.6</ele>
        <time>2022-12-28T08:50:44Z</time>
      </trkpt>
      <trkpt lat="43.56647" lon="1.23717">
        <ele>190.2</ele>
        <time>2022-12-28T08:50:45Z</time>
      </trkpt>
      <trkpt lat="43.56644" lon="1.23722">
        <ele>189.8</ele>
        <time>2022-12-28T08:50:46Z</time>
      </trkpt>
      <trkpt lat="43.5664" lon="1.23723">
        <ele>189.2</ele>
        <time>2022-12-28T08:50:47Z</time>
      </trkpt>
      <trkpt lat="43.56636" lon="1.23723">
        <ele>188.6</ele>
        <time>2022-12-28T08:50:48Z</time>
      </trkpt>
      <trkpt lat="43.56627" lon="1.23723">
        <ele>188.2</ele>
        <time>2022-12-28T08:50:50Z</time>
      </trkpt>
      <trkpt lat="43.56599" lon="1.23725">
        <ele>187.8</ele>
        <time>2022-12-28T08:50:55Z</time>
      </trkpt>
      <trkpt lat="43.56564" lon="1.23728">
        <ele>186.6</ele>
        <time>2022-12-28T08:51:00Z</time>
      </trkpt>
      <trkpt lat="43.56549" lon="1.23729">
        <ele>185.8</ele>
        <time>2022-12-28T08:51:02Z</time>
      </trkpt>
      <trkpt lat="43.56542" lon="1.2373">
        <ele>185.6</ele>
        <time>2022-12-28T08:51:03Z</time>
      </trkpt>
      <trkpt lat="43.56536" lon="1.2373">
        <ele>185.2</ele>
        <time>2022-12-28T08:51:04Z</time>
      </trkpt>
      <trkpt lat="43.56527" lon="1.23726">
        <ele>184.8</ele>
        <time>2022-12-28T08:51:06Z</time>
      </trkpt>
      <trkpt lat="43.56524" lon="1.23722">
        <ele>184.4</ele>
        <time>2022-12-28T08:51:07Z</time>
      </trkpt>
      <trkpt lat="43.56522" lon="1.23717">
        <ele>184</ele>
        <time>2022-12-28T08:51:08Z</time>
      </trkpt>
      <trkpt lat="43.56522" lon="1.23712">
        <ele>183.8</ele>
        <time>2022-12-28T08:51:09Z</time>
      </trkpt>
      <trkpt lat="43.56521" lon="1.23707">
        <ele>183.8</ele>
        <time>2022-12-28T08:51:10Z</time>
      </trkpt>
      <trkpt lat="43.56522" lon="1.23695">
        <ele>183.2</ele>
        <time>2022-12-28T08:51:12Z</time>
      </trkpt>
      <trkpt lat="43.56522" lon="1.23675">
        <ele>183.2</ele>
        <time>2022-12-28T08:51:15Z</time>
      </trkpt>
      <trkpt lat="43.56521" lon="1.23631">
        <ele>183.2</ele>
        <time>2022-12-28T08:51:21Z</time>
      </trkpt>
      <trkpt lat="43.56518" lon="1.23575">
        <ele>183.2</ele>
        <time>2022-12-28T08:51:28Z</time>
      </trkpt>
      <trkpt lat="43.56515" lon="1.23507">
        <ele>183.4</ele>
        <time>2022-12-28T08:51:36Z</time>
      </trkpt>
      <trkpt lat="43.56512" lon="1.23439">
        <ele>183.4</ele>
        <time>2022-12-28T08:51:44Z</time>
      </trkpt>
      <trkpt lat="43.56509" lon="1.23387">
        <ele>183.4</ele>
        <time>2022-12-28T08:51:51Z</time>
      </trkpt>
      <trkpt lat="43.56508" lon="1.23375">
        <ele>183.4</ele>
        <time>2022-12-28T08:51:53Z</time>
      </trkpt>
      <trkpt lat="43.56505" lon="1.23367">
        <ele>183.6</ele>
        <time>2022-12-28T08:51:55Z</time>
      </trkpt>
      <trkpt lat="43.56494" lon="1.23363">
        <ele>183.6</ele>
        <time>2022-12-28T08:51:59Z</time>
      </trkpt>
      <trkpt lat="43.5647" lon="1.23357">
        <ele>183.4</ele>
        <time>2022-12-28T08:52:05Z</time>
      </trkpt>
      <trkpt lat="43.56456" lon="1.23353">
        <ele>183.2</ele>
        <time>2022-12-28T08:52:08Z</time>
      </trkpt>
      <trkpt lat="43.56446" lon="1.23345">
        <ele>183.2</ele>
        <time>2022-12-28T08:52:11Z</time>
      </trkpt>
      <trkpt lat="43.56434" lon="1.23332">
        <ele>184.4</ele>
        <time>2022-12-28T08:52:17Z</time>
      </trkpt>
      <trkpt lat="43.56431" lon="1.2333">
        <ele>184.6</ele>
        <time>2022-12-28T08:52:18Z</time>
      </trkpt>
      <trkpt lat="43.56416" lon="1.23326">
        <ele>185.4</ele>
        <time>2022-12-28T08:52:23Z</time>
      </trkpt>
      <trkpt lat="43.5639" lon="1.23321">
        <ele>185.6</ele>
        <time>2022-12-28T08:52:30Z</time>
      </trkpt>
      <trkpt lat="43.56386" lon="1.2332">
        <ele>185.6</ele>
        <time>2022-12-28T08:52:31Z</time>
      </trkpt>
      <trkpt lat="43.56379" lon="1.23318">
        <ele>186</ele>
        <time>2022-12-28T08:52:33Z</time>
      </trkpt>
      <trkpt lat="43.56363" lon="1.23319">
        <ele>186.4</ele>
        <time>2022-12-28T08:52:36Z</time>
      </trkpt>
      <trkpt lat="43.56333" lon="1.23324">
        <ele>186.2</ele>
        <time>2022-12-28T08:52:42Z</time>
      </trkpt>
      <trkpt lat="43.56306" lon="1.23323">
        <ele>186</ele>
        <time>2022-12-28T08:52:47Z</time>
      </trkpt>
      <trkpt lat="43.56266" lon="1.23309">
        <ele>186.4</ele>
        <time>2022-12-28T08:52:55Z</time>
      </trkpt>
      <trkpt lat="43.56261" lon="1.23307">
        <ele>186.8</ele>
        <time>2022-12-28T08:52:56Z</time>
      </trkpt>
      <trkpt lat="43.56234" lon="1.23299">
        <ele>187.8</ele>
        <time>2022-12-28T08:53:02Z</time>
      </trkpt>
      <trkpt lat="43.56224" lon="1.23295">
        <ele>188.6</ele>
        <time>2022-12-28T08:53:04Z</time>
      </trkpt>
      <trkpt lat="43.5622" lon="1.23294">
        <ele>189.2</ele>
        <time>2022-12-28T08:53:05Z</time>
      </trkpt>
      <trkpt lat="43.56201" lon="1.23287">
        <ele>190.8</ele>
        <time>2022-12-28T08:53:09Z</time>
      </trkpt>
      <trkpt lat="43.56193" lon="1.23283">
        <ele>192</ele>
        <time>2022-12-28T08:53:11Z</time>
      </trkpt>
      <trkpt lat="43.56187" lon="1.2328">
        <ele>192.2</ele>
        <time>2022-12-28T08:53:12Z</time>
      </trkpt>
      <trkpt lat="43.56179" lon="1.23273">
        <ele>193.6</ele>
        <time>2022-12-28T08:53:14Z</time>
      </trkpt>
      <trkpt lat="43.56173" lon="1.23267">
        <ele>194.6</ele>
        <time>2022-12-28T08:53:16Z</time>
      </trkpt>
      <trkpt lat="43.56162" lon="1.23255">
        <ele>196</ele>
        <time>2022-12-28T08:53:19Z</time>
      </trkpt>
      <trkpt lat="43.56159" lon="1.23252">
        <ele>197</ele>
        <time>2022-12-28T08:53:20Z</time>
      </trkpt>
      <trkpt lat="43.56156" lon="1.23248">
        <ele>197.4</ele>
        <time>2022-12-28T08:53:21Z</time>
      </trkpt>
      <trkpt lat="43.5615" lon="1.23241">
        <ele>198.4</ele>
        <time>2022-12-28T08:53:23Z</time>
      </trkpt>
      <trkpt lat="43.5614" lon="1.2323">
        <ele>199.4</ele>
        <time>2022-12-28T08:53:26Z</time>
      </trkpt>
      <trkpt lat="43.56137" lon="1.23226">
        <ele>199.8</ele>
        <time>2022-12-28T08:53:27Z</time>
      </trkpt>
      <trkpt lat="43.56129" lon="1.23217">
        <ele>200.6</ele>
        <time>2022-12-28T08:53:30Z</time>
      </trkpt>
      <trkpt lat="43.56116" lon="1.23201">
        <ele>201.8</ele>
        <time>2022-12-28T08:53:35Z</time>
      </trkpt>
      <trkpt lat="43.56099" lon="1.2318">
        <ele>203</ele>
        <time>2022-12-28T08:53:42Z</time>
      </trkpt>
      <trkpt lat="43.56095" lon="1.23174">
        <ele>203.2</ele>
        <time>2022-12-28T08:53:45Z</time>
      </trkpt>
      <trkpt lat="43.56094" lon="1.2317">
        <ele>203.4</ele>
        <time>2022-12-28T08:53:47Z</time>
      </trkpt>
      <trkpt lat="43.56094" lon="1.23166">
        <ele>203.4</ele>
        <time>2022-12-28T08:53:49Z</time>
      </trkpt>
      <trkpt lat="43.56097" lon="1.23154">
        <ele>203.4</ele>
        <time>2022-12-28T08:53:55Z</time>
      </trkpt>
      <trkpt lat="43.56105" lon="1.23136">
        <ele>203.4</ele>
        <time>2022-12-28T08:54:03Z</time>
      </trkpt>
      <trkpt lat="43.56113" lon="1.2312">
        <ele>203.2</ele>
        <time>2022-12-28T08:54:08Z</time>
      </trkpt>
      <trkpt lat="43.56122" lon="1.23096">
        <ele>203</ele>
        <time>2022-12-28T08:54:14Z</time>
      </trkpt>
      <trkpt lat="43.56137" lon="1.23062">
        <ele>203</ele>
        <time>2022-12-28T08:54:22Z</time>
      </trkpt>
      <trkpt lat="43.56148" lon="1.23028">
        <ele>202.8</ele>
        <time>2022-12-28T08:54:30Z</time>
      </trkpt>
      <trkpt lat="43.56149" lon="1.2302">
        <ele>202.6</ele>
        <time>2022-12-28T08:54:32Z</time>
      </trkpt>
      <trkpt lat="43.56147" lon="1.23016">
        <ele>202.6</ele>
        <time>2022-12-28T08:54:33Z</time>
      </trkpt>
      <trkpt lat="43.56126" lon="1.22986">
        <ele>202.6</ele>
        <time>2022-12-28T08:54:41Z</time>
      </trkpt>
      <trkpt lat="43.56098" lon="1.2295">
        <ele>203</ele>
        <time>2022-12-28T08:54:51Z</time>
      </trkpt>
      <trkpt lat="43.5607" lon="1.22912">
        <ele>203.2</ele>
        <time>2022-12-28T08:55:01Z</time>
      </trkpt>
      <trkpt lat="43.56041" lon="1.22872">
        <ele>203.2</ele>
        <time>2022-12-28T08:55:11Z</time>
      </trkpt>
      <trkpt lat="43.56033" lon="1.22854">
        <ele>203.2</ele>
        <time>2022-12-28T08:55:14Z</time>
      </trkpt>
      <trkpt lat="43.56026" lon="1.22828">
        <ele>203</ele>
        <time>2022-12-28T08:55:18Z</time>
      </trkpt>
      <trkpt lat="43.56017" lon="1.22794">
        <ele>203</ele>
        <time>2022-12-28T08:55:23Z</time>
      </trkpt>
      <trkpt lat="43.56014" lon="1.22782">
        <ele>203</ele>
        <time>2022-12-28T08:55:25Z</time>
      </trkpt>
      <trkpt lat="43.56001" lon="1.22733">
        <ele>203</ele>
        <time>2022-12-28T08:55:32Z</time>
      </trkpt>
      <trkpt lat="43.55981" lon="1.2266">
        <ele>202.8</ele>
        <time>2022-12-28T08:55:42Z</time>
      </trkpt>
      <trkpt lat="43.5597" lon="1.22624">
        <ele>202.6</ele>
        <time>2022-12-28T08:55:47Z</time>
      </trkpt>
      <trkpt lat="43.55965" lon="1.22611">
        <ele>202.6</ele>
        <time>2022-12-28T08:55:49Z</time>
      </trkpt>
      <trkpt lat="43.55959" lon="1.22598">
        <ele>202.6</ele>
        <time>2022-12-28T08:55:51Z</time>
      </trkpt>
      <trkpt lat="43.55953" lon="1.22585">
        <ele>202.6</ele>
        <time>2022-12-28T08:55:53Z</time>
      </trkpt>
      <trkpt lat="43.55933" lon="1.22542">
        <ele>202.6</ele>
        <time>2022-12-28T08:56:00Z</time>
      </trkpt>
      <trkpt lat="43.55927" lon="1.2253">
        <ele>202.8</ele>
        <time>2022-12-28T08:56:02Z</time>
      </trkpt>
      <trkpt lat="43.55905" lon="1.22484">
        <ele>203.2</ele>
        <time>2022-12-28T08:56:10Z</time>
      </trkpt>
      <trkpt lat="43.55871" lon="1.22422">
        <ele>203.6</ele>
        <time>2022-12-28T08:56:21Z</time>
      </trkpt>
      <trkpt lat="43.55837" lon="1.22373">
        <ele>203.4</ele>
        <time>2022-12-28T08:56:30Z</time>
      </trkpt>
      <trkpt lat="43.55805" lon="1.22325">
        <ele>203.6</ele>
        <time>2022-12-28T08:56:39Z</time>
      </trkpt>
      <trkpt lat="43.55781" lon="1.22285">
        <ele>204.4</ele>
        <time>2022-12-28T08:56:47Z</time>
      </trkpt>
      <trkpt lat="43.55778" lon="1.2228">
        <ele>204.6</ele>
        <time>2022-12-28T08:56:48Z</time>
      </trkpt>
      <trkpt lat="43.55761" lon="1.22254">
        <ele>205.4</ele>
        <time>2022-12-28T08:56:53Z</time>
      </trkpt>
      <trkpt lat="43.55733" lon="1.22212">
        <ele>206.2</ele>
        <time>2022-12-28T08:57:01Z</time>
      </trkpt>
      <trkpt lat="43.55715" lon="1.22184">
        <ele>206.6</ele>
        <time>2022-12-28T08:57:06Z</time>
      </trkpt>
      <trkpt lat="43.55704" lon="1.22167">
        <ele>206.8</ele>
        <time>2022-12-28T08:57:09Z</time>
      </trkpt>
      <trkpt lat="43.55673" lon="1.22119">
        <ele>207</ele>
        <time>2022-12-28T08:57:18Z</time>
      </trkpt>
      <trkpt lat="43.5564" lon="1.22074">
        <ele>207</ele>
        <time>2022-12-28T08:57:27Z</time>
      </trkpt>
      <trkpt lat="43.55626" lon="1.22053">
        <ele>207.2</ele>
        <time>2022-12-28T08:57:32Z</time>
      </trkpt>
      <trkpt lat="43.55626" lon="1.22051">
        <ele>207.2</ele>
        <time>2022-12-28T08:57:33Z</time>
      </trkpt>
      <trkpt lat="43.55625" lon="1.22049">
        <ele>207.2</ele>
        <time>2022-12-28T08:57:34Z</time>
      </trkpt>
      <trkpt lat="43.55619" lon="1.22046">
        <ele>207.2</ele>
        <time>2022-12-28T08:57:37Z</time>
      </trkpt>
      <trkpt lat="43.55607" lon="1.22032">
        <ele>207.2</ele>
        <time>2022-12-28T08:57:41Z</time>
      </trkpt>
      <trkpt lat="43.5558" lon="1.21997">
        <ele>207.2</ele>
        <time>2022-12-28T08:57:49Z</time>
      </trkpt>
      <trkpt lat="43.5557" lon="1.21981">
        <ele>207.4</ele>
        <time>2022-12-28T08:57:53Z</time>
      </trkpt>
      <trkpt lat="43.5557" lon="1.21976">
        <ele>207.4</ele>
        <time>2022-12-28T08:57:54Z</time>
      </trkpt>
      <trkpt lat="43.55572" lon="1.21973">
        <ele>207.4</ele>
        <time>2022-12-28T08:57:55Z</time>
      </trkpt>
      <trkpt lat="43.55579" lon="1.21961">
        <ele>207.8</ele>
        <time>2022-12-28T08:57:58Z</time>
      </trkpt>
      <trkpt lat="43.55611" lon="1.21907">
        <ele>207.2</ele>
        <time>2022-12-28T08:58:09Z</time>
      </trkpt>
      <trkpt lat="43.55646" lon="1.2185">
        <ele>207.4</ele>
        <time>2022-12-28T08:58:20Z</time>
      </trkpt>
      <trkpt lat="43.55668" lon="1.21812">
        <ele>207.2</ele>
        <time>2022-12-28T08:58:27Z</time>
      </trkpt>
      <trkpt lat="43.55671" lon="1.21805">
        <ele>207.4</ele>
        <time>2022-12-28T08:58:28Z</time>
      </trkpt>
      <trkpt lat="43.55681" lon="1.21765">
        <ele>207.2</ele>
        <time>2022-12-28T08:58:34Z</time>
      </trkpt>
      <trkpt lat="43.55694" lon="1.21731">
        <ele>206.8</ele>
        <time>2022-12-28T08:58:40Z</time>
      </trkpt>
      <trkpt lat="43.55696" lon="1.21727">
        <ele>206.8</ele>
        <time>2022-12-28T08:58:41Z</time>
      </trkpt>
      <trkpt lat="43.55701" lon="1.21725">
        <ele>206.8</ele>
        <time>2022-12-28T08:58:43Z</time>
      </trkpt>
      <trkpt lat="43.55703" lon="1.21726">
        <ele>206.8</ele>
        <time>2022-12-28T08:58:44Z</time>
      </trkpt>
      <trkpt lat="43.55717" lon="1.2173">
        <ele>206.8</ele>
        <time>2022-12-28T08:58:48Z</time>
      </trkpt>
      <trkpt lat="43.5573" lon="1.21722">
        <ele>206.8</ele>
        <time>2022-12-28T08:58:52Z</time>
      </trkpt>
      <trkpt lat="43.55745" lon="1.21714">
        <ele>206.8</ele>
        <time>2022-12-28T08:58:56Z</time>
      </trkpt>
      <trkpt lat="43.55749" lon="1.2171">
        <ele>206.8</ele>
        <time>2022-12-28T08:58:57Z</time>
      </trkpt>
      <trkpt lat="43.55753" lon="1.21707">
        <ele>206.8</ele>
        <time>2022-12-28T08:58:58Z</time>
      </trkpt>
      <trkpt lat="43.55766" lon="1.21697">
        <ele>206.8</ele>
        <time>2022-12-28T08:59:01Z</time>
      </trkpt>
      <trkpt lat="43.55779" lon="1.21686">
        <ele>206.8</ele>
        <time>2022-12-28T08:59:04Z</time>
      </trkpt>
      <trkpt lat="43.55787" lon="1.21677">
        <ele>206.6</ele>
        <time>2022-12-28T08:59:06Z</time>
      </trkpt>
      <trkpt lat="43.55791" lon="1.21674">
        <ele>206.4</ele>
        <time>2022-12-28T08:59:07Z</time>
      </trkpt>
      <trkpt lat="43.55795" lon="1.2167">
        <ele>206.2</ele>
        <time>2022-12-28T08:59:08Z</time>
      </trkpt>
      <trkpt lat="43.55802" lon="1.21663">
        <ele>206.2</ele>
        <time>2022-12-28T08:59:10Z</time>
      </trkpt>
      <trkpt lat="43.55808" lon="1.21655">
        <ele>206.2</ele>
        <time>2022-12-28T08:59:12Z</time>
      </trkpt>
      <trkpt lat="43.55811" lon="1.21645">
        <ele>205.8</ele>
        <time>2022-12-28T08:59:14Z</time>
      </trkpt>
      <trkpt lat="43.55811" lon="1.21638">
        <ele>205.6</ele>
        <time>2022-12-28T08:59:15Z</time>
      </trkpt>
      <trkpt lat="43.5581" lon="1.21632">
        <ele>205.6</ele>
        <time>2022-12-28T08:59:16Z</time>
      </trkpt>
      <trkpt lat="43.55796" lon="1.21607">
        <ele>204.4</ele>
        <time>2022-12-28T08:59:20Z</time>
      </trkpt>
      <trkpt lat="43.55788" lon="1.21599">
        <ele>203.4</ele>
        <time>2022-12-28T08:59:22Z</time>
      </trkpt>
      <trkpt lat="43.55785" lon="1.21598">
        <ele>203</ele>
        <time>2022-12-28T08:59:23Z</time>
      </trkpt>
      <trkpt lat="43.55782" lon="1.21597">
        <ele>202.4</ele>
        <time>2022-12-28T08:59:24Z</time>
      </trkpt>
      <trkpt lat="43.55775" lon="1.21593">
        <ele>202</ele>
        <time>2022-12-28T08:59:27Z</time>
      </trkpt>
      <trkpt lat="43.55767" lon="1.21588">
        <ele>202</ele>
        <time>2022-12-28T08:59:30Z</time>
      </trkpt>
      <trkpt lat="43.55746" lon="1.21574">
        <ele>202.6</ele>
        <time>2022-12-28T08:59:36Z</time>
      </trkpt>
      <trkpt lat="43.55726" lon="1.21558">
        <ele>202.8</ele>
        <time>2022-12-28T08:59:41Z</time>
      </trkpt>
      <trkpt lat="43.55716" lon="1.21545">
        <ele>202.6</ele>
        <time>2022-12-28T08:59:44Z</time>
      </trkpt>
      <trkpt lat="43.55715" lon="1.21539">
        <ele>202.6</ele>
        <time>2022-12-28T08:59:45Z</time>
      </trkpt>
      <trkpt lat="43.55722" lon="1.21523">
        <ele>202.6</ele>
        <time>2022-12-28T08:59:48Z</time>
      </trkpt>
      <trkpt lat="43.55735" lon="1.21498">
        <ele>202.2</ele>
        <time>2022-12-28T08:59:52Z</time>
      </trkpt>
      <trkpt lat="43.55739" lon="1.21492">
        <ele>201.6</ele>
        <time>2022-12-28T08:59:53Z</time>
      </trkpt>
      <trkpt lat="43.55749" lon="1.2148">
        <ele>200.6</ele>
        <time>2022-12-28T08:59:55Z</time>
      </trkpt>
      <trkpt lat="43.55761" lon="1.21462">
        <ele>200</ele>
        <time>2022-12-28T08:59:57Z</time>
      </trkpt>
      <trkpt lat="43.55772" lon="1.21447">
        <ele>198.8</ele>
        <time>2022-12-28T08:59:59Z</time>
      </trkpt>
      <trkpt lat="43.55781" lon="1.2143">
        <ele>197.4</ele>
        <time>2022-12-28T09:00:01Z</time>
      </trkpt>
      <trkpt lat="43.55788" lon="1.21414">
        <ele>196</ele>
        <time>2022-12-28T09:00:03Z</time>
      </trkpt>
      <trkpt lat="43.55789" lon="1.21398">
        <ele>195.2</ele>
        <time>2022-12-28T09:00:05Z</time>
      </trkpt>
      <trkpt lat="43.5579" lon="1.2139">
        <ele>195</ele>
        <time>2022-12-28T09:00:06Z</time>
      </trkpt>
      <trkpt lat="43.55791" lon="1.21383">
        <ele>194.6</ele>
        <time>2022-12-28T09:00:07Z</time>
      </trkpt>
      <trkpt lat="43.55792" lon="1.21366">
        <ele>193.8</ele>
        <time>2022-12-28T09:00:10Z</time>
      </trkpt>
      <trkpt lat="43.55793" lon="1.21356">
        <ele>193.2</ele>
        <time>2022-12-28T09:00:12Z</time>
      </trkpt>
      <trkpt lat="43.55795" lon="1.21345">
        <ele>192.8</ele>
        <time>2022-12-28T09:00:14Z</time>
      </trkpt>
      <trkpt lat="43.55799" lon="1.21333">
        <ele>192.4</ele>
        <time>2022-12-28T09:00:18Z</time>
      </trkpt>
      <trkpt lat="43.558" lon="1.21327">
        <ele>191.6</ele>
        <time>2022-12-28T09:00:21Z</time>
      </trkpt>
      <trkpt lat="43.55803" lon="1.21317">
        <ele>190.8</ele>
        <time>2022-12-28T09:00:25Z</time>
      </trkpt>
      <trkpt lat="43.55804" lon="1.21315">
        <ele>190.6</ele>
        <time>2022-12-28T09:00:26Z</time>
      </trkpt>
      <trkpt lat="43.55816" lon="1.21293">
        <ele>190.6</ele>
        <time>2022-12-28T09:00:32Z</time>
      </trkpt>
      <trkpt lat="43.5582" lon="1.21288">
        <ele>190.8</ele>
        <time>2022-12-28T09:00:33Z</time>
      </trkpt>
      <trkpt lat="43.55831" lon="1.21282">
        <ele>191.4</ele>
        <time>2022-12-28T09:00:36Z</time>
      </trkpt>
      <trkpt lat="43.55838" lon="1.2128">
        <ele>191.6</ele>
        <time>2022-12-28T09:00:38Z</time>
      </trkpt>
      <trkpt lat="43.55853" lon="1.21277">
        <ele>192.4</ele>
        <time>2022-12-28T09:00:42Z</time>
      </trkpt>
      <trkpt lat="43.55858" lon="1.21273">
        <ele>192.8</ele>
        <time>2022-12-28T09:00:44Z</time>
      </trkpt>
      <trkpt lat="43.55866" lon="1.2127">
        <ele>193.6</ele>
        <time>2022-12-28T09:00:47Z</time>
      </trkpt>
      <trkpt lat="43.5587" lon="1.2127">
        <ele>193.8</ele>
        <time>2022-12-28T09:00:48Z</time>
      </trkpt>
      <trkpt lat="43.55875" lon="1.21273">
        <ele>194.2</ele>
        <time>2022-12-28T09:00:50Z</time>
      </trkpt>
      <trkpt lat="43.55878" lon="1.21275">
        <ele>194.6</ele>
        <time>2022-12-28T09:00:51Z</time>
      </trkpt>
      <trkpt lat="43.55881" lon="1.21279">
        <ele>194.8</ele>
        <time>2022-12-28T09:00:52Z</time>
      </trkpt>
      <trkpt lat="43.55897" lon="1.21303">
        <ele>195.2</ele>
        <time>2022-12-28T09:00:56Z</time>
      </trkpt>
      <trkpt lat="43.5592" lon="1.2134">
        <ele>194.8</ele>
        <time>2022-12-28T09:01:01Z</time>
      </trkpt>
      <trkpt lat="43.55934" lon="1.21362">
        <ele>193.8</ele>
        <time>2022-12-28T09:01:04Z</time>
      </trkpt>
      <trkpt lat="43.55947" lon="1.21379">
        <ele>193</ele>
        <time>2022-12-28T09:01:07Z</time>
      </trkpt>
      <trkpt lat="43.55957" lon="1.21389">
        <ele>192.6</ele>
        <time>2022-12-28T09:01:09Z</time>
      </trkpt>
      <trkpt lat="43.55978" lon="1.21412">
        <ele>192.2</ele>
        <time>2022-12-28T09:01:14Z</time>
      </trkpt>
      <trkpt lat="43.55983" lon="1.21416">
        <ele>192.2</ele>
        <time>2022-12-28T09:01:15Z</time>
      </trkpt>
      <trkpt lat="43.55993" lon="1.21422">
        <ele>192</ele>
        <time>2022-12-28T09:01:17Z</time>
      </trkpt>
      <trkpt lat="43.55999" lon="1.21423">
        <ele>192</ele>
        <time>2022-12-28T09:01:18Z</time>
      </trkpt>
      <trkpt lat="43.56004" lon="1.21424">
        <ele>192.2</ele>
        <time>2022-12-28T09:01:19Z</time>
      </trkpt>
      <trkpt lat="43.56016" lon="1.21423">
        <ele>192.2</ele>
        <time>2022-12-28T09:01:21Z</time>
      </trkpt>
      <trkpt lat="43.56021" lon="1.2142">
        <ele>192.2</ele>
        <time>2022-12-28T09:01:22Z</time>
      </trkpt>
      <trkpt lat="43.56027" lon="1.21416">
        <ele>192.2</ele>
        <time>2022-12-28T09:01:23Z</time>
      </trkpt>
      <trkpt lat="43.56037" lon="1.21404">
        <ele>192.4</ele>
        <time>2022-12-28T09:01:25Z</time>
      </trkpt>
      <trkpt lat="43.56041" lon="1.21398">
        <ele>192.4</ele>
        <time>2022-12-28T09:01:26Z</time>
      </trkpt>
      <trkpt lat="43.56072" lon="1.21349">
        <ele>193.4</ele>
        <time>2022-12-28T09:01:34Z</time>
      </trkpt>
      <trkpt lat="43.56084" lon="1.21333">
        <ele>193.8</ele>
        <time>2022-12-28T09:01:37Z</time>
      </trkpt>
      <trkpt lat="43.56093" lon="1.21318">
        <ele>194.6</ele>
        <time>2022-12-28T09:01:40Z</time>
      </trkpt>
      <trkpt lat="43.56095" lon="1.21314">
        <ele>195.2</ele>
        <time>2022-12-28T09:01:41Z</time>
      </trkpt>
      <trkpt lat="43.56102" lon="1.21302">
        <ele>196.6</ele>
        <time>2022-12-28T09:01:44Z</time>
      </trkpt>
      <trkpt lat="43.56105" lon="1.21298">
        <ele>197</ele>
        <time>2022-12-28T09:01:45Z</time>
      </trkpt>
      <trkpt lat="43.56109" lon="1.21291">
        <ele>197.8</ele>
        <time>2022-12-28T09:01:47Z</time>
      </trkpt>
      <trkpt lat="43.56115" lon="1.21282">
        <ele>199</ele>
        <time>2022-12-28T09:01:50Z</time>
      </trkpt>
      <trkpt lat="43.56118" lon="1.21271">
        <ele>200.4</ele>
        <time>2022-12-28T09:01:53Z</time>
      </trkpt>
      <trkpt lat="43.56118" lon="1.21267">
        <ele>200.8</ele>
        <time>2022-12-28T09:01:54Z</time>
      </trkpt>
      <trkpt lat="43.56117" lon="1.21255">
        <ele>201.8</ele>
        <time>2022-12-28T09:01:57Z</time>
      </trkpt>
      <trkpt lat="43.56113" lon="1.21234">
        <ele>202.4</ele>
        <time>2022-12-28T09:02:01Z</time>
      </trkpt>
      <trkpt lat="43.56112" lon="1.21216">
        <ele>202.6</ele>
        <time>2022-12-28T09:02:04Z</time>
      </trkpt>
      <trkpt lat="43.56113" lon="1.21205">
        <ele>203</ele>
        <time>2022-12-28T09:02:06Z</time>
      </trkpt>
      <trkpt lat="43.56114" lon="1.21199">
        <ele>203</ele>
        <time>2022-12-28T09:02:07Z</time>
      </trkpt>
      <trkpt lat="43.56124" lon="1.21133">
        <ele>203.8</ele>
        <time>2022-12-28T09:02:18Z</time>
      </trkpt>
      <trkpt lat="43.56126" lon="1.21128">
        <ele>204</ele>
        <time>2022-12-28T09:02:19Z</time>
      </trkpt>
      <trkpt lat="43.56135" lon="1.21094">
        <ele>205</ele>
        <time>2022-12-28T09:02:26Z</time>
      </trkpt>
      <trkpt lat="43.56139" lon="1.21082">
        <ele>205.2</ele>
        <time>2022-12-28T09:02:27Z</time>
      </trkpt>
      <trkpt lat="43.56143" lon="1.21071">
        <ele>205.4</ele>
        <time>2022-12-28T09:02:29Z</time>
      </trkpt>
      <trkpt lat="43.56148" lon="1.21053">
        <ele>205.8</ele>
        <time>2022-12-28T09:02:32Z</time>
      </trkpt>
      <trkpt lat="43.56158" lon="1.21002">
        <ele>206</ele>
        <time>2022-12-28T09:02:41Z</time>
      </trkpt>
      <trkpt lat="43.56172" lon="1.20932">
        <ele>205.6</ele>
        <time>2022-12-28T09:02:50Z</time>
      </trkpt>
      <trkpt lat="43.56183" lon="1.20887">
        <ele>205.2</ele>
        <time>2022-12-28T09:02:57Z</time>
      </trkpt>
      <trkpt lat="43.56189" lon="1.20873">
        <ele>204.8</ele>
        <time>2022-12-28T09:02:59Z</time>
      </trkpt>
      <trkpt lat="43.56204" lon="1.20834">
        <ele>204.2</ele>
        <time>2022-12-28T09:03:05Z</time>
      </trkpt>
      <trkpt lat="43.5621" lon="1.20812">
        <ele>204</ele>
        <time>2022-12-28T09:03:08Z</time>
      </trkpt>
      <trkpt lat="43.56231" lon="1.20756">
        <ele>204</ele>
        <time>2022-12-28T09:03:16Z</time>
      </trkpt>
      <trkpt lat="43.56253" lon="1.20694">
        <ele>203.8</ele>
        <time>2022-12-28T09:03:25Z</time>
      </trkpt>
      <trkpt lat="43.56258" lon="1.2068">
        <ele>203.8</ele>
        <time>2022-12-28T09:03:29Z</time>
      </trkpt>
      <trkpt lat="43.5627" lon="1.20665">
        <ele>203.6</ele>
        <time>2022-12-28T09:03:35Z</time>
      </trkpt>
      <trkpt lat="43.5628" lon="1.20662">
        <ele>203.6</ele>
        <time>2022-12-28T09:03:39Z</time>
      </trkpt>
      <trkpt lat="43.56282" lon="1.20664">
        <ele>203.6</ele>
        <time>2022-12-28T09:03:40Z</time>
      </trkpt>
      <trkpt lat="43.5629" lon="1.20672">
        <ele>203.8</ele>
        <time>2022-12-28T09:03:45Z</time>
      </trkpt>
      <trkpt lat="43.56307" lon="1.20685">
        <ele>204.2</ele>
        <time>2022-12-28T09:03:52Z</time>
      </trkpt>
      <trkpt lat="43.56325" lon="1.2069">
        <ele>204.8</ele>
        <time>2022-12-28T09:03:58Z</time>
      </trkpt>
      <trkpt lat="43.56338" lon="1.20677">
        <ele>204.8</ele>
        <time>2022-12-28T09:04:02Z</time>
      </trkpt>
      <trkpt lat="43.56357" lon="1.20634">
        <ele>205</ele>
        <time>2022-12-28T09:04:10Z</time>
      </trkpt>
      <trkpt lat="43.5637" lon="1.20612">
        <ele>205</ele>
        <time>2022-12-28T09:04:14Z</time>
      </trkpt>
      <trkpt lat="43.56379" lon="1.20606">
        <ele>205</ele>
        <time>2022-12-28T09:04:16Z</time>
      </trkpt>
      <trkpt lat="43.56418" lon="1.20605">
        <ele>205</ele>
        <time>2022-12-28T09:04:23Z</time>
      </trkpt>
      <trkpt lat="43.56449" lon="1.20608">
        <ele>204.8</ele>
        <time>2022-12-28T09:04:28Z</time>
      </trkpt>
      <trkpt lat="43.56504" lon="1.20612">
        <ele>204.6</ele>
        <time>2022-12-28T09:04:37Z</time>
      </trkpt>
      <trkpt lat="43.56538" lon="1.20613">
        <ele>204.4</ele>
        <time>2022-12-28T09:04:43Z</time>
      </trkpt>
      <trkpt lat="43.56566" lon="1.20614">
        <ele>204.2</ele>
        <time>2022-12-28T09:04:48Z</time>
      </trkpt>
      <trkpt lat="43.56576" lon="1.20609">
        <ele>204.2</ele>
        <time>2022-12-28T09:04:50Z</time>
      </trkpt>
      <trkpt lat="43.56586" lon="1.20603">
        <ele>204.2</ele>
        <time>2022-12-28T09:04:52Z</time>
      </trkpt>
      <trkpt lat="43.566" lon="1.20597">
        <ele>204.2</ele>
        <time>2022-12-28T09:04:55Z</time>
      </trkpt>
      <trkpt lat="43.56623" lon="1.2058">
        <ele>204.2</ele>
        <time>2022-12-28T09:05:00Z</time>
      </trkpt>
      <trkpt lat="43.56627" lon="1.20576">
        <ele>204.2</ele>
        <time>2022-12-28T09:05:01Z</time>
      </trkpt>
      <trkpt lat="43.56641" lon="1.20552">
        <ele>204.2</ele>
        <time>2022-12-28T09:05:05Z</time>
      </trkpt>
      <trkpt lat="43.56647" lon="1.20537">
        <ele>204</ele>
        <time>2022-12-28T09:05:07Z</time>
      </trkpt>
      <trkpt lat="43.56668" lon="1.2047">
        <ele>203.8</ele>
        <time>2022-12-28T09:05:16Z</time>
      </trkpt>
      <trkpt lat="43.56688" lon="1.20419">
        <ele>204</ele>
        <time>2022-12-28T09:05:23Z</time>
      </trkpt>
      <trkpt lat="43.56705" lon="1.20368">
        <ele>203.8</ele>
        <time>2022-12-28T09:05:30Z</time>
      </trkpt>
      <trkpt lat="43.56707" lon="1.2036">
        <ele>203.8</ele>
        <time>2022-12-28T09:05:31Z</time>
      </trkpt>
      <trkpt lat="43.56708" lon="1.20353">
        <ele>203.6</ele>
        <time>2022-12-28T09:05:32Z</time>
      </trkpt>
      <trkpt lat="43.56704" lon="1.20337">
        <ele>203.6</ele>
        <time>2022-12-28T09:05:34Z</time>
      </trkpt>
      <trkpt lat="43.56693" lon="1.20308">
        <ele>203.6</ele>
        <time>2022-12-28T09:05:38Z</time>
      </trkpt>
      <trkpt lat="43.56692" lon="1.20301">
        <ele>203.6</ele>
        <time>2022-12-28T09:05:39Z</time>
      </trkpt>
      <trkpt lat="43.56693" lon="1.20293">
        <ele>203.6</ele>
        <time>2022-12-28T09:05:40Z</time>
      </trkpt>
      <trkpt lat="43.56695" lon="1.20278">
        <ele>203.6</ele>
        <time>2022-12-28T09:05:42Z</time>
      </trkpt>
      <trkpt lat="43.56698" lon="1.20271">
        <ele>203.6</ele>
        <time>2022-12-28T09:05:43Z</time>
      </trkpt>
      <trkpt lat="43.56704" lon="1.20258">
        <ele>203.6</ele>
        <time>2022-12-28T09:05:45Z</time>
      </trkpt>
      <trkpt lat="43.56717" lon="1.20232">
        <ele>203.8</ele>
        <time>2022-12-28T09:05:49Z</time>
      </trkpt>
      <trkpt lat="43.56751" lon="1.20168">
        <ele>204.2</ele>
        <time>2022-12-28T09:05:59Z</time>
      </trkpt>
      <trkpt lat="43.56754" lon="1.20161">
        <ele>204.2</ele>
        <time>2022-12-28T09:06:00Z</time>
      </trkpt>
      <trkpt lat="43.56777" lon="1.20113">
        <ele>204.2</ele>
        <time>2022-12-28T09:06:07Z</time>
      </trkpt>
      <trkpt lat="43.56808" lon="1.20053">
        <ele>204</ele>
        <time>2022-12-28T09:06:16Z</time>
      </trkpt>
      <trkpt lat="43.5684" lon="1.19988">
        <ele>204.4</ele>
        <time>2022-12-28T09:06:26Z</time>
      </trkpt>
      <trkpt lat="43.56866" lon="1.19938">
        <ele>204.8</ele>
        <time>2022-12-28T09:06:34Z</time>
      </trkpt>
      <trkpt lat="43.56879" lon="1.19908">
        <ele>205.2</ele>
        <time>2022-12-28T09:06:39Z</time>
      </trkpt>
      <trkpt lat="43.5688" lon="1.19901">
        <ele>205.2</ele>
        <time>2022-12-28T09:06:40Z</time>
      </trkpt>
      <trkpt lat="43.56879" lon="1.19893">
        <ele>205.4</ele>
        <time>2022-12-28T09:06:41Z</time>
      </trkpt>
      <trkpt lat="43.56872" lon="1.1988">
        <ele>205.4</ele>
        <time>2022-12-28T09:06:43Z</time>
      </trkpt>
      <trkpt lat="43.56844" lon="1.19841">
        <ele>205.8</ele>
        <time>2022-12-28T09:06:50Z</time>
      </trkpt>
      <trkpt lat="43.56824" lon="1.19814">
        <ele>206.2</ele>
        <time>2022-12-28T09:06:55Z</time>
      </trkpt>
      <trkpt lat="43.56819" lon="1.19808">
        <ele>206.2</ele>
        <time>2022-12-28T09:06:56Z</time>
      </trkpt>
      <trkpt lat="43.5679" lon="1.19771">
        <ele>206.2</ele>
        <time>2022-12-28T09:07:03Z</time>
      </trkpt>
      <trkpt lat="43.56752" lon="1.19732">
        <ele>205.8</ele>
        <time>2022-12-28T09:07:11Z</time>
      </trkpt>
      <trkpt lat="43.56713" lon="1.19706">
        <ele>205.8</ele>
        <time>2022-12-28T09:07:18Z</time>
      </trkpt>
      <trkpt lat="43.56662" lon="1.19681">
        <ele>205.6</ele>
        <time>2022-12-28T09:07:27Z</time>
      </trkpt>
      <trkpt lat="43.56657" lon="1.19678">
        <ele>205.6</ele>
        <time>2022-12-28T09:07:28Z</time>
      </trkpt>
      <trkpt lat="43.56604" lon="1.19652">
        <ele>205.6</ele>
        <time>2022-12-28T09:07:38Z</time>
      </trkpt>
      <trkpt lat="43.56599" lon="1.1965">
        <ele>205.6</ele>
        <time>2022-12-28T09:07:39Z</time>
      </trkpt>
      <trkpt lat="43.56596" lon="1.19646">
        <ele>205.6</ele>
        <time>2022-12-28T09:07:40Z</time>
      </trkpt>
      <trkpt lat="43.56593" lon="1.19641">
        <ele>205.6</ele>
        <time>2022-12-28T09:07:41Z</time>
      </trkpt>
      <trkpt lat="43.56593" lon="1.19635">
        <ele>205.6</ele>
        <time>2022-12-28T09:07:42Z</time>
      </trkpt>
      <trkpt lat="43.56594" lon="1.1963">
        <ele>205.6</ele>
        <time>2022-12-28T09:07:43Z</time>
      </trkpt>
      <trkpt lat="43.56598" lon="1.19625">
        <ele>205.6</ele>
        <time>2022-12-28T09:07:44Z</time>
      </trkpt>
      <trkpt lat="43.56606" lon="1.19618">
        <ele>205.6</ele>
        <time>2022-12-28T09:07:46Z</time>
      </trkpt>
      <trkpt lat="43.56628" lon="1.19593">
        <ele>205.6</ele>
        <time>2022-12-28T09:07:51Z</time>
      </trkpt>
      <trkpt lat="43.56664" lon="1.19552">
        <ele>205.8</ele>
        <time>2022-12-28T09:07:59Z</time>
      </trkpt>
      <trkpt lat="43.56689" lon="1.19533">
        <ele>205.8</ele>
        <time>2022-12-28T09:08:04Z</time>
      </trkpt>
      <trkpt lat="43.56694" lon="1.19532">
        <ele>206</ele>
        <time>2022-12-28T09:08:05Z</time>
      </trkpt>
      <trkpt lat="43.56705" lon="1.19531">
        <ele>206</ele>
        <time>2022-12-28T09:08:07Z</time>
      </trkpt>
      <trkpt lat="43.56715" lon="1.19527">
        <ele>206.2</ele>
        <time>2022-12-28T09:08:09Z</time>
      </trkpt>
      <trkpt lat="43.56719" lon="1.19523">
        <ele>206.2</ele>
        <time>2022-12-28T09:08:10Z</time>
      </trkpt>
      <trkpt lat="43.56722" lon="1.19518">
        <ele>206.2</ele>
        <time>2022-12-28T09:08:11Z</time>
      </trkpt>
      <trkpt lat="43.56726" lon="1.19505">
        <ele>206.4</ele>
        <time>2022-12-28T09:08:13Z</time>
      </trkpt>
      <trkpt lat="43.56729" lon="1.19486">
        <ele>206.6</ele>
        <time>2022-12-28T09:08:16Z</time>
      </trkpt>
      <trkpt lat="43.56733" lon="1.19474">
        <ele>206.6</ele>
        <time>2022-12-28T09:08:18Z</time>
      </trkpt>
      <trkpt lat="43.56736" lon="1.19469">
        <ele>206.6</ele>
        <time>2022-12-28T09:08:19Z</time>
      </trkpt>
      <trkpt lat="43.5676" lon="1.19432">
        <ele>206.4</ele>
        <time>2022-12-28T09:08:26Z</time>
      </trkpt>
      <trkpt lat="43.56763" lon="1.19431">
        <ele>206.2</ele>
        <time>2022-12-28T09:08:27Z</time>
      </trkpt>
      <trkpt lat="43.56782" lon="1.19434">
        <ele>205.6</ele>
        <time>2022-12-28T09:08:32Z</time>
      </trkpt>
      <trkpt lat="43.5679" lon="1.19443">
        <ele>205</ele>
        <time>2022-12-28T09:08:36Z</time>
      </trkpt>
      <trkpt lat="43.56793" lon="1.19449">
        <ele>205</ele>
        <time>2022-12-28T09:08:38Z</time>
      </trkpt>
      <trkpt lat="43.56799" lon="1.19453">
        <ele>205</ele>
        <time>2022-12-28T09:08:40Z</time>
      </trkpt>
      <trkpt lat="43.5682" lon="1.19463">
        <ele>205</ele>
        <time>2022-12-28T09:08:47Z</time>
      </trkpt>
      <trkpt lat="43.56825" lon="1.19467">
        <ele>205.2</ele>
        <time>2022-12-28T09:08:49Z</time>
      </trkpt>
      <trkpt lat="43.56828" lon="1.19474">
        <ele>205.2</ele>
        <time>2022-12-28T09:08:51Z</time>
      </trkpt>
      <trkpt lat="43.56829" lon="1.19483">
        <ele>205</ele>
        <time>2022-12-28T09:08:53Z</time>
      </trkpt>
      <trkpt lat="43.56832" lon="1.19494">
        <ele>204.8</ele>
        <time>2022-12-28T09:08:55Z</time>
      </trkpt>
      <trkpt lat="43.56845" lon="1.19519">
        <ele>205.2</ele>
        <time>2022-12-28T09:09:00Z</time>
      </trkpt>
      <trkpt lat="43.56866" lon="1.19538">
        <ele>205.6</ele>
        <time>2022-12-28T09:09:05Z</time>
      </trkpt>
      <trkpt lat="43.56879" lon="1.19554">
        <ele>205</ele>
        <time>2022-12-28T09:09:10Z</time>
      </trkpt>
      <trkpt lat="43.56889" lon="1.19582">
        <ele>205</ele>
        <time>2022-12-28T09:09:16Z</time>
      </trkpt>
      <trkpt lat="43.56884" lon="1.19609">
        <ele>205</ele>
        <time>2022-12-28T09:09:22Z</time>
      </trkpt>
      <trkpt lat="43.56891" lon="1.19636">
        <ele>205</ele>
        <time>2022-12-28T09:09:27Z</time>
      </trkpt>
      <trkpt lat="43.56904" lon="1.19652">
        <ele>205</ele>
        <time>2022-12-28T09:09:31Z</time>
      </trkpt>
      <trkpt lat="43.56925" lon="1.19672">
        <ele>204.8</ele>
        <time>2022-12-28T09:09:37Z</time>
      </trkpt>
      <trkpt lat="43.56944" lon="1.1967">
        <ele>204.8</ele>
        <time>2022-12-28T09:09:42Z</time>
      </trkpt>
      <trkpt lat="43.56957" lon="1.19674">
        <ele>204.8</ele>
        <time>2022-12-28T09:09:46Z</time>
      </trkpt>
      <trkpt lat="43.56964" lon="1.19677">
        <ele>204.8</ele>
        <time>2022-12-28T09:09:48Z</time>
      </trkpt>
      <trkpt lat="43.56967" lon="1.19684">
        <ele>204.8</ele>
        <time>2022-12-28T09:09:50Z</time>
      </trkpt>
      <trkpt lat="43.56977" lon="1.19701">
        <ele>204.8</ele>
        <time>2022-12-28T09:09:55Z</time>
      </trkpt>
      <trkpt lat="43.56978" lon="1.19722">
        <ele>204.8</ele>
        <time>2022-12-28T09:10:00Z</time>
      </trkpt>
      <trkpt lat="43.56977" lon="1.19731">
        <ele>204.8</ele>
        <time>2022-12-28T09:10:03Z</time>
      </trkpt>
      <trkpt lat="43.56978" lon="1.19732">
        <ele>204.8</ele>
        <time>2022-12-28T09:10:04Z</time>
      </trkpt>
      <trkpt lat="43.5698" lon="1.19735">
        <ele>204.8</ele>
        <time>2022-12-28T09:10:06Z</time>
      </trkpt>
      <trkpt lat="43.5698" lon="1.19739">
        <ele>204.8</ele>
        <time>2022-12-28T09:10:09Z</time>
      </trkpt>
      <trkpt lat="43.56981" lon="1.19741">
        <ele>204.6</ele>
        <time>2022-12-28T09:10:10Z</time>
      </trkpt>
      <trkpt lat="43.56988" lon="1.1975">
        <ele>204.6</ele>
        <time>2022-12-28T09:10:13Z</time>
      </trkpt>
      <trkpt lat="43.57002" lon="1.19754">
        <ele>204.4</ele>
        <time>2022-12-28T09:10:17Z</time>
      </trkpt>
      <trkpt lat="43.57027" lon="1.19762">
        <ele>204.4</ele>
        <time>2022-12-28T09:10:23Z</time>
      </trkpt>
      <trkpt lat="43.57063" lon="1.19775">
        <ele>204.2</ele>
        <time>2022-12-28T09:10:30Z</time>
      </trkpt>
      <trkpt lat="43.57115" lon="1.19789">
        <ele>204.4</ele>
        <time>2022-12-28T09:10:40Z</time>
      </trkpt>
      <trkpt lat="43.57119" lon="1.1979">
        <ele>204.2</ele>
        <time>2022-12-28T09:10:41Z</time>
      </trkpt>
      <trkpt lat="43.57132" lon="1.19795">
        <ele>203.6</ele>
        <time>2022-12-28T09:10:44Z</time>
      </trkpt>
      <trkpt lat="43.57137" lon="1.19796">
        <ele>203.4</ele>
        <time>2022-12-28T09:10:45Z</time>
      </trkpt>
      <trkpt lat="43.57171" lon="1.19807">
        <ele>203.4</ele>
        <time>2022-12-28T09:10:53Z</time>
      </trkpt>
      <trkpt lat="43.57197" lon="1.19814">
        <ele>203.6</ele>
        <time>2022-12-28T09:11:00Z</time>
      </trkpt>
      <trkpt lat="43.57225" lon="1.19822">
        <ele>203.4</ele>
        <time>2022-12-28T09:11:06Z</time>
      </trkpt>
      <trkpt lat="43.57264" lon="1.19832">
        <ele>203.4</ele>
        <time>2022-12-28T09:11:13Z</time>
      </trkpt>
      <trkpt lat="43.57303" lon="1.19843">
        <ele>203.2</ele>
        <time>2022-12-28T09:11:20Z</time>
      </trkpt>
      <trkpt lat="43.57339" lon="1.19847">
        <ele>203</ele>
        <time>2022-12-28T09:11:27Z</time>
      </trkpt>
      <trkpt lat="43.57397" lon="1.19853">
        <ele>203.2</ele>
        <time>2022-12-28T09:11:38Z</time>
      </trkpt>
      <trkpt lat="43.57402" lon="1.19854">
        <ele>203</ele>
        <time>2022-12-28T09:11:39Z</time>
      </trkpt>
      <trkpt lat="43.57418" lon="1.19856">
        <ele>203</ele>
        <time>2022-12-28T09:11:42Z</time>
      </trkpt>
      <trkpt lat="43.57439" lon="1.19857">
        <ele>202.8</ele>
        <time>2022-12-28T09:11:46Z</time>
      </trkpt>
      <trkpt lat="43.57497" lon="1.19863">
        <ele>203</ele>
        <time>2022-12-28T09:11:57Z</time>
      </trkpt>
      <trkpt lat="43.57502" lon="1.19864">
        <ele>203</ele>
        <time>2022-12-28T09:11:58Z</time>
      </trkpt>
      <trkpt lat="43.57515" lon="1.19866">
        <ele>202.8</ele>
        <time>2022-12-28T09:12:01Z</time>
      </trkpt>
      <trkpt lat="43.57529" lon="1.1987">
        <ele>202.8</ele>
        <time>2022-12-28T09:12:04Z</time>
      </trkpt>
      <trkpt lat="43.57561" lon="1.19877">
        <ele>202.8</ele>
        <time>2022-12-28T09:12:11Z</time>
      </trkpt>
      <trkpt lat="43.576" lon="1.19885">
        <ele>203.2</ele>
        <time>2022-12-28T09:12:19Z</time>
      </trkpt>
      <trkpt lat="43.57648" lon="1.19896">
        <ele>202.6</ele>
        <time>2022-12-28T09:12:29Z</time>
      </trkpt>
      <trkpt lat="43.57657" lon="1.19898">
        <ele>202.4</ele>
        <time>2022-12-28T09:12:31Z</time>
      </trkpt>
      <trkpt lat="43.57695" lon="1.19907">
        <ele>202.6</ele>
        <time>2022-12-28T09:12:38Z</time>
      </trkpt>
      <trkpt lat="43.57705" lon="1.19908">
        <ele>202.8</ele>
        <time>2022-12-28T09:12:40Z</time>
      </trkpt>
      <trkpt lat="43.57709" lon="1.19909">
        <ele>202.8</ele>
        <time>2022-12-28T09:12:41Z</time>
      </trkpt>
      <trkpt lat="43.57719" lon="1.19912">
        <ele>202.8</ele>
        <time>2022-12-28T09:12:43Z</time>
      </trkpt>
      <trkpt lat="43.57764" lon="1.19923">
        <ele>202.8</ele>
        <time>2022-12-28T09:12:51Z</time>
      </trkpt>
      <trkpt lat="43.57809" lon="1.19933">
        <ele>202.8</ele>
        <time>2022-12-28T09:12:59Z</time>
      </trkpt>
      <trkpt lat="43.57814" lon="1.19933">
        <ele>202.8</ele>
        <time>2022-12-28T09:13:00Z</time>
      </trkpt>
      <trkpt lat="43.57829" lon="1.19936">
        <ele>202.8</ele>
        <time>2022-12-28T09:13:04Z</time>
      </trkpt>
      <trkpt lat="43.57858" lon="1.19945">
        <ele>202.6</ele>
        <time>2022-12-28T09:13:09Z</time>
      </trkpt>
      <trkpt lat="43.57861" lon="1.19944">
        <ele>202.6</ele>
        <time>2022-12-28T09:13:10Z</time>
      </trkpt>
      <trkpt lat="43.57866" lon="1.19937">
        <ele>202.8</ele>
        <time>2022-12-28T09:13:12Z</time>
      </trkpt>
      <trkpt lat="43.57866" lon="1.19933">
        <ele>202.8</ele>
        <time>2022-12-28T09:13:13Z</time>
      </trkpt>
      <trkpt lat="43.57865" lon="1.19916">
        <ele>203.2</ele>
        <time>2022-12-28T09:13:19Z</time>
      </trkpt>
      <trkpt lat="43.57861" lon="1.19901">
        <ele>203.2</ele>
        <time>2022-12-28T09:13:25Z</time>
      </trkpt>
      <trkpt lat="43.57859" lon="1.19882">
        <ele>203.2</ele>
        <time>2022-12-28T09:13:32Z</time>
      </trkpt>
      <trkpt lat="43.57859" lon="1.19876">
        <ele>203</ele>
        <time>2022-12-28T09:13:35Z</time>
      </trkpt>
      <trkpt lat="43.57859" lon="1.19862">
        <ele>203</ele>
        <time>2022-12-28T09:13:42Z</time>
      </trkpt>
      <trkpt lat="43.57859" lon="1.19859">
        <ele>203.2</ele>
        <time>2022-12-28T09:13:44Z</time>
      </trkpt>
      <trkpt lat="43.5786" lon="1.19855">
        <ele>203.2</ele>
        <time>2022-12-28T09:13:47Z</time>
      </trkpt>
      <trkpt lat="43.5786" lon="1.19837">
        <ele>203.6</ele>
        <time>2022-12-28T09:13:56Z</time>
      </trkpt>
      <trkpt lat="43.57861" lon="1.19825">
        <ele>203.6</ele>
        <time>2022-12-28T09:14:01Z</time>
      </trkpt>
      <trkpt lat="43.5786" lon="1.19816">
        <ele>203.6</ele>
        <time>2022-12-28T09:14:04Z</time>
      </trkpt>
      <trkpt lat="43.57861" lon="1.19788">
        <ele>203.8</ele>
        <time>2022-12-28T09:14:13Z</time>
      </trkpt>
      <trkpt lat="43.57862" lon="1.1976">
        <ele>204</ele>
        <time>2022-12-28T09:14:21Z</time>
      </trkpt>
      <trkpt lat="43.57862" lon="1.19719">
        <ele>204.2</ele>
        <time>2022-12-28T09:14:31Z</time>
      </trkpt>
      <trkpt lat="43.57864" lon="1.19679">
        <ele>204.8</ele>
        <time>2022-12-28T09:14:39Z</time>
      </trkpt>
      <trkpt lat="43.57867" lon="1.19639">
        <ele>204.8</ele>
        <time>2022-12-28T09:14:47Z</time>
      </trkpt>
      <trkpt lat="43.57871" lon="1.19595">
        <ele>204.8</ele>
        <time>2022-12-28T09:14:55Z</time>
      </trkpt>
      <trkpt lat="43.57873" lon="1.1957">
        <ele>204.8</ele>
        <time>2022-12-28T09:14:59Z</time>
      </trkpt>
      <trkpt lat="43.57875" lon="1.1955">
        <ele>204.8</ele>
        <time>2022-12-28T09:15:02Z</time>
      </trkpt>
      <trkpt lat="43.57878" lon="1.19487">
        <ele>204.8</ele>
        <time>2022-12-28T09:15:13Z</time>
      </trkpt>
      <trkpt lat="43.57877" lon="1.19475">
        <ele>205</ele>
        <time>2022-12-28T09:15:15Z</time>
      </trkpt>
      <trkpt lat="43.57873" lon="1.19451">
        <ele>205.2</ele>
        <time>2022-12-28T09:15:19Z</time>
      </trkpt>
      <trkpt lat="43.57867" lon="1.19404">
        <ele>205.8</ele>
        <time>2022-12-28T09:15:27Z</time>
      </trkpt>
      <trkpt lat="43.57865" lon="1.19398">
        <ele>206</ele>
        <time>2022-12-28T09:15:28Z</time>
      </trkpt>
      <trkpt lat="43.57859" lon="1.19359">
        <ele>205.8</ele>
        <time>2022-12-28T09:15:35Z</time>
      </trkpt>
      <trkpt lat="43.57857" lon="1.19344">
        <ele>205.8</ele>
        <time>2022-12-28T09:15:38Z</time>
      </trkpt>
      <trkpt lat="43.57854" lon="1.19327">
        <ele>205.6</ele>
        <time>2022-12-28T09:15:41Z</time>
      </trkpt>
      <trkpt lat="43.57847" lon="1.19289">
        <ele>205.8</ele>
        <time>2022-12-28T09:15:48Z</time>
      </trkpt>
      <trkpt lat="43.57832" lon="1.19235">
        <ele>206.4</ele>
        <time>2022-12-28T09:15:58Z</time>
      </trkpt>
      <trkpt lat="43.57821" lon="1.19186">
        <ele>206.4</ele>
        <time>2022-12-28T09:16:06Z</time>
      </trkpt>
      <trkpt lat="43.5782" lon="1.1914">
        <ele>206.4</ele>
        <time>2022-12-28T09:16:13Z</time>
      </trkpt>
      <trkpt lat="43.5782" lon="1.19135">
        <ele>206.4</ele>
        <time>2022-12-28T09:16:14Z</time>
      </trkpt>
      <trkpt lat="43.57823" lon="1.19085">
        <ele>206.8</ele>
        <time>2022-12-28T09:16:23Z</time>
      </trkpt>
      <trkpt lat="43.5783" lon="1.19021">
        <ele>206.6</ele>
        <time>2022-12-28T09:16:34Z</time>
      </trkpt>
      <trkpt lat="43.57833" lon="1.18995">
        <ele>207</ele>
        <time>2022-12-28T09:16:38Z</time>
      </trkpt>
      <trkpt lat="43.57836" lon="1.18973">
        <ele>207.6</ele>
        <time>2022-12-28T09:16:41Z</time>
      </trkpt>
      <trkpt lat="43.5784" lon="1.18931">
        <ele>208.2</ele>
        <time>2022-12-28T09:16:48Z</time>
      </trkpt>
      <trkpt lat="43.57846" lon="1.18893">
        <ele>208.6</ele>
        <time>2022-12-28T09:16:55Z</time>
      </trkpt>
      <trkpt lat="43.57851" lon="1.18852">
        <ele>208.6</ele>
        <time>2022-12-28T09:17:02Z</time>
      </trkpt>
      <trkpt lat="43.57853" lon="1.18841">
        <ele>208.6</ele>
        <time>2022-12-28T09:17:04Z</time>
      </trkpt>
      <trkpt lat="43.57862" lon="1.18806">
        <ele>208.6</ele>
        <time>2022-12-28T09:17:11Z</time>
      </trkpt>
      <trkpt lat="43.57865" lon="1.18794">
        <ele>208.6</ele>
        <time>2022-12-28T09:17:13Z</time>
      </trkpt>
      <trkpt lat="43.57876" lon="1.1875">
        <ele>209</ele>
        <time>2022-12-28T09:17:22Z</time>
      </trkpt>
      <trkpt lat="43.57881" lon="1.18732">
        <ele>209.2</ele>
        <time>2022-12-28T09:17:26Z</time>
      </trkpt>
      <trkpt lat="43.57888" lon="1.18701">
        <ele>209.6</ele>
        <time>2022-12-28T09:17:32Z</time>
      </trkpt>
      <trkpt lat="43.57895" lon="1.18645">
        <ele>209.8</ele>
        <time>2022-12-28T09:17:43Z</time>
      </trkpt>
      <trkpt lat="43.57895" lon="1.18593">
        <ele>210.2</ele>
        <time>2022-12-28T09:17:52Z</time>
      </trkpt>
      <trkpt lat="43.57894" lon="1.1855">
        <ele>210.2</ele>
        <time>2022-12-28T09:18:00Z</time>
      </trkpt>
      <trkpt lat="43.57892" lon="1.18533">
        <ele>210.4</ele>
        <time>2022-12-28T09:18:03Z</time>
      </trkpt>
      <trkpt lat="43.57894" lon="1.18514">
        <ele>210.6</ele>
        <time>2022-12-28T09:18:08Z</time>
      </trkpt>
      <trkpt lat="43.57895" lon="1.18504">
        <ele>211</ele>
        <time>2022-12-28T09:18:13Z</time>
      </trkpt>
      <trkpt lat="43.57897" lon="1.185">
        <ele>211</ele>
        <time>2022-12-28T09:18:16Z</time>
      </trkpt>
      <trkpt lat="43.57902" lon="1.18488">
        <ele>211</ele>
        <time>2022-12-28T09:18:21Z</time>
      </trkpt>
      <trkpt lat="43.57913" lon="1.18465">
        <ele>211.2</ele>
        <time>2022-12-28T09:18:27Z</time>
      </trkpt>
      <trkpt lat="43.57915" lon="1.18461">
        <ele>211.4</ele>
        <time>2022-12-28T09:18:28Z</time>
      </trkpt>
      <trkpt lat="43.57931" lon="1.18427">
        <ele>211.8</ele>
        <time>2022-12-28T09:18:35Z</time>
      </trkpt>
      <trkpt lat="43.57957" lon="1.18373">
        <ele>212.4</ele>
        <time>2022-12-28T09:18:46Z</time>
      </trkpt>
      <trkpt lat="43.5796" lon="1.18367">
        <ele>212.4</ele>
        <time>2022-12-28T09:18:47Z</time>
      </trkpt>
      <trkpt lat="43.5799" lon="1.183">
        <ele>212.8</ele>
        <time>2022-12-28T09:18:59Z</time>
      </trkpt>
      <trkpt lat="43.58007" lon="1.18264">
        <ele>213.4</ele>
        <time>2022-12-28T09:19:05Z</time>
      </trkpt>
      <trkpt lat="43.58018" lon="1.18241">
        <ele>213.6</ele>
        <time>2022-12-28T09:19:09Z</time>
      </trkpt>
      <trkpt lat="43.58041" lon="1.18196">
        <ele>214.4</ele>
        <time>2022-12-28T09:19:17Z</time>
      </trkpt>
      <trkpt lat="43.58052" lon="1.18172">
        <ele>214.4</ele>
        <time>2022-12-28T09:19:21Z</time>
      </trkpt>
      <trkpt lat="43.5807" lon="1.18138">
        <ele>214.8</ele>
        <time>2022-12-28T09:19:27Z</time>
      </trkpt>
      <trkpt lat="43.58073" lon="1.18133">
        <ele>214.8</ele>
        <time>2022-12-28T09:19:28Z</time>
      </trkpt>
      <trkpt lat="43.58105" lon="1.1807">
        <ele>215.6</ele>
        <time>2022-12-28T09:19:39Z</time>
      </trkpt>
      <trkpt lat="43.58121" lon="1.1804">
        <ele>216</ele>
        <time>2022-12-28T09:19:45Z</time>
      </trkpt>
      <trkpt lat="43.58123" lon="1.18035">
        <ele>216.2</ele>
        <time>2022-12-28T09:19:46Z</time>
      </trkpt>
      <trkpt lat="43.58128" lon="1.18025">
        <ele>216.4</ele>
        <time>2022-12-28T09:19:48Z</time>
      </trkpt>
      <trkpt lat="43.58131" lon="1.18019">
        <ele>216.6</ele>
        <time>2022-12-28T09:19:49Z</time>
      </trkpt>
      <trkpt lat="43.58134" lon="1.1801">
        <ele>216.8</ele>
        <time>2022-12-28T09:19:51Z</time>
      </trkpt>
      <trkpt lat="43.58137" lon="1.18004">
        <ele>217</ele>
        <time>2022-12-28T09:19:52Z</time>
      </trkpt>
      <trkpt lat="43.58145" lon="1.17986">
        <ele>217.6</ele>
        <time>2022-12-28T09:19:56Z</time>
      </trkpt>
      <trkpt lat="43.58147" lon="1.17981">
        <ele>217.8</ele>
        <time>2022-12-28T09:19:57Z</time>
      </trkpt>
      <trkpt lat="43.5815" lon="1.17976">
        <ele>217.8</ele>
        <time>2022-12-28T09:19:58Z</time>
      </trkpt>
      <trkpt lat="43.5817" lon="1.17942">
        <ele>219</ele>
        <time>2022-12-28T09:20:05Z</time>
      </trkpt>
      <trkpt lat="43.58186" lon="1.17913">
        <ele>220</ele>
        <time>2022-12-28T09:20:11Z</time>
      </trkpt>
      <trkpt lat="43.58197" lon="1.179">
        <ele>221</ele>
        <time>2022-12-28T09:20:15Z</time>
      </trkpt>
      <trkpt lat="43.58206" lon="1.17883">
        <ele>222</ele>
        <time>2022-12-28T09:20:20Z</time>
      </trkpt>
      <trkpt lat="43.58201" lon="1.17876">
        <ele>222.2</ele>
        <time>2022-12-28T09:20:23Z</time>
      </trkpt>
      <trkpt lat="43.58198" lon="1.17874">
        <ele>222.4</ele>
        <time>2022-12-28T09:20:24Z</time>
      </trkpt>
      <trkpt lat="43.58181" lon="1.17858">
        <ele>223.2</ele>
        <time>2022-12-28T09:20:33Z</time>
      </trkpt>
      <trkpt lat="43.58176" lon="1.17855">
        <ele>223.4</ele>
        <time>2022-12-28T09:20:36Z</time>
      </trkpt>
      <trkpt lat="43.58171" lon="1.17853">
        <ele>223.8</ele>
        <time>2022-12-28T09:20:40Z</time>
      </trkpt>
      <trkpt lat="43.58166" lon="1.17851">
        <ele>225</ele>
        <time>2022-12-28T09:20:43Z</time>
      </trkpt>
      <trkpt lat="43.5816" lon="1.17845">
        <ele>226.2</ele>
        <time>2022-12-28T09:20:47Z</time>
      </trkpt>
      <trkpt lat="43.58159" lon="1.17843">
        <ele>226.4</ele>
        <time>2022-12-28T09:20:48Z</time>
      </trkpt>
      <trkpt lat="43.58156" lon="1.17837">
        <ele>227.2</ele>
        <time>2022-12-28T09:20:51Z</time>
      </trkpt>
      <trkpt lat="43.58154" lon="1.17829">
        <ele>227.8</ele>
        <time>2022-12-28T09:20:54Z</time>
      </trkpt>
      <trkpt lat="43.58156" lon="1.17812">
        <ele>228.2</ele>
        <time>2022-12-28T09:20:59Z</time>
      </trkpt>
      <trkpt lat="43.58157" lon="1.17804">
        <ele>228.4</ele>
        <time>2022-12-28T09:21:01Z</time>
      </trkpt>
      <trkpt lat="43.58163" lon="1.17774">
        <ele>229.2</ele>
        <time>2022-12-28T09:21:09Z</time>
      </trkpt>
      <trkpt lat="43.58163" lon="1.1777">
        <ele>229.4</ele>
        <time>2022-12-28T09:21:10Z</time>
      </trkpt>
      <trkpt lat="43.58167" lon="1.1773">
        <ele>230.6</ele>
        <time>2022-12-28T09:21:20Z</time>
      </trkpt>
      <trkpt lat="43.58168" lon="1.17726">
        <ele>230.6</ele>
        <time>2022-12-28T09:21:21Z</time>
      </trkpt>
      <trkpt lat="43.58175" lon="1.17697">
        <ele>231.6</ele>
        <time>2022-12-28T09:21:28Z</time>
      </trkpt>
      <trkpt lat="43.5818" lon="1.1768">
        <ele>232.2</ele>
        <time>2022-12-28T09:21:32Z</time>
      </trkpt>
      <trkpt lat="43.58188" lon="1.17659">
        <ele>232.6</ele>
        <time>2022-12-28T09:21:37Z</time>
      </trkpt>
      <trkpt lat="43.58189" lon="1.17655">
        <ele>232.8</ele>
        <time>2022-12-28T09:21:38Z</time>
      </trkpt>
      <trkpt lat="43.58202" lon="1.17617">
        <ele>233.8</ele>
        <time>2022-12-28T09:21:47Z</time>
      </trkpt>
      <trkpt lat="43.58204" lon="1.17599">
        <ele>234.2</ele>
        <time>2022-12-28T09:21:52Z</time>
      </trkpt>
      <trkpt lat="43.58212" lon="1.1757">
        <ele>235</ele>
        <time>2022-12-28T09:22:00Z</time>
      </trkpt>
      <trkpt lat="43.58213" lon="1.17566">
        <ele>235</ele>
        <time>2022-12-28T09:22:01Z</time>
      </trkpt>
      <trkpt lat="43.58223" lon="1.17523">
        <ele>235.8</ele>
        <time>2022-12-28T09:22:11Z</time>
      </trkpt>
      <trkpt lat="43.58226" lon="1.17511">
        <ele>236</ele>
        <time>2022-12-28T09:22:14Z</time>
      </trkpt>
      <trkpt lat="43.58231" lon="1.17492">
        <ele>237</ele>
        <time>2022-12-28T09:22:18Z</time>
      </trkpt>
      <trkpt lat="43.58233" lon="1.17483">
        <ele>237.6</ele>
        <time>2022-12-28T09:22:20Z</time>
      </trkpt>
      <trkpt lat="43.58243" lon="1.1745">
        <ele>238.4</ele>
        <time>2022-12-28T09:22:27Z</time>
      </trkpt>
      <trkpt lat="43.58248" lon="1.17437">
        <ele>238.6</ele>
        <time>2022-12-28T09:22:30Z</time>
      </trkpt>
      <trkpt lat="43.58252" lon="1.17424">
        <ele>239.4</ele>
        <time>2022-12-28T09:22:35Z</time>
      </trkpt>
      <trkpt lat="43.58263" lon="1.174">
        <ele>240</ele>
        <time>2022-12-28T09:22:43Z</time>
      </trkpt>
      <trkpt lat="43.5828" lon="1.1738">
        <ele>240.4</ele>
        <time>2022-12-28T09:22:50Z</time>
      </trkpt>
      <trkpt lat="43.58281" lon="1.17376">
        <ele>240.4</ele>
        <time>2022-12-28T09:22:51Z</time>
      </trkpt>
      <trkpt lat="43.58284" lon="1.17356">
        <ele>241</ele>
        <time>2022-12-28T09:22:56Z</time>
      </trkpt>
      <trkpt lat="43.58285" lon="1.17343">
        <ele>241.8</ele>
        <time>2022-12-28T09:23:00Z</time>
      </trkpt>
      <trkpt lat="43.58284" lon="1.17337">
        <ele>242</ele>
        <time>2022-12-28T09:23:02Z</time>
      </trkpt>
      <trkpt lat="43.58285" lon="1.17315">
        <ele>242.8</ele>
        <time>2022-12-28T09:23:08Z</time>
      </trkpt>
      <trkpt lat="43.58285" lon="1.17311">
        <ele>242.8</ele>
        <time>2022-12-28T09:23:09Z</time>
      </trkpt>
      <trkpt lat="43.58288" lon="1.17287">
        <ele>244</ele>
        <time>2022-12-28T09:23:15Z</time>
      </trkpt>
      <trkpt lat="43.58289" lon="1.17275">
        <ele>244.6</ele>
        <time>2022-12-28T09:23:18Z</time>
      </trkpt>
      <trkpt lat="43.58291" lon="1.17267">
        <ele>245.2</ele>
        <time>2022-12-28T09:23:20Z</time>
      </trkpt>
      <trkpt lat="43.58297" lon="1.17247">
        <ele>246.2</ele>
        <time>2022-12-28T09:23:26Z</time>
      </trkpt>
      <trkpt lat="43.58299" lon="1.17241">
        <ele>246.2</ele>
        <time>2022-12-28T09:23:28Z</time>
      </trkpt>
      <trkpt lat="43.58303" lon="1.17224">
        <ele>247</ele>
        <time>2022-12-28T09:23:33Z</time>
      </trkpt>
      <trkpt lat="43.58304" lon="1.17217">
        <ele>247.2</ele>
        <time>2022-12-28T09:23:35Z</time>
      </trkpt>
      <trkpt lat="43.58307" lon="1.17195">
        <ele>248</ele>
        <time>2022-12-28T09:23:42Z</time>
      </trkpt>
      <trkpt lat="43.58308" lon="1.17188">
        <ele>248.4</ele>
        <time>2022-12-28T09:23:44Z</time>
      </trkpt>
      <trkpt lat="43.5831" lon="1.17176">
        <ele>249.6</ele>
        <time>2022-12-28T09:23:48Z</time>
      </trkpt>
      <trkpt lat="43.58311" lon="1.17162">
        <ele>250.8</ele>
        <time>2022-12-28T09:23:52Z</time>
      </trkpt>
      <trkpt lat="43.58311" lon="1.17159">
        <ele>251.2</ele>
        <time>2022-12-28T09:23:53Z</time>
      </trkpt>
      <trkpt lat="43.58311" lon="1.17156">
        <ele>251.4</ele>
        <time>2022-12-28T09:23:54Z</time>
      </trkpt>
      <trkpt lat="43.58311" lon="1.1715">
        <ele>251.8</ele>
        <time>2022-12-28T09:23:56Z</time>
      </trkpt>
      <trkpt lat="43.58313" lon="1.17141">
        <ele>252.6</ele>
        <time>2022-12-28T09:23:59Z</time>
      </trkpt>
      <trkpt lat="43.58313" lon="1.17135">
        <ele>253</ele>
        <time>2022-12-28T09:24:01Z</time>
      </trkpt>
      <trkpt lat="43.58313" lon="1.17121">
        <ele>253.8</ele>
        <time>2022-12-28T09:24:05Z</time>
      </trkpt>
      <trkpt lat="43.58314" lon="1.1711">
        <ele>254.2</ele>
        <time>2022-12-28T09:24:08Z</time>
      </trkpt>
      <trkpt lat="43.58314" lon="1.17101">
        <ele>255</ele>
        <time>2022-12-28T09:24:11Z</time>
      </trkpt>
      <trkpt lat="43.58314" lon="1.17098">
        <ele>255.4</ele>
        <time>2022-12-28T09:24:12Z</time>
      </trkpt>
      <trkpt lat="43.58314" lon="1.17094">
        <ele>256</ele>
        <time>2022-12-28T09:24:16Z</time>
      </trkpt>
      <trkpt lat="43.58308" lon="1.17074">
        <ele>257.8</ele>
        <time>2022-12-28T09:25:05Z</time>
      </trkpt>
      <trkpt lat="43.58306" lon="1.17068">
        <ele>258</ele>
        <time>2022-12-28T09:25:07Z</time>
      </trkpt>
      <trkpt lat="43.58301" lon="1.1705">
        <ele>258.6</ele>
        <time>2022-12-28T09:25:13Z</time>
      </trkpt>
      <trkpt lat="43.58299" lon="1.17042">
        <ele>259</ele>
        <time>2022-12-28T09:25:16Z</time>
      </trkpt>
      <trkpt lat="43.58298" lon="1.17037">
        <ele>259.2</ele>
        <time>2022-12-28T09:25:18Z</time>
      </trkpt>
      <trkpt lat="43.58297" lon="1.17034">
        <ele>259.6</ele>
        <time>2022-12-28T09:25:19Z</time>
      </trkpt>
      <trkpt lat="43.58294" lon="1.17027">
        <ele>260.2</ele>
        <time>2022-12-28T09:25:21Z</time>
      </trkpt>
      <trkpt lat="43.58291" lon="1.17015">
        <ele>261.2</ele>
        <time>2022-12-28T09:25:25Z</time>
      </trkpt>
      <trkpt lat="43.5829" lon="1.17012">
        <ele>261.4</ele>
        <time>2022-12-28T09:25:26Z</time>
      </trkpt>
      <trkpt lat="43.58289" lon="1.1701">
        <ele>261.6</ele>
        <time>2022-12-28T09:25:27Z</time>
      </trkpt>
      <trkpt lat="43.58283" lon="1.16991">
        <ele>262.2</ele>
        <time>2022-12-28T09:25:34Z</time>
      </trkpt>
      <trkpt lat="43.5828" lon="1.16984">
        <ele>262.4</ele>
        <time>2022-12-28T09:25:36Z</time>
      </trkpt>
      <trkpt lat="43.5828" lon="1.16982">
        <ele>262.6</ele>
        <time>2022-12-28T09:25:37Z</time>
      </trkpt>
      <trkpt lat="43.5828" lon="1.16974">
        <ele>263.4</ele>
        <time>2022-12-28T09:25:40Z</time>
      </trkpt>
      <trkpt lat="43.58277" lon="1.1697">
        <ele>263.8</ele>
        <time>2022-12-28T09:25:42Z</time>
      </trkpt>
      <trkpt lat="43.58273" lon="1.16959">
        <ele>264.2</ele>
        <time>2022-12-28T09:25:45Z</time>
      </trkpt>
      <trkpt lat="43.58271" lon="1.16951">
        <ele>264.6</ele>
        <time>2022-12-28T09:25:47Z</time>
      </trkpt>
      <trkpt lat="43.58268" lon="1.16945">
        <ele>264.8</ele>
        <time>2022-12-28T09:25:49Z</time>
      </trkpt>
      <trkpt lat="43.58264" lon="1.16936">
        <ele>265.2</ele>
        <time>2022-12-28T09:25:52Z</time>
      </trkpt>
      <trkpt lat="43.58263" lon="1.16931">
        <ele>265.8</ele>
        <time>2022-12-28T09:25:54Z</time>
      </trkpt>
      <trkpt lat="43.58262" lon="1.16928">
        <ele>266</ele>
        <time>2022-12-28T09:25:55Z</time>
      </trkpt>
      <trkpt lat="43.58257" lon="1.16917">
        <ele>266.6</ele>
        <time>2022-12-28T09:25:59Z</time>
      </trkpt>
      <trkpt lat="43.58257" lon="1.16915">
        <ele>266.8</ele>
        <time>2022-12-28T09:26:00Z</time>
      </trkpt>
      <trkpt lat="43.58253" lon="1.16904">
        <ele>268.2</ele>
        <time>2022-12-28T09:26:05Z</time>
      </trkpt>
      <trkpt lat="43.5825" lon="1.16894">
        <ele>269.2</ele>
        <time>2022-12-28T09:26:10Z</time>
      </trkpt>
      <trkpt lat="43.5825" lon="1.16891">
        <ele>269.6</ele>
        <time>2022-12-28T09:26:12Z</time>
      </trkpt>
      <trkpt lat="43.58243" lon="1.1688">
        <ele>270.6</ele>
        <time>2022-12-28T09:26:17Z</time>
      </trkpt>
      <trkpt lat="43.5824" lon="1.16864">
        <ele>271.6</ele>
        <time>2022-12-28T09:26:23Z</time>
      </trkpt>
      <trkpt lat="43.58237" lon="1.16857">
        <ele>272.2</ele>
        <time>2022-12-28T09:26:25Z</time>
      </trkpt>
      <trkpt lat="43.58237" lon="1.1685">
        <ele>272.8</ele>
        <time>2022-12-28T09:26:27Z</time>
      </trkpt>
      <trkpt lat="43.58237" lon="1.16846">
        <ele>273.8</ele>
        <time>2022-12-28T09:26:30Z</time>
      </trkpt>
      <trkpt lat="43.58237" lon="1.16846">
        <ele>274</ele>
        <time>2022-12-28T09:26:31Z</time>
      </trkpt>
      <trkpt lat="43.58236" lon="1.1683">
        <ele>275.4</ele>
        <time>2022-12-28T09:26:36Z</time>
      </trkpt>
      <trkpt lat="43.58235" lon="1.16825">
        <ele>276</ele>
        <time>2022-12-28T09:26:38Z</time>
      </trkpt>
      <trkpt lat="43.58234" lon="1.16823">
        <ele>276.2</ele>
        <time>2022-12-28T09:26:39Z</time>
      </trkpt>
      <trkpt lat="43.58234" lon="1.1682">
        <ele>276.2</ele>
        <time>2022-12-28T09:26:40Z</time>
      </trkpt>
      <trkpt lat="43.58234" lon="1.1681">
        <ele>277.4</ele>
        <time>2022-12-28T09:26:44Z</time>
      </trkpt>
      <trkpt lat="43.58234" lon="1.16803">
        <ele>278.6</ele>
        <time>2022-12-28T09:26:47Z</time>
      </trkpt>
      <trkpt lat="43.5823" lon="1.16792">
        <ele>279.4</ele>
        <time>2022-12-28T09:26:52Z</time>
      </trkpt>
      <trkpt lat="43.58229" lon="1.16789">
        <ele>279.6</ele>
        <time>2022-12-28T09:26:53Z</time>
      </trkpt>
      <trkpt lat="43.58229" lon="1.16788">
        <ele>280</ele>
        <time>2022-12-28T09:26:54Z</time>
      </trkpt>
      <trkpt lat="43.58228" lon="1.1678">
        <ele>280.8</ele>
        <time>2022-12-28T09:26:58Z</time>
      </trkpt>
      <trkpt lat="43.58227" lon="1.1677">
        <ele>281.8</ele>
        <time>2022-12-28T09:27:02Z</time>
      </trkpt>
      <trkpt lat="43.58224" lon="1.16755">
        <ele>282.8</ele>
        <time>2022-12-28T09:27:06Z</time>
      </trkpt>
      <trkpt lat="43.58222" lon="1.16752">
        <ele>283</ele>
        <time>2022-12-28T09:27:07Z</time>
      </trkpt>
      <trkpt lat="43.58221" lon="1.16748">
        <ele>283.2</ele>
        <time>2022-12-28T09:27:09Z</time>
      </trkpt>
      <trkpt lat="43.58222" lon="1.16742">
        <ele>283.4</ele>
        <time>2022-12-28T09:27:11Z</time>
      </trkpt>
      <trkpt lat="43.58223" lon="1.16739">
        <ele>283.6</ele>
        <time>2022-12-28T09:27:12Z</time>
      </trkpt>
      <trkpt lat="43.58222" lon="1.16737">
        <ele>284</ele>
        <time>2022-12-28T09:27:13Z</time>
      </trkpt>
      <trkpt lat="43.58219" lon="1.16735">
        <ele>284</ele>
        <time>2022-12-28T09:27:14Z</time>
      </trkpt>
      <trkpt lat="43.58216" lon="1.16723">
        <ele>284.4</ele>
        <time>2022-12-28T09:27:17Z</time>
      </trkpt>
      <trkpt lat="43.5821" lon="1.16705">
        <ele>285</ele>
        <time>2022-12-28T09:27:22Z</time>
      </trkpt>
      <trkpt lat="43.58208" lon="1.16699">
        <ele>285.4</ele>
        <time>2022-12-28T09:27:24Z</time>
      </trkpt>
      <trkpt lat="43.58208" lon="1.16697">
        <ele>285.6</ele>
        <time>2022-12-28T09:27:25Z</time>
      </trkpt>
      <trkpt lat="43.58208" lon="1.16691">
        <ele>286.2</ele>
        <time>2022-12-28T09:27:27Z</time>
      </trkpt>
      <trkpt lat="43.58208" lon="1.16688">
        <ele>286.4</ele>
        <time>2022-12-28T09:27:28Z</time>
      </trkpt>
      <trkpt lat="43.58201" lon="1.16667">
        <ele>287.2</ele>
        <time>2022-12-28T09:27:34Z</time>
      </trkpt>
      <trkpt lat="43.58202" lon="1.16665">
        <ele>287.4</ele>
        <time>2022-12-28T09:27:35Z</time>
      </trkpt>
      <trkpt lat="43.58199" lon="1.16641">
        <ele>288.2</ele>
        <time>2022-12-28T09:27:41Z</time>
      </trkpt>
      <trkpt lat="43.58195" lon="1.16623">
        <ele>289.2</ele>
        <time>2022-12-28T09:27:47Z</time>
      </trkpt>
      <trkpt lat="43.58194" lon="1.1662">
        <ele>289.2</ele>
        <time>2022-12-28T09:27:48Z</time>
      </trkpt>
      <trkpt lat="43.58195" lon="1.16609">
        <ele>289.8</ele>
        <time>2022-12-28T09:27:51Z</time>
      </trkpt>
      <trkpt lat="43.58194" lon="1.16605">
        <ele>290</ele>
        <time>2022-12-28T09:27:52Z</time>
      </trkpt>
      <trkpt lat="43.58195" lon="1.16589">
        <ele>290.4</ele>
        <time>2022-12-28T09:27:57Z</time>
      </trkpt>
      <trkpt lat="43.58195" lon="1.16586">
        <ele>290.4</ele>
        <time>2022-12-28T09:27:58Z</time>
      </trkpt>
      <trkpt lat="43.58192" lon="1.16567">
        <ele>290.8</ele>
        <time>2022-12-28T09:28:03Z</time>
      </trkpt>
      <trkpt lat="43.58191" lon="1.16563">
        <ele>290.8</ele>
        <time>2022-12-28T09:28:04Z</time>
      </trkpt>
      <trkpt lat="43.58189" lon="1.16559">
        <ele>290.8</ele>
        <time>2022-12-28T09:28:05Z</time>
      </trkpt>
      <trkpt lat="43.5819" lon="1.16546">
        <ele>291</ele>
        <time>2022-12-28T09:28:08Z</time>
      </trkpt>
      <trkpt lat="43.5819" lon="1.16543">
        <ele>291.2</ele>
        <time>2022-12-28T09:28:10Z</time>
      </trkpt>
      <trkpt lat="43.58184" lon="1.16525">
        <ele>291.6</ele>
        <time>2022-12-28T09:28:14Z</time>
      </trkpt>
      <trkpt lat="43.5818" lon="1.16502">
        <ele>292.2</ele>
        <time>2022-12-28T09:28:20Z</time>
      </trkpt>
      <trkpt lat="43.58178" lon="1.16494">
        <ele>292.2</ele>
        <time>2022-12-28T09:28:22Z</time>
      </trkpt>
      <trkpt lat="43.58173" lon="1.16477">
        <ele>292.4</ele>
        <time>2022-12-28T09:28:26Z</time>
      </trkpt>
      <trkpt lat="43.58165" lon="1.16441">
        <ele>293</ele>
        <time>2022-12-28T09:28:34Z</time>
      </trkpt>
      <trkpt lat="43.58159" lon="1.16429">
        <ele>293</ele>
        <time>2022-12-28T09:28:37Z</time>
      </trkpt>
      <trkpt lat="43.58158" lon="1.16425">
        <ele>293.2</ele>
        <time>2022-12-28T09:28:39Z</time>
      </trkpt>
      <trkpt lat="43.58158" lon="1.16423">
        <ele>293.4</ele>
        <time>2022-12-28T09:28:40Z</time>
      </trkpt>
      <trkpt lat="43.58157" lon="1.1642">
        <ele>293.6</ele>
        <time>2022-12-28T09:28:42Z</time>
      </trkpt>
      <trkpt lat="43.58156" lon="1.1642">
        <ele>293.6</ele>
        <time>2022-12-28T09:28:43Z</time>
      </trkpt>
      <trkpt lat="43.58156" lon="1.1642">
        <ele>293.6</ele>
        <time>2022-12-28T09:28:45Z</time>
      </trkpt>
      <trkpt lat="43.58156" lon="1.16413">
        <ele>293</ele>
        <time>2022-12-28T09:30:25Z</time>
      </trkpt>
      <trkpt lat="43.58155" lon="1.16408">
        <ele>293</ele>
        <time>2022-12-28T09:30:26Z</time>
      </trkpt>
      <trkpt lat="43.58153" lon="1.16391">
        <ele>293.2</ele>
        <time>2022-12-28T09:30:31Z</time>
      </trkpt>
      <trkpt lat="43.58153" lon="1.16384">
        <ele>293.2</ele>
        <time>2022-12-28T09:30:33Z</time>
      </trkpt>
      <trkpt lat="43.58153" lon="1.16375">
        <ele>293.4</ele>
        <time>2022-12-28T09:30:35Z</time>
      </trkpt>
      <trkpt lat="43.58152" lon="1.16371">
        <ele>293.4</ele>
        <time>2022-12-28T09:30:36Z</time>
      </trkpt>
      <trkpt lat="43.58147" lon="1.16353">
        <ele>293.4</ele>
        <time>2022-12-28T09:30:41Z</time>
      </trkpt>
      <trkpt lat="43.58147" lon="1.16344">
        <ele>293.4</ele>
        <time>2022-12-28T09:30:42Z</time>
      </trkpt>
      <trkpt lat="43.58145" lon="1.1633">
        <ele>293.2</ele>
        <time>2022-12-28T09:30:45Z</time>
      </trkpt>
      <trkpt lat="43.58137" lon="1.16319">
        <ele>293</ele>
        <time>2022-12-28T09:30:47Z</time>
      </trkpt>
      <trkpt lat="43.58111" lon="1.16299">
        <ele>292.4</ele>
        <time>2022-12-28T09:30:52Z</time>
      </trkpt>
      <trkpt lat="43.58106" lon="1.16297">
        <ele>292.4</ele>
        <time>2022-12-28T09:30:53Z</time>
      </trkpt>
      <trkpt lat="43.58097" lon="1.16289">
        <ele>291.8</ele>
        <time>2022-12-28T09:30:55Z</time>
      </trkpt>
      <trkpt lat="43.58094" lon="1.16286">
        <ele>291.6</ele>
        <time>2022-12-28T09:30:56Z</time>
      </trkpt>
      <trkpt lat="43.5809" lon="1.16282">
        <ele>291.4</ele>
        <time>2022-12-28T09:30:57Z</time>
      </trkpt>
      <trkpt lat="43.58085" lon="1.16281">
        <ele>290.6</ele>
        <time>2022-12-28T09:30:59Z</time>
      </trkpt>
      <trkpt lat="43.58081" lon="1.16282">
        <ele>290.2</ele>
        <time>2022-12-28T09:31:00Z</time>
      </trkpt>
      <trkpt lat="43.58067" lon="1.16284">
        <ele>289.2</ele>
        <time>2022-12-28T09:31:04Z</time>
      </trkpt>
      <trkpt lat="43.58063" lon="1.16285">
        <ele>288.2</ele>
        <time>2022-12-28T09:31:06Z</time>
      </trkpt>
      <trkpt lat="43.58061" lon="1.16285">
        <ele>287.4</ele>
        <time>2022-12-28T09:31:07Z</time>
      </trkpt>
      <trkpt lat="43.5806" lon="1.16285">
        <ele>287</ele>
        <time>2022-12-28T09:31:08Z</time>
      </trkpt>
      <trkpt lat="43.5806" lon="1.16282">
        <ele>286</ele>
        <time>2022-12-28T09:31:10Z</time>
      </trkpt>
      <trkpt lat="43.5806" lon="1.1628">
        <ele>284.8</ele>
        <time>2022-12-28T09:31:12Z</time>
      </trkpt>
      <trkpt lat="43.5806" lon="1.16267">
        <ele>284.4</ele>
        <time>2022-12-28T09:31:18Z</time>
      </trkpt>
      <trkpt lat="43.58058" lon="1.16246">
        <ele>285.4</ele>
        <time>2022-12-28T09:31:24Z</time>
      </trkpt>
      <trkpt lat="43.58057" lon="1.16232">
        <ele>285.8</ele>
        <time>2022-12-28T09:31:28Z</time>
      </trkpt>
      <trkpt lat="43.58056" lon="1.16225">
        <ele>286.2</ele>
        <time>2022-12-28T09:31:30Z</time>
      </trkpt>
      <trkpt lat="43.58054" lon="1.16214">
        <ele>287</ele>
        <time>2022-12-28T09:31:33Z</time>
      </trkpt>
      <trkpt lat="43.58051" lon="1.16206">
        <ele>287.2</ele>
        <time>2022-12-28T09:31:36Z</time>
      </trkpt>
      <trkpt lat="43.5804" lon="1.16172">
        <ele>288</ele>
        <time>2022-12-28T09:31:43Z</time>
      </trkpt>
      <trkpt lat="43.5804" lon="1.16168">
        <ele>288.6</ele>
        <time>2022-12-28T09:31:45Z</time>
      </trkpt>
      <trkpt lat="43.58035" lon="1.16153">
        <ele>289.2</ele>
        <time>2022-12-28T09:31:49Z</time>
      </trkpt>
      <trkpt lat="43.58029" lon="1.16133">
        <ele>289.6</ele>
        <time>2022-12-28T09:31:53Z</time>
      </trkpt>
      <trkpt lat="43.58025" lon="1.16123">
        <ele>290.2</ele>
        <time>2022-12-28T09:31:56Z</time>
      </trkpt>
      <trkpt lat="43.58014" lon="1.16096">
        <ele>291.2</ele>
        <time>2022-12-28T09:32:02Z</time>
      </trkpt>
      <trkpt lat="43.58012" lon="1.16091">
        <ele>291.2</ele>
        <time>2022-12-28T09:32:03Z</time>
      </trkpt>
      <trkpt lat="43.58008" lon="1.16081">
        <ele>292.8</ele>
        <time>2022-12-28T09:32:07Z</time>
      </trkpt>
      <trkpt lat="43.58003" lon="1.1607">
        <ele>293.2</ele>
        <time>2022-12-28T09:32:10Z</time>
      </trkpt>
      <trkpt lat="43.57995" lon="1.16056">
        <ele>293.8</ele>
        <time>2022-12-28T09:32:13Z</time>
      </trkpt>
      <trkpt lat="43.57981" lon="1.1603">
        <ele>294.8</ele>
        <time>2022-12-28T09:32:20Z</time>
      </trkpt>
      <trkpt lat="43.57962" lon="1.15995">
        <ele>295.8</ele>
        <time>2022-12-28T09:32:29Z</time>
      </trkpt>
      <trkpt lat="43.5796" lon="1.15989">
        <ele>296</ele>
        <time>2022-12-28T09:32:31Z</time>
      </trkpt>
      <trkpt lat="43.57944" lon="1.15937">
        <ele>297</ele>
        <time>2022-12-28T09:32:41Z</time>
      </trkpt>
      <trkpt lat="43.57944" lon="1.15937">
        <ele>297.2</ele>
        <time>2022-12-28T09:32:42Z</time>
      </trkpt>
      <trkpt lat="43.57938" lon="1.15906">
        <ele>298.2</ele>
        <time>2022-12-28T09:32:48Z</time>
      </trkpt>
      <trkpt lat="43.57935" lon="1.15884">
        <ele>298.4</ele>
        <time>2022-12-28T09:32:52Z</time>
      </trkpt>
      <trkpt lat="43.57926" lon="1.15818">
        <ele>298.6</ele>
        <time>2022-12-28T09:33:04Z</time>
      </trkpt>
      <trkpt lat="43.57925" lon="1.15764">
        <ele>298.4</ele>
        <time>2022-12-28T09:33:13Z</time>
      </trkpt>
      <trkpt lat="43.57928" lon="1.15691">
        <ele>298.4</ele>
        <time>2022-12-28T09:33:25Z</time>
      </trkpt>
      <trkpt lat="43.57932" lon="1.15637">
        <ele>298.4</ele>
        <time>2022-12-28T09:33:33Z</time>
      </trkpt>
      <trkpt lat="43.57937" lon="1.15557">
        <ele>298.2</ele>
        <time>2022-12-28T09:33:45Z</time>
      </trkpt>
      <trkpt lat="43.57938" lon="1.1555">
        <ele>298.2</ele>
        <time>2022-12-28T09:33:46Z</time>
      </trkpt>
      <trkpt lat="43.5794" lon="1.155">
        <ele>298.2</ele>
        <time>2022-12-28T09:33:53Z</time>
      </trkpt>
      <trkpt lat="43.57946" lon="1.15422">
        <ele>297.8</ele>
        <time>2022-12-28T09:34:04Z</time>
      </trkpt>
      <trkpt lat="43.57951" lon="1.15361">
        <ele>297.4</ele>
        <time>2022-12-28T09:34:13Z</time>
      </trkpt>
      <trkpt lat="43.57958" lon="1.1531">
        <ele>297.6</ele>
        <time>2022-12-28T09:34:21Z</time>
      </trkpt>
      <trkpt lat="43.5797" lon="1.15253">
        <ele>298.2</ele>
        <time>2022-12-28T09:34:30Z</time>
      </trkpt>
      <trkpt lat="43.57979" lon="1.15195">
        <ele>299.4</ele>
        <time>2022-12-28T09:34:39Z</time>
      </trkpt>
      <trkpt lat="43.57979" lon="1.1519">
        <ele>299.6</ele>
        <time>2022-12-28T09:34:40Z</time>
      </trkpt>
      <trkpt lat="43.57982" lon="1.15154">
        <ele>300.2</ele>
        <time>2022-12-28T09:34:46Z</time>
      </trkpt>
      <trkpt lat="43.57984" lon="1.15141">
        <ele>300.6</ele>
        <time>2022-12-28T09:34:48Z</time>
      </trkpt>
      <trkpt lat="43.57988" lon="1.151">
        <ele>301.2</ele>
        <time>2022-12-28T09:34:55Z</time>
      </trkpt>
      <trkpt lat="43.57989" lon="1.15081">
        <ele>301.6</ele>
        <time>2022-12-28T09:34:58Z</time>
      </trkpt>
      <trkpt lat="43.57992" lon="1.15041">
        <ele>302.6</ele>
        <time>2022-12-28T09:35:05Z</time>
      </trkpt>
      <trkpt lat="43.57992" lon="1.15034">
        <ele>302.8</ele>
        <time>2022-12-28T09:35:06Z</time>
      </trkpt>
      <trkpt lat="43.57995" lon="1.15001">
        <ele>303.8</ele>
        <time>2022-12-28T09:35:12Z</time>
      </trkpt>
      <trkpt lat="43.57996" lon="1.14986">
        <ele>304.2</ele>
        <time>2022-12-28T09:35:15Z</time>
      </trkpt>
      <trkpt lat="43.57994" lon="1.14968">
        <ele>305.2</ele>
        <time>2022-12-28T09:35:19Z</time>
      </trkpt>
      <trkpt lat="43.57991" lon="1.14964">
        <ele>305.4</ele>
        <time>2022-12-28T09:35:20Z</time>
      </trkpt>
      <trkpt lat="43.57979" lon="1.14946">
        <ele>306.2</ele>
        <time>2022-12-28T09:35:25Z</time>
      </trkpt>
      <trkpt lat="43.57977" lon="1.14942">
        <ele>306.4</ele>
        <time>2022-12-28T09:35:26Z</time>
      </trkpt>
      <trkpt lat="43.57968" lon="1.14925">
        <ele>307.4</ele>
        <time>2022-12-28T09:35:30Z</time>
      </trkpt>
      <trkpt lat="43.57958" lon="1.14904">
        <ele>308</ele>
        <time>2022-12-28T09:35:35Z</time>
      </trkpt>
      <trkpt lat="43.57949" lon="1.14885">
        <ele>308</ele>
        <time>2022-12-28T09:35:39Z</time>
      </trkpt>
      <trkpt lat="43.57939" lon="1.1487">
        <ele>308.2</ele>
        <time>2022-12-28T09:35:43Z</time>
      </trkpt>
      <trkpt lat="43.57918" lon="1.14864">
        <ele>308.2</ele>
        <time>2022-12-28T09:35:48Z</time>
      </trkpt>
      <trkpt lat="43.57876" lon="1.14864">
        <ele>307.4</ele>
        <time>2022-12-28T09:35:57Z</time>
      </trkpt>
      <trkpt lat="43.57847" lon="1.14867">
        <ele>306.4</ele>
        <time>2022-12-28T09:36:02Z</time>
      </trkpt>
      <trkpt lat="43.5784" lon="1.14868">
        <ele>305.8</ele>
        <time>2022-12-28T09:36:03Z</time>
      </trkpt>
      <trkpt lat="43.57828" lon="1.14869">
        <ele>305</ele>
        <time>2022-12-28T09:36:05Z</time>
      </trkpt>
      <trkpt lat="43.57812" lon="1.14872">
        <ele>304</ele>
        <time>2022-12-28T09:36:08Z</time>
      </trkpt>
      <trkpt lat="43.57794" lon="1.14876">
        <ele>303.4</ele>
        <time>2022-12-28T09:36:11Z</time>
      </trkpt>
      <trkpt lat="43.57789" lon="1.14878">
        <ele>303</ele>
        <time>2022-12-28T09:36:12Z</time>
      </trkpt>
      <trkpt lat="43.57783" lon="1.14881">
        <ele>302.8</ele>
        <time>2022-12-28T09:36:13Z</time>
      </trkpt>
      <trkpt lat="43.57771" lon="1.1489">
        <ele>302.2</ele>
        <time>2022-12-28T09:36:16Z</time>
      </trkpt>
      <trkpt lat="43.57763" lon="1.14897">
        <ele>302</ele>
        <time>2022-12-28T09:36:18Z</time>
      </trkpt>
      <trkpt lat="43.57759" lon="1.149">
        <ele>302</ele>
        <time>2022-12-28T09:36:19Z</time>
      </trkpt>
      <trkpt lat="43.57752" lon="1.14907">
        <ele>301.8</ele>
        <time>2022-12-28T09:36:21Z</time>
      </trkpt>
      <trkpt lat="43.57723" lon="1.14939">
        <ele>301</ele>
        <time>2022-12-28T09:36:29Z</time>
      </trkpt>
      <trkpt lat="43.57716" lon="1.14948">
        <ele>301</ele>
        <time>2022-12-28T09:36:31Z</time>
      </trkpt>
      <trkpt lat="43.57697" lon="1.14971">
        <ele>300</ele>
        <time>2022-12-28T09:36:36Z</time>
      </trkpt>
      <trkpt lat="43.57693" lon="1.14976">
        <ele>300</ele>
        <time>2022-12-28T09:36:37Z</time>
      </trkpt>
      <trkpt lat="43.57679" lon="1.14995">
        <ele>298.8</ele>
        <time>2022-12-28T09:36:41Z</time>
      </trkpt>
      <trkpt lat="43.5767" lon="1.15008">
        <ele>298</ele>
        <time>2022-12-28T09:36:44Z</time>
      </trkpt>
      <trkpt lat="43.57666" lon="1.15013">
        <ele>297.6</ele>
        <time>2022-12-28T09:36:45Z</time>
      </trkpt>
      <trkpt lat="43.57643" lon="1.15034">
        <ele>296.4</ele>
        <time>2022-12-28T09:36:50Z</time>
      </trkpt>
      <trkpt lat="43.57634" lon="1.15038">
        <ele>295.2</ele>
        <time>2022-12-28T09:36:52Z</time>
      </trkpt>
      <trkpt lat="43.57626" lon="1.15037">
        <ele>294.2</ele>
        <time>2022-12-28T09:36:54Z</time>
      </trkpt>
      <trkpt lat="43.57622" lon="1.15034">
        <ele>293.8</ele>
        <time>2022-12-28T09:36:55Z</time>
      </trkpt>
      <trkpt lat="43.57617" lon="1.15025">
        <ele>293.2</ele>
        <time>2022-12-28T09:36:57Z</time>
      </trkpt>
      <trkpt lat="43.57616" lon="1.15019">
        <ele>292.6</ele>
        <time>2022-12-28T09:36:58Z</time>
      </trkpt>
      <trkpt lat="43.57612" lon="1.14994">
        <ele>291.2</ele>
        <time>2022-12-28T09:37:01Z</time>
      </trkpt>
      <trkpt lat="43.57611" lon="1.14986">
        <ele>290.2</ele>
        <time>2022-12-28T09:37:02Z</time>
      </trkpt>
      <trkpt lat="43.5761" lon="1.14976">
        <ele>289.6</ele>
        <time>2022-12-28T09:37:03Z</time>
      </trkpt>
      <trkpt lat="43.57608" lon="1.14954">
        <ele>288.8</ele>
        <time>2022-12-28T09:37:05Z</time>
      </trkpt>
      <trkpt lat="43.57607" lon="1.14946">
        <ele>288.4</ele>
        <time>2022-12-28T09:37:06Z</time>
      </trkpt>
      <trkpt lat="43.57606" lon="1.14942">
        <ele>287.8</ele>
        <time>2022-12-28T09:37:07Z</time>
      </trkpt>
      <trkpt lat="43.57606" lon="1.14939">
        <ele>287.6</ele>
        <time>2022-12-28T09:37:08Z</time>
      </trkpt>
      <trkpt lat="43.57605" lon="1.14938">
        <ele>287.2</ele>
        <time>2022-12-28T09:37:09Z</time>
      </trkpt>
      <trkpt lat="43.57602" lon="1.14939">
        <ele>286.2</ele>
        <time>2022-12-28T09:37:11Z</time>
      </trkpt>
      <trkpt lat="43.57597" lon="1.14939">
        <ele>284.8</ele>
        <time>2022-12-28T09:37:14Z</time>
      </trkpt>
      <trkpt lat="43.57596" lon="1.14937">
        <ele>284.6</ele>
        <time>2022-12-28T09:37:15Z</time>
      </trkpt>
      <trkpt lat="43.57596" lon="1.14934">
        <ele>283.6</ele>
        <time>2022-12-28T09:37:16Z</time>
      </trkpt>
      <trkpt lat="43.57595" lon="1.14931">
        <ele>283.2</ele>
        <time>2022-12-28T09:37:17Z</time>
      </trkpt>
      <trkpt lat="43.57591" lon="1.14922">
        <ele>282.4</ele>
        <time>2022-12-28T09:37:19Z</time>
      </trkpt>
      <trkpt lat="43.57588" lon="1.14914">
        <ele>281.2</ele>
        <time>2022-12-28T09:37:21Z</time>
      </trkpt>
      <trkpt lat="43.57587" lon="1.14906">
        <ele>279.8</ele>
        <time>2022-12-28T09:37:23Z</time>
      </trkpt>
      <trkpt lat="43.57587" lon="1.14902">
        <ele>279.2</ele>
        <time>2022-12-28T09:37:24Z</time>
      </trkpt>
      <trkpt lat="43.57585" lon="1.14899">
        <ele>278.6</ele>
        <time>2022-12-28T09:37:25Z</time>
      </trkpt>
      <trkpt lat="43.57583" lon="1.14894">
        <ele>277.8</ele>
        <time>2022-12-28T09:37:27Z</time>
      </trkpt>
      <trkpt lat="43.57581" lon="1.14892">
        <ele>277.6</ele>
        <time>2022-12-28T09:37:28Z</time>
      </trkpt>
      <trkpt lat="43.57578" lon="1.14888">
        <ele>277</ele>
        <time>2022-12-28T09:37:29Z</time>
      </trkpt>
      <trkpt lat="43.5757" lon="1.14877">
        <ele>276.2</ele>
        <time>2022-12-28T09:37:32Z</time>
      </trkpt>
      <trkpt lat="43.57564" lon="1.14866">
        <ele>275.8</ele>
        <time>2022-12-28T09:37:34Z</time>
      </trkpt>
      <trkpt lat="43.57555" lon="1.1485">
        <ele>274.4</ele>
        <time>2022-12-28T09:37:38Z</time>
      </trkpt>
      <trkpt lat="43.57552" lon="1.14846">
        <ele>274.2</ele>
        <time>2022-12-28T09:37:39Z</time>
      </trkpt>
      <trkpt lat="43.57548" lon="1.1484">
        <ele>273.6</ele>
        <time>2022-12-28T09:37:41Z</time>
      </trkpt>
      <trkpt lat="43.57546" lon="1.14835">
        <ele>273.4</ele>
        <time>2022-12-28T09:37:42Z</time>
      </trkpt>
      <trkpt lat="43.57534" lon="1.14819">
        <ele>272.6</ele>
        <time>2022-12-28T09:37:46Z</time>
      </trkpt>
      <trkpt lat="43.57529" lon="1.14815">
        <ele>272.2</ele>
        <time>2022-12-28T09:37:47Z</time>
      </trkpt>
      <trkpt lat="43.57526" lon="1.14807">
        <ele>271.6</ele>
        <time>2022-12-28T09:37:49Z</time>
      </trkpt>
      <trkpt lat="43.57522" lon="1.148">
        <ele>271</ele>
        <time>2022-12-28T09:37:51Z</time>
      </trkpt>
      <trkpt lat="43.57516" lon="1.1479">
        <ele>269.8</ele>
        <time>2022-12-28T09:37:54Z</time>
      </trkpt>
      <trkpt lat="43.5751" lon="1.14784">
        <ele>269</ele>
        <time>2022-12-28T09:37:56Z</time>
      </trkpt>
      <trkpt lat="43.57504" lon="1.14778">
        <ele>268.8</ele>
        <time>2022-12-28T09:37:58Z</time>
      </trkpt>
      <trkpt lat="43.57496" lon="1.14773">
        <ele>267.8</ele>
        <time>2022-12-28T09:38:01Z</time>
      </trkpt>
      <trkpt lat="43.57494" lon="1.14769">
        <ele>267.4</ele>
        <time>2022-12-28T09:38:02Z</time>
      </trkpt>
      <trkpt lat="43.57491" lon="1.14763">
        <ele>267.2</ele>
        <time>2022-12-28T09:38:03Z</time>
      </trkpt>
      <trkpt lat="43.5748" lon="1.14745">
        <ele>266.2</ele>
        <time>2022-12-28T09:38:07Z</time>
      </trkpt>
      <trkpt lat="43.57478" lon="1.14742">
        <ele>266</ele>
        <time>2022-12-28T09:38:08Z</time>
      </trkpt>
      <trkpt lat="43.57479" lon="1.14735">
        <ele>265.2</ele>
        <time>2022-12-28T09:38:10Z</time>
      </trkpt>
      <trkpt lat="43.5748" lon="1.14731">
        <ele>264.6</ele>
        <time>2022-12-28T09:38:11Z</time>
      </trkpt>
      <trkpt lat="43.57484" lon="1.14723">
        <ele>263.6</ele>
        <time>2022-12-28T09:38:14Z</time>
      </trkpt>
      <trkpt lat="43.57489" lon="1.14721">
        <ele>263.2</ele>
        <time>2022-12-28T09:38:16Z</time>
      </trkpt>
      <trkpt lat="43.57486" lon="1.14708">
        <ele>263</ele>
        <time>2022-12-28T09:38:19Z</time>
      </trkpt>
      <trkpt lat="43.57484" lon="1.14707">
        <ele>263</ele>
        <time>2022-12-28T09:38:20Z</time>
      </trkpt>
      <trkpt lat="43.57473" lon="1.14706">
        <ele>262.6</ele>
        <time>2022-12-28T09:38:25Z</time>
      </trkpt>
      <trkpt lat="43.57472" lon="1.14705">
        <ele>262.6</ele>
        <time>2022-12-28T09:38:26Z</time>
      </trkpt>
      <trkpt lat="43.57468" lon="1.14697">
        <ele>262</ele>
        <time>2022-12-28T09:38:29Z</time>
      </trkpt>
      <trkpt lat="43.57463" lon="1.14697">
        <ele>261.6</ele>
        <time>2022-12-28T09:38:31Z</time>
      </trkpt>
      <trkpt lat="43.57462" lon="1.14696">
        <ele>261.4</ele>
        <time>2022-12-28T09:38:32Z</time>
      </trkpt>
      <trkpt lat="43.5746" lon="1.14691">
        <ele>260.8</ele>
        <time>2022-12-28T09:38:34Z</time>
      </trkpt>
      <trkpt lat="43.57458" lon="1.1469">
        <ele>260.4</ele>
        <time>2022-12-28T09:38:35Z</time>
      </trkpt>
      <trkpt lat="43.57455" lon="1.14688">
        <ele>260</ele>
        <time>2022-12-28T09:38:36Z</time>
      </trkpt>
      <trkpt lat="43.57453" lon="1.14683">
        <ele>259.6</ele>
        <time>2022-12-28T09:38:38Z</time>
      </trkpt>
      <trkpt lat="43.57452" lon="1.14677">
        <ele>259.4</ele>
        <time>2022-12-28T09:38:39Z</time>
      </trkpt>
      <trkpt lat="43.57452" lon="1.14667">
        <ele>258.8</ele>
        <time>2022-12-28T09:38:41Z</time>
      </trkpt>
      <trkpt lat="43.57453" lon="1.14653">
        <ele>258</ele>
        <time>2022-12-28T09:38:44Z</time>
      </trkpt>
      <trkpt lat="43.57453" lon="1.1465">
        <ele>257.8</ele>
        <time>2022-12-28T09:38:45Z</time>
      </trkpt>
      <trkpt lat="43.57452" lon="1.14649">
        <ele>257.6</ele>
        <time>2022-12-28T09:38:46Z</time>
      </trkpt>
      <trkpt lat="43.57452" lon="1.14646">
        <ele>257.4</ele>
        <time>2022-12-28T09:38:47Z</time>
      </trkpt>
      <trkpt lat="43.57452" lon="1.1464">
        <ele>257</ele>
        <time>2022-12-28T09:38:49Z</time>
      </trkpt>
      <trkpt lat="43.57455" lon="1.14623">
        <ele>256.8</ele>
        <time>2022-12-28T09:38:53Z</time>
      </trkpt>
      <trkpt lat="43.57456" lon="1.14616">
        <ele>256.4</ele>
        <time>2022-12-28T09:38:55Z</time>
      </trkpt>
      <trkpt lat="43.57455" lon="1.14601">
        <ele>256</ele>
        <time>2022-12-28T09:38:58Z</time>
      </trkpt>
      <trkpt lat="43.57453" lon="1.14579">
        <ele>255.2</ele>
        <time>2022-12-28T09:39:02Z</time>
      </trkpt>
      <trkpt lat="43.57452" lon="1.14572">
        <ele>255</ele>
        <time>2022-12-28T09:39:03Z</time>
      </trkpt>
      <trkpt lat="43.57446" lon="1.14547">
        <ele>254</ele>
        <time>2022-12-28T09:39:06Z</time>
      </trkpt>
      <trkpt lat="43.57445" lon="1.14539">
        <ele>253.8</ele>
        <time>2022-12-28T09:39:07Z</time>
      </trkpt>
      <trkpt lat="43.57442" lon="1.1452">
        <ele>253</ele>
        <time>2022-12-28T09:39:10Z</time>
      </trkpt>
      <trkpt lat="43.57438" lon="1.14498">
        <ele>252.6</ele>
        <time>2022-12-28T09:39:13Z</time>
      </trkpt>
      <trkpt lat="43.57433" lon="1.14477">
        <ele>252.4</ele>
        <time>2022-12-28T09:39:16Z</time>
      </trkpt>
      <trkpt lat="43.57431" lon="1.14459">
        <ele>252.4</ele>
        <time>2022-12-28T09:39:19Z</time>
      </trkpt>
      <trkpt lat="43.57425" lon="1.14447">
        <ele>252.4</ele>
        <time>2022-12-28T09:39:21Z</time>
      </trkpt>
      <trkpt lat="43.5741" lon="1.14433">
        <ele>252.6</ele>
        <time>2022-12-28T09:39:24Z</time>
      </trkpt>
      <trkpt lat="43.57398" lon="1.1442">
        <ele>252.8</ele>
        <time>2022-12-28T09:39:27Z</time>
      </trkpt>
      <trkpt lat="43.57391" lon="1.14411">
        <ele>253</ele>
        <time>2022-12-28T09:39:29Z</time>
      </trkpt>
      <trkpt lat="43.57388" lon="1.14403">
        <ele>253</ele>
        <time>2022-12-28T09:39:30Z</time>
      </trkpt>
      <trkpt lat="43.57385" lon="1.14392">
        <ele>253.2</ele>
        <time>2022-12-28T09:39:32Z</time>
      </trkpt>
      <trkpt lat="43.57382" lon="1.14377">
        <ele>253.6</ele>
        <time>2022-12-28T09:39:35Z</time>
      </trkpt>
      <trkpt lat="43.57379" lon="1.14352">
        <ele>254.2</ele>
        <time>2022-12-28T09:39:40Z</time>
      </trkpt>
      <trkpt lat="43.57378" lon="1.14344">
        <ele>254.6</ele>
        <time>2022-12-28T09:39:42Z</time>
      </trkpt>
      <trkpt lat="43.57377" lon="1.14335">
        <ele>255.2</ele>
        <time>2022-12-28T09:39:44Z</time>
      </trkpt>
      <trkpt lat="43.57376" lon="1.14322">
        <ele>255.8</ele>
        <time>2022-12-28T09:39:47Z</time>
      </trkpt>
      <trkpt lat="43.57376" lon="1.14318">
        <ele>256.2</ele>
        <time>2022-12-28T09:39:48Z</time>
      </trkpt>
      <trkpt lat="43.57372" lon="1.14295">
        <ele>257.4</ele>
        <time>2022-12-28T09:39:53Z</time>
      </trkpt>
      <trkpt lat="43.57369" lon="1.14283">
        <ele>258.4</ele>
        <time>2022-12-28T09:39:56Z</time>
      </trkpt>
      <trkpt lat="43.57365" lon="1.14267">
        <ele>259</ele>
        <time>2022-12-28T09:40:00Z</time>
      </trkpt>
      <trkpt lat="43.57364" lon="1.1426">
        <ele>259.6</ele>
        <time>2022-12-28T09:40:02Z</time>
      </trkpt>
      <trkpt lat="43.57359" lon="1.14246">
        <ele>260.2</ele>
        <time>2022-12-28T09:40:05Z</time>
      </trkpt>
      <trkpt lat="43.57354" lon="1.14232">
        <ele>261</ele>
        <time>2022-12-28T09:40:08Z</time>
      </trkpt>
      <trkpt lat="43.57345" lon="1.14219">
        <ele>262</ele>
        <time>2022-12-28T09:40:11Z</time>
      </trkpt>
      <trkpt lat="43.5734" lon="1.14213">
        <ele>262.2</ele>
        <time>2022-12-28T09:40:12Z</time>
      </trkpt>
      <trkpt lat="43.5733" lon="1.14201">
        <ele>263.4</ele>
        <time>2022-12-28T09:40:16Z</time>
      </trkpt>
      <trkpt lat="43.57323" lon="1.14195">
        <ele>264.2</ele>
        <time>2022-12-28T09:40:18Z</time>
      </trkpt>
      <trkpt lat="43.57319" lon="1.14191">
        <ele>264.6</ele>
        <time>2022-12-28T09:40:19Z</time>
      </trkpt>
      <trkpt lat="43.57306" lon="1.1418">
        <ele>265.6</ele>
        <time>2022-12-28T09:40:23Z</time>
      </trkpt>
      <trkpt lat="43.57294" lon="1.1417">
        <ele>267</ele>
        <time>2022-12-28T09:40:27Z</time>
      </trkpt>
      <trkpt lat="43.57289" lon="1.14165">
        <ele>268.2</ele>
        <time>2022-12-28T09:40:29Z</time>
      </trkpt>
      <trkpt lat="43.5728" lon="1.14155">
        <ele>269.8</ele>
        <time>2022-12-28T09:40:33Z</time>
      </trkpt>
      <trkpt lat="43.57274" lon="1.14146">
        <ele>270.6</ele>
        <time>2022-12-28T09:40:36Z</time>
      </trkpt>
      <trkpt lat="43.57273" lon="1.14144">
        <ele>271</ele>
        <time>2022-12-28T09:40:37Z</time>
      </trkpt>
      <trkpt lat="43.57267" lon="1.14131">
        <ele>272</ele>
        <time>2022-12-28T09:40:41Z</time>
      </trkpt>
      <trkpt lat="43.57265" lon="1.14126">
        <ele>272.4</ele>
        <time>2022-12-28T09:40:43Z</time>
      </trkpt>
      <trkpt lat="43.57263" lon="1.14121">
        <ele>273.2</ele>
        <time>2022-12-28T09:40:46Z</time>
      </trkpt>
      <trkpt lat="43.57261" lon="1.14118">
        <ele>273.8</ele>
        <time>2022-12-28T09:40:48Z</time>
      </trkpt>
      <trkpt lat="43.57258" lon="1.14113">
        <ele>274</ele>
        <time>2022-12-28T09:40:50Z</time>
      </trkpt>
      <trkpt lat="43.57255" lon="1.14111">
        <ele>274.2</ele>
        <time>2022-12-28T09:40:52Z</time>
      </trkpt>
      <trkpt lat="43.57254" lon="1.1411">
        <ele>274.2</ele>
        <time>2022-12-28T09:40:53Z</time>
      </trkpt>
      <trkpt lat="43.57253" lon="1.14109">
        <ele>274.4</ele>
        <time>2022-12-28T09:40:54Z</time>
      </trkpt>
      <trkpt lat="43.57249" lon="1.14109">
        <ele>274.4</ele>
        <time>2022-12-28T09:40:59Z</time>
      </trkpt>
      <trkpt lat="43.57249" lon="1.14109">
        <ele>274.4</ele>
        <time>2022-12-28T09:41:00Z</time>
      </trkpt>
      <trkpt lat="43.57254" lon="1.14109">
        <ele>274.4</ele>
        <time>2022-12-28T09:41:07Z</time>
      </trkpt>
      <trkpt lat="43.57259" lon="1.14112">
        <ele>274.4</ele>
        <time>2022-12-28T09:41:09Z</time>
      </trkpt>
      <trkpt lat="43.57269" lon="1.14106">
        <ele>274.2</ele>
        <time>2022-12-28T09:41:13Z</time>
      </trkpt>
      <trkpt lat="43.57276" lon="1.14095">
        <ele>274.2</ele>
        <time>2022-12-28T09:41:15Z</time>
      </trkpt>
      <trkpt lat="43.5728" lon="1.14086">
        <ele>274.2</ele>
        <time>2022-12-28T09:41:17Z</time>
      </trkpt>
      <trkpt lat="43.57298" lon="1.14053">
        <ele>273.4</ele>
        <time>2022-12-28T09:41:24Z</time>
      </trkpt>
      <trkpt lat="43.57314" lon="1.14025">
        <ele>273.2</ele>
        <time>2022-12-28T09:41:30Z</time>
      </trkpt>
      <trkpt lat="43.57315" lon="1.14022">
        <ele>273</ele>
        <time>2022-12-28T09:41:31Z</time>
      </trkpt>
      <trkpt lat="43.57329" lon="1.13995">
        <ele>273</ele>
        <time>2022-12-28T09:41:37Z</time>
      </trkpt>
      <trkpt lat="43.57343" lon="1.13967">
        <ele>273.2</ele>
        <time>2022-12-28T09:41:43Z</time>
      </trkpt>
      <trkpt lat="43.57358" lon="1.13935">
        <ele>274</ele>
        <time>2022-12-28T09:41:50Z</time>
      </trkpt>
      <trkpt lat="43.57364" lon="1.13923">
        <ele>274.2</ele>
        <time>2022-12-28T09:41:53Z</time>
      </trkpt>
      <trkpt lat="43.57375" lon="1.139">
        <ele>274.8</ele>
        <time>2022-12-28T09:41:59Z</time>
      </trkpt>
      <trkpt lat="43.5738" lon="1.13891">
        <ele>275.2</ele>
        <time>2022-12-28T09:42:02Z</time>
      </trkpt>
      <trkpt lat="43.57387" lon="1.13876">
        <ele>276.2</ele>
        <time>2022-12-28T09:42:07Z</time>
      </trkpt>
      <trkpt lat="43.57389" lon="1.13874">
        <ele>276.2</ele>
        <time>2022-12-28T09:42:08Z</time>
      </trkpt>
      <trkpt lat="43.57398" lon="1.13858">
        <ele>277.2</ele>
        <time>2022-12-28T09:42:15Z</time>
      </trkpt>
      <trkpt lat="43.574" lon="1.13854">
        <ele>277.6</ele>
        <time>2022-12-28T09:42:17Z</time>
      </trkpt>
      <trkpt lat="43.57403" lon="1.13854">
        <ele>277.8</ele>
        <time>2022-12-28T09:42:19Z</time>
      </trkpt>
      <trkpt lat="43.57405" lon="1.13858">
        <ele>277.8</ele>
        <time>2022-12-28T09:42:21Z</time>
      </trkpt>
      <trkpt lat="43.57405" lon="1.1386">
        <ele>278</ele>
        <time>2022-12-28T09:42:23Z</time>
      </trkpt>
      <trkpt lat="43.57406" lon="1.13863">
        <ele>278.2</ele>
        <time>2022-12-28T09:42:25Z</time>
      </trkpt>
      <trkpt lat="43.57405" lon="1.13866">
        <ele>278.2</ele>
        <time>2022-12-28T09:42:27Z</time>
      </trkpt>
      <trkpt lat="43.57406" lon="1.13868">
        <ele>278.2</ele>
        <time>2022-12-28T09:42:28Z</time>
      </trkpt>
      <trkpt lat="43.57407" lon="1.1387">
        <ele>278.2</ele>
        <time>2022-12-28T09:42:29Z</time>
      </trkpt>
      <trkpt lat="43.57411" lon="1.13871">
        <ele>278</ele>
        <time>2022-12-28T09:42:33Z</time>
      </trkpt>
      <trkpt lat="43.57421" lon="1.1388">
        <ele>277.6</ele>
        <time>2022-12-28T09:42:40Z</time>
      </trkpt>
      <trkpt lat="43.57427" lon="1.13889">
        <ele>277.4</ele>
        <time>2022-12-28T09:42:46Z</time>
      </trkpt>
      <trkpt lat="43.57438" lon="1.13895">
        <ele>276.8</ele>
        <time>2022-12-28T09:42:51Z</time>
      </trkpt>
      <trkpt lat="43.57443" lon="1.13899">
        <ele>276.2</ele>
        <time>2022-12-28T09:42:53Z</time>
      </trkpt>
      <trkpt lat="43.57451" lon="1.13904">
        <ele>275.6</ele>
        <time>2022-12-28T09:42:55Z</time>
      </trkpt>
      <trkpt lat="43.57456" lon="1.13907">
        <ele>275.2</ele>
        <time>2022-12-28T09:42:57Z</time>
      </trkpt>
      <trkpt lat="43.57464" lon="1.13915">
        <ele>275</ele>
        <time>2022-12-28T09:42:59Z</time>
      </trkpt>
      <trkpt lat="43.57481" lon="1.13929">
        <ele>274</ele>
        <time>2022-12-28T09:43:04Z</time>
      </trkpt>
      <trkpt lat="43.57484" lon="1.1393">
        <ele>273.4</ele>
        <time>2022-12-28T09:43:05Z</time>
      </trkpt>
      <trkpt lat="43.57487" lon="1.13931">
        <ele>272.8</ele>
        <time>2022-12-28T09:43:07Z</time>
      </trkpt>
      <trkpt lat="43.57491" lon="1.13936">
        <ele>272.2</ele>
        <time>2022-12-28T09:43:10Z</time>
      </trkpt>
      <trkpt lat="43.57498" lon="1.13942">
        <ele>271.8</ele>
        <time>2022-12-28T09:43:12Z</time>
      </trkpt>
      <trkpt lat="43.5751" lon="1.13954">
        <ele>271</ele>
        <time>2022-12-28T09:43:16Z</time>
      </trkpt>
      <trkpt lat="43.57512" lon="1.13955">
        <ele>270.8</ele>
        <time>2022-12-28T09:43:17Z</time>
      </trkpt>
      <trkpt lat="43.57515" lon="1.13952">
        <ele>270.4</ele>
        <time>2022-12-28T09:43:18Z</time>
      </trkpt>
      <trkpt lat="43.57516" lon="1.13948">
        <ele>270.2</ele>
        <time>2022-12-28T09:43:19Z</time>
      </trkpt>
      <trkpt lat="43.57524" lon="1.13928">
        <ele>269.4</ele>
        <time>2022-12-28T09:43:24Z</time>
      </trkpt>
      <trkpt lat="43.57525" lon="1.13926">
        <ele>269.2</ele>
        <time>2022-12-28T09:43:25Z</time>
      </trkpt>
      <trkpt lat="43.5753" lon="1.13916">
        <ele>269</ele>
        <time>2022-12-28T09:43:29Z</time>
      </trkpt>
      <trkpt lat="43.57531" lon="1.13916">
        <ele>269</ele>
        <time>2022-12-28T09:43:30Z</time>
      </trkpt>
      <trkpt lat="43.57538" lon="1.13915">
        <ele>269.4</ele>
        <time>2022-12-28T09:43:34Z</time>
      </trkpt>
      <trkpt lat="43.5754" lon="1.13915">
        <ele>269.4</ele>
        <time>2022-12-28T09:43:36Z</time>
      </trkpt>
      <trkpt lat="43.57547" lon="1.139">
        <ele>269.6</ele>
        <time>2022-12-28T09:43:41Z</time>
      </trkpt>
      <trkpt lat="43.57548" lon="1.13893">
        <ele>269.8</ele>
        <time>2022-12-28T09:43:44Z</time>
      </trkpt>
      <trkpt lat="43.57552" lon="1.13889">
        <ele>269.8</ele>
        <time>2022-12-28T09:43:46Z</time>
      </trkpt>
      <trkpt lat="43.57556" lon="1.13872">
        <ele>270.4</ele>
        <time>2022-12-28T09:43:51Z</time>
      </trkpt>
      <trkpt lat="43.57557" lon="1.13866">
        <ele>270.6</ele>
        <time>2022-12-28T09:43:53Z</time>
      </trkpt>
      <trkpt lat="43.57561" lon="1.13866">
        <ele>271.2</ele>
        <time>2022-12-28T09:43:56Z</time>
      </trkpt>
      <trkpt lat="43.57563" lon="1.13869">
        <ele>271.4</ele>
        <time>2022-12-28T09:43:57Z</time>
      </trkpt>
      <trkpt lat="43.57568" lon="1.13868">
        <ele>271.8</ele>
        <time>2022-12-28T09:44:00Z</time>
      </trkpt>
      <trkpt lat="43.5757" lon="1.13863">
        <ele>271.8</ele>
        <time>2022-12-28T09:44:01Z</time>
      </trkpt>
      <trkpt lat="43.57581" lon="1.13844">
        <ele>272.8</ele>
        <time>2022-12-28T09:44:08Z</time>
      </trkpt>
      <trkpt lat="43.57583" lon="1.13843">
        <ele>272.8</ele>
        <time>2022-12-28T09:44:09Z</time>
      </trkpt>
      <trkpt lat="43.57595" lon="1.13835">
        <ele>274</ele>
        <time>2022-12-28T09:44:14Z</time>
      </trkpt>
      <trkpt lat="43.57603" lon="1.13831">
        <ele>274.2</ele>
        <time>2022-12-28T09:44:17Z</time>
      </trkpt>
      <trkpt lat="43.57608" lon="1.13825">
        <ele>274.4</ele>
        <time>2022-12-28T09:44:19Z</time>
      </trkpt>
      <trkpt lat="43.57613" lon="1.13816">
        <ele>275</ele>
        <time>2022-12-28T09:44:22Z</time>
      </trkpt>
      <trkpt lat="43.57624" lon="1.13802">
        <ele>275.6</ele>
        <time>2022-12-28T09:44:27Z</time>
      </trkpt>
      <trkpt lat="43.5763" lon="1.13793">
        <ele>276</ele>
        <time>2022-12-28T09:44:30Z</time>
      </trkpt>
      <trkpt lat="43.57641" lon="1.13784">
        <ele>277</ele>
        <time>2022-12-28T09:44:35Z</time>
      </trkpt>
      <trkpt lat="43.57644" lon="1.1378">
        <ele>277.2</ele>
        <time>2022-12-28T09:44:36Z</time>
      </trkpt>
      <trkpt lat="43.57645" lon="1.13768">
        <ele>278</ele>
        <time>2022-12-28T09:44:39Z</time>
      </trkpt>
      <trkpt lat="43.57647" lon="1.1376">
        <ele>278.2</ele>
        <time>2022-12-28T09:44:41Z</time>
      </trkpt>
      <trkpt lat="43.57648" lon="1.13758">
        <ele>278.4</ele>
        <time>2022-12-28T09:44:42Z</time>
      </trkpt>
      <trkpt lat="43.57649" lon="1.13751">
        <ele>278.8</ele>
        <time>2022-12-28T09:44:44Z</time>
      </trkpt>
      <trkpt lat="43.57649" lon="1.13733">
        <ele>279.4</ele>
        <time>2022-12-28T09:44:50Z</time>
      </trkpt>
      <trkpt lat="43.5765" lon="1.1373">
        <ele>279.4</ele>
        <time>2022-12-28T09:44:51Z</time>
      </trkpt>
      <trkpt lat="43.57654" lon="1.13727">
        <ele>279.4</ele>
        <time>2022-12-28T09:44:53Z</time>
      </trkpt>
      <trkpt lat="43.57655" lon="1.13724">
        <ele>279.4</ele>
        <time>2022-12-28T09:44:54Z</time>
      </trkpt>
      <trkpt lat="43.57662" lon="1.13711">
        <ele>279.6</ele>
        <time>2022-12-28T09:44:59Z</time>
      </trkpt>
      <trkpt lat="43.57669" lon="1.13708">
        <ele>279.8</ele>
        <time>2022-12-28T09:45:02Z</time>
      </trkpt>
      <trkpt lat="43.57671" lon="1.13709">
        <ele>280</ele>
        <time>2022-12-28T09:45:04Z</time>
      </trkpt>
      <trkpt lat="43.57674" lon="1.1371">
        <ele>280.4</ele>
        <time>2022-12-28T09:45:06Z</time>
      </trkpt>
      <trkpt lat="43.57675" lon="1.13711">
        <ele>280.8</ele>
        <time>2022-12-28T09:45:07Z</time>
      </trkpt>
      <trkpt lat="43.57677" lon="1.13713">
        <ele>281</ele>
        <time>2022-12-28T09:45:08Z</time>
      </trkpt>
      <trkpt lat="43.57681" lon="1.13718">
        <ele>281.6</ele>
        <time>2022-12-28T09:45:11Z</time>
      </trkpt>
      <trkpt lat="43.57684" lon="1.13722">
        <ele>282</ele>
        <time>2022-12-28T09:45:13Z</time>
      </trkpt>
      <trkpt lat="43.57687" lon="1.13724">
        <ele>282.6</ele>
        <time>2022-12-28T09:45:15Z</time>
      </trkpt>
      <trkpt lat="43.57696" lon="1.13729">
        <ele>283.8</ele>
        <time>2022-12-28T09:45:20Z</time>
      </trkpt>
      <trkpt lat="43.57699" lon="1.13734">
        <ele>284.6</ele>
        <time>2022-12-28T09:45:23Z</time>
      </trkpt>
      <trkpt lat="43.577" lon="1.13736">
        <ele>285</ele>
        <time>2022-12-28T09:45:24Z</time>
      </trkpt>
      <trkpt lat="43.57705" lon="1.13744">
        <ele>286</ele>
        <time>2022-12-28T09:45:29Z</time>
      </trkpt>
      <trkpt lat="43.57707" lon="1.13748">
        <ele>286.4</ele>
        <time>2022-12-28T09:45:31Z</time>
      </trkpt>
      <trkpt lat="43.57709" lon="1.13751">
        <ele>287</ele>
        <time>2022-12-28T09:45:33Z</time>
      </trkpt>
      <trkpt lat="43.57712" lon="1.13752">
        <ele>287.8</ele>
        <time>2022-12-28T09:45:36Z</time>
      </trkpt>
      <trkpt lat="43.57713" lon="1.13753">
        <ele>288.2</ele>
        <time>2022-12-28T09:45:37Z</time>
      </trkpt>
      <trkpt lat="43.57717" lon="1.13755">
        <ele>289.2</ele>
        <time>2022-12-28T09:45:40Z</time>
      </trkpt>
      <trkpt lat="43.57718" lon="1.13755">
        <ele>289.6</ele>
        <time>2022-12-28T09:45:41Z</time>
      </trkpt>
      <trkpt lat="43.5772" lon="1.13755">
        <ele>290.4</ele>
        <time>2022-12-28T09:45:43Z</time>
      </trkpt>
      <trkpt lat="43.57725" lon="1.13754">
        <ele>291.4</ele>
        <time>2022-12-28T09:45:47Z</time>
      </trkpt>
      <trkpt lat="43.57729" lon="1.13754">
        <ele>292.8</ele>
        <time>2022-12-28T09:45:50Z</time>
      </trkpt>
      <trkpt lat="43.57731" lon="1.13755">
        <ele>293.2</ele>
        <time>2022-12-28T09:45:52Z</time>
      </trkpt>
      <trkpt lat="43.57736" lon="1.13757">
        <ele>293.8</ele>
        <time>2022-12-28T09:45:55Z</time>
      </trkpt>
      <trkpt lat="43.57738" lon="1.13758">
        <ele>293.8</ele>
        <time>2022-12-28T09:45:56Z</time>
      </trkpt>
      <trkpt lat="43.5774" lon="1.13759">
        <ele>294.2</ele>
        <time>2022-12-28T09:45:58Z</time>
      </trkpt>
      <trkpt lat="43.57742" lon="1.1376">
        <ele>294.4</ele>
        <time>2022-12-28T09:45:59Z</time>
      </trkpt>
      <trkpt lat="43.57746" lon="1.13764">
        <ele>295.2</ele>
        <time>2022-12-28T09:46:02Z</time>
      </trkpt>
      <trkpt lat="43.57748" lon="1.13765">
        <ele>295.2</ele>
        <time>2022-12-28T09:46:03Z</time>
      </trkpt>
      <trkpt lat="43.57752" lon="1.13767">
        <ele>296.2</ele>
        <time>2022-12-28T09:46:06Z</time>
      </trkpt>
      <trkpt lat="43.57756" lon="1.13769">
        <ele>296.6</ele>
        <time>2022-12-28T09:46:09Z</time>
      </trkpt>
      <trkpt lat="43.57758" lon="1.13769">
        <ele>297</ele>
        <time>2022-12-28T09:46:10Z</time>
      </trkpt>
      <trkpt lat="43.57764" lon="1.13771">
        <ele>297.2</ele>
        <time>2022-12-28T09:46:12Z</time>
      </trkpt>
      <trkpt lat="43.5777" lon="1.1377">
        <ele>298.4</ele>
        <time>2022-12-28T09:46:17Z</time>
      </trkpt>
      <trkpt lat="43.57771" lon="1.13771">
        <ele>298.6</ele>
        <time>2022-12-28T09:46:18Z</time>
      </trkpt>
      <trkpt lat="43.57777" lon="1.13772">
        <ele>299.6</ele>
        <time>2022-12-28T09:46:23Z</time>
      </trkpt>
      <trkpt lat="43.5778" lon="1.13773">
        <ele>300.6</ele>
        <time>2022-12-28T09:46:26Z</time>
      </trkpt>
      <trkpt lat="43.57785" lon="1.13776">
        <ele>301.8</ele>
        <time>2022-12-28T09:46:30Z</time>
      </trkpt>
      <trkpt lat="43.5779" lon="1.13778">
        <ele>302.6</ele>
        <time>2022-12-28T09:46:33Z</time>
      </trkpt>
      <trkpt lat="43.57793" lon="1.1378">
        <ele>303.2</ele>
        <time>2022-12-28T09:46:35Z</time>
      </trkpt>
      <trkpt lat="43.57798" lon="1.13784">
        <ele>304.2</ele>
        <time>2022-12-28T09:46:38Z</time>
      </trkpt>
      <trkpt lat="43.57803" lon="1.13788">
        <ele>305.4</ele>
        <time>2022-12-28T09:46:42Z</time>
      </trkpt>
      <trkpt lat="43.57807" lon="1.13791">
        <ele>306.6</ele>
        <time>2022-12-28T09:46:45Z</time>
      </trkpt>
      <trkpt lat="43.57811" lon="1.13794">
        <ele>307.2</ele>
        <time>2022-12-28T09:46:48Z</time>
      </trkpt>
      <trkpt lat="43.57813" lon="1.13796">
        <ele>307.8</ele>
        <time>2022-12-28T09:46:50Z</time>
      </trkpt>
      <trkpt lat="43.57816" lon="1.13798">
        <ele>308</ele>
        <time>2022-12-28T09:46:52Z</time>
      </trkpt>
      <trkpt lat="43.57821" lon="1.13802">
        <ele>308.8</ele>
        <time>2022-12-28T09:46:55Z</time>
      </trkpt>
      <trkpt lat="43.57823" lon="1.13803">
        <ele>309</ele>
        <time>2022-12-28T09:46:56Z</time>
      </trkpt>
      <trkpt lat="43.57831" lon="1.13808">
        <ele>309.6</ele>
        <time>2022-12-28T09:47:02Z</time>
      </trkpt>
      <trkpt lat="43.57832" lon="1.13811">
        <ele>309.8</ele>
        <time>2022-12-28T09:47:04Z</time>
      </trkpt>
      <trkpt lat="43.57833" lon="1.13814">
        <ele>310.2</ele>
        <time>2022-12-28T09:47:06Z</time>
      </trkpt>
      <trkpt lat="43.57833" lon="1.13814">
        <ele>310.4</ele>
        <time>2022-12-28T09:47:09Z</time>
      </trkpt>
      <trkpt lat="43.57831" lon="1.13818">
        <ele>310.6</ele>
        <time>2022-12-28T09:54:51Z</time>
      </trkpt>
      <trkpt lat="43.57826" lon="1.13825">
        <ele>310.8</ele>
        <time>2022-12-28T09:54:54Z</time>
      </trkpt>
      <trkpt lat="43.5782" lon="1.13839">
        <ele>310.6</ele>
        <time>2022-12-28T09:54:58Z</time>
      </trkpt>
      <trkpt lat="43.57816" lon="1.13849">
        <ele>310.6</ele>
        <time>2022-12-28T09:55:01Z</time>
      </trkpt>
      <trkpt lat="43.57803" lon="1.13876">
        <ele>311</ele>
        <time>2022-12-28T09:55:08Z</time>
      </trkpt>
      <trkpt lat="43.5779" lon="1.13903">
        <ele>310.4</ele>
        <time>2022-12-28T09:55:14Z</time>
      </trkpt>
      <trkpt lat="43.57775" lon="1.13932">
        <ele>309.8</ele>
        <time>2022-12-28T09:55:19Z</time>
      </trkpt>
      <trkpt lat="43.57772" lon="1.13939">
        <ele>309.6</ele>
        <time>2022-12-28T09:55:20Z</time>
      </trkpt>
      <trkpt lat="43.57752" lon="1.13975">
        <ele>309</ele>
        <time>2022-12-28T09:55:25Z</time>
      </trkpt>
      <trkpt lat="43.57747" lon="1.13982">
        <ele>308.6</ele>
        <time>2022-12-28T09:55:26Z</time>
      </trkpt>
      <trkpt lat="43.57728" lon="1.1401">
        <ele>307.4</ele>
        <time>2022-12-28T09:55:30Z</time>
      </trkpt>
      <trkpt lat="43.57723" lon="1.14019">
        <ele>307.2</ele>
        <time>2022-12-28T09:55:31Z</time>
      </trkpt>
      <trkpt lat="43.57714" lon="1.14035">
        <ele>306.4</ele>
        <time>2022-12-28T09:55:33Z</time>
      </trkpt>
      <trkpt lat="43.57705" lon="1.14052">
        <ele>305.2</ele>
        <time>2022-12-28T09:55:35Z</time>
      </trkpt>
      <trkpt lat="43.57697" lon="1.14067">
        <ele>304.4</ele>
        <time>2022-12-28T09:55:37Z</time>
      </trkpt>
      <trkpt lat="43.57694" lon="1.14074">
        <ele>303.8</ele>
        <time>2022-12-28T09:55:38Z</time>
      </trkpt>
      <trkpt lat="43.57688" lon="1.14095">
        <ele>302.4</ele>
        <time>2022-12-28T09:55:41Z</time>
      </trkpt>
      <trkpt lat="43.57684" lon="1.14107">
        <ele>300.6</ele>
        <time>2022-12-28T09:55:43Z</time>
      </trkpt>
      <trkpt lat="43.57677" lon="1.14125">
        <ele>299.6</ele>
        <time>2022-12-28T09:55:46Z</time>
      </trkpt>
      <trkpt lat="43.57673" lon="1.14136">
        <ele>298.8</ele>
        <time>2022-12-28T09:55:48Z</time>
      </trkpt>
      <trkpt lat="43.57667" lon="1.1415">
        <ele>298</ele>
        <time>2022-12-28T09:55:50Z</time>
      </trkpt>
      <trkpt lat="43.57665" lon="1.14156">
        <ele>298</ele>
        <time>2022-12-28T09:55:51Z</time>
      </trkpt>
      <trkpt lat="43.57663" lon="1.14162">
        <ele>296.8</ele>
        <time>2022-12-28T09:55:52Z</time>
      </trkpt>
      <trkpt lat="43.57657" lon="1.14177">
        <ele>295.4</ele>
        <time>2022-12-28T09:55:54Z</time>
      </trkpt>
      <trkpt lat="43.57651" lon="1.14193">
        <ele>294.2</ele>
        <time>2022-12-28T09:55:57Z</time>
      </trkpt>
      <trkpt lat="43.57649" lon="1.14198">
        <ele>293.4</ele>
        <time>2022-12-28T09:55:58Z</time>
      </trkpt>
      <trkpt lat="43.57647" lon="1.14202">
        <ele>292.4</ele>
        <time>2022-12-28T09:55:59Z</time>
      </trkpt>
      <trkpt lat="43.57643" lon="1.14213">
        <ele>291</ele>
        <time>2022-12-28T09:56:01Z</time>
      </trkpt>
      <trkpt lat="43.57641" lon="1.14219">
        <ele>290.6</ele>
        <time>2022-12-28T09:56:02Z</time>
      </trkpt>
      <trkpt lat="43.57638" lon="1.14226">
        <ele>289</ele>
        <time>2022-12-28T09:56:03Z</time>
      </trkpt>
      <trkpt lat="43.57632" lon="1.14238">
        <ele>287.2</ele>
        <time>2022-12-28T09:56:05Z</time>
      </trkpt>
      <trkpt lat="43.57629" lon="1.14243">
        <ele>286.6</ele>
        <time>2022-12-28T09:56:06Z</time>
      </trkpt>
      <trkpt lat="43.57626" lon="1.14248">
        <ele>285.6</ele>
        <time>2022-12-28T09:56:07Z</time>
      </trkpt>
      <trkpt lat="43.57625" lon="1.14252">
        <ele>285</ele>
        <time>2022-12-28T09:56:08Z</time>
      </trkpt>
      <trkpt lat="43.57626" lon="1.14256">
        <ele>283.2</ele>
        <time>2022-12-28T09:56:09Z</time>
      </trkpt>
      <trkpt lat="43.57625" lon="1.14267">
        <ele>282</ele>
        <time>2022-12-28T09:56:11Z</time>
      </trkpt>
      <trkpt lat="43.57623" lon="1.14279">
        <ele>281.2</ele>
        <time>2022-12-28T09:56:13Z</time>
      </trkpt>
      <trkpt lat="43.57622" lon="1.14286">
        <ele>280.6</ele>
        <time>2022-12-28T09:56:14Z</time>
      </trkpt>
      <trkpt lat="43.57623" lon="1.14303">
        <ele>279.6</ele>
        <time>2022-12-28T09:56:17Z</time>
      </trkpt>
      <trkpt lat="43.57622" lon="1.14309">
        <ele>279</ele>
        <time>2022-12-28T09:56:18Z</time>
      </trkpt>
      <trkpt lat="43.57618" lon="1.14319">
        <ele>278.2</ele>
        <time>2022-12-28T09:56:20Z</time>
      </trkpt>
      <trkpt lat="43.57617" lon="1.14324">
        <ele>277.8</ele>
        <time>2022-12-28T09:56:21Z</time>
      </trkpt>
      <trkpt lat="43.57617" lon="1.14332">
        <ele>277</ele>
        <time>2022-12-28T09:56:23Z</time>
      </trkpt>
      <trkpt lat="43.57617" lon="1.14347">
        <ele>276.2</ele>
        <time>2022-12-28T09:56:26Z</time>
      </trkpt>
      <trkpt lat="43.57619" lon="1.14359">
        <ele>275.6</ele>
        <time>2022-12-28T09:56:28Z</time>
      </trkpt>
      <trkpt lat="43.57617" lon="1.14372">
        <ele>274.8</ele>
        <time>2022-12-28T09:56:30Z</time>
      </trkpt>
      <trkpt lat="43.57617" lon="1.14377">
        <ele>274.8</ele>
        <time>2022-12-28T09:56:31Z</time>
      </trkpt>
      <trkpt lat="43.57618" lon="1.14381">
        <ele>274.6</ele>
        <time>2022-12-28T09:56:32Z</time>
      </trkpt>
      <trkpt lat="43.57621" lon="1.14385">
        <ele>274.4</ele>
        <time>2022-12-28T09:56:33Z</time>
      </trkpt>
      <trkpt lat="43.5763" lon="1.14392">
        <ele>274</ele>
        <time>2022-12-28T09:56:36Z</time>
      </trkpt>
      <trkpt lat="43.57632" lon="1.14397">
        <ele>273.2</ele>
        <time>2022-12-28T09:56:38Z</time>
      </trkpt>
      <trkpt lat="43.57635" lon="1.14402">
        <ele>271.8</ele>
        <time>2022-12-28T09:56:40Z</time>
      </trkpt>
      <trkpt lat="43.57638" lon="1.14409">
        <ele>270.8</ele>
        <time>2022-12-28T09:56:42Z</time>
      </trkpt>
      <trkpt lat="43.57641" lon="1.14413">
        <ele>269.4</ele>
        <time>2022-12-28T09:56:44Z</time>
      </trkpt>
      <trkpt lat="43.57648" lon="1.14419">
        <ele>267.4</ele>
        <time>2022-12-28T09:56:47Z</time>
      </trkpt>
      <trkpt lat="43.57648" lon="1.1442">
        <ele>265.8</ele>
        <time>2022-12-28T09:56:49Z</time>
      </trkpt>
      <trkpt lat="43.57648" lon="1.1442">
        <ele>265.4</ele>
        <time>2022-12-28T09:56:50Z</time>
      </trkpt>
      <trkpt lat="43.57653" lon="1.14441">
        <ele>261.2</ele>
        <time>2022-12-28T09:57:02Z</time>
      </trkpt>
      <trkpt lat="43.57655" lon="1.14448">
        <ele>260.8</ele>
        <time>2022-12-28T09:57:04Z</time>
      </trkpt>
      <trkpt lat="43.57655" lon="1.14457">
        <ele>260.8</ele>
        <time>2022-12-28T09:57:06Z</time>
      </trkpt>
      <trkpt lat="43.57647" lon="1.14472">
        <ele>260.6</ele>
        <time>2022-12-28T09:57:12Z</time>
      </trkpt>
      <trkpt lat="43.57647" lon="1.14474">
        <ele>260.8</ele>
        <time>2022-12-28T09:57:13Z</time>
      </trkpt>
      <trkpt lat="43.57643" lon="1.14484">
        <ele>260.8</ele>
        <time>2022-12-28T09:57:16Z</time>
      </trkpt>
      <trkpt lat="43.57641" lon="1.14488">
        <ele>261</ele>
        <time>2022-12-28T09:57:18Z</time>
      </trkpt>
      <trkpt lat="43.57638" lon="1.14493">
        <ele>261</ele>
        <time>2022-12-28T09:57:21Z</time>
      </trkpt>
      <trkpt lat="43.57635" lon="1.14493">
        <ele>261</ele>
        <time>2022-12-28T09:57:22Z</time>
      </trkpt>
      <trkpt lat="43.57629" lon="1.14493">
        <ele>261</ele>
        <time>2022-12-28T09:57:25Z</time>
      </trkpt>
      <trkpt lat="43.57628" lon="1.14492">
        <ele>261</ele>
        <time>2022-12-28T09:57:26Z</time>
      </trkpt>
      <trkpt lat="43.57626" lon="1.14492">
        <ele>261</ele>
        <time>2022-12-28T09:57:27Z</time>
      </trkpt>
      <trkpt lat="43.5762" lon="1.14491">
        <ele>260.8</ele>
        <time>2022-12-28T09:57:30Z</time>
      </trkpt>
      <trkpt lat="43.57614" lon="1.14491">
        <ele>260.2</ele>
        <time>2022-12-28T09:57:33Z</time>
      </trkpt>
      <trkpt lat="43.57612" lon="1.14491">
        <ele>260</ele>
        <time>2022-12-28T09:57:34Z</time>
      </trkpt>
      <trkpt lat="43.5761" lon="1.14492">
        <ele>259.8</ele>
        <time>2022-12-28T09:57:35Z</time>
      </trkpt>
      <trkpt lat="43.57603" lon="1.14496">
        <ele>259.6</ele>
        <time>2022-12-28T09:57:37Z</time>
      </trkpt>
      <trkpt lat="43.57597" lon="1.14503">
        <ele>259.4</ele>
        <time>2022-12-28T09:57:39Z</time>
      </trkpt>
      <trkpt lat="43.57595" lon="1.14507">
        <ele>259</ele>
        <time>2022-12-28T09:57:40Z</time>
      </trkpt>
      <trkpt lat="43.57594" lon="1.14509">
        <ele>258.8</ele>
        <time>2022-12-28T09:57:41Z</time>
      </trkpt>
      <trkpt lat="43.57588" lon="1.14513">
        <ele>258.4</ele>
        <time>2022-12-28T09:57:43Z</time>
      </trkpt>
      <trkpt lat="43.57572" lon="1.14534">
        <ele>258.2</ele>
        <time>2022-12-28T09:57:49Z</time>
      </trkpt>
      <trkpt lat="43.57565" lon="1.1454">
        <ele>258.2</ele>
        <time>2022-12-28T09:57:54Z</time>
      </trkpt>
      <trkpt lat="43.57547" lon="1.14543">
        <ele>257.2</ele>
        <time>2022-12-28T09:58:00Z</time>
      </trkpt>
      <trkpt lat="43.57546" lon="1.14543">
        <ele>257</ele>
        <time>2022-12-28T09:58:01Z</time>
      </trkpt>
      <trkpt lat="43.57544" lon="1.14546">
        <ele>256.6</ele>
        <time>2022-12-28T09:58:02Z</time>
      </trkpt>
      <trkpt lat="43.57538" lon="1.14553">
        <ele>256.2</ele>
        <time>2022-12-28T09:58:05Z</time>
      </trkpt>
      <trkpt lat="43.57536" lon="1.14553">
        <ele>256.2</ele>
        <time>2022-12-28T09:58:06Z</time>
      </trkpt>
      <trkpt lat="43.57521" lon="1.14557">
        <ele>256.2</ele>
        <time>2022-12-28T09:58:12Z</time>
      </trkpt>
      <trkpt lat="43.57506" lon="1.14557">
        <ele>256.4</ele>
        <time>2022-12-28T09:58:17Z</time>
      </trkpt>
      <trkpt lat="43.57505" lon="1.14556">
        <ele>256.2</ele>
        <time>2022-12-28T09:58:18Z</time>
      </trkpt>
      <trkpt lat="43.57491" lon="1.14545">
        <ele>255.6</ele>
        <time>2022-12-28T09:58:23Z</time>
      </trkpt>
      <trkpt lat="43.5749" lon="1.14547">
        <ele>255.2</ele>
        <time>2022-12-28T09:58:24Z</time>
      </trkpt>
      <trkpt lat="43.57488" lon="1.14549">
        <ele>254.8</ele>
        <time>2022-12-28T09:58:25Z</time>
      </trkpt>
      <trkpt lat="43.57482" lon="1.14558">
        <ele>254.4</ele>
        <time>2022-12-28T09:58:29Z</time>
      </trkpt>
      <trkpt lat="43.57474" lon="1.1457">
        <ele>254.2</ele>
        <time>2022-12-28T09:58:33Z</time>
      </trkpt>
      <trkpt lat="43.57469" lon="1.14587">
        <ele>254.6</ele>
        <time>2022-12-28T09:58:39Z</time>
      </trkpt>
      <trkpt lat="43.57464" lon="1.14601">
        <ele>255.6</ele>
        <time>2022-12-28T09:58:46Z</time>
      </trkpt>
      <trkpt lat="43.57464" lon="1.14603">
        <ele>256</ele>
        <time>2022-12-28T09:58:49Z</time>
      </trkpt>
      <trkpt lat="43.5746" lon="1.14607">
        <ele>256.2</ele>
        <time>2022-12-28T09:58:53Z</time>
      </trkpt>
      <trkpt lat="43.57459" lon="1.14609">
        <ele>256.2</ele>
        <time>2022-12-28T09:58:55Z</time>
      </trkpt>
      <trkpt lat="43.57456" lon="1.14607">
        <ele>256.2</ele>
        <time>2022-12-28T09:58:58Z</time>
      </trkpt>
      <trkpt lat="43.57453" lon="1.14607">
        <ele>256.2</ele>
        <time>2022-12-28T09:59:00Z</time>
      </trkpt>
      <trkpt lat="43.57452" lon="1.1461">
        <ele>256.2</ele>
        <time>2022-12-28T09:59:02Z</time>
      </trkpt>
      <trkpt lat="43.57453" lon="1.14622">
        <ele>256.4</ele>
        <time>2022-12-28T09:59:10Z</time>
      </trkpt>
      <trkpt lat="43.5745" lon="1.14629">
        <ele>256.6</ele>
        <time>2022-12-28T09:59:16Z</time>
      </trkpt>
      <trkpt lat="43.5745" lon="1.14632">
        <ele>256.6</ele>
        <time>2022-12-28T09:59:17Z</time>
      </trkpt>
      <trkpt lat="43.57451" lon="1.14634">
        <ele>256.6</ele>
        <time>2022-12-28T09:59:18Z</time>
      </trkpt>
      <trkpt lat="43.57452" lon="1.14642">
        <ele>256.8</ele>
        <time>2022-12-28T09:59:22Z</time>
      </trkpt>
      <trkpt lat="43.57453" lon="1.14644">
        <ele>256.8</ele>
        <time>2022-12-28T09:59:23Z</time>
      </trkpt>
      <trkpt lat="43.57449" lon="1.14656">
        <ele>257.2</ele>
        <time>2022-12-28T09:59:28Z</time>
      </trkpt>
      <trkpt lat="43.57449" lon="1.14659">
        <ele>257.4</ele>
        <time>2022-12-28T09:59:29Z</time>
      </trkpt>
      <trkpt lat="43.57449" lon="1.14671">
        <ele>257.8</ele>
        <time>2022-12-28T09:59:32Z</time>
      </trkpt>
      <trkpt lat="43.5745" lon="1.14674">
        <ele>258</ele>
        <time>2022-12-28T09:59:33Z</time>
      </trkpt>
      <trkpt lat="43.57452" lon="1.14678">
        <ele>258</ele>
        <time>2022-12-28T09:59:35Z</time>
      </trkpt>
      <trkpt lat="43.57456" lon="1.14685">
        <ele>258.6</ele>
        <time>2022-12-28T09:59:38Z</time>
      </trkpt>
      <trkpt lat="43.57456" lon="1.14688">
        <ele>258.6</ele>
        <time>2022-12-28T09:59:39Z</time>
      </trkpt>
      <trkpt lat="43.57458" lon="1.14689">
        <ele>259.2</ele>
        <time>2022-12-28T09:59:40Z</time>
      </trkpt>
      <trkpt lat="43.57464" lon="1.14691">
        <ele>259.6</ele>
        <time>2022-12-28T09:59:43Z</time>
      </trkpt>
      <trkpt lat="43.57468" lon="1.14699">
        <ele>260.2</ele>
        <time>2022-12-28T09:59:46Z</time>
      </trkpt>
      <trkpt lat="43.5747" lon="1.14701">
        <ele>260.4</ele>
        <time>2022-12-28T09:59:47Z</time>
      </trkpt>
      <trkpt lat="43.57472" lon="1.14702">
        <ele>260.6</ele>
        <time>2022-12-28T09:59:48Z</time>
      </trkpt>
      <trkpt lat="43.57476" lon="1.14702">
        <ele>261</ele>
        <time>2022-12-28T09:59:50Z</time>
      </trkpt>
      <trkpt lat="43.57477" lon="1.14702">
        <ele>261.4</ele>
        <time>2022-12-28T09:59:51Z</time>
      </trkpt>
      <trkpt lat="43.57479" lon="1.147">
        <ele>261.6</ele>
        <time>2022-12-28T09:59:52Z</time>
      </trkpt>
      <trkpt lat="43.57485" lon="1.14703">
        <ele>262</ele>
        <time>2022-12-28T09:59:54Z</time>
      </trkpt>
      <trkpt lat="43.57488" lon="1.14708">
        <ele>262.4</ele>
        <time>2022-12-28T09:59:56Z</time>
      </trkpt>
      <trkpt lat="43.57488" lon="1.14711">
        <ele>262.8</ele>
        <time>2022-12-28T09:59:57Z</time>
      </trkpt>
      <trkpt lat="43.57487" lon="1.14713">
        <ele>263.2</ele>
        <time>2022-12-28T09:59:59Z</time>
      </trkpt>
      <trkpt lat="43.57482" lon="1.14717">
        <ele>263.6</ele>
        <time>2022-12-28T10:00:02Z</time>
      </trkpt>
      <trkpt lat="43.57478" lon="1.14721">
        <ele>263.6</ele>
        <time>2022-12-28T10:00:04Z</time>
      </trkpt>
      <trkpt lat="43.57477" lon="1.14725">
        <ele>263.8</ele>
        <time>2022-12-28T10:00:05Z</time>
      </trkpt>
      <trkpt lat="43.57479" lon="1.14732">
        <ele>263.8</ele>
        <time>2022-12-28T10:00:07Z</time>
      </trkpt>
      <trkpt lat="43.5748" lon="1.14737">
        <ele>264</ele>
        <time>2022-12-28T10:00:09Z</time>
      </trkpt>
      <trkpt lat="43.57481" lon="1.14739">
        <ele>264</ele>
        <time>2022-12-28T10:00:10Z</time>
      </trkpt>
      <trkpt lat="43.57486" lon="1.14745">
        <ele>264</ele>
        <time>2022-12-28T10:00:12Z</time>
      </trkpt>
      <trkpt lat="43.57488" lon="1.14756">
        <ele>264.6</ele>
        <time>2022-12-28T10:00:15Z</time>
      </trkpt>
      <trkpt lat="43.57489" lon="1.14759">
        <ele>264.6</ele>
        <time>2022-12-28T10:00:16Z</time>
      </trkpt>
      <trkpt lat="43.57491" lon="1.14763">
        <ele>264.8</ele>
        <time>2022-12-28T10:00:17Z</time>
      </trkpt>
      <trkpt lat="43.57496" lon="1.14766">
        <ele>265.6</ele>
        <time>2022-12-28T10:00:20Z</time>
      </trkpt>
      <trkpt lat="43.57504" lon="1.14774">
        <ele>266</ele>
        <time>2022-12-28T10:00:23Z</time>
      </trkpt>
      <trkpt lat="43.57507" lon="1.14777">
        <ele>266.4</ele>
        <time>2022-12-28T10:00:24Z</time>
      </trkpt>
      <trkpt lat="43.57512" lon="1.1478">
        <ele>267</ele>
        <time>2022-12-28T10:00:26Z</time>
      </trkpt>
      <trkpt lat="43.57518" lon="1.14792">
        <ele>268</ele>
        <time>2022-12-28T10:00:30Z</time>
      </trkpt>
      <trkpt lat="43.57519" lon="1.14794">
        <ele>268.2</ele>
        <time>2022-12-28T10:00:31Z</time>
      </trkpt>
      <trkpt lat="43.57525" lon="1.14803">
        <ele>269.2</ele>
        <time>2022-12-28T10:00:35Z</time>
      </trkpt>
      <trkpt lat="43.57526" lon="1.14806">
        <ele>269.2</ele>
        <time>2022-12-28T10:00:36Z</time>
      </trkpt>
      <trkpt lat="43.57527" lon="1.14808">
        <ele>269.4</ele>
        <time>2022-12-28T10:00:37Z</time>
      </trkpt>
      <trkpt lat="43.57531" lon="1.14813">
        <ele>270.2</ele>
        <time>2022-12-28T10:00:40Z</time>
      </trkpt>
      <trkpt lat="43.57533" lon="1.14814">
        <ele>270.4</ele>
        <time>2022-12-28T10:00:41Z</time>
      </trkpt>
      <trkpt lat="43.57539" lon="1.14827">
        <ele>271.6</ele>
        <time>2022-12-28T10:00:46Z</time>
      </trkpt>
      <trkpt lat="43.5754" lon="1.14829">
        <ele>271.8</ele>
        <time>2022-12-28T10:00:47Z</time>
      </trkpt>
      <trkpt lat="43.57544" lon="1.14835">
        <ele>272.6</ele>
        <time>2022-12-28T10:00:50Z</time>
      </trkpt>
      <trkpt lat="43.57547" lon="1.1484">
        <ele>273</ele>
        <time>2022-12-28T10:00:52Z</time>
      </trkpt>
      <trkpt lat="43.57549" lon="1.14842">
        <ele>273.2</ele>
        <time>2022-12-28T10:00:53Z</time>
      </trkpt>
      <trkpt lat="43.57554" lon="1.14853">
        <ele>273.6</ele>
        <time>2022-12-28T10:00:57Z</time>
      </trkpt>
      <trkpt lat="43.57556" lon="1.14856">
        <ele>273.8</ele>
        <time>2022-12-28T10:00:58Z</time>
      </trkpt>
      <trkpt lat="43.57564" lon="1.14871">
        <ele>274</ele>
        <time>2022-12-28T10:01:03Z</time>
      </trkpt>
      <trkpt lat="43.57564" lon="1.14872">
        <ele>274.4</ele>
        <time>2022-12-28T10:01:04Z</time>
      </trkpt>
      <trkpt lat="43.57566" lon="1.14875">
        <ele>274.4</ele>
        <time>2022-12-28T10:01:05Z</time>
      </trkpt>
      <trkpt lat="43.57569" lon="1.14881">
        <ele>274.8</ele>
        <time>2022-12-28T10:01:07Z</time>
      </trkpt>
      <trkpt lat="43.57573" lon="1.14885">
        <ele>275</ele>
        <time>2022-12-28T10:01:09Z</time>
      </trkpt>
      <trkpt lat="43.57576" lon="1.14893">
        <ele>275.8</ele>
        <time>2022-12-28T10:01:12Z</time>
      </trkpt>
      <trkpt lat="43.5758" lon="1.14902">
        <ele>276.6</ele>
        <time>2022-12-28T10:01:15Z</time>
      </trkpt>
      <trkpt lat="43.57582" lon="1.14906">
        <ele>276.8</ele>
        <time>2022-12-28T10:01:16Z</time>
      </trkpt>
      <trkpt lat="43.57586" lon="1.14917">
        <ele>278</ele>
        <time>2022-12-28T10:01:21Z</time>
      </trkpt>
      <trkpt lat="43.57586" lon="1.14919">
        <ele>278.4</ele>
        <time>2022-12-28T10:01:22Z</time>
      </trkpt>
      <trkpt lat="43.57589" lon="1.14928">
        <ele>279</ele>
        <time>2022-12-28T10:01:25Z</time>
      </trkpt>
      <trkpt lat="43.5759" lon="1.14932">
        <ele>279.8</ele>
        <time>2022-12-28T10:01:27Z</time>
      </trkpt>
      <trkpt lat="43.57592" lon="1.14933">
        <ele>280.6</ele>
        <time>2022-12-28T10:01:28Z</time>
      </trkpt>
      <trkpt lat="43.57593" lon="1.14933">
        <ele>281.6</ele>
        <time>2022-12-28T10:01:31Z</time>
      </trkpt>
      <trkpt lat="43.57595" lon="1.14938">
        <ele>284.4</ele>
        <time>2022-12-28T10:01:58Z</time>
      </trkpt>
      <trkpt lat="43.57595" lon="1.14941">
        <ele>284.6</ele>
        <time>2022-12-28T10:01:59Z</time>
      </trkpt>
      <trkpt lat="43.57599" lon="1.14963">
        <ele>285.2</ele>
        <time>2022-12-28T10:02:05Z</time>
      </trkpt>
      <trkpt lat="43.57602" lon="1.14976">
        <ele>285.6</ele>
        <time>2022-12-28T10:02:09Z</time>
      </trkpt>
      <trkpt lat="43.57604" lon="1.14987">
        <ele>286.6</ele>
        <time>2022-12-28T10:02:12Z</time>
      </trkpt>
      <trkpt lat="43.57608" lon="1.15004">
        <ele>287.6</ele>
        <time>2022-12-28T10:02:17Z</time>
      </trkpt>
      <trkpt lat="43.57611" lon="1.15015">
        <ele>288.6</ele>
        <time>2022-12-28T10:02:21Z</time>
      </trkpt>
      <trkpt lat="43.57613" lon="1.15019">
        <ele>288.8</ele>
        <time>2022-12-28T10:02:22Z</time>
      </trkpt>
      <trkpt lat="43.57622" lon="1.15035">
        <ele>289.8</ele>
        <time>2022-12-28T10:02:28Z</time>
      </trkpt>
      <trkpt lat="43.57632" lon="1.15035">
        <ele>290.8</ele>
        <time>2022-12-28T10:02:33Z</time>
      </trkpt>
      <trkpt lat="43.57634" lon="1.15034">
        <ele>291.2</ele>
        <time>2022-12-28T10:02:34Z</time>
      </trkpt>
      <trkpt lat="43.57646" lon="1.15022">
        <ele>292.2</ele>
        <time>2022-12-28T10:02:40Z</time>
      </trkpt>
      <trkpt lat="43.57656" lon="1.15012">
        <ele>293.2</ele>
        <time>2022-12-28T10:02:45Z</time>
      </trkpt>
      <trkpt lat="43.57658" lon="1.1501">
        <ele>293.6</ele>
        <time>2022-12-28T10:02:46Z</time>
      </trkpt>
      <trkpt lat="43.57667" lon="1.15001">
        <ele>294.4</ele>
        <time>2022-12-28T10:02:50Z</time>
      </trkpt>
      <trkpt lat="43.57675" lon="1.1499">
        <ele>295.4</ele>
        <time>2022-12-28T10:02:54Z</time>
      </trkpt>
      <trkpt lat="43.57678" lon="1.14988">
        <ele>295.6</ele>
        <time>2022-12-28T10:02:55Z</time>
      </trkpt>
      <trkpt lat="43.57692" lon="1.14971">
        <ele>296.8</ele>
        <time>2022-12-28T10:03:01Z</time>
      </trkpt>
      <trkpt lat="43.57706" lon="1.14958">
        <ele>298</ele>
        <time>2022-12-28T10:03:06Z</time>
      </trkpt>
      <trkpt lat="43.57715" lon="1.14946">
        <ele>298.8</ele>
        <time>2022-12-28T10:03:10Z</time>
      </trkpt>
      <trkpt lat="43.57721" lon="1.14939">
        <ele>299</ele>
        <time>2022-12-28T10:03:12Z</time>
      </trkpt>
      <trkpt lat="43.57738" lon="1.1492">
        <ele>300</ele>
        <time>2022-12-28T10:03:18Z</time>
      </trkpt>
      <trkpt lat="43.5774" lon="1.14918">
        <ele>300</ele>
        <time>2022-12-28T10:03:19Z</time>
      </trkpt>
      <trkpt lat="43.57762" lon="1.14896">
        <ele>301.2</ele>
        <time>2022-12-28T10:03:26Z</time>
      </trkpt>
      <trkpt lat="43.5777" lon="1.14891">
        <ele>301.4</ele>
        <time>2022-12-28T10:03:28Z</time>
      </trkpt>
      <trkpt lat="43.57793" lon="1.14878">
        <ele>301.8</ele>
        <time>2022-12-28T10:03:34Z</time>
      </trkpt>
      <trkpt lat="43.57802" lon="1.14875">
        <ele>301.8</ele>
        <time>2022-12-28T10:03:36Z</time>
      </trkpt>
      <trkpt lat="43.57834" lon="1.14869">
        <ele>302.4</ele>
        <time>2022-12-28T10:03:44Z</time>
      </trkpt>
      <trkpt lat="43.57839" lon="1.14869">
        <ele>302.6</ele>
        <time>2022-12-28T10:03:45Z</time>
      </trkpt>
      <trkpt lat="43.57866" lon="1.14864">
        <ele>303.6</ele>
        <time>2022-12-28T10:03:52Z</time>
      </trkpt>
      <trkpt lat="43.57869" lon="1.14864">
        <ele>303.6</ele>
        <time>2022-12-28T10:03:53Z</time>
      </trkpt>
      <trkpt lat="43.57898" lon="1.14864">
        <ele>304.6</ele>
        <time>2022-12-28T10:04:01Z</time>
      </trkpt>
      <trkpt lat="43.57913" lon="1.14865">
        <ele>305.8</ele>
        <time>2022-12-28T10:04:05Z</time>
      </trkpt>
      <trkpt lat="43.57929" lon="1.14867">
        <ele>306.6</ele>
        <time>2022-12-28T10:04:09Z</time>
      </trkpt>
      <trkpt lat="43.57938" lon="1.14871">
        <ele>307</ele>
        <time>2022-12-28T10:04:11Z</time>
      </trkpt>
      <trkpt lat="43.57947" lon="1.14879">
        <ele>307.8</ele>
        <time>2022-12-28T10:04:14Z</time>
      </trkpt>
      <trkpt lat="43.57951" lon="1.14885">
        <ele>308</ele>
        <time>2022-12-28T10:04:15Z</time>
      </trkpt>
      <trkpt lat="43.57959" lon="1.14903">
        <ele>309.2</ele>
        <time>2022-12-28T10:04:19Z</time>
      </trkpt>
      <trkpt lat="43.57963" lon="1.14914">
        <ele>309.4</ele>
        <time>2022-12-28T10:04:21Z</time>
      </trkpt>
      <trkpt lat="43.57966" lon="1.14922">
        <ele>309.4</ele>
        <time>2022-12-28T10:04:23Z</time>
      </trkpt>
      <trkpt lat="43.57974" lon="1.14941">
        <ele>309.6</ele>
        <time>2022-12-28T10:04:27Z</time>
      </trkpt>
      <trkpt lat="43.57987" lon="1.14965">
        <ele>309.2</ele>
        <time>2022-12-28T10:04:34Z</time>
      </trkpt>
      <trkpt lat="43.57993" lon="1.14968">
        <ele>308.6</ele>
        <time>2022-12-28T10:04:37Z</time>
      </trkpt>
      <trkpt lat="43.57995" lon="1.14971">
        <ele>308.2</ele>
        <time>2022-12-28T10:04:39Z</time>
      </trkpt>
      <trkpt lat="43.57997" lon="1.14974">
        <ele>308.2</ele>
        <time>2022-12-28T10:04:40Z</time>
      </trkpt>
      <trkpt lat="43.57998" lon="1.14977">
        <ele>308</ele>
        <time>2022-12-28T10:04:41Z</time>
      </trkpt>
      <trkpt lat="43.57999" lon="1.14985">
        <ele>307.6</ele>
        <time>2022-12-28T10:04:44Z</time>
      </trkpt>
      <trkpt lat="43.58" lon="1.14982">
        <ele>307.2</ele>
        <time>2022-12-28T10:04:47Z</time>
      </trkpt>
      <trkpt lat="43.57999" lon="1.14981">
        <ele>307.2</ele>
        <time>2022-12-28T10:04:48Z</time>
      </trkpt>
      <trkpt lat="43.57996" lon="1.14981">
        <ele>307</ele>
        <time>2022-12-28T10:04:53Z</time>
      </trkpt>
      <trkpt lat="43.57994" lon="1.15">
        <ele>307.8</ele>
        <time>2022-12-28T10:04:57Z</time>
      </trkpt>
      <trkpt lat="43.5799" lon="1.15036">
        <ele>307.8</ele>
        <time>2022-12-28T10:05:02Z</time>
      </trkpt>
      <trkpt lat="43.57987" lon="1.15087">
        <ele>306</ele>
        <time>2022-12-28T10:05:08Z</time>
      </trkpt>
      <trkpt lat="43.57983" lon="1.15121">
        <ele>304.8</ele>
        <time>2022-12-28T10:05:12Z</time>
      </trkpt>
      <trkpt lat="43.57981" lon="1.1515">
        <ele>304.2</ele>
        <time>2022-12-28T10:05:15Z</time>
      </trkpt>
      <trkpt lat="43.5798" lon="1.15167">
        <ele>303.8</ele>
        <time>2022-12-28T10:05:17Z</time>
      </trkpt>
      <trkpt lat="43.57974" lon="1.15224">
        <ele>302.6</ele>
        <time>2022-12-28T10:05:23Z</time>
      </trkpt>
      <trkpt lat="43.57971" lon="1.15242">
        <ele>302.2</ele>
        <time>2022-12-28T10:05:25Z</time>
      </trkpt>
      <trkpt lat="43.57968" lon="1.15256">
        <ele>301.4</ele>
        <time>2022-12-28T10:05:27Z</time>
      </trkpt>
      <trkpt lat="43.57967" lon="1.15272">
        <ele>300.8</ele>
        <time>2022-12-28T10:05:29Z</time>
      </trkpt>
      <trkpt lat="43.57968" lon="1.15277">
        <ele>300.6</ele>
        <time>2022-12-28T10:05:30Z</time>
      </trkpt>
      <trkpt lat="43.57972" lon="1.15279">
        <ele>300.6</ele>
        <time>2022-12-28T10:05:31Z</time>
      </trkpt>
      <trkpt lat="43.57975" lon="1.15278">
        <ele>300.4</ele>
        <time>2022-12-28T10:05:32Z</time>
      </trkpt>
      <trkpt lat="43.57979" lon="1.15276">
        <ele>300.4</ele>
        <time>2022-12-28T10:05:33Z</time>
      </trkpt>
      <trkpt lat="43.57987" lon="1.15267">
        <ele>300</ele>
        <time>2022-12-28T10:05:35Z</time>
      </trkpt>
      <trkpt lat="43.5801" lon="1.15238">
        <ele>299.8</ele>
        <time>2022-12-28T10:05:41Z</time>
      </trkpt>
      <trkpt lat="43.58037" lon="1.15207">
        <ele>300.4</ele>
        <time>2022-12-28T10:05:48Z</time>
      </trkpt>
      <trkpt lat="43.58069" lon="1.15178">
        <ele>301.8</ele>
        <time>2022-12-28T10:05:56Z</time>
      </trkpt>
      <trkpt lat="43.58108" lon="1.15153">
        <ele>302.8</ele>
        <time>2022-12-28T10:06:05Z</time>
      </trkpt>
      <trkpt lat="43.58118" lon="1.15146">
        <ele>302.8</ele>
        <time>2022-12-28T10:06:07Z</time>
      </trkpt>
      <trkpt lat="43.58165" lon="1.15116">
        <ele>302.6</ele>
        <time>2022-12-28T10:06:16Z</time>
      </trkpt>
      <trkpt lat="43.58202" lon="1.1509">
        <ele>301.8</ele>
        <time>2022-12-28T10:06:22Z</time>
      </trkpt>
      <trkpt lat="43.58214" lon="1.15082">
        <ele>301.4</ele>
        <time>2022-12-28T10:06:24Z</time>
      </trkpt>
      <trkpt lat="43.58219" lon="1.15079">
        <ele>301.2</ele>
        <time>2022-12-28T10:06:25Z</time>
      </trkpt>
      <trkpt lat="43.58233" lon="1.15075">
        <ele>300.4</ele>
        <time>2022-12-28T10:06:27Z</time>
      </trkpt>
      <trkpt lat="43.58242" lon="1.15075">
        <ele>299.8</ele>
        <time>2022-12-28T10:06:28Z</time>
      </trkpt>
      <trkpt lat="43.58249" lon="1.15075">
        <ele>299.6</ele>
        <time>2022-12-28T10:06:29Z</time>
      </trkpt>
      <trkpt lat="43.5826" lon="1.15077">
        <ele>299.2</ele>
        <time>2022-12-28T10:06:31Z</time>
      </trkpt>
      <trkpt lat="43.58273" lon="1.1508">
        <ele>299.2</ele>
        <time>2022-12-28T10:06:33Z</time>
      </trkpt>
      <trkpt lat="43.58301" lon="1.15086">
        <ele>298.6</ele>
        <time>2022-12-28T10:06:38Z</time>
      </trkpt>
      <trkpt lat="43.58322" lon="1.15091">
        <ele>298.6</ele>
        <time>2022-12-28T10:06:42Z</time>
      </trkpt>
      <trkpt lat="43.58363" lon="1.15102">
        <ele>298.4</ele>
        <time>2022-12-28T10:06:49Z</time>
      </trkpt>
      <trkpt lat="43.58369" lon="1.15102">
        <ele>298.2</ele>
        <time>2022-12-28T10:06:50Z</time>
      </trkpt>
      <trkpt lat="43.58374" lon="1.15104">
        <ele>298.2</ele>
        <time>2022-12-28T10:06:51Z</time>
      </trkpt>
      <trkpt lat="43.58387" lon="1.15111">
        <ele>298</ele>
        <time>2022-12-28T10:06:53Z</time>
      </trkpt>
      <trkpt lat="43.58401" lon="1.15128">
        <ele>297.6</ele>
        <time>2022-12-28T10:06:55Z</time>
      </trkpt>
      <trkpt lat="43.58408" lon="1.15138">
        <ele>297</ele>
        <time>2022-12-28T10:06:56Z</time>
      </trkpt>
      <trkpt lat="43.58421" lon="1.1516">
        <ele>295.8</ele>
        <time>2022-12-28T10:06:58Z</time>
      </trkpt>
      <trkpt lat="43.58434" lon="1.15183">
        <ele>294.8</ele>
        <time>2022-12-28T10:07:00Z</time>
      </trkpt>
      <trkpt lat="43.5844" lon="1.15193">
        <ele>293.8</ele>
        <time>2022-12-28T10:07:01Z</time>
      </trkpt>
      <trkpt lat="43.58447" lon="1.15204">
        <ele>293.4</ele>
        <time>2022-12-28T10:07:02Z</time>
      </trkpt>
      <trkpt lat="43.58461" lon="1.15228">
        <ele>292.2</ele>
        <time>2022-12-28T10:07:04Z</time>
      </trkpt>
      <trkpt lat="43.58475" lon="1.1525">
        <ele>291</ele>
        <time>2022-12-28T10:07:06Z</time>
      </trkpt>
      <trkpt lat="43.58482" lon="1.1526">
        <ele>289.8</ele>
        <time>2022-12-28T10:07:07Z</time>
      </trkpt>
      <trkpt lat="43.58494" lon="1.15281">
        <ele>288.6</ele>
        <time>2022-12-28T10:07:09Z</time>
      </trkpt>
      <trkpt lat="43.58499" lon="1.15289">
        <ele>287.6</ele>
        <time>2022-12-28T10:07:10Z</time>
      </trkpt>
      <trkpt lat="43.58504" lon="1.15297">
        <ele>287.2</ele>
        <time>2022-12-28T10:07:11Z</time>
      </trkpt>
      <trkpt lat="43.58508" lon="1.15302">
        <ele>285.4</ele>
        <time>2022-12-28T10:07:12Z</time>
      </trkpt>
      <trkpt lat="43.58512" lon="1.15306">
        <ele>285</ele>
        <time>2022-12-28T10:07:13Z</time>
      </trkpt>
      <trkpt lat="43.58514" lon="1.15308">
        <ele>283.6</ele>
        <time>2022-12-28T10:07:14Z</time>
      </trkpt>
      <trkpt lat="43.58518" lon="1.15308">
        <ele>283</ele>
        <time>2022-12-28T10:07:15Z</time>
      </trkpt>
      <trkpt lat="43.58522" lon="1.15306">
        <ele>281.6</ele>
        <time>2022-12-28T10:07:16Z</time>
      </trkpt>
      <trkpt lat="43.58526" lon="1.15302">
        <ele>280.8</ele>
        <time>2022-12-28T10:07:17Z</time>
      </trkpt>
      <trkpt lat="43.58529" lon="1.15294">
        <ele>279.8</ele>
        <time>2022-12-28T10:07:18Z</time>
      </trkpt>
      <trkpt lat="43.58529" lon="1.15285">
        <ele>278.8</ele>
        <time>2022-12-28T10:07:19Z</time>
      </trkpt>
      <trkpt lat="43.58528" lon="1.15275">
        <ele>278.2</ele>
        <time>2022-12-28T10:07:20Z</time>
      </trkpt>
      <trkpt lat="43.58526" lon="1.15265">
        <ele>277.2</ele>
        <time>2022-12-28T10:07:21Z</time>
      </trkpt>
      <trkpt lat="43.58523" lon="1.15254">
        <ele>276.6</ele>
        <time>2022-12-28T10:07:22Z</time>
      </trkpt>
      <trkpt lat="43.58521" lon="1.15244">
        <ele>275.4</ele>
        <time>2022-12-28T10:07:23Z</time>
      </trkpt>
      <trkpt lat="43.58514" lon="1.15211">
        <ele>274.2</ele>
        <time>2022-12-28T10:07:26Z</time>
      </trkpt>
      <trkpt lat="43.58513" lon="1.15201">
        <ele>273.4</ele>
        <time>2022-12-28T10:07:27Z</time>
      </trkpt>
      <trkpt lat="43.58513" lon="1.15191">
        <ele>272.6</ele>
        <time>2022-12-28T10:07:28Z</time>
      </trkpt>
      <trkpt lat="43.58516" lon="1.15184">
        <ele>272.4</ele>
        <time>2022-12-28T10:07:29Z</time>
      </trkpt>
      <trkpt lat="43.58523" lon="1.15175">
        <ele>271.6</ele>
        <time>2022-12-28T10:07:31Z</time>
      </trkpt>
      <trkpt lat="43.58526" lon="1.15175">
        <ele>271</ele>
        <time>2022-12-28T10:07:32Z</time>
      </trkpt>
      <trkpt lat="43.58541" lon="1.15172">
        <ele>269.6</ele>
        <time>2022-12-28T10:07:36Z</time>
      </trkpt>
      <trkpt lat="43.58555" lon="1.1517">
        <ele>269.2</ele>
        <time>2022-12-28T10:07:38Z</time>
      </trkpt>
      <trkpt lat="43.58561" lon="1.15176">
        <ele>269</ele>
        <time>2022-12-28T10:07:39Z</time>
      </trkpt>
      <trkpt lat="43.58565" lon="1.15183">
        <ele>268.8</ele>
        <time>2022-12-28T10:07:40Z</time>
      </trkpt>
      <trkpt lat="43.58567" lon="1.15197">
        <ele>268.6</ele>
        <time>2022-12-28T10:07:42Z</time>
      </trkpt>
      <trkpt lat="43.58568" lon="1.15207">
        <ele>268.4</ele>
        <time>2022-12-28T10:07:43Z</time>
      </trkpt>
      <trkpt lat="43.58578" lon="1.15264">
        <ele>268</ele>
        <time>2022-12-28T10:07:50Z</time>
      </trkpt>
      <trkpt lat="43.58589" lon="1.15324">
        <ele>267.4</ele>
        <time>2022-12-28T10:07:57Z</time>
      </trkpt>
      <trkpt lat="43.58592" lon="1.15341">
        <ele>267.2</ele>
        <time>2022-12-28T10:07:59Z</time>
      </trkpt>
      <trkpt lat="43.58595" lon="1.1535">
        <ele>267</ele>
        <time>2022-12-28T10:08:00Z</time>
      </trkpt>
      <trkpt lat="43.58602" lon="1.15364">
        <ele>266.8</ele>
        <time>2022-12-28T10:08:02Z</time>
      </trkpt>
      <trkpt lat="43.58608" lon="1.15369">
        <ele>266.4</ele>
        <time>2022-12-28T10:08:03Z</time>
      </trkpt>
      <trkpt lat="43.58615" lon="1.15372">
        <ele>266.2</ele>
        <time>2022-12-28T10:08:04Z</time>
      </trkpt>
      <trkpt lat="43.58621" lon="1.15373">
        <ele>266</ele>
        <time>2022-12-28T10:08:05Z</time>
      </trkpt>
      <trkpt lat="43.58632" lon="1.15375">
        <ele>266</ele>
        <time>2022-12-28T10:08:07Z</time>
      </trkpt>
      <trkpt lat="43.58641" lon="1.15374">
        <ele>266</ele>
        <time>2022-12-28T10:08:09Z</time>
      </trkpt>
      <trkpt lat="43.58666" lon="1.1537">
        <ele>267.4</ele>
        <time>2022-12-28T10:08:16Z</time>
      </trkpt>
      <trkpt lat="43.58669" lon="1.1537">
        <ele>267.6</ele>
        <time>2022-12-28T10:08:17Z</time>
      </trkpt>
      <trkpt lat="43.58674" lon="1.15368">
        <ele>268.6</ele>
        <time>2022-12-28T10:08:19Z</time>
      </trkpt>
      <trkpt lat="43.58679" lon="1.15363">
        <ele>269</ele>
        <time>2022-12-28T10:08:21Z</time>
      </trkpt>
      <trkpt lat="43.5868" lon="1.15357">
        <ele>269.6</ele>
        <time>2022-12-28T10:08:23Z</time>
      </trkpt>
      <trkpt lat="43.58679" lon="1.15351">
        <ele>270.2</ele>
        <time>2022-12-28T10:08:25Z</time>
      </trkpt>
      <trkpt lat="43.58679" lon="1.15348">
        <ele>270.2</ele>
        <time>2022-12-28T10:08:26Z</time>
      </trkpt>
      <trkpt lat="43.58679" lon="1.15343">
        <ele>270.8</ele>
        <time>2022-12-28T10:08:28Z</time>
      </trkpt>
      <trkpt lat="43.58677" lon="1.15341">
        <ele>271.2</ele>
        <time>2022-12-28T10:08:29Z</time>
      </trkpt>
      <trkpt lat="43.58677" lon="1.15337">
        <ele>271.8</ele>
        <time>2022-12-28T10:08:31Z</time>
      </trkpt>
      <trkpt lat="43.58678" lon="1.15326">
        <ele>273</ele>
        <time>2022-12-28T10:08:34Z</time>
      </trkpt>
      <trkpt lat="43.58678" lon="1.15322">
        <ele>273.2</ele>
        <time>2022-12-28T10:08:35Z</time>
      </trkpt>
      <trkpt lat="43.58679" lon="1.15312">
        <ele>274.4</ele>
        <time>2022-12-28T10:08:39Z</time>
      </trkpt>
      <trkpt lat="43.58678" lon="1.15307">
        <ele>275</ele>
        <time>2022-12-28T10:08:41Z</time>
      </trkpt>
      <trkpt lat="43.58678" lon="1.15301">
        <ele>275.6</ele>
        <time>2022-12-28T10:08:43Z</time>
      </trkpt>
      <trkpt lat="43.58676" lon="1.15287">
        <ele>276.4</ele>
        <time>2022-12-28T10:08:48Z</time>
      </trkpt>
      <trkpt lat="43.58674" lon="1.15282">
        <ele>276.8</ele>
        <time>2022-12-28T10:08:50Z</time>
      </trkpt>
      <trkpt lat="43.58673" lon="1.15279">
        <ele>277</ele>
        <time>2022-12-28T10:08:51Z</time>
      </trkpt>
      <trkpt lat="43.58674" lon="1.15271">
        <ele>277.6</ele>
        <time>2022-12-28T10:08:54Z</time>
      </trkpt>
      <trkpt lat="43.58674" lon="1.15268">
        <ele>278</ele>
        <time>2022-12-28T10:08:55Z</time>
      </trkpt>
      <trkpt lat="43.58675" lon="1.15257">
        <ele>278.8</ele>
        <time>2022-12-28T10:08:59Z</time>
      </trkpt>
      <trkpt lat="43.58675" lon="1.15254">
        <ele>279</ele>
        <time>2022-12-28T10:09:00Z</time>
      </trkpt>
      <trkpt lat="43.58674" lon="1.15251">
        <ele>279.4</ele>
        <time>2022-12-28T10:09:01Z</time>
      </trkpt>
      <trkpt lat="43.58678" lon="1.15233">
        <ele>280.6</ele>
        <time>2022-12-28T10:09:07Z</time>
      </trkpt>
      <trkpt lat="43.5868" lon="1.15228">
        <ele>280.8</ele>
        <time>2022-12-28T10:09:08Z</time>
      </trkpt>
      <trkpt lat="43.58681" lon="1.15223">
        <ele>281.2</ele>
        <time>2022-12-28T10:09:10Z</time>
      </trkpt>
      <trkpt lat="43.5868" lon="1.1522">
        <ele>281.8</ele>
        <time>2022-12-28T10:09:12Z</time>
      </trkpt>
      <trkpt lat="43.58679" lon="1.15216">
        <ele>282.2</ele>
        <time>2022-12-28T10:09:14Z</time>
      </trkpt>
      <trkpt lat="43.58678" lon="1.1521">
        <ele>282.6</ele>
        <time>2022-12-28T10:09:17Z</time>
      </trkpt>
      <trkpt lat="43.58677" lon="1.15209">
        <ele>283.2</ele>
        <time>2022-12-28T10:09:18Z</time>
      </trkpt>
      <trkpt lat="43.58678" lon="1.15207">
        <ele>283.4</ele>
        <time>2022-12-28T10:09:19Z</time>
      </trkpt>
      <trkpt lat="43.58678" lon="1.15205">
        <ele>284.2</ele>
        <time>2022-12-28T10:09:20Z</time>
      </trkpt>
      <trkpt lat="43.58677" lon="1.15202">
        <ele>284.6</ele>
        <time>2022-12-28T10:09:21Z</time>
      </trkpt>
      <trkpt lat="43.58678" lon="1.15197">
        <ele>285.2</ele>
        <time>2022-12-28T10:09:24Z</time>
      </trkpt>
      <trkpt lat="43.58677" lon="1.15195">
        <ele>285.4</ele>
        <time>2022-12-28T10:09:25Z</time>
      </trkpt>
      <trkpt lat="43.58674" lon="1.15192">
        <ele>285.8</ele>
        <time>2022-12-28T10:09:27Z</time>
      </trkpt>
      <trkpt lat="43.58673" lon="1.1519">
        <ele>286</ele>
        <time>2022-12-28T10:09:28Z</time>
      </trkpt>
      <trkpt lat="43.58673" lon="1.15186">
        <ele>286.4</ele>
        <time>2022-12-28T10:09:30Z</time>
      </trkpt>
      <trkpt lat="43.58672" lon="1.15184">
        <ele>286.4</ele>
        <time>2022-12-28T10:09:31Z</time>
      </trkpt>
      <trkpt lat="43.58671" lon="1.15182">
        <ele>287</ele>
        <time>2022-12-28T10:09:33Z</time>
      </trkpt>
      <trkpt lat="43.58672" lon="1.15175">
        <ele>287.8</ele>
        <time>2022-12-28T10:09:36Z</time>
      </trkpt>
      <trkpt lat="43.58673" lon="1.15173">
        <ele>288</ele>
        <time>2022-12-28T10:09:37Z</time>
      </trkpt>
      <trkpt lat="43.58674" lon="1.15168">
        <ele>288.4</ele>
        <time>2022-12-28T10:09:39Z</time>
      </trkpt>
      <trkpt lat="43.58673" lon="1.1516">
        <ele>289</ele>
        <time>2022-12-28T10:09:42Z</time>
      </trkpt>
      <trkpt lat="43.58673" lon="1.15158">
        <ele>289.4</ele>
        <time>2022-12-28T10:09:43Z</time>
      </trkpt>
      <trkpt lat="43.58673" lon="1.15149">
        <ele>290.4</ele>
        <time>2022-12-28T10:09:49Z</time>
      </trkpt>
      <trkpt lat="43.58673" lon="1.15148">
        <ele>290.6</ele>
        <time>2022-12-28T10:09:50Z</time>
      </trkpt>
      <trkpt lat="43.58673" lon="1.15146">
        <ele>291</ele>
        <time>2022-12-28T10:09:51Z</time>
      </trkpt>
      <trkpt lat="43.58675" lon="1.15141">
        <ele>291.6</ele>
        <time>2022-12-28T10:09:54Z</time>
      </trkpt>
      <trkpt lat="43.58675" lon="1.15138">
        <ele>292.2</ele>
        <time>2022-12-28T10:09:56Z</time>
      </trkpt>
      <trkpt lat="43.58674" lon="1.15134">
        <ele>292.8</ele>
        <time>2022-12-28T10:09:58Z</time>
      </trkpt>
      <trkpt lat="43.58675" lon="1.15122">
        <ele>293.6</ele>
        <time>2022-12-28T10:10:02Z</time>
      </trkpt>
      <trkpt lat="43.58676" lon="1.15118">
        <ele>293.8</ele>
        <time>2022-12-28T10:10:03Z</time>
      </trkpt>
      <trkpt lat="43.58679" lon="1.151">
        <ele>294.8</ele>
        <time>2022-12-28T10:10:08Z</time>
      </trkpt>
      <trkpt lat="43.5868" lon="1.15095">
        <ele>295</ele>
        <time>2022-12-28T10:10:09Z</time>
      </trkpt>
      <trkpt lat="43.58681" lon="1.1508">
        <ele>296.2</ele>
        <time>2022-12-28T10:10:13Z</time>
      </trkpt>
      <trkpt lat="43.58683" lon="1.15068">
        <ele>296.6</ele>
        <time>2022-12-28T10:10:16Z</time>
      </trkpt>
      <trkpt lat="43.58685" lon="1.15056">
        <ele>297.2</ele>
        <time>2022-12-28T10:10:19Z</time>
      </trkpt>
      <trkpt lat="43.58685" lon="1.15041">
        <ele>297.6</ele>
        <time>2022-12-28T10:10:23Z</time>
      </trkpt>
      <trkpt lat="43.58686" lon="1.15025">
        <ele>298.2</ele>
        <time>2022-12-28T10:10:28Z</time>
      </trkpt>
      <trkpt lat="43.58687" lon="1.15015">
        <ele>298.6</ele>
        <time>2022-12-28T10:10:31Z</time>
      </trkpt>
      <trkpt lat="43.5869" lon="1.15">
        <ele>299.2</ele>
        <time>2022-12-28T10:10:35Z</time>
      </trkpt>
      <trkpt lat="43.58694" lon="1.14981">
        <ele>300</ele>
        <time>2022-12-28T10:10:40Z</time>
      </trkpt>
      <trkpt lat="43.58694" lon="1.14978">
        <ele>300.4</ele>
        <time>2022-12-28T10:10:41Z</time>
      </trkpt>
      <trkpt lat="43.58698" lon="1.14955">
        <ele>301.2</ele>
        <time>2022-12-28T10:10:47Z</time>
      </trkpt>
      <trkpt lat="43.58699" lon="1.14947">
        <ele>301.4</ele>
        <time>2022-12-28T10:10:49Z</time>
      </trkpt>
      <trkpt lat="43.58703" lon="1.14922">
        <ele>302</ele>
        <time>2022-12-28T10:10:56Z</time>
      </trkpt>
      <trkpt lat="43.58707" lon="1.14901">
        <ele>302.6</ele>
        <time>2022-12-28T10:11:02Z</time>
      </trkpt>
      <trkpt lat="43.58708" lon="1.14892">
        <ele>302.8</ele>
        <time>2022-12-28T10:11:05Z</time>
      </trkpt>
      <trkpt lat="43.58711" lon="1.14874">
        <ele>303.4</ele>
        <time>2022-12-28T10:11:11Z</time>
      </trkpt>
      <trkpt lat="43.58713" lon="1.14868">
        <ele>303.6</ele>
        <time>2022-12-28T10:11:14Z</time>
      </trkpt>
      <trkpt lat="43.58713" lon="1.14868">
        <ele>303.8</ele>
        <time>2022-12-28T10:11:15Z</time>
      </trkpt>
      <trkpt lat="43.58713" lon="1.14868">
        <ele>304</ele>
        <time>2022-12-28T10:11:16Z</time>
      </trkpt>
      <trkpt lat="43.58718" lon="1.1487">
        <ele>304.2</ele>
        <time>2022-12-28T10:11:40Z</time>
      </trkpt>
      <trkpt lat="43.58723" lon="1.14875">
        <ele>304</ele>
        <time>2022-12-28T10:11:42Z</time>
      </trkpt>
      <trkpt lat="43.58743" lon="1.14896">
        <ele>303.6</ele>
        <time>2022-12-28T10:11:46Z</time>
      </trkpt>
      <trkpt lat="43.58769" lon="1.14922">
        <ele>302.6</ele>
        <time>2022-12-28T10:11:49Z</time>
      </trkpt>
      <trkpt lat="43.58788" lon="1.14941">
        <ele>301.4</ele>
        <time>2022-12-28T10:11:51Z</time>
      </trkpt>
      <trkpt lat="43.58798" lon="1.14953">
        <ele>300</ele>
        <time>2022-12-28T10:11:52Z</time>
      </trkpt>
      <trkpt lat="43.58809" lon="1.14965">
        <ele>299.2</ele>
        <time>2022-12-28T10:11:53Z</time>
      </trkpt>
      <trkpt lat="43.5882" lon="1.14976">
        <ele>297.8</ele>
        <time>2022-12-28T10:11:54Z</time>
      </trkpt>
      <trkpt lat="43.58842" lon="1.14997">
        <ele>295</ele>
        <time>2022-12-28T10:11:56Z</time>
      </trkpt>
      <trkpt lat="43.58865" lon="1.15011">
        <ele>293.2</ele>
        <time>2022-12-28T10:11:58Z</time>
      </trkpt>
      <trkpt lat="43.58876" lon="1.15017">
        <ele>292.4</ele>
        <time>2022-12-28T10:11:59Z</time>
      </trkpt>
      <trkpt lat="43.58886" lon="1.15022">
        <ele>290.8</ele>
        <time>2022-12-28T10:12:00Z</time>
      </trkpt>
      <trkpt lat="43.58894" lon="1.15026">
        <ele>290</ele>
        <time>2022-12-28T10:12:01Z</time>
      </trkpt>
      <trkpt lat="43.58902" lon="1.1503">
        <ele>289.2</ele>
        <time>2022-12-28T10:12:02Z</time>
      </trkpt>
      <trkpt lat="43.58915" lon="1.15036">
        <ele>288.8</ele>
        <time>2022-12-28T10:12:04Z</time>
      </trkpt>
      <trkpt lat="43.58939" lon="1.15048">
        <ele>289.6</ele>
        <time>2022-12-28T10:12:09Z</time>
      </trkpt>
      <trkpt lat="43.58949" lon="1.15052">
        <ele>291.4</ele>
        <time>2022-12-28T10:12:11Z</time>
      </trkpt>
      <trkpt lat="43.58957" lon="1.15055">
        <ele>292.8</ele>
        <time>2022-12-28T10:12:13Z</time>
      </trkpt>
      <trkpt lat="43.58971" lon="1.15061">
        <ele>294.4</ele>
        <time>2022-12-28T10:12:16Z</time>
      </trkpt>
      <trkpt lat="43.58975" lon="1.15063">
        <ele>294.8</ele>
        <time>2022-12-28T10:12:17Z</time>
      </trkpt>
      <trkpt lat="43.58979" lon="1.15064">
        <ele>295.8</ele>
        <time>2022-12-28T10:12:18Z</time>
      </trkpt>
      <trkpt lat="43.58987" lon="1.15066">
        <ele>297.2</ele>
        <time>2022-12-28T10:12:20Z</time>
      </trkpt>
      <trkpt lat="43.58993" lon="1.15068">
        <ele>298.4</ele>
        <time>2022-12-28T10:12:22Z</time>
      </trkpt>
      <trkpt lat="43.58997" lon="1.15069">
        <ele>299.4</ele>
        <time>2022-12-28T10:12:23Z</time>
      </trkpt>
      <trkpt lat="43.59" lon="1.15071">
        <ele>299.8</ele>
        <time>2022-12-28T10:12:24Z</time>
      </trkpt>
      <trkpt lat="43.59012" lon="1.15077">
        <ele>301.8</ele>
        <time>2022-12-28T10:12:27Z</time>
      </trkpt>
      <trkpt lat="43.59022" lon="1.15082">
        <ele>303</ele>
        <time>2022-12-28T10:12:30Z</time>
      </trkpt>
      <trkpt lat="43.59029" lon="1.15086">
        <ele>304</ele>
        <time>2022-12-28T10:12:32Z</time>
      </trkpt>
      <trkpt lat="43.59032" lon="1.15087">
        <ele>304.2</ele>
        <time>2022-12-28T10:12:33Z</time>
      </trkpt>
      <trkpt lat="43.59039" lon="1.15091">
        <ele>305.6</ele>
        <time>2022-12-28T10:12:37Z</time>
      </trkpt>
      <trkpt lat="43.59046" lon="1.1509">
        <ele>306.8</ele>
        <time>2022-12-28T10:12:40Z</time>
      </trkpt>
      <trkpt lat="43.59052" lon="1.15092">
        <ele>307</ele>
        <time>2022-12-28T10:12:43Z</time>
      </trkpt>
      <trkpt lat="43.59071" lon="1.151">
        <ele>307</ele>
        <time>2022-12-28T10:12:47Z</time>
      </trkpt>
      <trkpt lat="43.59082" lon="1.15106">
        <ele>307</ele>
        <time>2022-12-28T10:12:49Z</time>
      </trkpt>
      <trkpt lat="43.59104" lon="1.15113">
        <ele>306</ele>
        <time>2022-12-28T10:12:53Z</time>
      </trkpt>
      <trkpt lat="43.5912" lon="1.15119">
        <ele>305.4</ele>
        <time>2022-12-28T10:12:56Z</time>
      </trkpt>
      <trkpt lat="43.59136" lon="1.15126">
        <ele>305</ele>
        <time>2022-12-28T10:13:00Z</time>
      </trkpt>
      <trkpt lat="43.59154" lon="1.15134">
        <ele>305</ele>
        <time>2022-12-28T10:13:05Z</time>
      </trkpt>
      <trkpt lat="43.59179" lon="1.15143">
        <ele>305.4</ele>
        <time>2022-12-28T10:13:11Z</time>
      </trkpt>
      <trkpt lat="43.59213" lon="1.15156">
        <ele>305.2</ele>
        <time>2022-12-28T10:13:17Z</time>
      </trkpt>
      <trkpt lat="43.59247" lon="1.15171">
        <ele>304.4</ele>
        <time>2022-12-28T10:13:22Z</time>
      </trkpt>
      <trkpt lat="43.59254" lon="1.15174">
        <ele>303.6</ele>
        <time>2022-12-28T10:13:23Z</time>
      </trkpt>
      <trkpt lat="43.59268" lon="1.15178">
        <ele>302</ele>
        <time>2022-12-28T10:13:25Z</time>
      </trkpt>
      <trkpt lat="43.59282" lon="1.15182">
        <ele>301</ele>
        <time>2022-12-28T10:13:27Z</time>
      </trkpt>
      <trkpt lat="43.59294" lon="1.15184">
        <ele>300.4</ele>
        <time>2022-12-28T10:13:29Z</time>
      </trkpt>
      <trkpt lat="43.59313" lon="1.1519">
        <ele>299.8</ele>
        <time>2022-12-28T10:13:32Z</time>
      </trkpt>
      <trkpt lat="43.59331" lon="1.15196">
        <ele>299.6</ele>
        <time>2022-12-28T10:13:35Z</time>
      </trkpt>
      <trkpt lat="43.59368" lon="1.15207">
        <ele>300</ele>
        <time>2022-12-28T10:13:41Z</time>
      </trkpt>
      <trkpt lat="43.59379" lon="1.15209">
        <ele>300.4</ele>
        <time>2022-12-28T10:13:43Z</time>
      </trkpt>
      <trkpt lat="43.59395" lon="1.15215">
        <ele>301</ele>
        <time>2022-12-28T10:13:46Z</time>
      </trkpt>
      <trkpt lat="43.59399" lon="1.15216">
        <ele>301.4</ele>
        <time>2022-12-28T10:13:47Z</time>
      </trkpt>
      <trkpt lat="43.59409" lon="1.15218">
        <ele>302.2</ele>
        <time>2022-12-28T10:13:50Z</time>
      </trkpt>
      <trkpt lat="43.59411" lon="1.15217">
        <ele>302.6</ele>
        <time>2022-12-28T10:13:51Z</time>
      </trkpt>
      <trkpt lat="43.59413" lon="1.15214">
        <ele>303.4</ele>
        <time>2022-12-28T10:13:53Z</time>
      </trkpt>
      <trkpt lat="43.59413" lon="1.15211">
        <ele>303.8</ele>
        <time>2022-12-28T10:13:54Z</time>
      </trkpt>
      <trkpt lat="43.59413" lon="1.15203">
        <ele>305</ele>
        <time>2022-12-28T10:13:57Z</time>
      </trkpt>
      <trkpt lat="43.59413" lon="1.152">
        <ele>305.2</ele>
        <time>2022-12-28T10:13:58Z</time>
      </trkpt>
      <trkpt lat="43.59414" lon="1.15189">
        <ele>306</ele>
        <time>2022-12-28T10:14:02Z</time>
      </trkpt>
      <trkpt lat="43.59415" lon="1.1518">
        <ele>306.4</ele>
        <time>2022-12-28T10:14:05Z</time>
      </trkpt>
      <trkpt lat="43.59415" lon="1.15149">
        <ele>306.8</ele>
        <time>2022-12-28T10:14:12Z</time>
      </trkpt>
      <trkpt lat="43.59416" lon="1.1513">
        <ele>307</ele>
        <time>2022-12-28T10:14:16Z</time>
      </trkpt>
      <trkpt lat="43.59416" lon="1.15127">
        <ele>307</ele>
        <time>2022-12-28T10:14:17Z</time>
      </trkpt>
      <trkpt lat="43.59418" lon="1.151">
        <ele>307.6</ele>
        <time>2022-12-28T10:14:24Z</time>
      </trkpt>
      <trkpt lat="43.5942" lon="1.15072">
        <ele>307.8</ele>
        <time>2022-12-28T10:14:31Z</time>
      </trkpt>
      <trkpt lat="43.5942" lon="1.1506">
        <ele>308</ele>
        <time>2022-12-28T10:14:34Z</time>
      </trkpt>
      <trkpt lat="43.59422" lon="1.15045">
        <ele>308</ele>
        <time>2022-12-28T10:14:38Z</time>
      </trkpt>
      <trkpt lat="43.59425" lon="1.15039">
        <ele>308</ele>
        <time>2022-12-28T10:14:40Z</time>
      </trkpt>
      <trkpt lat="43.5943" lon="1.15041">
        <ele>308</ele>
        <time>2022-12-28T10:14:42Z</time>
      </trkpt>
      <trkpt lat="43.59431" lon="1.15044">
        <ele>308</ele>
        <time>2022-12-28T10:14:43Z</time>
      </trkpt>
      <trkpt lat="43.59433" lon="1.1505">
        <ele>308</ele>
        <time>2022-12-28T10:14:46Z</time>
      </trkpt>
      <trkpt lat="43.59443" lon="1.15062">
        <ele>308.6</ele>
        <time>2022-12-28T10:14:53Z</time>
      </trkpt>
      <trkpt lat="43.59458" lon="1.15069">
        <ele>309</ele>
        <time>2022-12-28T10:14:58Z</time>
      </trkpt>
      <trkpt lat="43.59483" lon="1.15079">
        <ele>309.8</ele>
        <time>2022-12-28T10:15:04Z</time>
      </trkpt>
      <trkpt lat="43.59493" lon="1.15085">
        <ele>309.8</ele>
        <time>2022-12-28T10:15:06Z</time>
      </trkpt>
      <trkpt lat="43.59511" lon="1.15092">
        <ele>309.6</ele>
        <time>2022-12-28T10:15:09Z</time>
      </trkpt>
      <trkpt lat="43.5955" lon="1.15107">
        <ele>308.4</ele>
        <time>2022-12-28T10:15:15Z</time>
      </trkpt>
      <trkpt lat="43.59556" lon="1.15111">
        <ele>307.4</ele>
        <time>2022-12-28T10:15:16Z</time>
      </trkpt>
      <trkpt lat="43.59569" lon="1.15117">
        <ele>306.2</ele>
        <time>2022-12-28T10:15:18Z</time>
      </trkpt>
      <trkpt lat="43.59576" lon="1.15118">
        <ele>305.8</ele>
        <time>2022-12-28T10:15:19Z</time>
      </trkpt>
      <trkpt lat="43.59582" lon="1.15118">
        <ele>305.6</ele>
        <time>2022-12-28T10:15:20Z</time>
      </trkpt>
      <trkpt lat="43.59588" lon="1.15119">
        <ele>305.2</ele>
        <time>2022-12-28T10:15:21Z</time>
      </trkpt>
      <trkpt lat="43.59604" lon="1.15127">
        <ele>304.4</ele>
        <time>2022-12-28T10:15:24Z</time>
      </trkpt>
      <trkpt lat="43.59614" lon="1.15132">
        <ele>304</ele>
        <time>2022-12-28T10:15:26Z</time>
      </trkpt>
      <trkpt lat="43.59622" lon="1.15136">
        <ele>304</ele>
        <time>2022-12-28T10:15:28Z</time>
      </trkpt>
      <trkpt lat="43.59626" lon="1.15138">
        <ele>303.8</ele>
        <time>2022-12-28T10:15:29Z</time>
      </trkpt>
      <trkpt lat="43.5963" lon="1.15139">
        <ele>304</ele>
        <time>2022-12-28T10:15:30Z</time>
      </trkpt>
      <trkpt lat="43.59643" lon="1.15144">
        <ele>304.4</ele>
        <time>2022-12-28T10:15:33Z</time>
      </trkpt>
      <trkpt lat="43.59648" lon="1.15145">
        <ele>304.6</ele>
        <time>2022-12-28T10:15:34Z</time>
      </trkpt>
      <trkpt lat="43.59652" lon="1.15147">
        <ele>304.6</ele>
        <time>2022-12-28T10:15:35Z</time>
      </trkpt>
      <trkpt lat="43.59664" lon="1.15151">
        <ele>305</ele>
        <time>2022-12-28T10:15:38Z</time>
      </trkpt>
      <trkpt lat="43.59667" lon="1.15153">
        <ele>305.2</ele>
        <time>2022-12-28T10:15:39Z</time>
      </trkpt>
      <trkpt lat="43.59671" lon="1.15155">
        <ele>305.4</ele>
        <time>2022-12-28T10:15:40Z</time>
      </trkpt>
      <trkpt lat="43.59683" lon="1.15158">
        <ele>306.2</ele>
        <time>2022-12-28T10:15:43Z</time>
      </trkpt>
      <trkpt lat="43.59695" lon="1.15161">
        <ele>307</ele>
        <time>2022-12-28T10:15:46Z</time>
      </trkpt>
      <trkpt lat="43.59708" lon="1.15167">
        <ele>307.6</ele>
        <time>2022-12-28T10:15:49Z</time>
      </trkpt>
      <trkpt lat="43.59722" lon="1.15172">
        <ele>308</ele>
        <time>2022-12-28T10:15:52Z</time>
      </trkpt>
      <trkpt lat="43.59754" lon="1.15183">
        <ele>307.8</ele>
        <time>2022-12-28T10:16:00Z</time>
      </trkpt>
      <trkpt lat="43.59781" lon="1.15194">
        <ele>306.8</ele>
        <time>2022-12-28T10:16:06Z</time>
      </trkpt>
      <trkpt lat="43.59784" lon="1.15196">
        <ele>306.2</ele>
        <time>2022-12-28T10:16:07Z</time>
      </trkpt>
      <trkpt lat="43.59788" lon="1.15198">
        <ele>305.4</ele>
        <time>2022-12-28T10:16:09Z</time>
      </trkpt>
      <trkpt lat="43.5979" lon="1.15199">
        <ele>305</ele>
        <time>2022-12-28T10:16:10Z</time>
      </trkpt>
      <trkpt lat="43.59797" lon="1.15206">
        <ele>303.8</ele>
        <time>2022-12-28T10:16:14Z</time>
      </trkpt>
      <trkpt lat="43.59797" lon="1.1521">
        <ele>303.6</ele>
        <time>2022-12-28T10:16:15Z</time>
      </trkpt>
      <trkpt lat="43.59792" lon="1.15228">
        <ele>302.6</ele>
        <time>2022-12-28T10:16:19Z</time>
      </trkpt>
      <trkpt lat="43.5979" lon="1.15233">
        <ele>302.4</ele>
        <time>2022-12-28T10:16:20Z</time>
      </trkpt>
      <trkpt lat="43.59787" lon="1.15244">
        <ele>302.2</ele>
        <time>2022-12-28T10:16:22Z</time>
      </trkpt>
      <trkpt lat="43.59786" lon="1.15257">
        <ele>301.8</ele>
        <time>2022-12-28T10:16:25Z</time>
      </trkpt>
      <trkpt lat="43.59786" lon="1.15266">
        <ele>301.4</ele>
        <time>2022-12-28T10:16:27Z</time>
      </trkpt>
      <trkpt lat="43.59786" lon="1.15273">
        <ele>300.4</ele>
        <time>2022-12-28T10:16:30Z</time>
      </trkpt>
      <trkpt lat="43.59786" lon="1.15275">
        <ele>300.2</ele>
        <time>2022-12-28T10:16:31Z</time>
      </trkpt>
      <trkpt lat="43.59788" lon="1.15283">
        <ele>299.6</ele>
        <time>2022-12-28T10:16:34Z</time>
      </trkpt>
      <trkpt lat="43.59792" lon="1.15294">
        <ele>299.2</ele>
        <time>2022-12-28T10:16:37Z</time>
      </trkpt>
      <trkpt lat="43.59797" lon="1.15304">
        <ele>299</ele>
        <time>2022-12-28T10:16:39Z</time>
      </trkpt>
      <trkpt lat="43.59804" lon="1.15313">
        <ele>298.2</ele>
        <time>2022-12-28T10:16:41Z</time>
      </trkpt>
      <trkpt lat="43.59812" lon="1.15322">
        <ele>296.4</ele>
        <time>2022-12-28T10:16:43Z</time>
      </trkpt>
      <trkpt lat="43.59816" lon="1.15326">
        <ele>296.2</ele>
        <time>2022-12-28T10:16:44Z</time>
      </trkpt>
      <trkpt lat="43.5982" lon="1.15332">
        <ele>295.2</ele>
        <time>2022-12-28T10:16:45Z</time>
      </trkpt>
      <trkpt lat="43.59825" lon="1.15338">
        <ele>294.8</ele>
        <time>2022-12-28T10:16:46Z</time>
      </trkpt>
      <trkpt lat="43.59827" lon="1.15344">
        <ele>294.2</ele>
        <time>2022-12-28T10:16:47Z</time>
      </trkpt>
      <trkpt lat="43.59827" lon="1.1535">
        <ele>293.8</ele>
        <time>2022-12-28T10:16:48Z</time>
      </trkpt>
      <trkpt lat="43.59828" lon="1.15356">
        <ele>292</ele>
        <time>2022-12-28T10:16:49Z</time>
      </trkpt>
      <trkpt lat="43.59829" lon="1.15362">
        <ele>290.8</ele>
        <time>2022-12-28T10:16:50Z</time>
      </trkpt>
      <trkpt lat="43.59831" lon="1.15373">
        <ele>289.6</ele>
        <time>2022-12-28T10:16:52Z</time>
      </trkpt>
      <trkpt lat="43.59845" lon="1.15396">
        <ele>288.4</ele>
        <time>2022-12-28T10:16:56Z</time>
      </trkpt>
      <trkpt lat="43.59854" lon="1.15412">
        <ele>287.2</ele>
        <time>2022-12-28T10:16:58Z</time>
      </trkpt>
      <trkpt lat="43.59865" lon="1.15432">
        <ele>285.8</ele>
        <time>2022-12-28T10:17:01Z</time>
      </trkpt>
      <trkpt lat="43.59871" lon="1.1545">
        <ele>284.4</ele>
        <time>2022-12-28T10:17:04Z</time>
      </trkpt>
      <trkpt lat="43.59877" lon="1.15463">
        <ele>283.6</ele>
        <time>2022-12-28T10:17:06Z</time>
      </trkpt>
      <trkpt lat="43.59882" lon="1.15468">
        <ele>283.4</ele>
        <time>2022-12-28T10:17:07Z</time>
      </trkpt>
      <trkpt lat="43.59898" lon="1.15487">
        <ele>281.8</ele>
        <time>2022-12-28T10:17:10Z</time>
      </trkpt>
      <trkpt lat="43.59911" lon="1.15501">
        <ele>280.8</ele>
        <time>2022-12-28T10:17:12Z</time>
      </trkpt>
      <trkpt lat="43.59916" lon="1.15504">
        <ele>280.6</ele>
        <time>2022-12-28T10:17:13Z</time>
      </trkpt>
      <trkpt lat="43.59919" lon="1.15505">
        <ele>280.4</ele>
        <time>2022-12-28T10:17:14Z</time>
      </trkpt>
      <trkpt lat="43.59947" lon="1.15515">
        <ele>280</ele>
        <time>2022-12-28T10:17:20Z</time>
      </trkpt>
      <trkpt lat="43.59975" lon="1.15521">
        <ele>280.2</ele>
        <time>2022-12-28T10:17:28Z</time>
      </trkpt>
      <trkpt lat="43.59983" lon="1.15521">
        <ele>282</ele>
        <time>2022-12-28T10:17:32Z</time>
      </trkpt>
      <trkpt lat="43.59986" lon="1.15521">
        <ele>282.4</ele>
        <time>2022-12-28T10:17:33Z</time>
      </trkpt>
      <trkpt lat="43.59988" lon="1.15521">
        <ele>283</ele>
        <time>2022-12-28T10:17:34Z</time>
      </trkpt>
      <trkpt lat="43.59999" lon="1.15525">
        <ele>284.6</ele>
        <time>2022-12-28T10:17:38Z</time>
      </trkpt>
      <trkpt lat="43.60004" lon="1.1553">
        <ele>285.2</ele>
        <time>2022-12-28T10:17:40Z</time>
      </trkpt>
      <trkpt lat="43.60004" lon="1.15532">
        <ele>285.6</ele>
        <time>2022-12-28T10:17:41Z</time>
      </trkpt>
      <trkpt lat="43.60006" lon="1.15538">
        <ele>286.8</ele>
        <time>2022-12-28T10:17:44Z</time>
      </trkpt>
      <trkpt lat="43.60008" lon="1.1554">
        <ele>287.2</ele>
        <time>2022-12-28T10:17:45Z</time>
      </trkpt>
      <trkpt lat="43.6001" lon="1.1554">
        <ele>287.2</ele>
        <time>2022-12-28T10:17:46Z</time>
      </trkpt>
      <trkpt lat="43.60013" lon="1.1554">
        <ele>288</ele>
        <time>2022-12-28T10:17:48Z</time>
      </trkpt>
      <trkpt lat="43.60019" lon="1.15543">
        <ele>288.8</ele>
        <time>2022-12-28T10:17:51Z</time>
      </trkpt>
      <trkpt lat="43.6002" lon="1.15543">
        <ele>289</ele>
        <time>2022-12-28T10:17:52Z</time>
      </trkpt>
      <trkpt lat="43.60027" lon="1.15544">
        <ele>290</ele>
        <time>2022-12-28T10:17:56Z</time>
      </trkpt>
      <trkpt lat="43.60028" lon="1.15546">
        <ele>290.4</ele>
        <time>2022-12-28T10:17:57Z</time>
      </trkpt>
      <trkpt lat="43.60035" lon="1.15554">
        <ele>291.4</ele>
        <time>2022-12-28T10:18:01Z</time>
      </trkpt>
      <trkpt lat="43.60042" lon="1.1556">
        <ele>292</ele>
        <time>2022-12-28T10:18:04Z</time>
      </trkpt>
      <trkpt lat="43.60045" lon="1.15561">
        <ele>292.4</ele>
        <time>2022-12-28T10:18:05Z</time>
      </trkpt>
      <trkpt lat="43.6005" lon="1.15564">
        <ele>292.8</ele>
        <time>2022-12-28T10:18:08Z</time>
      </trkpt>
      <trkpt lat="43.60052" lon="1.15566">
        <ele>293.6</ele>
        <time>2022-12-28T10:18:10Z</time>
      </trkpt>
      <trkpt lat="43.60054" lon="1.15569">
        <ele>293.8</ele>
        <time>2022-12-28T10:18:11Z</time>
      </trkpt>
      <trkpt lat="43.60058" lon="1.15576">
        <ele>294.4</ele>
        <time>2022-12-28T10:18:13Z</time>
      </trkpt>
      <trkpt lat="43.60058" lon="1.15583">
        <ele>294.6</ele>
        <time>2022-12-28T10:18:15Z</time>
      </trkpt>
      <trkpt lat="43.60058" lon="1.15587">
        <ele>294.8</ele>
        <time>2022-12-28T10:18:16Z</time>
      </trkpt>
      <trkpt lat="43.60059" lon="1.15611">
        <ele>295</ele>
        <time>2022-12-28T10:18:21Z</time>
      </trkpt>
      <trkpt lat="43.60063" lon="1.15637">
        <ele>295.2</ele>
        <time>2022-12-28T10:18:26Z</time>
      </trkpt>
      <trkpt lat="43.60072" lon="1.15652">
        <ele>295.2</ele>
        <time>2022-12-28T10:18:30Z</time>
      </trkpt>
      <trkpt lat="43.60087" lon="1.15679">
        <ele>295.4</ele>
        <time>2022-12-28T10:18:35Z</time>
      </trkpt>
      <trkpt lat="43.60099" lon="1.15693">
        <ele>295.2</ele>
        <time>2022-12-28T10:18:38Z</time>
      </trkpt>
      <trkpt lat="43.60105" lon="1.15703">
        <ele>295</ele>
        <time>2022-12-28T10:18:40Z</time>
      </trkpt>
      <trkpt lat="43.6011" lon="1.1571">
        <ele>294.8</ele>
        <time>2022-12-28T10:18:41Z</time>
      </trkpt>
      <trkpt lat="43.60122" lon="1.15724">
        <ele>294.4</ele>
        <time>2022-12-28T10:18:43Z</time>
      </trkpt>
      <trkpt lat="43.60132" lon="1.15737">
        <ele>293</ele>
        <time>2022-12-28T10:18:45Z</time>
      </trkpt>
      <trkpt lat="43.60137" lon="1.15744">
        <ele>292.8</ele>
        <time>2022-12-28T10:18:46Z</time>
      </trkpt>
      <trkpt lat="43.60146" lon="1.15758">
        <ele>291.8</ele>
        <time>2022-12-28T10:18:48Z</time>
      </trkpt>
      <trkpt lat="43.60151" lon="1.15764">
        <ele>291.8</ele>
        <time>2022-12-28T10:18:49Z</time>
      </trkpt>
      <trkpt lat="43.60157" lon="1.15769">
        <ele>291.4</ele>
        <time>2022-12-28T10:18:51Z</time>
      </trkpt>
      <trkpt lat="43.60163" lon="1.1578">
        <ele>291.4</ele>
        <time>2022-12-28T10:18:55Z</time>
      </trkpt>
      <trkpt lat="43.60158" lon="1.15796">
        <ele>292.2</ele>
        <time>2022-12-28T10:18:59Z</time>
      </trkpt>
      <trkpt lat="43.60163" lon="1.15822">
        <ele>292.6</ele>
        <time>2022-12-28T10:19:04Z</time>
      </trkpt>
      <trkpt lat="43.60164" lon="1.15826">
        <ele>292.6</ele>
        <time>2022-12-28T10:19:06Z</time>
      </trkpt>
      <trkpt lat="43.60166" lon="1.15833">
        <ele>292.8</ele>
        <time>2022-12-28T10:19:08Z</time>
      </trkpt>
      <trkpt lat="43.60173" lon="1.15858">
        <ele>293.6</ele>
        <time>2022-12-28T10:19:13Z</time>
      </trkpt>
      <trkpt lat="43.60172" lon="1.15864">
        <ele>294</ele>
        <time>2022-12-28T10:19:14Z</time>
      </trkpt>
      <trkpt lat="43.60168" lon="1.15884">
        <ele>294.6</ele>
        <time>2022-12-28T10:19:17Z</time>
      </trkpt>
      <trkpt lat="43.60174" lon="1.15901">
        <ele>295</ele>
        <time>2022-12-28T10:19:20Z</time>
      </trkpt>
      <trkpt lat="43.60175" lon="1.15905">
        <ele>295.2</ele>
        <time>2022-12-28T10:19:21Z</time>
      </trkpt>
      <trkpt lat="43.60174" lon="1.15914">
        <ele>295.6</ele>
        <time>2022-12-28T10:19:23Z</time>
      </trkpt>
      <trkpt lat="43.60174" lon="1.15925">
        <ele>295.6</ele>
        <time>2022-12-28T10:19:25Z</time>
      </trkpt>
      <trkpt lat="43.60178" lon="1.15945">
        <ele>296.2</ele>
        <time>2022-12-28T10:19:30Z</time>
      </trkpt>
      <trkpt lat="43.60179" lon="1.15948">
        <ele>296.4</ele>
        <time>2022-12-28T10:19:31Z</time>
      </trkpt>
      <trkpt lat="43.60179" lon="1.15948">
        <ele>296.6</ele>
        <time>2022-12-28T10:19:33Z</time>
      </trkpt>
      <trkpt lat="43.60175" lon="1.15956">
        <ele>297.4</ele>
        <time>2022-12-28T10:20:11Z</time>
      </trkpt>
      <trkpt lat="43.60173" lon="1.15959">
        <ele>297.4</ele>
        <time>2022-12-28T10:20:12Z</time>
      </trkpt>
      <trkpt lat="43.60164" lon="1.15968">
        <ele>297</ele>
        <time>2022-12-28T10:20:16Z</time>
      </trkpt>
      <trkpt lat="43.60162" lon="1.15969">
        <ele>297</ele>
        <time>2022-12-28T10:20:17Z</time>
      </trkpt>
      <trkpt lat="43.6016" lon="1.15971">
        <ele>297</ele>
        <time>2022-12-28T10:20:18Z</time>
      </trkpt>
      <trkpt lat="43.60159" lon="1.1598">
        <ele>296.8</ele>
        <time>2022-12-28T10:20:20Z</time>
      </trkpt>
      <trkpt lat="43.60159" lon="1.15997">
        <ele>296.6</ele>
        <time>2022-12-28T10:20:24Z</time>
      </trkpt>
      <trkpt lat="43.60155" lon="1.16005">
        <ele>296.6</ele>
        <time>2022-12-28T10:20:26Z</time>
      </trkpt>
      <trkpt lat="43.60153" lon="1.16009">
        <ele>296.6</ele>
        <time>2022-12-28T10:20:27Z</time>
      </trkpt>
      <trkpt lat="43.60148" lon="1.16023">
        <ele>296.8</ele>
        <time>2022-12-28T10:20:30Z</time>
      </trkpt>
      <trkpt lat="43.60146" lon="1.16027">
        <ele>296.8</ele>
        <time>2022-12-28T10:20:31Z</time>
      </trkpt>
      <trkpt lat="43.60139" lon="1.16045">
        <ele>296.8</ele>
        <time>2022-12-28T10:20:34Z</time>
      </trkpt>
      <trkpt lat="43.60139" lon="1.16048">
        <ele>296.8</ele>
        <time>2022-12-28T10:20:35Z</time>
      </trkpt>
      <trkpt lat="43.60134" lon="1.16054">
        <ele>297</ele>
        <time>2022-12-28T10:20:37Z</time>
      </trkpt>
      <trkpt lat="43.60133" lon="1.1606">
        <ele>297.2</ele>
        <time>2022-12-28T10:20:39Z</time>
      </trkpt>
      <trkpt lat="43.60128" lon="1.16072">
        <ele>297.2</ele>
        <time>2022-12-28T10:20:41Z</time>
      </trkpt>
      <trkpt lat="43.60127" lon="1.16093">
        <ele>297.4</ele>
        <time>2022-12-28T10:20:45Z</time>
      </trkpt>
      <trkpt lat="43.60125" lon="1.16103">
        <ele>297.4</ele>
        <time>2022-12-28T10:20:47Z</time>
      </trkpt>
      <trkpt lat="43.60127" lon="1.1611">
        <ele>297.6</ele>
        <time>2022-12-28T10:20:49Z</time>
      </trkpt>
      <trkpt lat="43.60129" lon="1.16112">
        <ele>297.8</ele>
        <time>2022-12-28T10:20:50Z</time>
      </trkpt>
      <trkpt lat="43.60133" lon="1.16114">
        <ele>297.8</ele>
        <time>2022-12-28T10:20:52Z</time>
      </trkpt>
      <trkpt lat="43.60134" lon="1.16116">
        <ele>298</ele>
        <time>2022-12-28T10:20:53Z</time>
      </trkpt>
      <trkpt lat="43.6013" lon="1.1614">
        <ele>298.4</ele>
        <time>2022-12-28T10:20:59Z</time>
      </trkpt>
      <trkpt lat="43.60122" lon="1.16164">
        <ele>298.6</ele>
        <time>2022-12-28T10:21:05Z</time>
      </trkpt>
      <trkpt lat="43.60114" lon="1.16197">
        <ele>298.4</ele>
        <time>2022-12-28T10:21:14Z</time>
      </trkpt>
      <trkpt lat="43.60113" lon="1.16199">
        <ele>298.4</ele>
        <time>2022-12-28T10:21:17Z</time>
      </trkpt>
      <trkpt lat="43.60114" lon="1.16205">
        <ele>298</ele>
        <time>2022-12-28T10:21:59Z</time>
      </trkpt>
      <trkpt lat="43.60115" lon="1.16227">
        <ele>298.2</ele>
        <time>2022-12-28T10:22:04Z</time>
      </trkpt>
      <trkpt lat="43.60115" lon="1.16258">
        <ele>298.8</ele>
        <time>2022-12-28T10:22:10Z</time>
      </trkpt>
      <trkpt lat="43.60119" lon="1.16276">
        <ele>299.2</ele>
        <time>2022-12-28T10:22:14Z</time>
      </trkpt>
      <trkpt lat="43.60132" lon="1.16285">
        <ele>299.4</ele>
        <time>2022-12-28T10:22:18Z</time>
      </trkpt>
      <trkpt lat="43.60144" lon="1.1629">
        <ele>299.4</ele>
        <time>2022-12-28T10:22:22Z</time>
      </trkpt>
      <trkpt lat="43.60145" lon="1.16293">
        <ele>299.4</ele>
        <time>2022-12-28T10:22:23Z</time>
      </trkpt>
      <trkpt lat="43.60153" lon="1.16313">
        <ele>299.2</ele>
        <time>2022-12-28T10:22:29Z</time>
      </trkpt>
      <trkpt lat="43.60163" lon="1.16326">
        <ele>299</ele>
        <time>2022-12-28T10:22:33Z</time>
      </trkpt>
      <trkpt lat="43.60168" lon="1.1633">
        <ele>298.6</ele>
        <time>2022-12-28T10:22:35Z</time>
      </trkpt>
      <trkpt lat="43.60176" lon="1.1633">
        <ele>298.2</ele>
        <time>2022-12-28T10:22:37Z</time>
      </trkpt>
      <trkpt lat="43.60193" lon="1.16318">
        <ele>297.8</ele>
        <time>2022-12-28T10:22:41Z</time>
      </trkpt>
      <trkpt lat="43.602" lon="1.16308">
        <ele>297.6</ele>
        <time>2022-12-28T10:22:43Z</time>
      </trkpt>
      <trkpt lat="43.60213" lon="1.1629">
        <ele>297</ele>
        <time>2022-12-28T10:22:47Z</time>
      </trkpt>
      <trkpt lat="43.60221" lon="1.16288">
        <ele>296.8</ele>
        <time>2022-12-28T10:22:49Z</time>
      </trkpt>
      <trkpt lat="43.60227" lon="1.16289">
        <ele>296.8</ele>
        <time>2022-12-28T10:22:50Z</time>
      </trkpt>
      <trkpt lat="43.60233" lon="1.16292">
        <ele>296.6</ele>
        <time>2022-12-28T10:22:51Z</time>
      </trkpt>
      <trkpt lat="43.60239" lon="1.16296">
        <ele>296.4</ele>
        <time>2022-12-28T10:22:52Z</time>
      </trkpt>
      <trkpt lat="43.60257" lon="1.16307">
        <ele>296.2</ele>
        <time>2022-12-28T10:22:55Z</time>
      </trkpt>
      <trkpt lat="43.60286" lon="1.16322">
        <ele>295.4</ele>
        <time>2022-12-28T10:23:00Z</time>
      </trkpt>
      <trkpt lat="43.60305" lon="1.16344">
        <ele>294.6</ele>
        <time>2022-12-28T10:23:04Z</time>
      </trkpt>
      <trkpt lat="43.6031" lon="1.16352">
        <ele>293.8</ele>
        <time>2022-12-28T10:23:05Z</time>
      </trkpt>
      <trkpt lat="43.6032" lon="1.16367">
        <ele>292.6</ele>
        <time>2022-12-28T10:23:07Z</time>
      </trkpt>
      <trkpt lat="43.60333" lon="1.1639">
        <ele>291.4</ele>
        <time>2022-12-28T10:23:10Z</time>
      </trkpt>
      <trkpt lat="43.60343" lon="1.16407">
        <ele>290.6</ele>
        <time>2022-12-28T10:23:12Z</time>
      </trkpt>
      <trkpt lat="43.60347" lon="1.16414">
        <ele>290.4</ele>
        <time>2022-12-28T10:23:13Z</time>
      </trkpt>
      <trkpt lat="43.60352" lon="1.16425">
        <ele>289.8</ele>
        <time>2022-12-28T10:23:14Z</time>
      </trkpt>
      <trkpt lat="43.60357" lon="1.16431">
        <ele>289</ele>
        <time>2022-12-28T10:23:15Z</time>
      </trkpt>
      <trkpt lat="43.60368" lon="1.16443">
        <ele>288</ele>
        <time>2022-12-28T10:23:17Z</time>
      </trkpt>
      <trkpt lat="43.60372" lon="1.16449">
        <ele>287.6</ele>
        <time>2022-12-28T10:23:18Z</time>
      </trkpt>
      <trkpt lat="43.60377" lon="1.16457">
        <ele>286.8</ele>
        <time>2022-12-28T10:23:19Z</time>
      </trkpt>
      <trkpt lat="43.60381" lon="1.16465">
        <ele>286.2</ele>
        <time>2022-12-28T10:23:20Z</time>
      </trkpt>
      <trkpt lat="43.60384" lon="1.16472">
        <ele>285.6</ele>
        <time>2022-12-28T10:23:21Z</time>
      </trkpt>
      <trkpt lat="43.60386" lon="1.16478">
        <ele>285.4</ele>
        <time>2022-12-28T10:23:22Z</time>
      </trkpt>
      <trkpt lat="43.60388" lon="1.16485">
        <ele>284.8</ele>
        <time>2022-12-28T10:23:23Z</time>
      </trkpt>
      <trkpt lat="43.60389" lon="1.16491">
        <ele>284.4</ele>
        <time>2022-12-28T10:23:24Z</time>
      </trkpt>
      <trkpt lat="43.60391" lon="1.16498">
        <ele>284</ele>
        <time>2022-12-28T10:23:25Z</time>
      </trkpt>
      <trkpt lat="43.60392" lon="1.16506">
        <ele>283.6</ele>
        <time>2022-12-28T10:23:26Z</time>
      </trkpt>
      <trkpt lat="43.60394" lon="1.16519">
        <ele>283.2</ele>
        <time>2022-12-28T10:23:28Z</time>
      </trkpt>
      <trkpt lat="43.60399" lon="1.16547">
        <ele>282.2</ele>
        <time>2022-12-28T10:23:32Z</time>
      </trkpt>
      <trkpt lat="43.60401" lon="1.1656">
        <ele>282.2</ele>
        <time>2022-12-28T10:23:34Z</time>
      </trkpt>
      <trkpt lat="43.60403" lon="1.16573">
        <ele>282.2</ele>
        <time>2022-12-28T10:23:36Z</time>
      </trkpt>
      <trkpt lat="43.60404" lon="1.1658">
        <ele>282</ele>
        <time>2022-12-28T10:23:37Z</time>
      </trkpt>
      <trkpt lat="43.60413" lon="1.16607">
        <ele>281.6</ele>
        <time>2022-12-28T10:23:42Z</time>
      </trkpt>
      <trkpt lat="43.60425" lon="1.16636">
        <ele>281.4</ele>
        <time>2022-12-28T10:23:49Z</time>
      </trkpt>
      <trkpt lat="43.60427" lon="1.16639">
        <ele>281.4</ele>
        <time>2022-12-28T10:23:53Z</time>
      </trkpt>
      <trkpt lat="43.60432" lon="1.16641">
        <ele>281.2</ele>
        <time>2022-12-28T10:24:01Z</time>
      </trkpt>
      <trkpt lat="43.6044" lon="1.16642">
        <ele>281</ele>
        <time>2022-12-28T10:24:06Z</time>
      </trkpt>
      <trkpt lat="43.60442" lon="1.16644">
        <ele>280.8</ele>
        <time>2022-12-28T10:24:07Z</time>
      </trkpt>
      <trkpt lat="43.60444" lon="1.16646">
        <ele>280.8</ele>
        <time>2022-12-28T10:24:08Z</time>
      </trkpt>
      <trkpt lat="43.60448" lon="1.1665">
        <ele>280.4</ele>
        <time>2022-12-28T10:24:10Z</time>
      </trkpt>
      <trkpt lat="43.60452" lon="1.16653">
        <ele>280.4</ele>
        <time>2022-12-28T10:24:11Z</time>
      </trkpt>
      <trkpt lat="43.60472" lon="1.1667">
        <ele>279.8</ele>
        <time>2022-12-28T10:24:16Z</time>
      </trkpt>
      <trkpt lat="43.60476" lon="1.16676">
        <ele>279.4</ele>
        <time>2022-12-28T10:24:17Z</time>
      </trkpt>
      <trkpt lat="43.60483" lon="1.16684">
        <ele>278.8</ele>
        <time>2022-12-28T10:24:19Z</time>
      </trkpt>
      <trkpt lat="43.60486" lon="1.16688">
        <ele>278.8</ele>
        <time>2022-12-28T10:24:20Z</time>
      </trkpt>
      <trkpt lat="43.60489" lon="1.16692">
        <ele>278.4</ele>
        <time>2022-12-28T10:24:21Z</time>
      </trkpt>
      <trkpt lat="43.60492" lon="1.16697">
        <ele>278.4</ele>
        <time>2022-12-28T10:24:22Z</time>
      </trkpt>
      <trkpt lat="43.60501" lon="1.16708">
        <ele>278</ele>
        <time>2022-12-28T10:24:24Z</time>
      </trkpt>
      <trkpt lat="43.60507" lon="1.1672">
        <ele>277.8</ele>
        <time>2022-12-28T10:24:27Z</time>
      </trkpt>
      <trkpt lat="43.60507" lon="1.16722">
        <ele>277.6</ele>
        <time>2022-12-28T10:24:28Z</time>
      </trkpt>
      <trkpt lat="43.60506" lon="1.16725">
        <ele>277.6</ele>
        <time>2022-12-28T10:24:29Z</time>
      </trkpt>
      <trkpt lat="43.60515" lon="1.16732">
        <ele>277.4</ele>
        <time>2022-12-28T10:24:32Z</time>
      </trkpt>
      <trkpt lat="43.60522" lon="1.16738">
        <ele>277.4</ele>
        <time>2022-12-28T10:24:34Z</time>
      </trkpt>
      <trkpt lat="43.60534" lon="1.16749">
        <ele>277.4</ele>
        <time>2022-12-28T10:24:37Z</time>
      </trkpt>
      <trkpt lat="43.60539" lon="1.16754">
        <ele>277.2</ele>
        <time>2022-12-28T10:24:38Z</time>
      </trkpt>
      <trkpt lat="43.60556" lon="1.16775">
        <ele>277.2</ele>
        <time>2022-12-28T10:24:42Z</time>
      </trkpt>
      <trkpt lat="43.60569" lon="1.16791">
        <ele>277</ele>
        <time>2022-12-28T10:24:44Z</time>
      </trkpt>
      <trkpt lat="43.60576" lon="1.16803">
        <ele>276.8</ele>
        <time>2022-12-28T10:24:46Z</time>
      </trkpt>
      <trkpt lat="43.60579" lon="1.16819">
        <ele>276.4</ele>
        <time>2022-12-28T10:24:49Z</time>
      </trkpt>
      <trkpt lat="43.60585" lon="1.16834">
        <ele>276.2</ele>
        <time>2022-12-28T10:24:52Z</time>
      </trkpt>
      <trkpt lat="43.60592" lon="1.16846">
        <ele>275.8</ele>
        <time>2022-12-28T10:24:54Z</time>
      </trkpt>
      <trkpt lat="43.60606" lon="1.16872">
        <ele>275.4</ele>
        <time>2022-12-28T10:24:58Z</time>
      </trkpt>
      <trkpt lat="43.6061" lon="1.16878">
        <ele>275.2</ele>
        <time>2022-12-28T10:24:59Z</time>
      </trkpt>
      <trkpt lat="43.60614" lon="1.16886">
        <ele>275</ele>
        <time>2022-12-28T10:25:01Z</time>
      </trkpt>
      <trkpt lat="43.60617" lon="1.1689">
        <ele>275</ele>
        <time>2022-12-28T10:25:02Z</time>
      </trkpt>
      <trkpt lat="43.60624" lon="1.16896">
        <ele>274.2</ele>
        <time>2022-12-28T10:25:04Z</time>
      </trkpt>
      <trkpt lat="43.60626" lon="1.169">
        <ele>274</ele>
        <time>2022-12-28T10:25:05Z</time>
      </trkpt>
      <trkpt lat="43.60627" lon="1.16905">
        <ele>273.8</ele>
        <time>2022-12-28T10:25:06Z</time>
      </trkpt>
      <trkpt lat="43.60631" lon="1.16933">
        <ele>273.2</ele>
        <time>2022-12-28T10:25:10Z</time>
      </trkpt>
      <trkpt lat="43.60633" lon="1.16946">
        <ele>272.8</ele>
        <time>2022-12-28T10:25:12Z</time>
      </trkpt>
      <trkpt lat="43.6063" lon="1.16954">
        <ele>272.4</ele>
        <time>2022-12-28T10:25:14Z</time>
      </trkpt>
      <trkpt lat="43.60627" lon="1.1696">
        <ele>272.4</ele>
        <time>2022-12-28T10:25:16Z</time>
      </trkpt>
      <trkpt lat="43.60628" lon="1.16968">
        <ele>272.2</ele>
        <time>2022-12-28T10:25:18Z</time>
      </trkpt>
      <trkpt lat="43.60637" lon="1.1698">
        <ele>272.2</ele>
        <time>2022-12-28T10:25:21Z</time>
      </trkpt>
      <trkpt lat="43.60639" lon="1.16986">
        <ele>272</ele>
        <time>2022-12-28T10:25:22Z</time>
      </trkpt>
      <trkpt lat="43.60641" lon="1.17001">
        <ele>272</ele>
        <time>2022-12-28T10:25:24Z</time>
      </trkpt>
      <trkpt lat="43.6064" lon="1.17018">
        <ele>272</ele>
        <time>2022-12-28T10:25:26Z</time>
      </trkpt>
      <trkpt lat="43.60649" lon="1.17037">
        <ele>271.6</ele>
        <time>2022-12-28T10:25:29Z</time>
      </trkpt>
      <trkpt lat="43.60653" lon="1.1705">
        <ele>271.4</ele>
        <time>2022-12-28T10:25:31Z</time>
      </trkpt>
      <trkpt lat="43.60658" lon="1.17069">
        <ele>270.6</ele>
        <time>2022-12-28T10:25:34Z</time>
      </trkpt>
      <trkpt lat="43.6066" lon="1.17082">
        <ele>270</ele>
        <time>2022-12-28T10:25:36Z</time>
      </trkpt>
      <trkpt lat="43.60665" lon="1.17097">
        <ele>269.6</ele>
        <time>2022-12-28T10:25:39Z</time>
      </trkpt>
      <trkpt lat="43.60664" lon="1.17103">
        <ele>269.6</ele>
        <time>2022-12-28T10:25:40Z</time>
      </trkpt>
      <trkpt lat="43.60674" lon="1.17126">
        <ele>268.6</ele>
        <time>2022-12-28T10:25:44Z</time>
      </trkpt>
      <trkpt lat="43.6068" lon="1.17137">
        <ele>268</ele>
        <time>2022-12-28T10:25:46Z</time>
      </trkpt>
      <trkpt lat="43.6069" lon="1.17153">
        <ele>267.8</ele>
        <time>2022-12-28T10:25:50Z</time>
      </trkpt>
      <trkpt lat="43.60702" lon="1.17175">
        <ele>267.6</ele>
        <time>2022-12-28T10:25:54Z</time>
      </trkpt>
      <trkpt lat="43.60703" lon="1.17182">
        <ele>267.4</ele>
        <time>2022-12-28T10:25:55Z</time>
      </trkpt>
      <trkpt lat="43.60701" lon="1.17201">
        <ele>267</ele>
        <time>2022-12-28T10:25:59Z</time>
      </trkpt>
      <trkpt lat="43.60718" lon="1.17239">
        <ele>267.8</ele>
        <time>2022-12-28T10:26:06Z</time>
      </trkpt>
      <trkpt lat="43.60722" lon="1.17247">
        <ele>267.8</ele>
        <time>2022-12-28T10:26:08Z</time>
      </trkpt>
      <trkpt lat="43.60723" lon="1.17254">
        <ele>267.2</ele>
        <time>2022-12-28T10:26:10Z</time>
      </trkpt>
      <trkpt lat="43.60733" lon="1.17267">
        <ele>266.4</ele>
        <time>2022-12-28T10:26:13Z</time>
      </trkpt>
      <trkpt lat="43.60734" lon="1.17272">
        <ele>266.4</ele>
        <time>2022-12-28T10:26:14Z</time>
      </trkpt>
      <trkpt lat="43.60734" lon="1.17277">
        <ele>266.2</ele>
        <time>2022-12-28T10:26:15Z</time>
      </trkpt>
      <trkpt lat="43.60731" lon="1.17292">
        <ele>266.2</ele>
        <time>2022-12-28T10:26:18Z</time>
      </trkpt>
      <trkpt lat="43.60734" lon="1.17294">
        <ele>266</ele>
        <time>2022-12-28T10:26:19Z</time>
      </trkpt>
      <trkpt lat="43.60761" lon="1.17311">
        <ele>265.8</ele>
        <time>2022-12-28T10:26:25Z</time>
      </trkpt>
      <trkpt lat="43.60783" lon="1.17315">
        <ele>266.4</ele>
        <time>2022-12-28T10:26:31Z</time>
      </trkpt>
      <trkpt lat="43.60803" lon="1.1733">
        <ele>266.8</ele>
        <time>2022-12-28T10:26:35Z</time>
      </trkpt>
      <trkpt lat="43.6082" lon="1.17345">
        <ele>266.8</ele>
        <time>2022-12-28T10:26:39Z</time>
      </trkpt>
      <trkpt lat="43.60823" lon="1.17346">
        <ele>266.8</ele>
        <time>2022-12-28T10:26:40Z</time>
      </trkpt>
      <trkpt lat="43.60845" lon="1.1736">
        <ele>266.6</ele>
        <time>2022-12-28T10:26:45Z</time>
      </trkpt>
      <trkpt lat="43.60846" lon="1.17361">
        <ele>266.6</ele>
        <time>2022-12-28T10:26:46Z</time>
      </trkpt>
      <trkpt lat="43.60849" lon="1.17366">
        <ele>266.6</ele>
        <time>2022-12-28T10:26:51Z</time>
      </trkpt>
      <trkpt lat="43.60856" lon="1.17366">
        <ele>266.8</ele>
        <time>2022-12-28T10:27:19Z</time>
      </trkpt>
      <trkpt lat="43.60863" lon="1.17363">
        <ele>266.8</ele>
        <time>2022-12-28T10:27:21Z</time>
      </trkpt>
      <trkpt lat="43.60871" lon="1.1736">
        <ele>266.6</ele>
        <time>2022-12-28T10:27:23Z</time>
      </trkpt>
      <trkpt lat="43.60881" lon="1.17363">
        <ele>265.6</ele>
        <time>2022-12-28T10:27:25Z</time>
      </trkpt>
      <trkpt lat="43.60886" lon="1.17366">
        <ele>264.6</ele>
        <time>2022-12-28T10:27:26Z</time>
      </trkpt>
      <trkpt lat="43.6089" lon="1.17369">
        <ele>264.4</ele>
        <time>2022-12-28T10:27:27Z</time>
      </trkpt>
      <trkpt lat="43.60905" lon="1.17379">
        <ele>263.4</ele>
        <time>2022-12-28T10:27:30Z</time>
      </trkpt>
      <trkpt lat="43.60925" lon="1.17392">
        <ele>262.4</ele>
        <time>2022-12-28T10:27:34Z</time>
      </trkpt>
      <trkpt lat="43.60932" lon="1.17397">
        <ele>262</ele>
        <time>2022-12-28T10:27:35Z</time>
      </trkpt>
      <trkpt lat="43.60942" lon="1.17404">
        <ele>261.6</ele>
        <time>2022-12-28T10:27:37Z</time>
      </trkpt>
      <trkpt lat="43.60953" lon="1.1741">
        <ele>261.2</ele>
        <time>2022-12-28T10:27:39Z</time>
      </trkpt>
      <trkpt lat="43.60958" lon="1.17413">
        <ele>261.2</ele>
        <time>2022-12-28T10:27:40Z</time>
      </trkpt>
      <trkpt lat="43.6097" lon="1.17417">
        <ele>260.8</ele>
        <time>2022-12-28T10:27:43Z</time>
      </trkpt>
      <trkpt lat="43.60985" lon="1.17428">
        <ele>260.2</ele>
        <time>2022-12-28T10:27:46Z</time>
      </trkpt>
      <trkpt lat="43.60995" lon="1.17434">
        <ele>260</ele>
        <time>2022-12-28T10:27:48Z</time>
      </trkpt>
      <trkpt lat="43.61022" lon="1.17451">
        <ele>259.6</ele>
        <time>2022-12-28T10:27:53Z</time>
      </trkpt>
      <trkpt lat="43.61038" lon="1.17462">
        <ele>259.2</ele>
        <time>2022-12-28T10:27:57Z</time>
      </trkpt>
      <trkpt lat="43.61043" lon="1.17474">
        <ele>259.2</ele>
        <time>2022-12-28T10:27:59Z</time>
      </trkpt>
      <trkpt lat="43.61046" lon="1.1748">
        <ele>259.2</ele>
        <time>2022-12-28T10:28:01Z</time>
      </trkpt>
      <trkpt lat="43.6105" lon="1.17484">
        <ele>259</ele>
        <time>2022-12-28T10:28:02Z</time>
      </trkpt>
      <trkpt lat="43.61075" lon="1.17499">
        <ele>258.4</ele>
        <time>2022-12-28T10:28:08Z</time>
      </trkpt>
      <trkpt lat="43.61076" lon="1.17501">
        <ele>258.4</ele>
        <time>2022-12-28T10:28:09Z</time>
      </trkpt>
      <trkpt lat="43.61079" lon="1.17508">
        <ele>258.2</ele>
        <time>2022-12-28T10:28:11Z</time>
      </trkpt>
      <trkpt lat="43.61089" lon="1.17532">
        <ele>258</ele>
        <time>2022-12-28T10:28:16Z</time>
      </trkpt>
      <trkpt lat="43.61101" lon="1.17552">
        <ele>258.2</ele>
        <time>2022-12-28T10:28:20Z</time>
      </trkpt>
      <trkpt lat="43.61101" lon="1.17564">
        <ele>258</ele>
        <time>2022-12-28T10:28:23Z</time>
      </trkpt>
      <trkpt lat="43.61118" lon="1.17574">
        <ele>257.6</ele>
        <time>2022-12-28T10:28:27Z</time>
      </trkpt>
      <trkpt lat="43.61132" lon="1.17582">
        <ele>257.4</ele>
        <time>2022-12-28T10:28:31Z</time>
      </trkpt>
      <trkpt lat="43.61133" lon="1.17585">
        <ele>257.4</ele>
        <time>2022-12-28T10:28:32Z</time>
      </trkpt>
      <trkpt lat="43.61139" lon="1.17588">
        <ele>257.4</ele>
        <time>2022-12-28T10:28:33Z</time>
      </trkpt>
      <trkpt lat="43.61145" lon="1.17594">
        <ele>257.2</ele>
        <time>2022-12-28T10:28:35Z</time>
      </trkpt>
      <trkpt lat="43.6115" lon="1.17598">
        <ele>257.2</ele>
        <time>2022-12-28T10:28:36Z</time>
      </trkpt>
      <trkpt lat="43.61157" lon="1.17606">
        <ele>257</ele>
        <time>2022-12-28T10:28:39Z</time>
      </trkpt>
      <trkpt lat="43.61164" lon="1.17618">
        <ele>256.8</ele>
        <time>2022-12-28T10:28:41Z</time>
      </trkpt>
      <trkpt lat="43.61172" lon="1.17637">
        <ele>256.2</ele>
        <time>2022-12-28T10:28:45Z</time>
      </trkpt>
      <trkpt lat="43.61184" lon="1.17656">
        <ele>255.8</ele>
        <time>2022-12-28T10:28:50Z</time>
      </trkpt>
      <trkpt lat="43.61187" lon="1.1766">
        <ele>255.6</ele>
        <time>2022-12-28T10:28:51Z</time>
      </trkpt>
      <trkpt lat="43.61199" lon="1.17674">
        <ele>255.4</ele>
        <time>2022-12-28T10:28:56Z</time>
      </trkpt>
      <trkpt lat="43.61205" lon="1.1768">
        <ele>255.2</ele>
        <time>2022-12-28T10:28:58Z</time>
      </trkpt>
      <trkpt lat="43.61213" lon="1.17691">
        <ele>255</ele>
        <time>2022-12-28T10:29:01Z</time>
      </trkpt>
      <trkpt lat="43.61222" lon="1.17711">
        <ele>254.8</ele>
        <time>2022-12-28T10:29:05Z</time>
      </trkpt>
      <trkpt lat="43.61228" lon="1.17735">
        <ele>255.4</ele>
        <time>2022-12-28T10:29:10Z</time>
      </trkpt>
      <trkpt lat="43.61233" lon="1.17752">
        <ele>256.6</ele>
        <time>2022-12-28T10:29:15Z</time>
      </trkpt>
      <trkpt lat="43.61235" lon="1.17755">
        <ele>256.6</ele>
        <time>2022-12-28T10:29:16Z</time>
      </trkpt>
      <trkpt lat="43.61249" lon="1.17769">
        <ele>256.6</ele>
        <time>2022-12-28T10:29:22Z</time>
      </trkpt>
      <trkpt lat="43.6125" lon="1.17776">
        <ele>255.4</ele>
        <time>2022-12-28T10:29:24Z</time>
      </trkpt>
      <trkpt lat="43.61254" lon="1.17782">
        <ele>254.6</ele>
        <time>2022-12-28T10:29:26Z</time>
      </trkpt>
      <trkpt lat="43.61256" lon="1.17785">
        <ele>254.4</ele>
        <time>2022-12-28T10:29:27Z</time>
      </trkpt>
      <trkpt lat="43.61265" lon="1.17791">
        <ele>253.6</ele>
        <time>2022-12-28T10:29:32Z</time>
      </trkpt>
      <trkpt lat="43.61277" lon="1.17806">
        <ele>254.2</ele>
        <time>2022-12-28T10:29:38Z</time>
      </trkpt>
      <trkpt lat="43.61291" lon="1.17826">
        <ele>254.4</ele>
        <time>2022-12-28T10:29:43Z</time>
      </trkpt>
      <trkpt lat="43.613" lon="1.17845">
        <ele>254.2</ele>
        <time>2022-12-28T10:29:47Z</time>
      </trkpt>
      <trkpt lat="43.61306" lon="1.17859">
        <ele>253.4</ele>
        <time>2022-12-28T10:29:50Z</time>
      </trkpt>
      <trkpt lat="43.61309" lon="1.1787">
        <ele>252.8</ele>
        <time>2022-12-28T10:29:52Z</time>
      </trkpt>
      <trkpt lat="43.61321" lon="1.17886">
        <ele>252.6</ele>
        <time>2022-12-28T10:29:56Z</time>
      </trkpt>
      <trkpt lat="43.61338" lon="1.179">
        <ele>252.2</ele>
        <time>2022-12-28T10:30:02Z</time>
      </trkpt>
      <trkpt lat="43.61346" lon="1.17906">
        <ele>252</ele>
        <time>2022-12-28T10:30:04Z</time>
      </trkpt>
      <trkpt lat="43.61357" lon="1.17917">
        <ele>251.6</ele>
        <time>2022-12-28T10:30:07Z</time>
      </trkpt>
      <trkpt lat="43.61365" lon="1.17936">
        <ele>251.2</ele>
        <time>2022-12-28T10:30:11Z</time>
      </trkpt>
      <trkpt lat="43.61369" lon="1.17948">
        <ele>251.6</ele>
        <time>2022-12-28T10:30:16Z</time>
      </trkpt>
      <trkpt lat="43.61373" lon="1.17952">
        <ele>252.4</ele>
        <time>2022-12-28T10:30:22Z</time>
      </trkpt>
      <trkpt lat="43.61377" lon="1.1795">
        <ele>252.2</ele>
        <time>2022-12-28T10:30:51Z</time>
      </trkpt>
      <trkpt lat="43.61381" lon="1.1795">
        <ele>252</ele>
        <time>2022-12-28T10:30:53Z</time>
      </trkpt>
      <trkpt lat="43.61383" lon="1.17951">
        <ele>251.8</ele>
        <time>2022-12-28T10:30:54Z</time>
      </trkpt>
      <trkpt lat="43.61386" lon="1.17954">
        <ele>251.4</ele>
        <time>2022-12-28T10:30:56Z</time>
      </trkpt>
      <trkpt lat="43.61389" lon="1.17956">
        <ele>251.2</ele>
        <time>2022-12-28T10:30:57Z</time>
      </trkpt>
      <trkpt lat="43.61401" lon="1.17965">
        <ele>250.8</ele>
        <time>2022-12-28T10:31:01Z</time>
      </trkpt>
      <trkpt lat="43.61422" lon="1.17985">
        <ele>250.4</ele>
        <time>2022-12-28T10:31:06Z</time>
      </trkpt>
      <trkpt lat="43.61447" lon="1.18013">
        <ele>250</ele>
        <time>2022-12-28T10:31:11Z</time>
      </trkpt>
      <trkpt lat="43.6145" lon="1.18019">
        <ele>249.8</ele>
        <time>2022-12-28T10:31:12Z</time>
      </trkpt>
      <trkpt lat="43.61453" lon="1.18024">
        <ele>249.6</ele>
        <time>2022-12-28T10:31:13Z</time>
      </trkpt>
      <trkpt lat="43.61456" lon="1.18029">
        <ele>249.6</ele>
        <time>2022-12-28T10:31:14Z</time>
      </trkpt>
      <trkpt lat="43.61458" lon="1.18047">
        <ele>249</ele>
        <time>2022-12-28T10:31:17Z</time>
      </trkpt>
      <trkpt lat="43.6146" lon="1.1805">
        <ele>248.8</ele>
        <time>2022-12-28T10:31:18Z</time>
      </trkpt>
      <trkpt lat="43.61468" lon="1.18059">
        <ele>248.8</ele>
        <time>2022-12-28T10:31:21Z</time>
      </trkpt>
      <trkpt lat="43.6147" lon="1.18062">
        <ele>248.6</ele>
        <time>2022-12-28T10:31:23Z</time>
      </trkpt>
      <trkpt lat="43.61483" lon="1.18059">
        <ele>248.6</ele>
        <time>2022-12-28T10:31:28Z</time>
      </trkpt>
      <trkpt lat="43.61493" lon="1.18054">
        <ele>248.4</ele>
        <time>2022-12-28T10:31:31Z</time>
      </trkpt>
      <trkpt lat="43.61502" lon="1.18057">
        <ele>248.2</ele>
        <time>2022-12-28T10:31:34Z</time>
      </trkpt>
      <trkpt lat="43.61519" lon="1.1806">
        <ele>247.8</ele>
        <time>2022-12-28T10:31:39Z</time>
      </trkpt>
      <trkpt lat="43.61528" lon="1.18064">
        <ele>247.4</ele>
        <time>2022-12-28T10:31:42Z</time>
      </trkpt>
      <trkpt lat="43.61533" lon="1.1807">
        <ele>247.4</ele>
        <time>2022-12-28T10:31:44Z</time>
      </trkpt>
      <trkpt lat="43.61537" lon="1.18077">
        <ele>247.4</ele>
        <time>2022-12-28T10:31:46Z</time>
      </trkpt>
      <trkpt lat="43.6154" lon="1.18081">
        <ele>247.4</ele>
        <time>2022-12-28T10:31:47Z</time>
      </trkpt>
      <trkpt lat="43.61544" lon="1.18084">
        <ele>247.4</ele>
        <time>2022-12-28T10:31:49Z</time>
      </trkpt>
      <trkpt lat="43.61551" lon="1.18088">
        <ele>247.4</ele>
        <time>2022-12-28T10:31:51Z</time>
      </trkpt>
      <trkpt lat="43.61557" lon="1.18095">
        <ele>247.4</ele>
        <time>2022-12-28T10:31:54Z</time>
      </trkpt>
      <trkpt lat="43.61571" lon="1.1812">
        <ele>247.4</ele>
        <time>2022-12-28T10:32:00Z</time>
      </trkpt>
      <trkpt lat="43.6158" lon="1.1813">
        <ele>247.4</ele>
        <time>2022-12-28T10:32:04Z</time>
      </trkpt>
      <trkpt lat="43.61581" lon="1.18131">
        <ele>247.4</ele>
        <time>2022-12-28T10:32:05Z</time>
      </trkpt>
      <trkpt lat="43.61588" lon="1.18135">
        <ele>247.2</ele>
        <time>2022-12-28T10:32:11Z</time>
      </trkpt>
      <trkpt lat="43.61602" lon="1.18137">
        <ele>247</ele>
        <time>2022-12-28T10:32:16Z</time>
      </trkpt>
      <trkpt lat="43.61602" lon="1.18137">
        <ele>247</ele>
        <time>2022-12-28T10:32:17Z</time>
      </trkpt>
      <trkpt lat="43.61607" lon="1.18138">
        <ele>247</ele>
        <time>2022-12-28T10:32:19Z</time>
      </trkpt>
      <trkpt lat="43.61617" lon="1.18145">
        <ele>247</ele>
        <time>2022-12-28T10:32:22Z</time>
      </trkpt>
      <trkpt lat="43.61629" lon="1.18152">
        <ele>246.8</ele>
        <time>2022-12-28T10:32:28Z</time>
      </trkpt>
      <trkpt lat="43.61631" lon="1.18155">
        <ele>246.8</ele>
        <time>2022-12-28T10:32:29Z</time>
      </trkpt>
      <trkpt lat="43.61639" lon="1.18165">
        <ele>246.8</ele>
        <time>2022-12-28T10:32:33Z</time>
      </trkpt>
      <trkpt lat="43.61648" lon="1.18173">
        <ele>246.8</ele>
        <time>2022-12-28T10:32:38Z</time>
      </trkpt>
      <trkpt lat="43.61647" lon="1.18176">
        <ele>246.8</ele>
        <time>2022-12-28T10:32:39Z</time>
      </trkpt>
      <trkpt lat="43.61646" lon="1.18178">
        <ele>246.8</ele>
        <time>2022-12-28T10:32:41Z</time>
      </trkpt>
      <trkpt lat="43.61648" lon="1.18181">
        <ele>246.8</ele>
        <time>2022-12-28T10:32:43Z</time>
      </trkpt>
      <trkpt lat="43.6165" lon="1.18185">
        <ele>246.8</ele>
        <time>2022-12-28T10:32:44Z</time>
      </trkpt>
      <trkpt lat="43.61655" lon="1.18196">
        <ele>246.8</ele>
        <time>2022-12-28T10:32:49Z</time>
      </trkpt>
      <trkpt lat="43.61657" lon="1.182">
        <ele>246.8</ele>
        <time>2022-12-28T10:32:50Z</time>
      </trkpt>
      <trkpt lat="43.61659" lon="1.18203">
        <ele>247.6</ele>
        <time>2022-12-28T10:32:55Z</time>
      </trkpt>
      <trkpt lat="43.61661" lon="1.18207">
        <ele>247.2</ele>
        <time>2022-12-28T10:33:04Z</time>
      </trkpt>
      <trkpt lat="43.61663" lon="1.1821">
        <ele>247.2</ele>
        <time>2022-12-28T10:33:08Z</time>
      </trkpt>
      <trkpt lat="43.61665" lon="1.18214">
        <ele>246.8</ele>
        <time>2022-12-28T10:33:50Z</time>
      </trkpt>
      <trkpt lat="43.61667" lon="1.18218">
        <ele>246.8</ele>
        <time>2022-12-28T10:33:51Z</time>
      </trkpt>
      <trkpt lat="43.61676" lon="1.18243">
        <ele>246.8</ele>
        <time>2022-12-28T10:33:55Z</time>
      </trkpt>
      <trkpt lat="43.61681" lon="1.18275">
        <ele>247.2</ele>
        <time>2022-12-28T10:34:01Z</time>
      </trkpt>
      <trkpt lat="43.61681" lon="1.18275">
        <ele>247.4</ele>
        <time>2022-12-28T10:34:02Z</time>
      </trkpt>
      <trkpt lat="43.61685" lon="1.18288">
        <ele>247.8</ele>
        <time>2022-12-28T10:34:04Z</time>
      </trkpt>
      <trkpt lat="43.61689" lon="1.18295">
        <ele>248.4</ele>
        <time>2022-12-28T10:34:06Z</time>
      </trkpt>
      <trkpt lat="43.61701" lon="1.18314">
        <ele>248.8</ele>
        <time>2022-12-28T10:34:10Z</time>
      </trkpt>
      <trkpt lat="43.61703" lon="1.18318">
        <ele>248.8</ele>
        <time>2022-12-28T10:34:11Z</time>
      </trkpt>
      <trkpt lat="43.61712" lon="1.18337">
        <ele>248.6</ele>
        <time>2022-12-28T10:34:15Z</time>
      </trkpt>
      <trkpt lat="43.61724" lon="1.18354">
        <ele>248.2</ele>
        <time>2022-12-28T10:34:18Z</time>
      </trkpt>
      <trkpt lat="43.61738" lon="1.18367">
        <ele>246.6</ele>
        <time>2022-12-28T10:34:21Z</time>
      </trkpt>
      <trkpt lat="43.61745" lon="1.18377">
        <ele>246.4</ele>
        <time>2022-12-28T10:34:24Z</time>
      </trkpt>
      <trkpt lat="43.61748" lon="1.18381">
        <ele>246.4</ele>
        <time>2022-12-28T10:34:25Z</time>
      </trkpt>
      <trkpt lat="43.61752" lon="1.18401">
        <ele>246.4</ele>
        <time>2022-12-28T10:34:30Z</time>
      </trkpt>
      <trkpt lat="43.61755" lon="1.18405">
        <ele>246.4</ele>
        <time>2022-12-28T10:34:31Z</time>
      </trkpt>
      <trkpt lat="43.61757" lon="1.18408">
        <ele>246.6</ele>
        <time>2022-12-28T10:34:32Z</time>
      </trkpt>
      <trkpt lat="43.61767" lon="1.18415">
        <ele>247.2</ele>
        <time>2022-12-28T10:34:35Z</time>
      </trkpt>
      <trkpt lat="43.6179" lon="1.18432">
        <ele>247.2</ele>
        <time>2022-12-28T10:34:41Z</time>
      </trkpt>
      <trkpt lat="43.61803" lon="1.18449">
        <ele>245.6</ele>
        <time>2022-12-28T10:34:46Z</time>
      </trkpt>
      <trkpt lat="43.61814" lon="1.18464">
        <ele>244.4</ele>
        <time>2022-12-28T10:34:51Z</time>
      </trkpt>
      <trkpt lat="43.6182" lon="1.18468">
        <ele>244.2</ele>
        <time>2022-12-28T10:34:52Z</time>
      </trkpt>
      <trkpt lat="43.61828" lon="1.18482">
        <ele>244</ele>
        <time>2022-12-28T10:34:55Z</time>
      </trkpt>
      <trkpt lat="43.6183" lon="1.18487">
        <ele>244</ele>
        <time>2022-12-28T10:34:56Z</time>
      </trkpt>
      <trkpt lat="43.6183" lon="1.18509">
        <ele>244</ele>
        <time>2022-12-28T10:35:01Z</time>
      </trkpt>
      <trkpt lat="43.61836" lon="1.18518">
        <ele>244.2</ele>
        <time>2022-12-28T10:35:04Z</time>
      </trkpt>
      <trkpt lat="43.61839" lon="1.18521">
        <ele>244.2</ele>
        <time>2022-12-28T10:35:05Z</time>
      </trkpt>
      <trkpt lat="43.61847" lon="1.18526">
        <ele>244</ele>
        <time>2022-12-28T10:35:10Z</time>
      </trkpt>
      <trkpt lat="43.61847" lon="1.18526">
        <ele>243.8</ele>
        <time>2022-12-28T10:35:11Z</time>
      </trkpt>
      <trkpt lat="43.61856" lon="1.18523">
        <ele>241.4</ele>
        <time>2022-12-28T10:35:24Z</time>
      </trkpt>
      <trkpt lat="43.61858" lon="1.1852">
        <ele>241.2</ele>
        <time>2022-12-28T10:35:26Z</time>
      </trkpt>
      <trkpt lat="43.61858" lon="1.1852">
        <ele>241.2</ele>
        <time>2022-12-28T10:35:33Z</time>
      </trkpt>
      <trkpt lat="43.61861" lon="1.18511">
        <ele>241.6</ele>
        <time>2022-12-28T10:35:39Z</time>
      </trkpt>
      <trkpt lat="43.61861" lon="1.1851">
        <ele>242.4</ele>
        <time>2022-12-28T10:35:43Z</time>
      </trkpt>
      <trkpt lat="43.61861" lon="1.1851">
        <ele>242.8</ele>
        <time>2022-12-28T10:35:44Z</time>
      </trkpt>
      <trkpt lat="43.61862" lon="1.18508">
        <ele>243.6</ele>
        <time>2022-12-28T10:36:06Z</time>
      </trkpt>
      <trkpt lat="43.61864" lon="1.18507">
        <ele>243.6</ele>
        <time>2022-12-28T10:36:07Z</time>
      </trkpt>
      <trkpt lat="43.61876" lon="1.18501">
        <ele>244</ele>
        <time>2022-12-28T10:36:14Z</time>
      </trkpt>
      <trkpt lat="43.61883" lon="1.18502">
        <ele>244</ele>
        <time>2022-12-28T10:36:17Z</time>
      </trkpt>
      <trkpt lat="43.61888" lon="1.185">
        <ele>244.2</ele>
        <time>2022-12-28T10:36:19Z</time>
      </trkpt>
      <trkpt lat="43.61895" lon="1.18502">
        <ele>244.4</ele>
        <time>2022-12-28T10:36:22Z</time>
      </trkpt>
      <trkpt lat="43.61898" lon="1.18501">
        <ele>244.6</ele>
        <time>2022-12-28T10:36:24Z</time>
      </trkpt>
      <trkpt lat="43.61906" lon="1.18499">
        <ele>244.6</ele>
        <time>2022-12-28T10:36:26Z</time>
      </trkpt>
      <trkpt lat="43.61918" lon="1.18503">
        <ele>244.4</ele>
        <time>2022-12-28T10:36:30Z</time>
      </trkpt>
      <trkpt lat="43.61936" lon="1.18516">
        <ele>244.8</ele>
        <time>2022-12-28T10:36:35Z</time>
      </trkpt>
      <trkpt lat="43.61958" lon="1.18531">
        <ele>245.8</ele>
        <time>2022-12-28T10:36:41Z</time>
      </trkpt>
      <trkpt lat="43.61963" lon="1.18533">
        <ele>246.2</ele>
        <time>2022-12-28T10:36:43Z</time>
      </trkpt>
      <trkpt lat="43.6198" lon="1.1854">
        <ele>246.8</ele>
        <time>2022-12-28T10:36:47Z</time>
      </trkpt>
      <trkpt lat="43.61984" lon="1.1854">
        <ele>247.4</ele>
        <time>2022-12-28T10:36:49Z</time>
      </trkpt>
      <trkpt lat="43.61984" lon="1.1854">
        <ele>247.8</ele>
        <time>2022-12-28T10:36:50Z</time>
      </trkpt>
      <trkpt lat="43.61995" lon="1.18546">
        <ele>249</ele>
        <time>2022-12-28T10:36:53Z</time>
      </trkpt>
      <trkpt lat="43.62005" lon="1.18548">
        <ele>250.4</ele>
        <time>2022-12-28T10:36:56Z</time>
      </trkpt>
      <trkpt lat="43.62012" lon="1.18554">
        <ele>251.6</ele>
        <time>2022-12-28T10:36:59Z</time>
      </trkpt>
      <trkpt lat="43.62025" lon="1.18561">
        <ele>253</ele>
        <time>2022-12-28T10:37:03Z</time>
      </trkpt>
      <trkpt lat="43.62026" lon="1.18562">
        <ele>253.4</ele>
        <time>2022-12-28T10:37:04Z</time>
      </trkpt>
      <trkpt lat="43.62032" lon="1.18566">
        <ele>253.8</ele>
        <time>2022-12-28T10:37:07Z</time>
      </trkpt>
      <trkpt lat="43.62034" lon="1.18566">
        <ele>254.4</ele>
        <time>2022-12-28T10:37:08Z</time>
      </trkpt>
      <trkpt lat="43.62037" lon="1.18567">
        <ele>254.8</ele>
        <time>2022-12-28T10:37:10Z</time>
      </trkpt>
      <trkpt lat="43.62037" lon="1.18569">
        <ele>255.2</ele>
        <time>2022-12-28T10:37:12Z</time>
      </trkpt>
      <trkpt lat="43.62038" lon="1.18582">
        <ele>255.4</ele>
        <time>2022-12-28T10:37:15Z</time>
      </trkpt>
      <trkpt lat="43.62037" lon="1.18592">
        <ele>255.4</ele>
        <time>2022-12-28T10:37:18Z</time>
      </trkpt>
      <trkpt lat="43.62037" lon="1.18609">
        <ele>255.2</ele>
        <time>2022-12-28T10:37:22Z</time>
      </trkpt>
      <trkpt lat="43.62035" lon="1.18637">
        <ele>255</ele>
        <time>2022-12-28T10:37:27Z</time>
      </trkpt>
      <trkpt lat="43.62034" lon="1.18667">
        <ele>254.8</ele>
        <time>2022-12-28T10:37:31Z</time>
      </trkpt>
      <trkpt lat="43.62034" lon="1.18675">
        <ele>254.2</ele>
        <time>2022-12-28T10:37:33Z</time>
      </trkpt>
      <trkpt lat="43.62033" lon="1.18692">
        <ele>254.2</ele>
        <time>2022-12-28T10:37:34Z</time>
      </trkpt>
      <trkpt lat="43.62032" lon="1.18718">
        <ele>253.2</ele>
        <time>2022-12-28T10:37:37Z</time>
      </trkpt>
      <trkpt lat="43.62027" lon="1.18751">
        <ele>252.2</ele>
        <time>2022-12-28T10:37:41Z</time>
      </trkpt>
      <trkpt lat="43.62027" lon="1.18758">
        <ele>252</ele>
        <time>2022-12-28T10:37:42Z</time>
      </trkpt>
      <trkpt lat="43.62029" lon="1.18762">
        <ele>251.6</ele>
        <time>2022-12-28T10:37:43Z</time>
      </trkpt>
      <trkpt lat="43.62033" lon="1.18764">
        <ele>251.2</ele>
        <time>2022-12-28T10:37:45Z</time>
      </trkpt>
      <trkpt lat="43.62035" lon="1.18764">
        <ele>250.6</ele>
        <time>2022-12-28T10:37:46Z</time>
      </trkpt>
      <trkpt lat="43.62035" lon="1.18764">
        <ele>250.4</ele>
        <time>2022-12-28T10:37:47Z</time>
      </trkpt>
      <trkpt lat="43.62048" lon="1.18764">
        <ele>250.6</ele>
        <time>2022-12-28T10:37:52Z</time>
      </trkpt>
      <trkpt lat="43.62069" lon="1.18768">
        <ele>251.8</ele>
        <time>2022-12-28T10:38:00Z</time>
      </trkpt>
      <trkpt lat="43.6207" lon="1.18769">
        <ele>251.8</ele>
        <time>2022-12-28T10:38:01Z</time>
      </trkpt>
      <trkpt lat="43.62083" lon="1.18772">
        <ele>252.4</ele>
        <time>2022-12-28T10:38:07Z</time>
      </trkpt>
      <trkpt lat="43.62096" lon="1.18775">
        <ele>253</ele>
        <time>2022-12-28T10:38:10Z</time>
      </trkpt>
      <trkpt lat="43.62104" lon="1.1878">
        <ele>253.4</ele>
        <time>2022-12-28T10:38:13Z</time>
      </trkpt>
      <trkpt lat="43.6213" lon="1.18777">
        <ele>254</ele>
        <time>2022-12-28T10:38:19Z</time>
      </trkpt>
      <trkpt lat="43.62142" lon="1.18772">
        <ele>254</ele>
        <time>2022-12-28T10:38:22Z</time>
      </trkpt>
      <trkpt lat="43.62163" lon="1.18759">
        <ele>254.2</ele>
        <time>2022-12-28T10:38:27Z</time>
      </trkpt>
      <trkpt lat="43.6219" lon="1.18742">
        <ele>255.2</ele>
        <time>2022-12-28T10:38:34Z</time>
      </trkpt>
      <trkpt lat="43.62203" lon="1.18737">
        <ele>255.6</ele>
        <time>2022-12-28T10:38:37Z</time>
      </trkpt>
      <trkpt lat="43.62221" lon="1.18712">
        <ele>256.2</ele>
        <time>2022-12-28T10:38:42Z</time>
      </trkpt>
      <trkpt lat="43.62225" lon="1.18708">
        <ele>256.4</ele>
        <time>2022-12-28T10:38:43Z</time>
      </trkpt>
      <trkpt lat="43.62241" lon="1.18686">
        <ele>257.6</ele>
        <time>2022-12-28T10:38:48Z</time>
      </trkpt>
      <trkpt lat="43.62259" lon="1.1866">
        <ele>259</ele>
        <time>2022-12-28T10:38:55Z</time>
      </trkpt>
      <trkpt lat="43.62267" lon="1.18649">
        <ele>259.4</ele>
        <time>2022-12-28T10:38:58Z</time>
      </trkpt>
      <trkpt lat="43.62274" lon="1.18635">
        <ele>260</ele>
        <time>2022-12-28T10:39:01Z</time>
      </trkpt>
      <trkpt lat="43.62289" lon="1.18615">
        <ele>261</ele>
        <time>2022-12-28T10:39:06Z</time>
      </trkpt>
      <trkpt lat="43.62292" lon="1.1861">
        <ele>261.2</ele>
        <time>2022-12-28T10:39:07Z</time>
      </trkpt>
      <trkpt lat="43.6231" lon="1.18579">
        <ele>262</ele>
        <time>2022-12-28T10:39:14Z</time>
      </trkpt>
      <trkpt lat="43.62313" lon="1.18574">
        <ele>262.4</ele>
        <time>2022-12-28T10:39:15Z</time>
      </trkpt>
      <trkpt lat="43.62326" lon="1.18555">
        <ele>263.2</ele>
        <time>2022-12-28T10:39:20Z</time>
      </trkpt>
      <trkpt lat="43.62328" lon="1.1855">
        <ele>264.2</ele>
        <time>2022-12-28T10:39:22Z</time>
      </trkpt>
      <trkpt lat="43.62339" lon="1.18533">
        <ele>265.2</ele>
        <time>2022-12-28T10:39:25Z</time>
      </trkpt>
      <trkpt lat="43.62351" lon="1.18511">
        <ele>266.4</ele>
        <time>2022-12-28T10:39:30Z</time>
      </trkpt>
      <trkpt lat="43.62365" lon="1.18489">
        <ele>267.4</ele>
        <time>2022-12-28T10:39:35Z</time>
      </trkpt>
      <trkpt lat="43.6237" lon="1.18479">
        <ele>267.8</ele>
        <time>2022-12-28T10:39:37Z</time>
      </trkpt>
      <trkpt lat="43.62374" lon="1.1847">
        <ele>268.8</ele>
        <time>2022-12-28T10:39:39Z</time>
      </trkpt>
      <trkpt lat="43.62382" lon="1.18458">
        <ele>269.8</ele>
        <time>2022-12-28T10:39:42Z</time>
      </trkpt>
      <trkpt lat="43.62382" lon="1.18458">
        <ele>269.8</ele>
        <time>2022-12-28T10:39:43Z</time>
      </trkpt>
      <trkpt lat="43.62401" lon="1.18428">
        <ele>271</ele>
        <time>2022-12-28T10:39:49Z</time>
      </trkpt>
      <trkpt lat="43.62418" lon="1.18394">
        <ele>271.8</ele>
        <time>2022-12-28T10:39:56Z</time>
      </trkpt>
      <trkpt lat="43.6242" lon="1.18389">
        <ele>272</ele>
        <time>2022-12-28T10:39:57Z</time>
      </trkpt>
      <trkpt lat="43.62434" lon="1.18358">
        <ele>272.6</ele>
        <time>2022-12-28T10:40:03Z</time>
      </trkpt>
      <trkpt lat="43.62439" lon="1.18346">
        <ele>273</ele>
        <time>2022-12-28T10:40:06Z</time>
      </trkpt>
      <trkpt lat="43.62442" lon="1.18334">
        <ele>273</ele>
        <time>2022-12-28T10:40:07Z</time>
      </trkpt>
      <trkpt lat="43.62441" lon="1.1833">
        <ele>273</ele>
        <time>2022-12-28T10:40:08Z</time>
      </trkpt>
      <trkpt lat="43.62439" lon="1.18327">
        <ele>273</ele>
        <time>2022-12-28T10:40:09Z</time>
      </trkpt>
      <trkpt lat="43.62429" lon="1.18321">
        <ele>273.4</ele>
        <time>2022-12-28T10:40:12Z</time>
      </trkpt>
      <trkpt lat="43.62417" lon="1.18316">
        <ele>274</ele>
        <time>2022-12-28T10:40:15Z</time>
      </trkpt>
      <trkpt lat="43.62401" lon="1.18303">
        <ele>275</ele>
        <time>2022-12-28T10:40:20Z</time>
      </trkpt>
      <trkpt lat="43.62398" lon="1.18302">
        <ele>275.4</ele>
        <time>2022-12-28T10:40:21Z</time>
      </trkpt>
      <trkpt lat="43.62374" lon="1.18288">
        <ele>276.4</ele>
        <time>2022-12-28T10:40:28Z</time>
      </trkpt>
      <trkpt lat="43.62343" lon="1.18273">
        <ele>277.2</ele>
        <time>2022-12-28T10:40:36Z</time>
      </trkpt>
      <trkpt lat="43.62325" lon="1.18258">
        <ele>277.2</ele>
        <time>2022-12-28T10:40:42Z</time>
      </trkpt>
      <trkpt lat="43.62329" lon="1.18238">
        <ele>277.2</ele>
        <time>2022-12-28T10:40:46Z</time>
      </trkpt>
      <trkpt lat="43.6234" lon="1.18195">
        <ele>277.4</ele>
        <time>2022-12-28T10:40:54Z</time>
      </trkpt>
      <trkpt lat="43.62348" lon="1.18183">
        <ele>277.6</ele>
        <time>2022-12-28T10:40:59Z</time>
      </trkpt>
      <trkpt lat="43.6235" lon="1.1818">
        <ele>277.6</ele>
        <time>2022-12-28T10:41:01Z</time>
      </trkpt>
      <trkpt lat="43.62351" lon="1.18176">
        <ele>277.6</ele>
        <time>2022-12-28T10:41:03Z</time>
      </trkpt>
      <trkpt lat="43.6235" lon="1.18175">
        <ele>277.6</ele>
        <time>2022-12-28T10:41:04Z</time>
      </trkpt>
      <trkpt lat="43.62347" lon="1.18176">
        <ele>277.6</ele>
        <time>2022-12-28T10:41:07Z</time>
      </trkpt>
      <trkpt lat="43.62347" lon="1.18177">
        <ele>277.6</ele>
        <time>2022-12-28T10:41:08Z</time>
      </trkpt>
      <trkpt lat="43.62347" lon="1.18177">
        <ele>277.6</ele>
        <time>2022-12-28T10:41:10Z</time>
      </trkpt>
      <trkpt lat="43.62349" lon="1.18179">
        <ele>277.4</ele>
        <time>2022-12-28T10:42:13Z</time>
      </trkpt>
      <trkpt lat="43.6235" lon="1.18177">
        <ele>277.4</ele>
        <time>2022-12-28T10:42:14Z</time>
      </trkpt>
      <trkpt lat="43.62352" lon="1.1816">
        <ele>277.6</ele>
        <time>2022-12-28T10:42:19Z</time>
      </trkpt>
      <trkpt lat="43.62356" lon="1.18139">
        <ele>277.6</ele>
        <time>2022-12-28T10:42:26Z</time>
      </trkpt>
      <trkpt lat="43.6236" lon="1.18122">
        <ele>277.6</ele>
        <time>2022-12-28T10:42:32Z</time>
      </trkpt>
      <trkpt lat="43.62365" lon="1.18101">
        <ele>277.6</ele>
        <time>2022-12-28T10:42:37Z</time>
      </trkpt>
      <trkpt lat="43.62372" lon="1.18071">
        <ele>277.4</ele>
        <time>2022-12-28T10:42:43Z</time>
      </trkpt>
      <trkpt lat="43.62373" lon="1.18064">
        <ele>277.2</ele>
        <time>2022-12-28T10:42:44Z</time>
      </trkpt>
      <trkpt lat="43.62378" lon="1.1804">
        <ele>277</ele>
        <time>2022-12-28T10:42:47Z</time>
      </trkpt>
      <trkpt lat="43.62384" lon="1.18017">
        <ele>275.8</ele>
        <time>2022-12-28T10:42:50Z</time>
      </trkpt>
      <trkpt lat="43.6239" lon="1.18008">
        <ele>275</ele>
        <time>2022-12-28T10:42:52Z</time>
      </trkpt>
      <trkpt lat="43.62395" lon="1.18006">
        <ele>274.6</ele>
        <time>2022-12-28T10:42:53Z</time>
      </trkpt>
      <trkpt lat="43.62399" lon="1.18005">
        <ele>274.2</ele>
        <time>2022-12-28T10:42:54Z</time>
      </trkpt>
      <trkpt lat="43.62404" lon="1.18005">
        <ele>274</ele>
        <time>2022-12-28T10:42:55Z</time>
      </trkpt>
      <trkpt lat="43.62408" lon="1.18005">
        <ele>273.4</ele>
        <time>2022-12-28T10:42:56Z</time>
      </trkpt>
      <trkpt lat="43.62442" lon="1.18007">
        <ele>272.6</ele>
        <time>2022-12-28T10:43:03Z</time>
      </trkpt>
      <trkpt lat="43.62447" lon="1.18009">
        <ele>272.8</ele>
        <time>2022-12-28T10:43:04Z</time>
      </trkpt>
      <trkpt lat="43.62469" lon="1.18016">
        <ele>273</ele>
        <time>2022-12-28T10:43:09Z</time>
      </trkpt>
      <trkpt lat="43.62499" lon="1.18035">
        <ele>273.2</ele>
        <time>2022-12-28T10:43:16Z</time>
      </trkpt>
      <trkpt lat="43.62533" lon="1.18056">
        <ele>272.8</ele>
        <time>2022-12-28T10:43:22Z</time>
      </trkpt>
      <trkpt lat="43.62539" lon="1.1806">
        <ele>272.4</ele>
        <time>2022-12-28T10:43:23Z</time>
      </trkpt>
      <trkpt lat="43.62575" lon="1.18086">
        <ele>271</ele>
        <time>2022-12-28T10:43:29Z</time>
      </trkpt>
      <trkpt lat="43.62583" lon="1.1809">
        <ele>270.6</ele>
        <time>2022-12-28T10:43:30Z</time>
      </trkpt>
      <trkpt lat="43.626" lon="1.18097">
        <ele>270</ele>
        <time>2022-12-28T10:43:32Z</time>
      </trkpt>
      <trkpt lat="43.62617" lon="1.18103">
        <ele>268.8</ele>
        <time>2022-12-28T10:43:34Z</time>
      </trkpt>
      <trkpt lat="43.62627" lon="1.18105">
        <ele>268.6</ele>
        <time>2022-12-28T10:43:35Z</time>
      </trkpt>
      <trkpt lat="43.62647" lon="1.18108">
        <ele>267.8</ele>
        <time>2022-12-28T10:43:37Z</time>
      </trkpt>
      <trkpt lat="43.62658" lon="1.1811">
        <ele>266.6</ele>
        <time>2022-12-28T10:43:38Z</time>
      </trkpt>
      <trkpt lat="43.62678" lon="1.18115">
        <ele>265</ele>
        <time>2022-12-28T10:43:40Z</time>
      </trkpt>
      <trkpt lat="43.62698" lon="1.1812">
        <ele>263.8</ele>
        <time>2022-12-28T10:43:42Z</time>
      </trkpt>
      <trkpt lat="43.62708" lon="1.18122">
        <ele>263</ele>
        <time>2022-12-28T10:43:43Z</time>
      </trkpt>
      <trkpt lat="43.62727" lon="1.18127">
        <ele>262.4</ele>
        <time>2022-12-28T10:43:44Z</time>
      </trkpt>
      <trkpt lat="43.62746" lon="1.18131">
        <ele>261.2</ele>
        <time>2022-12-28T10:43:47Z</time>
      </trkpt>
      <trkpt lat="43.62774" lon="1.18139">
        <ele>259.8</ele>
        <time>2022-12-28T10:43:50Z</time>
      </trkpt>
      <trkpt lat="43.62799" lon="1.18148">
        <ele>259</ele>
        <time>2022-12-28T10:43:53Z</time>
      </trkpt>
      <trkpt lat="43.62807" lon="1.1815">
        <ele>258.4</ele>
        <time>2022-12-28T10:43:54Z</time>
      </trkpt>
      <trkpt lat="43.62839" lon="1.1816">
        <ele>257.8</ele>
        <time>2022-12-28T10:43:58Z</time>
      </trkpt>
      <trkpt lat="43.62854" lon="1.18166">
        <ele>257.4</ele>
        <time>2022-12-28T10:44:00Z</time>
      </trkpt>
      <trkpt lat="43.62888" lon="1.18178">
        <ele>256.8</ele>
        <time>2022-12-28T10:44:05Z</time>
      </trkpt>
      <trkpt lat="43.62899" lon="1.18181">
        <ele>256.6</ele>
        <time>2022-12-28T10:44:08Z</time>
      </trkpt>
      <trkpt lat="43.62928" lon="1.18189">
        <ele>256</ele>
        <time>2022-12-28T10:44:12Z</time>
      </trkpt>
      <trkpt lat="43.62972" lon="1.18202">
        <ele>255.8</ele>
        <time>2022-12-28T10:44:20Z</time>
      </trkpt>
      <trkpt lat="43.62981" lon="1.182">
        <ele>255.8</ele>
        <time>2022-12-28T10:44:22Z</time>
      </trkpt>
      <trkpt lat="43.62985" lon="1.18197">
        <ele>255.8</ele>
        <time>2022-12-28T10:44:23Z</time>
      </trkpt>
      <trkpt lat="43.6299" lon="1.18191">
        <ele>255.8</ele>
        <time>2022-12-28T10:44:24Z</time>
      </trkpt>
      <trkpt lat="43.62996" lon="1.18178">
        <ele>256.2</ele>
        <time>2022-12-28T10:44:26Z</time>
      </trkpt>
      <trkpt lat="43.62997" lon="1.18173">
        <ele>256.4</ele>
        <time>2022-12-28T10:44:27Z</time>
      </trkpt>
      <trkpt lat="43.63004" lon="1.18152">
        <ele>257</ele>
        <time>2022-12-28T10:44:30Z</time>
      </trkpt>
      <trkpt lat="43.63008" lon="1.18143">
        <ele>257.2</ele>
        <time>2022-12-28T10:44:32Z</time>
      </trkpt>
      <trkpt lat="43.63011" lon="1.18138">
        <ele>257.4</ele>
        <time>2022-12-28T10:44:33Z</time>
      </trkpt>
      <trkpt lat="43.63015" lon="1.18128">
        <ele>258</ele>
        <time>2022-12-28T10:44:35Z</time>
      </trkpt>
      <trkpt lat="43.63021" lon="1.18115">
        <ele>259.2</ele>
        <time>2022-12-28T10:44:38Z</time>
      </trkpt>
      <trkpt lat="43.63027" lon="1.181">
        <ele>260.4</ele>
        <time>2022-12-28T10:44:41Z</time>
      </trkpt>
      <trkpt lat="43.63034" lon="1.18079">
        <ele>261.4</ele>
        <time>2022-12-28T10:44:45Z</time>
      </trkpt>
      <trkpt lat="43.63042" lon="1.18053">
        <ele>262.8</ele>
        <time>2022-12-28T10:44:51Z</time>
      </trkpt>
      <trkpt lat="43.63053" lon="1.18036">
        <ele>263.2</ele>
        <time>2022-12-28T10:44:56Z</time>
      </trkpt>
      <trkpt lat="43.63073" lon="1.18032">
        <ele>263.6</ele>
        <time>2022-12-28T10:45:01Z</time>
      </trkpt>
      <trkpt lat="43.63077" lon="1.18031">
        <ele>263.8</ele>
        <time>2022-12-28T10:45:02Z</time>
      </trkpt>
      <trkpt lat="43.63099" lon="1.18026">
        <ele>264.8</ele>
        <time>2022-12-28T10:45:08Z</time>
      </trkpt>
      <trkpt lat="43.63103" lon="1.18025">
        <ele>264.8</ele>
        <time>2022-12-28T10:45:09Z</time>
      </trkpt>
      <trkpt lat="43.63139" lon="1.18011">
        <ele>264.8</ele>
        <time>2022-12-28T10:45:17Z</time>
      </trkpt>
      <trkpt lat="43.63172" lon="1.17992">
        <ele>264.2</ele>
        <time>2022-12-28T10:45:25Z</time>
      </trkpt>
      <trkpt lat="43.63176" lon="1.1799">
        <ele>264.2</ele>
        <time>2022-12-28T10:45:26Z</time>
      </trkpt>
      <trkpt lat="43.63187" lon="1.17985">
        <ele>264</ele>
        <time>2022-12-28T10:45:29Z</time>
      </trkpt>
      <trkpt lat="43.63194" lon="1.17981">
        <ele>264</ele>
        <time>2022-12-28T10:45:31Z</time>
      </trkpt>
      <trkpt lat="43.6321" lon="1.17963">
        <ele>264.2</ele>
        <time>2022-12-28T10:45:36Z</time>
      </trkpt>
      <trkpt lat="43.63219" lon="1.1794">
        <ele>264.6</ele>
        <time>2022-12-28T10:45:41Z</time>
      </trkpt>
      <trkpt lat="43.6323" lon="1.17912">
        <ele>264.6</ele>
        <time>2022-12-28T10:45:47Z</time>
      </trkpt>
      <trkpt lat="43.63235" lon="1.17895">
        <ele>264.2</ele>
        <time>2022-12-28T10:45:50Z</time>
      </trkpt>
      <trkpt lat="43.63237" lon="1.17882">
        <ele>263.8</ele>
        <time>2022-12-28T10:45:52Z</time>
      </trkpt>
      <trkpt lat="43.63238" lon="1.17867">
        <ele>262.4</ele>
        <time>2022-12-28T10:45:54Z</time>
      </trkpt>
      <trkpt lat="43.6324" lon="1.17853">
        <ele>260.8</ele>
        <time>2022-12-28T10:45:56Z</time>
      </trkpt>
      <trkpt lat="43.63242" lon="1.17839">
        <ele>259.8</ele>
        <time>2022-12-28T10:45:58Z</time>
      </trkpt>
      <trkpt lat="43.63243" lon="1.17831">
        <ele>259.2</ele>
        <time>2022-12-28T10:45:59Z</time>
      </trkpt>
      <trkpt lat="43.63245" lon="1.17823">
        <ele>257.8</ele>
        <time>2022-12-28T10:46:00Z</time>
      </trkpt>
      <trkpt lat="43.63249" lon="1.17806">
        <ele>256</ele>
        <time>2022-12-28T10:46:02Z</time>
      </trkpt>
      <trkpt lat="43.63249" lon="1.178">
        <ele>255</ele>
        <time>2022-12-28T10:46:03Z</time>
      </trkpt>
      <trkpt lat="43.6325" lon="1.17792">
        <ele>254.8</ele>
        <time>2022-12-28T10:46:04Z</time>
      </trkpt>
      <trkpt lat="43.63253" lon="1.17777">
        <ele>253.6</ele>
        <time>2022-12-28T10:46:06Z</time>
      </trkpt>
      <trkpt lat="43.63257" lon="1.17761">
        <ele>252.8</ele>
        <time>2022-12-28T10:46:08Z</time>
      </trkpt>
      <trkpt lat="43.63261" lon="1.17754">
        <ele>252</ele>
        <time>2022-12-28T10:46:09Z</time>
      </trkpt>
      <trkpt lat="43.63266" lon="1.17746">
        <ele>251.4</ele>
        <time>2022-12-28T10:46:10Z</time>
      </trkpt>
      <trkpt lat="43.63271" lon="1.1774">
        <ele>250.2</ele>
        <time>2022-12-28T10:46:11Z</time>
      </trkpt>
      <trkpt lat="43.63278" lon="1.17729">
        <ele>249</ele>
        <time>2022-12-28T10:46:12Z</time>
      </trkpt>
      <trkpt lat="43.6329" lon="1.17711">
        <ele>247.6</ele>
        <time>2022-12-28T10:46:14Z</time>
      </trkpt>
      <trkpt lat="43.633" lon="1.17692">
        <ele>245.6</ele>
        <time>2022-12-28T10:46:16Z</time>
      </trkpt>
      <trkpt lat="43.63312" lon="1.17671">
        <ele>244.4</ele>
        <time>2022-12-28T10:46:18Z</time>
      </trkpt>
      <trkpt lat="43.63322" lon="1.17655">
        <ele>243.6</ele>
        <time>2022-12-28T10:46:20Z</time>
      </trkpt>
      <trkpt lat="43.63327" lon="1.17647">
        <ele>242.6</ele>
        <time>2022-12-28T10:46:21Z</time>
      </trkpt>
      <trkpt lat="43.63336" lon="1.17632">
        <ele>240.8</ele>
        <time>2022-12-28T10:46:23Z</time>
      </trkpt>
      <trkpt lat="43.63345" lon="1.17621">
        <ele>239.6</ele>
        <time>2022-12-28T10:46:25Z</time>
      </trkpt>
      <trkpt lat="43.63349" lon="1.17614">
        <ele>239.4</ele>
        <time>2022-12-28T10:46:26Z</time>
      </trkpt>
      <trkpt lat="43.63354" lon="1.17607">
        <ele>238.8</ele>
        <time>2022-12-28T10:46:27Z</time>
      </trkpt>
      <trkpt lat="43.63359" lon="1.176">
        <ele>238.4</ele>
        <time>2022-12-28T10:46:28Z</time>
      </trkpt>
      <trkpt lat="43.63363" lon="1.17594">
        <ele>237.2</ele>
        <time>2022-12-28T10:46:29Z</time>
      </trkpt>
      <trkpt lat="43.63371" lon="1.17582">
        <ele>235.8</ele>
        <time>2022-12-28T10:46:31Z</time>
      </trkpt>
      <trkpt lat="43.6338" lon="1.17568">
        <ele>234.6</ele>
        <time>2022-12-28T10:46:33Z</time>
      </trkpt>
      <trkpt lat="43.63384" lon="1.17564">
        <ele>233.6</ele>
        <time>2022-12-28T10:46:34Z</time>
      </trkpt>
      <trkpt lat="43.63394" lon="1.17551">
        <ele>232.4</ele>
        <time>2022-12-28T10:46:36Z</time>
      </trkpt>
      <trkpt lat="43.63399" lon="1.17544">
        <ele>232.2</ele>
        <time>2022-12-28T10:46:37Z</time>
      </trkpt>
      <trkpt lat="43.63404" lon="1.17538">
        <ele>230.8</ele>
        <time>2022-12-28T10:46:38Z</time>
      </trkpt>
      <trkpt lat="43.63407" lon="1.17533">
        <ele>229.4</ele>
        <time>2022-12-28T10:46:39Z</time>
      </trkpt>
      <trkpt lat="43.63416" lon="1.17521">
        <ele>228</ele>
        <time>2022-12-28T10:46:41Z</time>
      </trkpt>
      <trkpt lat="43.63423" lon="1.17511">
        <ele>225.8</ele>
        <time>2022-12-28T10:46:43Z</time>
      </trkpt>
      <trkpt lat="43.63426" lon="1.17506">
        <ele>225</ele>
        <time>2022-12-28T10:46:44Z</time>
      </trkpt>
      <trkpt lat="43.63428" lon="1.175">
        <ele>224</ele>
        <time>2022-12-28T10:46:45Z</time>
      </trkpt>
      <trkpt lat="43.63435" lon="1.17485">
        <ele>222.6</ele>
        <time>2022-12-28T10:46:47Z</time>
      </trkpt>
      <trkpt lat="43.63438" lon="1.1748">
        <ele>220.6</ele>
        <time>2022-12-28T10:46:48Z</time>
      </trkpt>
      <trkpt lat="43.63446" lon="1.17467">
        <ele>219</ele>
        <time>2022-12-28T10:46:50Z</time>
      </trkpt>
      <trkpt lat="43.63453" lon="1.17455">
        <ele>217.8</ele>
        <time>2022-12-28T10:46:52Z</time>
      </trkpt>
      <trkpt lat="43.63459" lon="1.17445">
        <ele>215.4</ele>
        <time>2022-12-28T10:46:54Z</time>
      </trkpt>
      <trkpt lat="43.63463" lon="1.1744">
        <ele>214.8</ele>
        <time>2022-12-28T10:46:55Z</time>
      </trkpt>
      <trkpt lat="43.63468" lon="1.17436">
        <ele>213.4</ele>
        <time>2022-12-28T10:46:56Z</time>
      </trkpt>
      <trkpt lat="43.63472" lon="1.17432">
        <ele>212.2</ele>
        <time>2022-12-28T10:46:57Z</time>
      </trkpt>
      <trkpt lat="43.63483" lon="1.17424">
        <ele>210.4</ele>
        <time>2022-12-28T10:46:59Z</time>
      </trkpt>
      <trkpt lat="43.63489" lon="1.17419">
        <ele>209.2</ele>
        <time>2022-12-28T10:47:00Z</time>
      </trkpt>
      <trkpt lat="43.63495" lon="1.17415">
        <ele>207.6</ele>
        <time>2022-12-28T10:47:01Z</time>
      </trkpt>
      <trkpt lat="43.63507" lon="1.17407">
        <ele>205.8</ele>
        <time>2022-12-28T10:47:03Z</time>
      </trkpt>
      <trkpt lat="43.63516" lon="1.17399">
        <ele>203.4</ele>
        <time>2022-12-28T10:47:05Z</time>
      </trkpt>
      <trkpt lat="43.6352" lon="1.17393">
        <ele>202</ele>
        <time>2022-12-28T10:47:06Z</time>
      </trkpt>
      <trkpt lat="43.63524" lon="1.17386">
        <ele>201.4</ele>
        <time>2022-12-28T10:47:07Z</time>
      </trkpt>
      <trkpt lat="43.63527" lon="1.17378">
        <ele>200.4</ele>
        <time>2022-12-28T10:47:08Z</time>
      </trkpt>
      <trkpt lat="43.6353" lon="1.1737">
        <ele>198.8</ele>
        <time>2022-12-28T10:47:10Z</time>
      </trkpt>
      <trkpt lat="43.63542" lon="1.17342">
        <ele>197.8</ele>
        <time>2022-12-28T10:47:12Z</time>
      </trkpt>
      <trkpt lat="43.63546" lon="1.17332">
        <ele>197.4</ele>
        <time>2022-12-28T10:47:13Z</time>
      </trkpt>
      <trkpt lat="43.6355" lon="1.17323">
        <ele>196.8</ele>
        <time>2022-12-28T10:47:14Z</time>
      </trkpt>
      <trkpt lat="43.63553" lon="1.17315">
        <ele>195.6</ele>
        <time>2022-12-28T10:47:15Z</time>
      </trkpt>
      <trkpt lat="43.6356" lon="1.17298">
        <ele>193.8</ele>
        <time>2022-12-28T10:47:17Z</time>
      </trkpt>
      <trkpt lat="43.63563" lon="1.1729">
        <ele>193.4</ele>
        <time>2022-12-28T10:47:18Z</time>
      </trkpt>
      <trkpt lat="43.63567" lon="1.17282">
        <ele>192.4</ele>
        <time>2022-12-28T10:47:19Z</time>
      </trkpt>
      <trkpt lat="43.63573" lon="1.17265">
        <ele>190.6</ele>
        <time>2022-12-28T10:47:21Z</time>
      </trkpt>
      <trkpt lat="43.63581" lon="1.1725">
        <ele>189.4</ele>
        <time>2022-12-28T10:47:23Z</time>
      </trkpt>
      <trkpt lat="43.63585" lon="1.17243">
        <ele>189</ele>
        <time>2022-12-28T10:47:24Z</time>
      </trkpt>
      <trkpt lat="43.63589" lon="1.17237">
        <ele>188.8</ele>
        <time>2022-12-28T10:47:25Z</time>
      </trkpt>
      <trkpt lat="43.63601" lon="1.17222">
        <ele>188.6</ele>
        <time>2022-12-28T10:47:28Z</time>
      </trkpt>
      <trkpt lat="43.63618" lon="1.17211">
        <ele>188.4</ele>
        <time>2022-12-28T10:47:32Z</time>
      </trkpt>
      <trkpt lat="43.63622" lon="1.17207">
        <ele>188.4</ele>
        <time>2022-12-28T10:47:33Z</time>
      </trkpt>
      <trkpt lat="43.63625" lon="1.17203">
        <ele>188.4</ele>
        <time>2022-12-28T10:47:34Z</time>
      </trkpt>
      <trkpt lat="43.63631" lon="1.17194">
        <ele>188.4</ele>
        <time>2022-12-28T10:47:36Z</time>
      </trkpt>
      <trkpt lat="43.63637" lon="1.17185">
        <ele>188.4</ele>
        <time>2022-12-28T10:47:38Z</time>
      </trkpt>
      <trkpt lat="43.63645" lon="1.17177">
        <ele>188.2</ele>
        <time>2022-12-28T10:47:40Z</time>
      </trkpt>
      <trkpt lat="43.63655" lon="1.17164">
        <ele>187.8</ele>
        <time>2022-12-28T10:47:43Z</time>
      </trkpt>
      <trkpt lat="43.63668" lon="1.17148">
        <ele>187.4</ele>
        <time>2022-12-28T10:47:46Z</time>
      </trkpt>
      <trkpt lat="43.6368" lon="1.1713">
        <ele>187.2</ele>
        <time>2022-12-28T10:47:49Z</time>
      </trkpt>
      <trkpt lat="43.63685" lon="1.17124">
        <ele>186.8</ele>
        <time>2022-12-28T10:47:50Z</time>
      </trkpt>
      <trkpt lat="43.63699" lon="1.17107">
        <ele>186.2</ele>
        <time>2022-12-28T10:47:53Z</time>
      </trkpt>
      <trkpt lat="43.63704" lon="1.17102">
        <ele>186.4</ele>
        <time>2022-12-28T10:47:54Z</time>
      </trkpt>
      <trkpt lat="43.63713" lon="1.1709">
        <ele>186</ele>
        <time>2022-12-28T10:47:56Z</time>
      </trkpt>
      <trkpt lat="43.63728" lon="1.17067">
        <ele>185.6</ele>
        <time>2022-12-28T10:48:00Z</time>
      </trkpt>
      <trkpt lat="43.63735" lon="1.17057">
        <ele>185.4</ele>
        <time>2022-12-28T10:48:02Z</time>
      </trkpt>
      <trkpt lat="43.63749" lon="1.1704">
        <ele>184.8</ele>
        <time>2022-12-28T10:48:06Z</time>
      </trkpt>
      <trkpt lat="43.63755" lon="1.17031">
        <ele>184.4</ele>
        <time>2022-12-28T10:48:08Z</time>
      </trkpt>
      <trkpt lat="43.63758" lon="1.17027">
        <ele>184.2</ele>
        <time>2022-12-28T10:48:09Z</time>
      </trkpt>
      <trkpt lat="43.63773" lon="1.17009">
        <ele>183.6</ele>
        <time>2022-12-28T10:48:13Z</time>
      </trkpt>
      <trkpt lat="43.6378" lon="1.16997">
        <ele>183.4</ele>
        <time>2022-12-28T10:48:15Z</time>
      </trkpt>
      <trkpt lat="43.63793" lon="1.16978">
        <ele>183.2</ele>
        <time>2022-12-28T10:48:18Z</time>
      </trkpt>
      <trkpt lat="43.63799" lon="1.16966">
        <ele>183</ele>
        <time>2022-12-28T10:48:20Z</time>
      </trkpt>
      <trkpt lat="43.63808" lon="1.16963">
        <ele>182.6</ele>
        <time>2022-12-28T10:48:22Z</time>
      </trkpt>
      <trkpt lat="43.63818" lon="1.16966">
        <ele>182.2</ele>
        <time>2022-12-28T10:48:24Z</time>
      </trkpt>
      <trkpt lat="43.63827" lon="1.16973">
        <ele>182</ele>
        <time>2022-12-28T10:48:26Z</time>
      </trkpt>
      <trkpt lat="43.63841" lon="1.16984">
        <ele>181.8</ele>
        <time>2022-12-28T10:48:30Z</time>
      </trkpt>
      <trkpt lat="43.63843" lon="1.16987">
        <ele>182</ele>
        <time>2022-12-28T10:48:31Z</time>
      </trkpt>
      <trkpt lat="43.63843" lon="1.16993">
        <ele>182</ele>
        <time>2022-12-28T10:48:33Z</time>
      </trkpt>
      <trkpt lat="43.63836" lon="1.17017">
        <ele>182.6</ele>
        <time>2022-12-28T10:48:38Z</time>
      </trkpt>
      <trkpt lat="43.63836" lon="1.17023">
        <ele>182.8</ele>
        <time>2022-12-28T10:48:39Z</time>
      </trkpt>
      <trkpt lat="43.6384" lon="1.17036">
        <ele>183</ele>
        <time>2022-12-28T10:48:41Z</time>
      </trkpt>
      <trkpt lat="43.6385" lon="1.17052">
        <ele>183.4</ele>
        <time>2022-12-28T10:48:44Z</time>
      </trkpt>
      <trkpt lat="43.63858" lon="1.17062">
        <ele>183.6</ele>
        <time>2022-12-28T10:48:46Z</time>
      </trkpt>
      <trkpt lat="43.63878" lon="1.17095">
        <ele>183.8</ele>
        <time>2022-12-28T10:48:52Z</time>
      </trkpt>
      <trkpt lat="43.63882" lon="1.17101">
        <ele>183.8</ele>
        <time>2022-12-28T10:48:53Z</time>
      </trkpt>
      <trkpt lat="43.63898" lon="1.17128">
        <ele>184</ele>
        <time>2022-12-28T10:48:58Z</time>
      </trkpt>
      <trkpt lat="43.63915" lon="1.17155">
        <ele>184.4</ele>
        <time>2022-12-28T10:49:03Z</time>
      </trkpt>
      <trkpt lat="43.63919" lon="1.1716">
        <ele>184.4</ele>
        <time>2022-12-28T10:49:04Z</time>
      </trkpt>
      <trkpt lat="43.63926" lon="1.17167">
        <ele>184.6</ele>
        <time>2022-12-28T10:49:06Z</time>
      </trkpt>
      <trkpt lat="43.63936" lon="1.17179">
        <ele>184.6</ele>
        <time>2022-12-28T10:49:09Z</time>
      </trkpt>
      <trkpt lat="43.63947" lon="1.1719">
        <ele>184.8</ele>
        <time>2022-12-28T10:49:12Z</time>
      </trkpt>
      <trkpt lat="43.63981" lon="1.17227">
        <ele>185.2</ele>
        <time>2022-12-28T10:49:21Z</time>
      </trkpt>
      <trkpt lat="43.64005" lon="1.17249">
        <ele>185.2</ele>
        <time>2022-12-28T10:49:26Z</time>
      </trkpt>
      <trkpt lat="43.64035" lon="1.17283">
        <ele>184.2</ele>
        <time>2022-12-28T10:49:33Z</time>
      </trkpt>
      <trkpt lat="43.64039" lon="1.17291">
        <ele>184</ele>
        <time>2022-12-28T10:49:36Z</time>
      </trkpt>
      <trkpt lat="43.64042" lon="1.17301">
        <ele>183.6</ele>
        <time>2022-12-28T10:49:40Z</time>
      </trkpt>
      <trkpt lat="43.64044" lon="1.17308">
        <ele>183.4</ele>
        <time>2022-12-28T10:49:42Z</time>
      </trkpt>
      <trkpt lat="43.64051" lon="1.17332">
        <ele>183.2</ele>
        <time>2022-12-28T10:49:48Z</time>
      </trkpt>
      <trkpt lat="43.64065" lon="1.17373">
        <ele>183.2</ele>
        <time>2022-12-28T10:49:55Z</time>
      </trkpt>
      <trkpt lat="43.64067" lon="1.17378">
        <ele>183.2</ele>
        <time>2022-12-28T10:49:56Z</time>
      </trkpt>
      <trkpt lat="43.64078" lon="1.17418">
        <ele>183.4</ele>
        <time>2022-12-28T10:50:02Z</time>
      </trkpt>
      <trkpt lat="43.64089" lon="1.17471">
        <ele>185</ele>
        <time>2022-12-28T10:50:10Z</time>
      </trkpt>
      <trkpt lat="43.64101" lon="1.17527">
        <ele>185.4</ele>
        <time>2022-12-28T10:50:18Z</time>
      </trkpt>
      <trkpt lat="43.6411" lon="1.17573">
        <ele>185.4</ele>
        <time>2022-12-28T10:50:25Z</time>
      </trkpt>
      <trkpt lat="43.64115" lon="1.176">
        <ele>185.8</ele>
        <time>2022-12-28T10:50:29Z</time>
      </trkpt>
      <trkpt lat="43.64117" lon="1.17606">
        <ele>186</ele>
        <time>2022-12-28T10:50:30Z</time>
      </trkpt>
      <trkpt lat="43.6412" lon="1.17622">
        <ele>186.2</ele>
        <time>2022-12-28T10:50:33Z</time>
      </trkpt>
      <trkpt lat="43.64128" lon="1.17648">
        <ele>186.8</ele>
        <time>2022-12-28T10:50:37Z</time>
      </trkpt>
      <trkpt lat="43.64134" lon="1.17659">
        <ele>187</ele>
        <time>2022-12-28T10:50:39Z</time>
      </trkpt>
      <trkpt lat="43.64142" lon="1.17675">
        <ele>187</ele>
        <time>2022-12-28T10:50:42Z</time>
      </trkpt>
      <trkpt lat="43.64155" lon="1.17696">
        <ele>186.6</ele>
        <time>2022-12-28T10:50:46Z</time>
      </trkpt>
      <trkpt lat="43.6418" lon="1.17737">
        <ele>186.4</ele>
        <time>2022-12-28T10:50:53Z</time>
      </trkpt>
      <trkpt lat="43.6419" lon="1.17755">
        <ele>186.4</ele>
        <time>2022-12-28T10:50:56Z</time>
      </trkpt>
      <trkpt lat="43.64207" lon="1.1778">
        <ele>186.8</ele>
        <time>2022-12-28T10:51:01Z</time>
      </trkpt>
      <trkpt lat="43.6421" lon="1.17785">
        <ele>187</ele>
        <time>2022-12-28T10:51:02Z</time>
      </trkpt>
      <trkpt lat="43.64217" lon="1.17796">
        <ele>187.2</ele>
        <time>2022-12-28T10:51:04Z</time>
      </trkpt>
      <trkpt lat="43.64227" lon="1.17812">
        <ele>187.4</ele>
        <time>2022-12-28T10:51:07Z</time>
      </trkpt>
      <trkpt lat="43.64251" lon="1.17848">
        <ele>188.6</ele>
        <time>2022-12-28T10:51:14Z</time>
      </trkpt>
      <trkpt lat="43.64265" lon="1.1787">
        <ele>189.4</ele>
        <time>2022-12-28T10:51:18Z</time>
      </trkpt>
      <trkpt lat="43.64305" lon="1.17929">
        <ele>188.8</ele>
        <time>2022-12-28T10:51:29Z</time>
      </trkpt>
      <trkpt lat="43.64337" lon="1.1796">
        <ele>189</ele>
        <time>2022-12-28T10:51:36Z</time>
      </trkpt>
      <trkpt lat="43.6438" lon="1.17999">
        <ele>189.6</ele>
        <time>2022-12-28T10:51:46Z</time>
      </trkpt>
      <trkpt lat="43.64389" lon="1.18008">
        <ele>189.8</ele>
        <time>2022-12-28T10:51:48Z</time>
      </trkpt>
      <trkpt lat="43.64425" lon="1.18044">
        <ele>190.2</ele>
        <time>2022-12-28T10:51:56Z</time>
      </trkpt>
      <trkpt lat="43.6446" lon="1.18083">
        <ele>190.4</ele>
        <time>2022-12-28T10:52:05Z</time>
      </trkpt>
      <trkpt lat="43.64477" lon="1.18104">
        <ele>191</ele>
        <time>2022-12-28T10:52:10Z</time>
      </trkpt>
      <trkpt lat="43.64488" lon="1.18114">
        <ele>191.6</ele>
        <time>2022-12-28T10:52:13Z</time>
      </trkpt>
      <trkpt lat="43.64494" lon="1.18121">
        <ele>192.2</ele>
        <time>2022-12-28T10:52:15Z</time>
      </trkpt>
      <trkpt lat="43.64505" lon="1.18134">
        <ele>193</ele>
        <time>2022-12-28T10:52:19Z</time>
      </trkpt>
      <trkpt lat="43.64509" lon="1.18141">
        <ele>193.4</ele>
        <time>2022-12-28T10:52:21Z</time>
      </trkpt>
      <trkpt lat="43.64513" lon="1.18156">
        <ele>193.6</ele>
        <time>2022-12-28T10:52:24Z</time>
      </trkpt>
      <trkpt lat="43.6451" lon="1.18181">
        <ele>194</ele>
        <time>2022-12-28T10:52:29Z</time>
      </trkpt>
      <trkpt lat="43.64506" lon="1.18197">
        <ele>194.4</ele>
        <time>2022-12-28T10:52:34Z</time>
      </trkpt>
      <trkpt lat="43.64503" lon="1.18212">
        <ele>195.4</ele>
        <time>2022-12-28T10:52:38Z</time>
      </trkpt>
      <trkpt lat="43.64502" lon="1.18219">
        <ele>196</ele>
        <time>2022-12-28T10:52:40Z</time>
      </trkpt>
      <trkpt lat="43.64501" lon="1.18225">
        <ele>196.8</ele>
        <time>2022-12-28T10:52:42Z</time>
      </trkpt>
      <trkpt lat="43.64499" lon="1.18236">
        <ele>197.8</ele>
        <time>2022-12-28T10:52:45Z</time>
      </trkpt>
      <trkpt lat="43.64498" lon="1.1824">
        <ele>198.2</ele>
        <time>2022-12-28T10:52:46Z</time>
      </trkpt>
      <trkpt lat="43.64495" lon="1.18252">
        <ele>199.2</ele>
        <time>2022-12-28T10:52:49Z</time>
      </trkpt>
      <trkpt lat="43.64494" lon="1.18261">
        <ele>199.4</ele>
        <time>2022-12-28T10:52:51Z</time>
      </trkpt>
      <trkpt lat="43.64492" lon="1.18276">
        <ele>200.2</ele>
        <time>2022-12-28T10:52:54Z</time>
      </trkpt>
      <trkpt lat="43.64489" lon="1.18291">
        <ele>200.8</ele>
        <time>2022-12-28T10:52:57Z</time>
      </trkpt>
      <trkpt lat="43.64488" lon="1.18302">
        <ele>201.2</ele>
        <time>2022-12-28T10:52:59Z</time>
      </trkpt>
      <trkpt lat="43.64484" lon="1.18339">
        <ele>202.4</ele>
        <time>2022-12-28T10:53:05Z</time>
      </trkpt>
      <trkpt lat="43.64489" lon="1.18362">
        <ele>202.8</ele>
        <time>2022-12-28T10:53:09Z</time>
      </trkpt>
      <trkpt lat="43.64492" lon="1.18367">
        <ele>202.8</ele>
        <time>2022-12-28T10:53:10Z</time>
      </trkpt>
      <trkpt lat="43.64494" lon="1.18372">
        <ele>202.8</ele>
        <time>2022-12-28T10:53:11Z</time>
      </trkpt>
      <trkpt lat="43.64505" lon="1.18382">
        <ele>203</ele>
        <time>2022-12-28T10:53:15Z</time>
      </trkpt>
      <trkpt lat="43.64511" lon="1.18389">
        <ele>203.4</ele>
        <time>2022-12-28T10:53:18Z</time>
      </trkpt>
      <trkpt lat="43.64517" lon="1.18397">
        <ele>204.6</ele>
        <time>2022-12-28T10:53:22Z</time>
      </trkpt>
      <trkpt lat="43.64524" lon="1.18405">
        <ele>205.6</ele>
        <time>2022-12-28T10:53:26Z</time>
      </trkpt>
      <trkpt lat="43.64531" lon="1.18412">
        <ele>206.8</ele>
        <time>2022-12-28T10:53:29Z</time>
      </trkpt>
      <trkpt lat="43.64533" lon="1.18414">
        <ele>207.4</ele>
        <time>2022-12-28T10:53:30Z</time>
      </trkpt>
      <trkpt lat="43.64535" lon="1.18419">
        <ele>208.2</ele>
        <time>2022-12-28T10:53:32Z</time>
      </trkpt>
      <trkpt lat="43.64537" lon="1.18427">
        <ele>209.6</ele>
        <time>2022-12-28T10:53:35Z</time>
      </trkpt>
      <trkpt lat="43.64536" lon="1.18434">
        <ele>210.8</ele>
        <time>2022-12-28T10:53:38Z</time>
      </trkpt>
      <trkpt lat="43.64534" lon="1.18439">
        <ele>211.8</ele>
        <time>2022-12-28T10:53:41Z</time>
      </trkpt>
      <trkpt lat="43.64533" lon="1.1844">
        <ele>212.2</ele>
        <time>2022-12-28T10:53:42Z</time>
      </trkpt>
      <trkpt lat="43.64529" lon="1.18447">
        <ele>213</ele>
        <time>2022-12-28T10:53:46Z</time>
      </trkpt>
      <trkpt lat="43.64527" lon="1.1845">
        <ele>213.4</ele>
        <time>2022-12-28T10:53:48Z</time>
      </trkpt>
      <trkpt lat="43.64523" lon="1.18456">
        <ele>214</ele>
        <time>2022-12-28T10:53:53Z</time>
      </trkpt>
      <trkpt lat="43.64522" lon="1.18458">
        <ele>214.2</ele>
        <time>2022-12-28T10:53:55Z</time>
      </trkpt>
      <trkpt lat="43.64518" lon="1.18462">
        <ele>214.6</ele>
        <time>2022-12-28T10:54:01Z</time>
      </trkpt>
      <trkpt lat="43.64517" lon="1.18465">
        <ele>214.8</ele>
        <time>2022-12-28T10:54:03Z</time>
      </trkpt>
      <trkpt lat="43.6452" lon="1.18465">
        <ele>215</ele>
        <time>2022-12-28T10:54:08Z</time>
      </trkpt>
      <trkpt lat="43.64518" lon="1.18463">
        <ele>215</ele>
        <time>2022-12-28T10:54:10Z</time>
      </trkpt>
      <trkpt lat="43.64516" lon="1.18464">
        <ele>215</ele>
        <time>2022-12-28T10:54:12Z</time>
      </trkpt>
      <trkpt lat="43.64516" lon="1.18466">
        <ele>215</ele>
        <time>2022-12-28T10:54:13Z</time>
      </trkpt>
      <trkpt lat="43.64515" lon="1.18468">
        <ele>215</ele>
        <time>2022-12-28T10:54:14Z</time>
      </trkpt>
      <trkpt lat="43.64513" lon="1.18474">
        <ele>215</ele>
        <time>2022-12-28T10:54:17Z</time>
      </trkpt>
      <trkpt lat="43.64512" lon="1.18476">
        <ele>215</ele>
        <time>2022-12-28T10:54:18Z</time>
      </trkpt>
      <trkpt lat="43.6451" lon="1.1848">
        <ele>215</ele>
        <time>2022-12-28T10:54:20Z</time>
      </trkpt>
      <trkpt lat="43.64506" lon="1.18486">
        <ele>215.4</ele>
        <time>2022-12-28T10:54:22Z</time>
      </trkpt>
      <trkpt lat="43.64504" lon="1.18489">
        <ele>215.6</ele>
        <time>2022-12-28T10:54:23Z</time>
      </trkpt>
      <trkpt lat="43.64497" lon="1.18501">
        <ele>216.2</ele>
        <time>2022-12-28T10:54:26Z</time>
      </trkpt>
      <trkpt lat="43.64495" lon="1.18504">
        <ele>216.4</ele>
        <time>2022-12-28T10:54:27Z</time>
      </trkpt>
      <trkpt lat="43.64486" lon="1.18521">
        <ele>217.2</ele>
        <time>2022-12-28T10:54:32Z</time>
      </trkpt>
      <trkpt lat="43.64484" lon="1.18525">
        <ele>217.4</ele>
        <time>2022-12-28T10:54:33Z</time>
      </trkpt>
      <trkpt lat="43.64476" lon="1.18544">
        <ele>218.4</ele>
        <time>2022-12-28T10:54:37Z</time>
      </trkpt>
      <trkpt lat="43.64476" lon="1.18544">
        <ele>218.6</ele>
        <time>2022-12-28T10:54:38Z</time>
      </trkpt>
      <trkpt lat="43.6446" lon="1.18579">
        <ele>219.6</ele>
        <time>2022-12-28T10:54:43Z</time>
      </trkpt>
      <trkpt lat="43.64444" lon="1.18614">
        <ele>220.6</ele>
        <time>2022-12-28T10:54:49Z</time>
      </trkpt>
      <trkpt lat="43.64442" lon="1.18621">
        <ele>221</ele>
        <time>2022-12-28T10:54:50Z</time>
      </trkpt>
      <trkpt lat="43.64428" lon="1.18649">
        <ele>222</ele>
        <time>2022-12-28T10:54:55Z</time>
      </trkpt>
      <trkpt lat="43.64426" lon="1.18653">
        <ele>222</ele>
        <time>2022-12-28T10:54:56Z</time>
      </trkpt>
      <trkpt lat="43.64418" lon="1.18668">
        <ele>223.6</ele>
        <time>2022-12-28T10:54:59Z</time>
      </trkpt>
      <trkpt lat="43.64418" lon="1.18671">
        <ele>223.6</ele>
        <time>2022-12-28T10:55:00Z</time>
      </trkpt>
      <trkpt lat="43.64409" lon="1.18693">
        <ele>224.6</ele>
        <time>2022-12-28T10:55:04Z</time>
      </trkpt>
      <trkpt lat="43.64401" lon="1.18708">
        <ele>225.6</ele>
        <time>2022-12-28T10:55:07Z</time>
      </trkpt>
      <trkpt lat="43.64392" lon="1.18726">
        <ele>226.6</ele>
        <time>2022-12-28T10:55:12Z</time>
      </trkpt>
      <trkpt lat="43.64384" lon="1.18745">
        <ele>227.8</ele>
        <time>2022-12-28T10:55:16Z</time>
      </trkpt>
      <trkpt lat="43.64379" lon="1.18761">
        <ele>228.8</ele>
        <time>2022-12-28T10:55:20Z</time>
      </trkpt>
      <trkpt lat="43.64378" lon="1.18764">
        <ele>229.2</ele>
        <time>2022-12-28T10:55:21Z</time>
      </trkpt>
      <trkpt lat="43.64374" lon="1.18786">
        <ele>230.2</ele>
        <time>2022-12-28T10:55:26Z</time>
      </trkpt>
      <trkpt lat="43.6437" lon="1.18802">
        <ele>231.2</ele>
        <time>2022-12-28T10:55:30Z</time>
      </trkpt>
      <trkpt lat="43.64366" lon="1.18821">
        <ele>232</ele>
        <time>2022-12-28T10:55:35Z</time>
      </trkpt>
      <trkpt lat="43.64363" lon="1.18834">
        <ele>232.4</ele>
        <time>2022-12-28T10:55:38Z</time>
      </trkpt>
      <trkpt lat="43.6436" lon="1.18847">
        <ele>233.2</ele>
        <time>2022-12-28T10:55:41Z</time>
      </trkpt>
      <trkpt lat="43.64358" lon="1.18854">
        <ele>233.6</ele>
        <time>2022-12-28T10:55:43Z</time>
      </trkpt>
      <trkpt lat="43.64351" lon="1.18877">
        <ele>234.6</ele>
        <time>2022-12-28T10:55:49Z</time>
      </trkpt>
      <trkpt lat="43.64349" lon="1.18881">
        <ele>234.8</ele>
        <time>2022-12-28T10:55:50Z</time>
      </trkpt>
      <trkpt lat="43.64343" lon="1.189">
        <ele>236</ele>
        <time>2022-12-28T10:55:55Z</time>
      </trkpt>
      <trkpt lat="43.64338" lon="1.18914">
        <ele>237</ele>
        <time>2022-12-28T10:55:59Z</time>
      </trkpt>
      <trkpt lat="43.64331" lon="1.18931">
        <ele>238.4</ele>
        <time>2022-12-28T10:56:04Z</time>
      </trkpt>
      <trkpt lat="43.64325" lon="1.18942">
        <ele>238.8</ele>
        <time>2022-12-28T10:56:07Z</time>
      </trkpt>
      <trkpt lat="43.64318" lon="1.18958">
        <ele>239.4</ele>
        <time>2022-12-28T10:56:11Z</time>
      </trkpt>
      <trkpt lat="43.64314" lon="1.18969">
        <ele>239.6</ele>
        <time>2022-12-28T10:56:14Z</time>
      </trkpt>
      <trkpt lat="43.64311" lon="1.18991">
        <ele>240.6</ele>
        <time>2022-12-28T10:56:19Z</time>
      </trkpt>
      <trkpt lat="43.64311" lon="1.18995">
        <ele>240.6</ele>
        <time>2022-12-28T10:56:20Z</time>
      </trkpt>
      <trkpt lat="43.64313" lon="1.19018">
        <ele>241.2</ele>
        <time>2022-12-28T10:56:26Z</time>
      </trkpt>
      <trkpt lat="43.64313" lon="1.19033">
        <ele>241.6</ele>
        <time>2022-12-28T10:56:30Z</time>
      </trkpt>
      <trkpt lat="43.64313" lon="1.19041">
        <ele>241.8</ele>
        <time>2022-12-28T10:56:32Z</time>
      </trkpt>
      <trkpt lat="43.64314" lon="1.19065">
        <ele>242.8</ele>
        <time>2022-12-28T10:56:37Z</time>
      </trkpt>
      <trkpt lat="43.64317" lon="1.19091">
        <ele>243.2</ele>
        <time>2022-12-28T10:56:43Z</time>
      </trkpt>
      <trkpt lat="43.64319" lon="1.191">
        <ele>243.8</ele>
        <time>2022-12-28T10:56:47Z</time>
      </trkpt>
      <trkpt lat="43.6432" lon="1.19103">
        <ele>244</ele>
        <time>2022-12-28T10:56:48Z</time>
      </trkpt>
      <trkpt lat="43.64324" lon="1.19128">
        <ele>244.8</ele>
        <time>2022-12-28T10:56:57Z</time>
      </trkpt>
      <trkpt lat="43.64325" lon="1.1914">
        <ele>245</ele>
        <time>2022-12-28T10:57:01Z</time>
      </trkpt>
      <trkpt lat="43.64327" lon="1.19141">
        <ele>245</ele>
        <time>2022-12-28T10:57:03Z</time>
      </trkpt>
      <trkpt lat="43.64327" lon="1.19138">
        <ele>245</ele>
        <time>2022-12-28T10:57:05Z</time>
      </trkpt>
      <trkpt lat="43.64325" lon="1.19132">
        <ele>245.2</ele>
        <time>2022-12-28T10:57:08Z</time>
      </trkpt>
      <trkpt lat="43.64322" lon="1.19117">
        <ele>245</ele>
        <time>2022-12-28T10:57:16Z</time>
      </trkpt>
      <trkpt lat="43.64322" lon="1.19115">
        <ele>245</ele>
        <time>2022-12-28T10:57:17Z</time>
      </trkpt>
      <trkpt lat="43.6432" lon="1.19112">
        <ele>245</ele>
        <time>2022-12-28T10:57:21Z</time>
      </trkpt>
      <trkpt lat="43.6432" lon="1.19112">
        <ele>245</ele>
        <time>2022-12-28T10:57:23Z</time>
      </trkpt>
      <trkpt lat="43.64317" lon="1.19106">
        <ele>244.6</ele>
        <time>2022-12-28T10:57:58Z</time>
      </trkpt>
      <trkpt lat="43.64312" lon="1.19106">
        <ele>244.6</ele>
        <time>2022-12-28T10:58:00Z</time>
      </trkpt>
      <trkpt lat="43.64293" lon="1.19103">
        <ele>244.6</ele>
        <time>2022-12-28T10:58:05Z</time>
      </trkpt>
      <trkpt lat="43.64259" lon="1.19101">
        <ele>244.6</ele>
        <time>2022-12-28T10:58:13Z</time>
      </trkpt>
      <trkpt lat="43.64253" lon="1.19103">
        <ele>244.6</ele>
        <time>2022-12-28T10:58:15Z</time>
      </trkpt>
      <trkpt lat="43.64248" lon="1.19109">
        <ele>244.8</ele>
        <time>2022-12-28T10:58:17Z</time>
      </trkpt>
      <trkpt lat="43.64238" lon="1.19124">
        <ele>244.8</ele>
        <time>2022-12-28T10:58:21Z</time>
      </trkpt>
      <trkpt lat="43.64213" lon="1.19155">
        <ele>245</ele>
        <time>2022-12-28T10:58:30Z</time>
      </trkpt>
      <trkpt lat="43.64189" lon="1.19181">
        <ele>245.4</ele>
        <time>2022-12-28T10:58:38Z</time>
      </trkpt>
      <trkpt lat="43.64168" lon="1.19205">
        <ele>245.8</ele>
        <time>2022-12-28T10:58:45Z</time>
      </trkpt>
      <trkpt lat="43.6415" lon="1.19225">
        <ele>246</ele>
        <time>2022-12-28T10:58:51Z</time>
      </trkpt>
      <trkpt lat="43.64126" lon="1.19251">
        <ele>246.4</ele>
        <time>2022-12-28T10:58:58Z</time>
      </trkpt>
      <trkpt lat="43.64094" lon="1.19286">
        <ele>246.4</ele>
        <time>2022-12-28T10:59:08Z</time>
      </trkpt>
      <trkpt lat="43.6409" lon="1.1929">
        <ele>246.2</ele>
        <time>2022-12-28T10:59:09Z</time>
      </trkpt>
      <trkpt lat="43.64073" lon="1.19313">
        <ele>246.4</ele>
        <time>2022-12-28T10:59:15Z</time>
      </trkpt>
      <trkpt lat="43.64067" lon="1.1932">
        <ele>246.6</ele>
        <time>2022-12-28T10:59:17Z</time>
      </trkpt>
      <trkpt lat="43.64064" lon="1.19323">
        <ele>246.8</ele>
        <time>2022-12-28T10:59:18Z</time>
      </trkpt>
      <trkpt lat="43.64054" lon="1.19333">
        <ele>246.8</ele>
        <time>2022-12-28T10:59:21Z</time>
      </trkpt>
      <trkpt lat="43.64045" lon="1.19344">
        <ele>247</ele>
        <time>2022-12-28T10:59:24Z</time>
      </trkpt>
      <trkpt lat="43.64037" lon="1.19356">
        <ele>247.2</ele>
        <time>2022-12-28T10:59:27Z</time>
      </trkpt>
      <trkpt lat="43.64016" lon="1.19384">
        <ele>247</ele>
        <time>2022-12-28T10:59:34Z</time>
      </trkpt>
      <trkpt lat="43.63992" lon="1.1942">
        <ele>246.2</ele>
        <time>2022-12-28T10:59:42Z</time>
      </trkpt>
      <trkpt lat="43.6399" lon="1.19424">
        <ele>246</ele>
        <time>2022-12-28T10:59:43Z</time>
      </trkpt>
      <trkpt lat="43.63988" lon="1.1944">
        <ele>245.4</ele>
        <time>2022-12-28T10:59:47Z</time>
      </trkpt>
      <trkpt lat="43.63984" lon="1.1946">
        <ele>244.8</ele>
        <time>2022-12-28T10:59:52Z</time>
      </trkpt>
      <trkpt lat="43.63984" lon="1.19464">
        <ele>244.6</ele>
        <time>2022-12-28T10:59:53Z</time>
      </trkpt>
      <trkpt lat="43.63982" lon="1.1947">
        <ele>244</ele>
        <time>2022-12-28T10:59:55Z</time>
      </trkpt>
      <trkpt lat="43.63981" lon="1.19472">
        <ele>243.4</ele>
        <time>2022-12-28T10:59:56Z</time>
      </trkpt>
      <trkpt lat="43.63976" lon="1.19485">
        <ele>242.6</ele>
        <time>2022-12-28T11:00:00Z</time>
      </trkpt>
      <trkpt lat="43.63975" lon="1.19486">
        <ele>242.2</ele>
        <time>2022-12-28T11:00:01Z</time>
      </trkpt>
      <trkpt lat="43.63974" lon="1.19487">
        <ele>241.8</ele>
        <time>2022-12-28T11:00:02Z</time>
      </trkpt>
      <trkpt lat="43.63973" lon="1.19487">
        <ele>241.2</ele>
        <time>2022-12-28T11:00:03Z</time>
      </trkpt>
      <trkpt lat="43.63973" lon="1.19487">
        <ele>240.8</ele>
        <time>2022-12-28T11:00:04Z</time>
      </trkpt>
      <trkpt lat="43.63973" lon="1.19487">
        <ele>240.6</ele>
        <time>2022-12-28T11:00:05Z</time>
      </trkpt>
      <trkpt lat="43.63924" lon="1.19504">
        <ele>244</ele>
        <time>2022-12-28T11:02:10Z</time>
      </trkpt>
      <trkpt lat="43.63923" lon="1.19514">
        <ele>244</ele>
        <time>2022-12-28T11:02:13Z</time>
      </trkpt>
      <trkpt lat="43.63919" lon="1.19533">
        <ele>244.4</ele>
        <time>2022-12-28T11:02:21Z</time>
      </trkpt>
      <trkpt lat="43.63916" lon="1.19545">
        <ele>245</ele>
        <time>2022-12-28T11:02:26Z</time>
      </trkpt>
      <trkpt lat="43.63915" lon="1.19548">
        <ele>245</ele>
        <time>2022-12-28T11:02:27Z</time>
      </trkpt>
      <trkpt lat="43.63914" lon="1.19552">
        <ele>245.2</ele>
        <time>2022-12-28T11:02:29Z</time>
      </trkpt>
      <trkpt lat="43.63914" lon="1.19557">
        <ele>245.2</ele>
        <time>2022-12-28T11:02:31Z</time>
      </trkpt>
      <trkpt lat="43.6391" lon="1.19561">
        <ele>245.2</ele>
        <time>2022-12-28T11:02:32Z</time>
      </trkpt>
      <trkpt lat="43.63907" lon="1.19564">
        <ele>245.4</ele>
        <time>2022-12-28T11:02:35Z</time>
      </trkpt>
      <trkpt lat="43.63904" lon="1.19566">
        <ele>246</ele>
        <time>2022-12-28T11:02:42Z</time>
      </trkpt>
      <trkpt lat="43.63901" lon="1.19568">
        <ele>246</ele>
        <time>2022-12-28T11:02:43Z</time>
      </trkpt>
      <trkpt lat="43.63897" lon="1.19571">
        <ele>246.2</ele>
        <time>2022-12-28T11:02:44Z</time>
      </trkpt>
      <trkpt lat="43.63894" lon="1.19573">
        <ele>246.2</ele>
        <time>2022-12-28T11:02:46Z</time>
      </trkpt>
      <trkpt lat="43.63891" lon="1.19576">
        <ele>246.8</ele>
        <time>2022-12-28T11:02:55Z</time>
      </trkpt>
      <trkpt lat="43.63888" lon="1.19578">
        <ele>246.6</ele>
        <time>2022-12-28T11:03:03Z</time>
      </trkpt>
      <trkpt lat="43.63884" lon="1.1958">
        <ele>246.8</ele>
        <time>2022-12-28T11:03:09Z</time>
      </trkpt>
      <trkpt lat="43.63881" lon="1.19583">
        <ele>246.8</ele>
        <time>2022-12-28T11:03:13Z</time>
      </trkpt>
      <trkpt lat="43.63878" lon="1.19585">
        <ele>247.2</ele>
        <time>2022-12-28T11:04:10Z</time>
      </trkpt>
      <trkpt lat="43.63875" lon="1.19587">
        <ele>247.2</ele>
        <time>2022-12-28T11:04:11Z</time>
      </trkpt>
      <trkpt lat="43.63871" lon="1.1959">
        <ele>247.2</ele>
        <time>2022-12-28T11:04:12Z</time>
      </trkpt>
      <trkpt lat="43.63867" lon="1.196">
        <ele>247.2</ele>
        <time>2022-12-28T11:04:16Z</time>
      </trkpt>
      <trkpt lat="43.63863" lon="1.19607">
        <ele>247.4</ele>
        <time>2022-12-28T11:04:19Z</time>
      </trkpt>
      <trkpt lat="43.63854" lon="1.19623">
        <ele>247.6</ele>
        <time>2022-12-28T11:04:24Z</time>
      </trkpt>
      <trkpt lat="43.63841" lon="1.19649">
        <ele>247.6</ele>
        <time>2022-12-28T11:04:29Z</time>
      </trkpt>
      <trkpt lat="43.63826" lon="1.19682">
        <ele>247.4</ele>
        <time>2022-12-28T11:04:35Z</time>
      </trkpt>
      <trkpt lat="43.63812" lon="1.19715">
        <ele>247.4</ele>
        <time>2022-12-28T11:04:40Z</time>
      </trkpt>
      <trkpt lat="43.63799" lon="1.19739">
        <ele>247</ele>
        <time>2022-12-28T11:04:45Z</time>
      </trkpt>
      <trkpt lat="43.63782" lon="1.19772">
        <ele>246.8</ele>
        <time>2022-12-28T11:04:52Z</time>
      </trkpt>
      <trkpt lat="43.63764" lon="1.19813">
        <ele>247.4</ele>
        <time>2022-12-28T11:05:00Z</time>
      </trkpt>
      <trkpt lat="43.63744" lon="1.19855">
        <ele>247.8</ele>
        <time>2022-12-28T11:05:08Z</time>
      </trkpt>
      <trkpt lat="43.63737" lon="1.1987">
        <ele>248.2</ele>
        <time>2022-12-28T11:05:11Z</time>
      </trkpt>
      <trkpt lat="43.63727" lon="1.19891">
        <ele>248.6</ele>
        <time>2022-12-28T11:05:15Z</time>
      </trkpt>
      <trkpt lat="43.63722" lon="1.19902">
        <ele>248.6</ele>
        <time>2022-12-28T11:05:17Z</time>
      </trkpt>
      <trkpt lat="43.6371" lon="1.1993">
        <ele>249</ele>
        <time>2022-12-28T11:05:22Z</time>
      </trkpt>
      <trkpt lat="43.63705" lon="1.19942">
        <ele>249.2</ele>
        <time>2022-12-28T11:05:24Z</time>
      </trkpt>
      <trkpt lat="43.63699" lon="1.19959">
        <ele>249.2</ele>
        <time>2022-12-28T11:05:27Z</time>
      </trkpt>
      <trkpt lat="43.63692" lon="1.19978">
        <ele>249.6</ele>
        <time>2022-12-28T11:05:30Z</time>
      </trkpt>
      <trkpt lat="43.63688" lon="1.19984">
        <ele>249.6</ele>
        <time>2022-12-28T11:05:31Z</time>
      </trkpt>
      <trkpt lat="43.63682" lon="1.19997">
        <ele>249.6</ele>
        <time>2022-12-28T11:05:33Z</time>
      </trkpt>
      <trkpt lat="43.63677" lon="1.20011">
        <ele>249.6</ele>
        <time>2022-12-28T11:05:35Z</time>
      </trkpt>
      <trkpt lat="43.63668" lon="1.2003">
        <ele>249.6</ele>
        <time>2022-12-28T11:05:38Z</time>
      </trkpt>
      <trkpt lat="43.63662" lon="1.20043">
        <ele>249.6</ele>
        <time>2022-12-28T11:05:40Z</time>
      </trkpt>
      <trkpt lat="43.63657" lon="1.20056">
        <ele>249.6</ele>
        <time>2022-12-28T11:05:42Z</time>
      </trkpt>
      <trkpt lat="43.63649" lon="1.20075">
        <ele>249.6</ele>
        <time>2022-12-28T11:05:44Z</time>
      </trkpt>
      <trkpt lat="43.63634" lon="1.20111">
        <ele>249.6</ele>
        <time>2022-12-28T11:05:50Z</time>
      </trkpt>
      <trkpt lat="43.63625" lon="1.20132">
        <ele>249.6</ele>
        <time>2022-12-28T11:05:53Z</time>
      </trkpt>
      <trkpt lat="43.63616" lon="1.20151">
        <ele>249.6</ele>
        <time>2022-12-28T11:05:56Z</time>
      </trkpt>
      <trkpt lat="43.63608" lon="1.20171">
        <ele>249.4</ele>
        <time>2022-12-28T11:05:59Z</time>
      </trkpt>
      <trkpt lat="43.63601" lon="1.2019">
        <ele>249.2</ele>
        <time>2022-12-28T11:06:02Z</time>
      </trkpt>
      <trkpt lat="43.63585" lon="1.2023">
        <ele>248.8</ele>
        <time>2022-12-28T11:06:07Z</time>
      </trkpt>
      <trkpt lat="43.6358" lon="1.20247">
        <ele>248.8</ele>
        <time>2022-12-28T11:06:09Z</time>
      </trkpt>
      <trkpt lat="43.63572" lon="1.2026">
        <ele>248.6</ele>
        <time>2022-12-28T11:06:11Z</time>
      </trkpt>
      <trkpt lat="43.63568" lon="1.20267">
        <ele>248.6</ele>
        <time>2022-12-28T11:06:12Z</time>
      </trkpt>
      <trkpt lat="43.63547" lon="1.20317">
        <ele>247.6</ele>
        <time>2022-12-28T11:06:18Z</time>
      </trkpt>
      <trkpt lat="43.63543" lon="1.20326">
        <ele>247.6</ele>
        <time>2022-12-28T11:06:19Z</time>
      </trkpt>
      <trkpt lat="43.63528" lon="1.20365">
        <ele>247</ele>
        <time>2022-12-28T11:06:24Z</time>
      </trkpt>
      <trkpt lat="43.63511" lon="1.20406">
        <ele>247</ele>
        <time>2022-12-28T11:06:30Z</time>
      </trkpt>
      <trkpt lat="43.63498" lon="1.20436">
        <ele>247.2</ele>
        <time>2022-12-28T11:06:35Z</time>
      </trkpt>
      <trkpt lat="43.63495" lon="1.20443">
        <ele>247.4</ele>
        <time>2022-12-28T11:06:36Z</time>
      </trkpt>
      <trkpt lat="43.6347" lon="1.20498">
        <ele>247.8</ele>
        <time>2022-12-28T11:06:44Z</time>
      </trkpt>
      <trkpt lat="43.63467" lon="1.20505">
        <ele>247.8</ele>
        <time>2022-12-28T11:06:45Z</time>
      </trkpt>
      <trkpt lat="43.6345" lon="1.20543">
        <ele>247.8</ele>
        <time>2022-12-28T11:06:50Z</time>
      </trkpt>
      <trkpt lat="43.63434" lon="1.20579">
        <ele>248</ele>
        <time>2022-12-28T11:06:55Z</time>
      </trkpt>
      <trkpt lat="43.63428" lon="1.20595">
        <ele>248</ele>
        <time>2022-12-28T11:06:57Z</time>
      </trkpt>
      <trkpt lat="43.63412" lon="1.20635">
        <ele>248</ele>
        <time>2022-12-28T11:07:02Z</time>
      </trkpt>
      <trkpt lat="43.63407" lon="1.20643">
        <ele>247.8</ele>
        <time>2022-12-28T11:07:03Z</time>
      </trkpt>
      <trkpt lat="43.63396" lon="1.20668">
        <ele>247.6</ele>
        <time>2022-12-28T11:07:06Z</time>
      </trkpt>
      <trkpt lat="43.63396" lon="1.20675">
        <ele>247.4</ele>
        <time>2022-12-28T11:07:07Z</time>
      </trkpt>
      <trkpt lat="43.63395" lon="1.20683">
        <ele>247.2</ele>
        <time>2022-12-28T11:07:08Z</time>
      </trkpt>
      <trkpt lat="43.63384" lon="1.20707">
        <ele>246.8</ele>
        <time>2022-12-28T11:07:11Z</time>
      </trkpt>
      <trkpt lat="43.63372" lon="1.2073">
        <ele>246.8</ele>
        <time>2022-12-28T11:07:14Z</time>
      </trkpt>
      <trkpt lat="43.63365" lon="1.20745">
        <ele>246.6</ele>
        <time>2022-12-28T11:07:16Z</time>
      </trkpt>
      <trkpt lat="43.63356" lon="1.20767">
        <ele>246.4</ele>
        <time>2022-12-28T11:07:19Z</time>
      </trkpt>
      <trkpt lat="43.63347" lon="1.20791">
        <ele>246</ele>
        <time>2022-12-28T11:07:22Z</time>
      </trkpt>
      <trkpt lat="43.63334" lon="1.20821">
        <ele>245.4</ele>
        <time>2022-12-28T11:07:26Z</time>
      </trkpt>
      <trkpt lat="43.63329" lon="1.20834">
        <ele>245.2</ele>
        <time>2022-12-28T11:07:28Z</time>
      </trkpt>
      <trkpt lat="43.63317" lon="1.20861">
        <ele>244.4</ele>
        <time>2022-12-28T11:07:32Z</time>
      </trkpt>
      <trkpt lat="43.63314" lon="1.20867">
        <ele>244</ele>
        <time>2022-12-28T11:07:33Z</time>
      </trkpt>
      <trkpt lat="43.63306" lon="1.20887">
        <ele>243.4</ele>
        <time>2022-12-28T11:07:36Z</time>
      </trkpt>
      <trkpt lat="43.63303" lon="1.20893">
        <ele>243.2</ele>
        <time>2022-12-28T11:07:37Z</time>
      </trkpt>
      <trkpt lat="43.63297" lon="1.20908">
        <ele>243.2</ele>
        <time>2022-12-28T11:07:39Z</time>
      </trkpt>
      <trkpt lat="43.63295" lon="1.20914">
        <ele>243.2</ele>
        <time>2022-12-28T11:07:40Z</time>
      </trkpt>
      <trkpt lat="43.63275" lon="1.20954">
        <ele>243</ele>
        <time>2022-12-28T11:07:46Z</time>
      </trkpt>
      <trkpt lat="43.63273" lon="1.20961">
        <ele>243</ele>
        <time>2022-12-28T11:07:47Z</time>
      </trkpt>
      <trkpt lat="43.6327" lon="1.20969">
        <ele>243.2</ele>
        <time>2022-12-28T11:07:48Z</time>
      </trkpt>
      <trkpt lat="43.63255" lon="1.20999">
        <ele>243.2</ele>
        <time>2022-12-28T11:07:52Z</time>
      </trkpt>
      <trkpt lat="43.63242" lon="1.21023">
        <ele>243.2</ele>
        <time>2022-12-28T11:07:55Z</time>
      </trkpt>
      <trkpt lat="43.63236" lon="1.2104">
        <ele>243.2</ele>
        <time>2022-12-28T11:07:57Z</time>
      </trkpt>
      <trkpt lat="43.6323" lon="1.21055">
        <ele>243</ele>
        <time>2022-12-28T11:07:59Z</time>
      </trkpt>
      <trkpt lat="43.63218" lon="1.21078">
        <ele>242.8</ele>
        <time>2022-12-28T11:08:02Z</time>
      </trkpt>
      <trkpt lat="43.63206" lon="1.21109">
        <ele>242.8</ele>
        <time>2022-12-28T11:08:06Z</time>
      </trkpt>
      <trkpt lat="43.632" lon="1.2112">
        <ele>243</ele>
        <time>2022-12-28T11:08:07Z</time>
      </trkpt>
      <trkpt lat="43.63196" lon="1.21127">
        <ele>243</ele>
        <time>2022-12-28T11:08:08Z</time>
      </trkpt>
      <trkpt lat="43.63183" lon="1.21157">
        <ele>243.6</ele>
        <time>2022-12-28T11:08:13Z</time>
      </trkpt>
      <trkpt lat="43.63167" lon="1.21194">
        <ele>243.8</ele>
        <time>2022-12-28T11:08:19Z</time>
      </trkpt>
      <trkpt lat="43.63164" lon="1.21204">
        <ele>243.8</ele>
        <time>2022-12-28T11:08:21Z</time>
      </trkpt>
      <trkpt lat="43.63163" lon="1.2121">
        <ele>243.6</ele>
        <time>2022-12-28T11:08:22Z</time>
      </trkpt>
      <trkpt lat="43.63158" lon="1.21218">
        <ele>243.6</ele>
        <time>2022-12-28T11:08:24Z</time>
      </trkpt>
      <trkpt lat="43.63147" lon="1.21237">
        <ele>243.6</ele>
        <time>2022-12-28T11:08:29Z</time>
      </trkpt>
      <trkpt lat="43.63136" lon="1.21261">
        <ele>243.4</ele>
        <time>2022-12-28T11:08:33Z</time>
      </trkpt>
      <trkpt lat="43.63126" lon="1.21288">
        <ele>243.6</ele>
        <time>2022-12-28T11:08:38Z</time>
      </trkpt>
      <trkpt lat="43.63118" lon="1.21307">
        <ele>243.8</ele>
        <time>2022-12-28T11:08:43Z</time>
      </trkpt>
      <trkpt lat="43.63117" lon="1.2131">
        <ele>243.8</ele>
        <time>2022-12-28T11:08:44Z</time>
      </trkpt>
      <trkpt lat="43.63122" lon="1.21314">
        <ele>244</ele>
        <time>2022-12-28T11:08:47Z</time>
      </trkpt>
      <trkpt lat="43.63136" lon="1.21333">
        <ele>244.2</ele>
        <time>2022-12-28T11:08:52Z</time>
      </trkpt>
      <trkpt lat="43.63142" lon="1.21342">
        <ele>244.2</ele>
        <time>2022-12-28T11:08:54Z</time>
      </trkpt>
      <trkpt lat="43.63155" lon="1.2135">
        <ele>244.2</ele>
        <time>2022-12-28T11:08:57Z</time>
      </trkpt>
      <trkpt lat="43.6316" lon="1.21353">
        <ele>244</ele>
        <time>2022-12-28T11:08:58Z</time>
      </trkpt>
      <trkpt lat="43.63186" lon="1.21373">
        <ele>243.4</ele>
        <time>2022-12-28T11:09:03Z</time>
      </trkpt>
      <trkpt lat="43.63196" lon="1.21383">
        <ele>243.2</ele>
        <time>2022-12-28T11:09:05Z</time>
      </trkpt>
      <trkpt lat="43.63213" lon="1.21397">
        <ele>243.2</ele>
        <time>2022-12-28T11:09:08Z</time>
      </trkpt>
      <trkpt lat="43.63226" lon="1.21412">
        <ele>243.2</ele>
        <time>2022-12-28T11:09:11Z</time>
      </trkpt>
      <trkpt lat="43.63247" lon="1.21427">
        <ele>243</ele>
        <time>2022-12-28T11:09:15Z</time>
      </trkpt>
      <trkpt lat="43.63273" lon="1.21446">
        <ele>242.6</ele>
        <time>2022-12-28T11:09:20Z</time>
      </trkpt>
      <trkpt lat="43.63279" lon="1.21453">
        <ele>242.4</ele>
        <time>2022-12-28T11:09:21Z</time>
      </trkpt>
      <trkpt lat="43.63289" lon="1.21461">
        <ele>242.2</ele>
        <time>2022-12-28T11:09:23Z</time>
      </trkpt>
      <trkpt lat="43.63303" lon="1.21474">
        <ele>241.6</ele>
        <time>2022-12-28T11:09:26Z</time>
      </trkpt>
      <trkpt lat="43.63323" lon="1.21494">
        <ele>241.4</ele>
        <time>2022-12-28T11:09:31Z</time>
      </trkpt>
      <trkpt lat="43.63328" lon="1.21497">
        <ele>241.4</ele>
        <time>2022-12-28T11:09:32Z</time>
      </trkpt>
      <trkpt lat="43.63335" lon="1.21503">
        <ele>241.2</ele>
        <time>2022-12-28T11:09:34Z</time>
      </trkpt>
      <trkpt lat="43.63338" lon="1.21506">
        <ele>241</ele>
        <time>2022-12-28T11:09:35Z</time>
      </trkpt>
      <trkpt lat="43.63339" lon="1.21509">
        <ele>241</ele>
        <time>2022-12-28T11:09:36Z</time>
      </trkpt>
      <trkpt lat="43.63329" lon="1.21526">
        <ele>240.8</ele>
        <time>2022-12-28T11:09:40Z</time>
      </trkpt>
      <trkpt lat="43.63327" lon="1.21552">
        <ele>240.6</ele>
        <time>2022-12-28T11:09:44Z</time>
      </trkpt>
      <trkpt lat="43.63323" lon="1.21578">
        <ele>240.2</ele>
        <time>2022-12-28T11:09:48Z</time>
      </trkpt>
      <trkpt lat="43.63322" lon="1.21583">
        <ele>240.2</ele>
        <time>2022-12-28T11:09:49Z</time>
      </trkpt>
      <trkpt lat="43.6332" lon="1.2159">
        <ele>240</ele>
        <time>2022-12-28T11:09:50Z</time>
      </trkpt>
      <trkpt lat="43.63312" lon="1.21609">
        <ele>240.2</ele>
        <time>2022-12-28T11:09:54Z</time>
      </trkpt>
      <trkpt lat="43.63306" lon="1.2163">
        <ele>240.4</ele>
        <time>2022-12-28T11:09:58Z</time>
      </trkpt>
      <trkpt lat="43.63295" lon="1.21663">
        <ele>240.6</ele>
        <time>2022-12-28T11:10:03Z</time>
      </trkpt>
      <trkpt lat="43.63293" lon="1.2167">
        <ele>240.6</ele>
        <time>2022-12-28T11:10:04Z</time>
      </trkpt>
      <trkpt lat="43.63288" lon="1.21703">
        <ele>240.8</ele>
        <time>2022-12-28T11:10:10Z</time>
      </trkpt>
      <trkpt lat="43.6328" lon="1.21728">
        <ele>241.2</ele>
        <time>2022-12-28T11:10:14Z</time>
      </trkpt>
      <trkpt lat="43.63276" lon="1.21734">
        <ele>241.4</ele>
        <time>2022-12-28T11:10:15Z</time>
      </trkpt>
      <trkpt lat="43.63262" lon="1.21762">
        <ele>242.2</ele>
        <time>2022-12-28T11:10:20Z</time>
      </trkpt>
      <trkpt lat="43.63259" lon="1.21766">
        <ele>242.2</ele>
        <time>2022-12-28T11:10:21Z</time>
      </trkpt>
      <trkpt lat="43.63235" lon="1.21796">
        <ele>242.6</ele>
        <time>2022-12-28T11:10:27Z</time>
      </trkpt>
      <trkpt lat="43.63207" lon="1.21828">
        <ele>242.8</ele>
        <time>2022-12-28T11:10:34Z</time>
      </trkpt>
      <trkpt lat="43.63195" lon="1.21839">
        <ele>243.2</ele>
        <time>2022-12-28T11:10:37Z</time>
      </trkpt>
      <trkpt lat="43.6319" lon="1.21846">
        <ele>243.2</ele>
        <time>2022-12-28T11:10:39Z</time>
      </trkpt>
      <trkpt lat="43.63185" lon="1.21864">
        <ele>243.2</ele>
        <time>2022-12-28T11:10:42Z</time>
      </trkpt>
      <trkpt lat="43.63181" lon="1.21875">
        <ele>243.4</ele>
        <time>2022-12-28T11:10:44Z</time>
      </trkpt>
      <trkpt lat="43.63158" lon="1.21917">
        <ele>243.2</ele>
        <time>2022-12-28T11:10:51Z</time>
      </trkpt>
      <trkpt lat="43.63135" lon="1.21938">
        <ele>243.2</ele>
        <time>2022-12-28T11:10:55Z</time>
      </trkpt>
      <trkpt lat="43.63108" lon="1.21946">
        <ele>243.2</ele>
        <time>2022-12-28T11:11:00Z</time>
      </trkpt>
      <trkpt lat="43.63093" lon="1.21945">
        <ele>243.2</ele>
        <time>2022-12-28T11:11:03Z</time>
      </trkpt>
      <trkpt lat="43.63087" lon="1.21945">
        <ele>243</ele>
        <time>2022-12-28T11:11:04Z</time>
      </trkpt>
      <trkpt lat="43.6308" lon="1.21947">
        <ele>243</ele>
        <time>2022-12-28T11:11:05Z</time>
      </trkpt>
      <trkpt lat="43.6306" lon="1.21956">
        <ele>243</ele>
        <time>2022-12-28T11:11:08Z</time>
      </trkpt>
      <trkpt lat="43.63017" lon="1.21977">
        <ele>242.4</ele>
        <time>2022-12-28T11:11:15Z</time>
      </trkpt>
      <trkpt lat="43.63004" lon="1.21984">
        <ele>242</ele>
        <time>2022-12-28T11:11:17Z</time>
      </trkpt>
      <trkpt lat="43.62992" lon="1.21986">
        <ele>241.4</ele>
        <time>2022-12-28T11:11:19Z</time>
      </trkpt>
      <trkpt lat="43.62986" lon="1.21986">
        <ele>241.4</ele>
        <time>2022-12-28T11:11:20Z</time>
      </trkpt>
      <trkpt lat="43.6298" lon="1.21986">
        <ele>241</ele>
        <time>2022-12-28T11:11:21Z</time>
      </trkpt>
      <trkpt lat="43.62969" lon="1.21986">
        <ele>240.2</ele>
        <time>2022-12-28T11:11:23Z</time>
      </trkpt>
      <trkpt lat="43.62964" lon="1.21984">
        <ele>239.8</ele>
        <time>2022-12-28T11:11:24Z</time>
      </trkpt>
      <trkpt lat="43.62958" lon="1.21983">
        <ele>239.8</ele>
        <time>2022-12-28T11:11:25Z</time>
      </trkpt>
      <trkpt lat="43.62951" lon="1.2198">
        <ele>239.4</ele>
        <time>2022-12-28T11:11:26Z</time>
      </trkpt>
      <trkpt lat="43.62936" lon="1.21974">
        <ele>238.6</ele>
        <time>2022-12-28T11:11:28Z</time>
      </trkpt>
      <trkpt lat="43.62928" lon="1.21971">
        <ele>238.6</ele>
        <time>2022-12-28T11:11:29Z</time>
      </trkpt>
      <trkpt lat="43.62908" lon="1.21959">
        <ele>237.6</ele>
        <time>2022-12-28T11:11:32Z</time>
      </trkpt>
      <trkpt lat="43.62901" lon="1.21955">
        <ele>237</ele>
        <time>2022-12-28T11:11:33Z</time>
      </trkpt>
      <trkpt lat="43.62895" lon="1.21951">
        <ele>236.6</ele>
        <time>2022-12-28T11:11:34Z</time>
      </trkpt>
      <trkpt lat="43.62889" lon="1.21944">
        <ele>236</ele>
        <time>2022-12-28T11:11:35Z</time>
      </trkpt>
      <trkpt lat="43.62876" lon="1.21924">
        <ele>235.4</ele>
        <time>2022-12-28T11:11:38Z</time>
      </trkpt>
      <trkpt lat="43.6286" lon="1.21905">
        <ele>234.2</ele>
        <time>2022-12-28T11:11:41Z</time>
      </trkpt>
      <trkpt lat="43.62855" lon="1.219">
        <ele>233.8</ele>
        <time>2022-12-28T11:11:42Z</time>
      </trkpt>
      <trkpt lat="43.62827" lon="1.2188">
        <ele>233.2</ele>
        <time>2022-12-28T11:11:47Z</time>
      </trkpt>
      <trkpt lat="43.62823" lon="1.21874">
        <ele>233.2</ele>
        <time>2022-12-28T11:11:48Z</time>
      </trkpt>
      <trkpt lat="43.62812" lon="1.21872">
        <ele>233</ele>
        <time>2022-12-28T11:11:50Z</time>
      </trkpt>
      <trkpt lat="43.62799" lon="1.21876">
        <ele>232.6</ele>
        <time>2022-12-28T11:11:52Z</time>
      </trkpt>
      <trkpt lat="43.62787" lon="1.21882">
        <ele>232.4</ele>
        <time>2022-12-28T11:11:54Z</time>
      </trkpt>
      <trkpt lat="43.62761" lon="1.21894">
        <ele>232</ele>
        <time>2022-12-28T11:11:58Z</time>
      </trkpt>
      <trkpt lat="43.62755" lon="1.21897">
        <ele>232</ele>
        <time>2022-12-28T11:11:59Z</time>
      </trkpt>
      <trkpt lat="43.62748" lon="1.21898">
        <ele>232</ele>
        <time>2022-12-28T11:12:00Z</time>
      </trkpt>
      <trkpt lat="43.62721" lon="1.21903">
        <ele>231.4</ele>
        <time>2022-12-28T11:12:04Z</time>
      </trkpt>
      <trkpt lat="43.62708" lon="1.21903">
        <ele>231</ele>
        <time>2022-12-28T11:12:06Z</time>
      </trkpt>
      <trkpt lat="43.62694" lon="1.21902">
        <ele>230</ele>
        <time>2022-12-28T11:12:08Z</time>
      </trkpt>
      <trkpt lat="43.62678" lon="1.21896">
        <ele>229.2</ele>
        <time>2022-12-28T11:12:10Z</time>
      </trkpt>
      <trkpt lat="43.62671" lon="1.21894">
        <ele>228.8</ele>
        <time>2022-12-28T11:12:11Z</time>
      </trkpt>
      <trkpt lat="43.62654" lon="1.21884">
        <ele>228</ele>
        <time>2022-12-28T11:12:14Z</time>
      </trkpt>
      <trkpt lat="43.62649" lon="1.2188">
        <ele>227.6</ele>
        <time>2022-12-28T11:12:15Z</time>
      </trkpt>
      <trkpt lat="43.62632" lon="1.21868">
        <ele>226.6</ele>
        <time>2022-12-28T11:12:19Z</time>
      </trkpt>
      <trkpt lat="43.62628" lon="1.21867">
        <ele>226.4</ele>
        <time>2022-12-28T11:12:20Z</time>
      </trkpt>
      <trkpt lat="43.62604" lon="1.2186">
        <ele>226</ele>
        <time>2022-12-28T11:12:24Z</time>
      </trkpt>
      <trkpt lat="43.62598" lon="1.21857">
        <ele>226</ele>
        <time>2022-12-28T11:12:25Z</time>
      </trkpt>
      <trkpt lat="43.62552" lon="1.2183">
        <ele>225.4</ele>
        <time>2022-12-28T11:12:32Z</time>
      </trkpt>
      <trkpt lat="43.62534" lon="1.21819">
        <ele>224.2</ele>
        <time>2022-12-28T11:12:35Z</time>
      </trkpt>
      <trkpt lat="43.62524" lon="1.21816">
        <ele>223.8</ele>
        <time>2022-12-28T11:12:37Z</time>
      </trkpt>
      <trkpt lat="43.62503" lon="1.21816">
        <ele>223.4</ele>
        <time>2022-12-28T11:12:41Z</time>
      </trkpt>
      <trkpt lat="43.62496" lon="1.21816">
        <ele>223.4</ele>
        <time>2022-12-28T11:12:42Z</time>
      </trkpt>
      <trkpt lat="43.62464" lon="1.21811">
        <ele>223.2</ele>
        <time>2022-12-28T11:12:47Z</time>
      </trkpt>
      <trkpt lat="43.6245" lon="1.21811">
        <ele>223.2</ele>
        <time>2022-12-28T11:12:49Z</time>
      </trkpt>
      <trkpt lat="43.62446" lon="1.21811">
        <ele>223.2</ele>
        <time>2022-12-28T11:12:50Z</time>
      </trkpt>
      <trkpt lat="43.62429" lon="1.21811">
        <ele>223</ele>
        <time>2022-12-28T11:12:53Z</time>
      </trkpt>
      <trkpt lat="43.62412" lon="1.21811">
        <ele>223</ele>
        <time>2022-12-28T11:12:55Z</time>
      </trkpt>
      <trkpt lat="43.62405" lon="1.2181">
        <ele>222.8</ele>
        <time>2022-12-28T11:12:56Z</time>
      </trkpt>
      <trkpt lat="43.62376" lon="1.21806">
        <ele>222.2</ele>
        <time>2022-12-28T11:13:01Z</time>
      </trkpt>
      <trkpt lat="43.62371" lon="1.21805">
        <ele>221.4</ele>
        <time>2022-12-28T11:13:02Z</time>
      </trkpt>
      <trkpt lat="43.62367" lon="1.21805">
        <ele>221.2</ele>
        <time>2022-12-28T11:13:03Z</time>
      </trkpt>
      <trkpt lat="43.62357" lon="1.21804">
        <ele>220.8</ele>
        <time>2022-12-28T11:13:05Z</time>
      </trkpt>
      <trkpt lat="43.62346" lon="1.21803">
        <ele>220.8</ele>
        <time>2022-12-28T11:13:07Z</time>
      </trkpt>
      <trkpt lat="43.62338" lon="1.218">
        <ele>220.8</ele>
        <time>2022-12-28T11:13:09Z</time>
      </trkpt>
      <trkpt lat="43.62324" lon="1.21794">
        <ele>220.8</ele>
        <time>2022-12-28T11:13:13Z</time>
      </trkpt>
      <trkpt lat="43.62298" lon="1.21785">
        <ele>220.6</ele>
        <time>2022-12-28T11:13:19Z</time>
      </trkpt>
      <trkpt lat="43.62281" lon="1.21778">
        <ele>220.4</ele>
        <time>2022-12-28T11:13:23Z</time>
      </trkpt>
      <trkpt lat="43.62276" lon="1.21777">
        <ele>220.4</ele>
        <time>2022-12-28T11:13:24Z</time>
      </trkpt>
      <trkpt lat="43.62267" lon="1.21781">
        <ele>220.4</ele>
        <time>2022-12-28T11:13:26Z</time>
      </trkpt>
      <trkpt lat="43.62265" lon="1.21784">
        <ele>220.4</ele>
        <time>2022-12-28T11:13:27Z</time>
      </trkpt>
      <trkpt lat="43.62257" lon="1.21813">
        <ele>220.4</ele>
        <time>2022-12-28T11:13:31Z</time>
      </trkpt>
      <trkpt lat="43.62254" lon="1.21822">
        <ele>220.4</ele>
        <time>2022-12-28T11:13:32Z</time>
      </trkpt>
      <trkpt lat="43.62252" lon="1.21829">
        <ele>220.4</ele>
        <time>2022-12-28T11:13:33Z</time>
      </trkpt>
      <trkpt lat="43.62244" lon="1.21855">
        <ele>219.8</ele>
        <time>2022-12-28T11:13:36Z</time>
      </trkpt>
      <trkpt lat="43.62234" lon="1.2188">
        <ele>219.2</ele>
        <time>2022-12-28T11:13:39Z</time>
      </trkpt>
      <trkpt lat="43.6223" lon="1.21887">
        <ele>219</ele>
        <time>2022-12-28T11:13:40Z</time>
      </trkpt>
      <trkpt lat="43.62224" lon="1.21893">
        <ele>218.8</ele>
        <time>2022-12-28T11:13:41Z</time>
      </trkpt>
      <trkpt lat="43.62208" lon="1.21908">
        <ele>218</ele>
        <time>2022-12-28T11:13:44Z</time>
      </trkpt>
      <trkpt lat="43.62205" lon="1.21913">
        <ele>217.6</ele>
        <time>2022-12-28T11:13:45Z</time>
      </trkpt>
      <trkpt lat="43.62204" lon="1.21919">
        <ele>217.6</ele>
        <time>2022-12-28T11:13:46Z</time>
      </trkpt>
      <trkpt lat="43.62201" lon="1.21929">
        <ele>217</ele>
        <time>2022-12-28T11:13:48Z</time>
      </trkpt>
      <trkpt lat="43.62199" lon="1.21931">
        <ele>216.6</ele>
        <time>2022-12-28T11:13:49Z</time>
      </trkpt>
      <trkpt lat="43.62197" lon="1.21932">
        <ele>216.4</ele>
        <time>2022-12-28T11:13:50Z</time>
      </trkpt>
      <trkpt lat="43.62194" lon="1.21932">
        <ele>215.8</ele>
        <time>2022-12-28T11:13:51Z</time>
      </trkpt>
      <trkpt lat="43.62189" lon="1.21932">
        <ele>215.4</ele>
        <time>2022-12-28T11:13:53Z</time>
      </trkpt>
      <trkpt lat="43.62178" lon="1.21927">
        <ele>214.8</ele>
        <time>2022-12-28T11:13:56Z</time>
      </trkpt>
      <trkpt lat="43.62168" lon="1.21911">
        <ele>214.6</ele>
        <time>2022-12-28T11:14:00Z</time>
      </trkpt>
      <trkpt lat="43.62166" lon="1.21904">
        <ele>214.6</ele>
        <time>2022-12-28T11:14:01Z</time>
      </trkpt>
      <trkpt lat="43.62156" lon="1.21875">
        <ele>214.4</ele>
        <time>2022-12-28T11:14:05Z</time>
      </trkpt>
      <trkpt lat="43.62151" lon="1.21869">
        <ele>214.4</ele>
        <time>2022-12-28T11:14:06Z</time>
      </trkpt>
      <trkpt lat="43.62146" lon="1.21864">
        <ele>214.2</ele>
        <time>2022-12-28T11:14:07Z</time>
      </trkpt>
      <trkpt lat="43.62134" lon="1.21845">
        <ele>214.2</ele>
        <time>2022-12-28T11:14:10Z</time>
      </trkpt>
      <trkpt lat="43.62126" lon="1.21832">
        <ele>214.2</ele>
        <time>2022-12-28T11:14:12Z</time>
      </trkpt>
      <trkpt lat="43.62119" lon="1.2182">
        <ele>214.2</ele>
        <time>2022-12-28T11:14:14Z</time>
      </trkpt>
      <trkpt lat="43.62115" lon="1.21814">
        <ele>214.2</ele>
        <time>2022-12-28T11:14:15Z</time>
      </trkpt>
      <trkpt lat="43.62111" lon="1.21807">
        <ele>214.2</ele>
        <time>2022-12-28T11:14:16Z</time>
      </trkpt>
      <trkpt lat="43.62097" lon="1.21782">
        <ele>214.4</ele>
        <time>2022-12-28T11:14:20Z</time>
      </trkpt>
      <trkpt lat="43.62073" lon="1.21725">
        <ele>214.6</ele>
        <time>2022-12-28T11:14:28Z</time>
      </trkpt>
      <trkpt lat="43.62069" lon="1.21719">
        <ele>214.6</ele>
        <time>2022-12-28T11:14:29Z</time>
      </trkpt>
      <trkpt lat="43.62053" lon="1.21692">
        <ele>214.6</ele>
        <time>2022-12-28T11:14:34Z</time>
      </trkpt>
      <trkpt lat="43.62041" lon="1.21675">
        <ele>214.8</ele>
        <time>2022-12-28T11:14:37Z</time>
      </trkpt>
      <trkpt lat="43.62035" lon="1.21659">
        <ele>214.8</ele>
        <time>2022-12-28T11:14:39Z</time>
      </trkpt>
      <trkpt lat="43.62029" lon="1.21621">
        <ele>215.4</ele>
        <time>2022-12-28T11:14:44Z</time>
      </trkpt>
      <trkpt lat="43.62029" lon="1.21614">
        <ele>215.4</ele>
        <time>2022-12-28T11:14:45Z</time>
      </trkpt>
      <trkpt lat="43.62026" lon="1.21608">
        <ele>215.4</ele>
        <time>2022-12-28T11:14:46Z</time>
      </trkpt>
      <trkpt lat="43.62019" lon="1.21596">
        <ele>215.8</ele>
        <time>2022-12-28T11:14:48Z</time>
      </trkpt>
      <trkpt lat="43.6201" lon="1.21587">
        <ele>216.2</ele>
        <time>2022-12-28T11:14:50Z</time>
      </trkpt>
      <trkpt lat="43.62004" lon="1.21584">
        <ele>216.2</ele>
        <time>2022-12-28T11:14:51Z</time>
      </trkpt>
      <trkpt lat="43.61994" lon="1.21574">
        <ele>216.4</ele>
        <time>2022-12-28T11:14:53Z</time>
      </trkpt>
      <trkpt lat="43.61989" lon="1.2157">
        <ele>216.6</ele>
        <time>2022-12-28T11:14:54Z</time>
      </trkpt>
      <trkpt lat="43.61977" lon="1.21557">
        <ele>216.6</ele>
        <time>2022-12-28T11:14:57Z</time>
      </trkpt>
      <trkpt lat="43.61969" lon="1.21545">
        <ele>216.4</ele>
        <time>2022-12-28T11:14:59Z</time>
      </trkpt>
      <trkpt lat="43.61964" lon="1.21542">
        <ele>216.4</ele>
        <time>2022-12-28T11:15:00Z</time>
      </trkpt>
      <trkpt lat="43.61954" lon="1.21533">
        <ele>216.4</ele>
        <time>2022-12-28T11:15:02Z</time>
      </trkpt>
      <trkpt lat="43.6195" lon="1.21528">
        <ele>216.4</ele>
        <time>2022-12-28T11:15:03Z</time>
      </trkpt>
      <trkpt lat="43.61947" lon="1.21525">
        <ele>216.4</ele>
        <time>2022-12-28T11:15:04Z</time>
      </trkpt>
      <trkpt lat="43.61931" lon="1.21518">
        <ele>216.6</ele>
        <time>2022-12-28T11:15:08Z</time>
      </trkpt>
      <trkpt lat="43.61912" lon="1.21492">
        <ele>217.2</ele>
        <time>2022-12-28T11:15:14Z</time>
      </trkpt>
      <trkpt lat="43.619" lon="1.21474">
        <ele>217.4</ele>
        <time>2022-12-28T11:15:19Z</time>
      </trkpt>
      <trkpt lat="43.61891" lon="1.21465">
        <ele>217.6</ele>
        <time>2022-12-28T11:15:21Z</time>
      </trkpt>
      <trkpt lat="43.61871" lon="1.21442">
        <ele>217.8</ele>
        <time>2022-12-28T11:15:26Z</time>
      </trkpt>
      <trkpt lat="43.61868" lon="1.21438">
        <ele>218</ele>
        <time>2022-12-28T11:15:27Z</time>
      </trkpt>
      <trkpt lat="43.61861" lon="1.21419">
        <ele>218.2</ele>
        <time>2022-12-28T11:15:30Z</time>
      </trkpt>
      <trkpt lat="43.61861" lon="1.21412">
        <ele>218.2</ele>
        <time>2022-12-28T11:15:31Z</time>
      </trkpt>
      <trkpt lat="43.61865" lon="1.21391">
        <ele>218.6</ele>
        <time>2022-12-28T11:15:34Z</time>
      </trkpt>
      <trkpt lat="43.61863" lon="1.21374">
        <ele>219</ele>
        <time>2022-12-28T11:15:38Z</time>
      </trkpt>
      <trkpt lat="43.6185" lon="1.21364">
        <ele>220</ele>
        <time>2022-12-28T11:15:43Z</time>
      </trkpt>
      <trkpt lat="43.61846" lon="1.2136">
        <ele>220.4</ele>
        <time>2022-12-28T11:15:46Z</time>
      </trkpt>
      <trkpt lat="43.6184" lon="1.21358">
        <ele>220.6</ele>
        <time>2022-12-28T11:15:48Z</time>
      </trkpt>
      <trkpt lat="43.61828" lon="1.21348">
        <ele>220.4</ele>
        <time>2022-12-28T11:15:55Z</time>
      </trkpt>
      <trkpt lat="43.61813" lon="1.21338">
        <ele>220.8</ele>
        <time>2022-12-28T11:16:03Z</time>
      </trkpt>
      <trkpt lat="43.61799" lon="1.21329">
        <ele>221</ele>
        <time>2022-12-28T11:16:09Z</time>
      </trkpt>
      <trkpt lat="43.61797" lon="1.21327">
        <ele>221.2</ele>
        <time>2022-12-28T11:16:10Z</time>
      </trkpt>
      <trkpt lat="43.61783" lon="1.21318">
        <ele>221.4</ele>
        <time>2022-12-28T11:16:15Z</time>
      </trkpt>
      <trkpt lat="43.61758" lon="1.21298">
        <ele>221.6</ele>
        <time>2022-12-28T11:16:22Z</time>
      </trkpt>
      <trkpt lat="43.61728" lon="1.21275">
        <ele>221.6</ele>
        <time>2022-12-28T11:16:29Z</time>
      </trkpt>
      <trkpt lat="43.61712" lon="1.21263">
        <ele>221.6</ele>
        <time>2022-12-28T11:16:33Z</time>
      </trkpt>
      <trkpt lat="43.617" lon="1.2125">
        <ele>221.4</ele>
        <time>2022-12-28T11:16:36Z</time>
      </trkpt>
      <trkpt lat="43.61681" lon="1.21231">
        <ele>221</ele>
        <time>2022-12-28T11:16:41Z</time>
      </trkpt>
      <trkpt lat="43.61679" lon="1.21225">
        <ele>221</ele>
        <time>2022-12-28T11:16:42Z</time>
      </trkpt>
      <trkpt lat="43.61678" lon="1.21218">
        <ele>221</ele>
        <time>2022-12-28T11:16:43Z</time>
      </trkpt>
      <trkpt lat="43.61672" lon="1.21208">
        <ele>221</ele>
        <time>2022-12-28T11:16:45Z</time>
      </trkpt>
      <trkpt lat="43.61659" lon="1.21198">
        <ele>220.6</ele>
        <time>2022-12-28T11:16:50Z</time>
      </trkpt>
      <trkpt lat="43.61657" lon="1.21195">
        <ele>220.2</ele>
        <time>2022-12-28T11:16:54Z</time>
      </trkpt>
      <trkpt lat="43.61656" lon="1.21202">
        <ele>220</ele>
        <time>2022-12-28T11:17:00Z</time>
      </trkpt>
      <trkpt lat="43.61653" lon="1.21209">
        <ele>219.8</ele>
        <time>2022-12-28T11:17:03Z</time>
      </trkpt>
      <trkpt lat="43.6165" lon="1.21215">
        <ele>219.6</ele>
        <time>2022-12-28T11:17:05Z</time>
      </trkpt>
      <trkpt lat="43.61643" lon="1.21242">
        <ele>219.6</ele>
        <time>2022-12-28T11:17:11Z</time>
      </trkpt>
      <trkpt lat="43.61638" lon="1.21259">
        <ele>219.6</ele>
        <time>2022-12-28T11:17:14Z</time>
      </trkpt>
      <trkpt lat="43.61634" lon="1.21263">
        <ele>219.4</ele>
        <time>2022-12-28T11:17:15Z</time>
      </trkpt>
      <trkpt lat="43.61619" lon="1.21283">
        <ele>219.2</ele>
        <time>2022-12-28T11:17:20Z</time>
      </trkpt>
      <trkpt lat="43.61593" lon="1.21327">
        <ele>219.4</ele>
        <time>2022-12-28T11:17:28Z</time>
      </trkpt>
      <trkpt lat="43.61566" lon="1.21371">
        <ele>219</ele>
        <time>2022-12-28T11:17:35Z</time>
      </trkpt>
      <trkpt lat="43.61535" lon="1.21424">
        <ele>218.4</ele>
        <time>2022-12-28T11:17:44Z</time>
      </trkpt>
      <trkpt lat="43.61513" lon="1.21459">
        <ele>217.8</ele>
        <time>2022-12-28T11:17:50Z</time>
      </trkpt>
      <trkpt lat="43.61505" lon="1.21474">
        <ele>217.6</ele>
        <time>2022-12-28T11:17:53Z</time>
      </trkpt>
      <trkpt lat="43.61495" lon="1.21493">
        <ele>217.2</ele>
        <time>2022-12-28T11:17:56Z</time>
      </trkpt>
      <trkpt lat="43.61485" lon="1.21509">
        <ele>216.8</ele>
        <time>2022-12-28T11:17:59Z</time>
      </trkpt>
      <trkpt lat="43.61453" lon="1.21559">
        <ele>216</ele>
        <time>2022-12-28T11:18:07Z</time>
      </trkpt>
      <trkpt lat="43.61438" lon="1.21585">
        <ele>215.6</ele>
        <time>2022-12-28T11:18:11Z</time>
      </trkpt>
      <trkpt lat="43.61414" lon="1.21625">
        <ele>215</ele>
        <time>2022-12-28T11:18:17Z</time>
      </trkpt>
      <trkpt lat="43.61411" lon="1.21631">
        <ele>214.6</ele>
        <time>2022-12-28T11:18:18Z</time>
      </trkpt>
      <trkpt lat="43.61393" lon="1.21664">
        <ele>213.6</ele>
        <time>2022-12-28T11:18:24Z</time>
      </trkpt>
      <trkpt lat="43.61385" lon="1.21686">
        <ele>213.2</ele>
        <time>2022-12-28T11:18:29Z</time>
      </trkpt>
      <trkpt lat="43.61389" lon="1.21706">
        <ele>213.2</ele>
        <time>2022-12-28T11:18:33Z</time>
      </trkpt>
      <trkpt lat="43.61398" lon="1.21731">
        <ele>212.8</ele>
        <time>2022-12-28T11:18:37Z</time>
      </trkpt>
      <trkpt lat="43.614" lon="1.21738">
        <ele>212.8</ele>
        <time>2022-12-28T11:18:38Z</time>
      </trkpt>
      <trkpt lat="43.614" lon="1.21743">
        <ele>212.6</ele>
        <time>2022-12-28T11:18:39Z</time>
      </trkpt>
      <trkpt lat="43.61398" lon="1.21766">
        <ele>212.4</ele>
        <time>2022-12-28T11:18:42Z</time>
      </trkpt>
      <trkpt lat="43.61391" lon="1.21804">
        <ele>212</ele>
        <time>2022-12-28T11:18:47Z</time>
      </trkpt>
      <trkpt lat="43.61384" lon="1.21848">
        <ele>211.4</ele>
        <time>2022-12-28T11:18:53Z</time>
      </trkpt>
      <trkpt lat="43.61381" lon="1.21866">
        <ele>211.2</ele>
        <time>2022-12-28T11:18:55Z</time>
      </trkpt>
      <trkpt lat="43.61374" lon="1.2192">
        <ele>211</ele>
        <time>2022-12-28T11:19:02Z</time>
      </trkpt>
      <trkpt lat="43.61373" lon="1.21929">
        <ele>211</ele>
        <time>2022-12-28T11:19:03Z</time>
      </trkpt>
      <trkpt lat="43.61371" lon="1.21951">
        <ele>211.2</ele>
        <time>2022-12-28T11:19:06Z</time>
      </trkpt>
      <trkpt lat="43.6137" lon="1.21972">
        <ele>211</ele>
        <time>2022-12-28T11:19:09Z</time>
      </trkpt>
      <trkpt lat="43.61368" lon="1.21993">
        <ele>211</ele>
        <time>2022-12-28T11:19:13Z</time>
      </trkpt>
      <trkpt lat="43.61368" lon="1.22003">
        <ele>210.6</ele>
        <time>2022-12-28T11:19:16Z</time>
      </trkpt>
      <trkpt lat="43.61365" lon="1.22013">
        <ele>210.4</ele>
        <time>2022-12-28T11:19:19Z</time>
      </trkpt>
      <trkpt lat="43.61364" lon="1.22028">
        <ele>210.4</ele>
        <time>2022-12-28T11:19:25Z</time>
      </trkpt>
      <trkpt lat="43.61362" lon="1.22049">
        <ele>210.2</ele>
        <time>2022-12-28T11:19:35Z</time>
      </trkpt>
      <trkpt lat="43.61357" lon="1.22064">
        <ele>210</ele>
        <time>2022-12-28T11:19:43Z</time>
      </trkpt>
      <trkpt lat="43.61354" lon="1.22078">
        <ele>210</ele>
        <time>2022-12-28T11:19:48Z</time>
      </trkpt>
      <trkpt lat="43.61348" lon="1.22105">
        <ele>210.2</ele>
        <time>2022-12-28T11:19:54Z</time>
      </trkpt>
      <trkpt lat="43.61344" lon="1.22136">
        <ele>210.8</ele>
        <time>2022-12-28T11:20:00Z</time>
      </trkpt>
      <trkpt lat="43.61332" lon="1.22177">
        <ele>210.2</ele>
        <time>2022-12-28T11:20:08Z</time>
      </trkpt>
      <trkpt lat="43.61328" lon="1.22204">
        <ele>210</ele>
        <time>2022-12-28T11:20:13Z</time>
      </trkpt>
      <trkpt lat="43.61319" lon="1.22225">
        <ele>209.8</ele>
        <time>2022-12-28T11:20:18Z</time>
      </trkpt>
      <trkpt lat="43.61308" lon="1.22239">
        <ele>209.8</ele>
        <time>2022-12-28T11:20:22Z</time>
      </trkpt>
      <trkpt lat="43.613" lon="1.22249">
        <ele>209.8</ele>
        <time>2022-12-28T11:20:24Z</time>
      </trkpt>
      <trkpt lat="43.61275" lon="1.22274">
        <ele>210.2</ele>
        <time>2022-12-28T11:20:31Z</time>
      </trkpt>
      <trkpt lat="43.61258" lon="1.22292">
        <ele>210.2</ele>
        <time>2022-12-28T11:20:36Z</time>
      </trkpt>
      <trkpt lat="43.61253" lon="1.22298">
        <ele>210</ele>
        <time>2022-12-28T11:20:38Z</time>
      </trkpt>
      <trkpt lat="43.61225" lon="1.22318">
        <ele>209.8</ele>
        <time>2022-12-28T11:20:44Z</time>
      </trkpt>
      <trkpt lat="43.61192" lon="1.22342">
        <ele>209.8</ele>
        <time>2022-12-28T11:20:51Z</time>
      </trkpt>
      <trkpt lat="43.61163" lon="1.22365">
        <ele>209.4</ele>
        <time>2022-12-28T11:20:57Z</time>
      </trkpt>
      <trkpt lat="43.61142" lon="1.22392">
        <ele>209.4</ele>
        <time>2022-12-28T11:21:02Z</time>
      </trkpt>
      <trkpt lat="43.61139" lon="1.224">
        <ele>209.4</ele>
        <time>2022-12-28T11:21:03Z</time>
      </trkpt>
      <trkpt lat="43.6112" lon="1.22452">
        <ele>209.4</ele>
        <time>2022-12-28T11:21:10Z</time>
      </trkpt>
      <trkpt lat="43.61097" lon="1.22523">
        <ele>209.4</ele>
        <time>2022-12-28T11:21:20Z</time>
      </trkpt>
      <trkpt lat="43.61083" lon="1.22568">
        <ele>209</ele>
        <time>2022-12-28T11:21:27Z</time>
      </trkpt>
      <trkpt lat="43.6108" lon="1.22575">
        <ele>208.8</ele>
        <time>2022-12-28T11:21:28Z</time>
      </trkpt>
      <trkpt lat="43.61068" lon="1.2261">
        <ele>208.8</ele>
        <time>2022-12-28T11:21:34Z</time>
      </trkpt>
      <trkpt lat="43.61059" lon="1.22634">
        <ele>209</ele>
        <time>2022-12-28T11:21:38Z</time>
      </trkpt>
      <trkpt lat="43.61053" lon="1.22645">
        <ele>209</ele>
        <time>2022-12-28T11:21:40Z</time>
      </trkpt>
      <trkpt lat="43.61031" lon="1.22683">
        <ele>209</ele>
        <time>2022-12-28T11:21:47Z</time>
      </trkpt>
      <trkpt lat="43.6101" lon="1.22719">
        <ele>208.6</ele>
        <time>2022-12-28T11:21:54Z</time>
      </trkpt>
      <trkpt lat="43.60999" lon="1.22741">
        <ele>208.6</ele>
        <time>2022-12-28T11:21:59Z</time>
      </trkpt>
      <trkpt lat="43.60997" lon="1.22743">
        <ele>208.6</ele>
        <time>2022-12-28T11:22:00Z</time>
      </trkpt>
      <trkpt lat="43.60993" lon="1.22743">
        <ele>208.4</ele>
        <time>2022-12-28T11:22:02Z</time>
      </trkpt>
      <trkpt lat="43.6099" lon="1.22741">
        <ele>208.4</ele>
        <time>2022-12-28T11:22:04Z</time>
      </trkpt>
      <trkpt lat="43.60988" lon="1.22742">
        <ele>208.2</ele>
        <time>2022-12-28T11:22:06Z</time>
      </trkpt>
      <trkpt lat="43.60983" lon="1.2275">
        <ele>208</ele>
        <time>2022-12-28T11:22:12Z</time>
      </trkpt>
      <trkpt lat="43.60981" lon="1.22756">
        <ele>207.8</ele>
        <time>2022-12-28T11:22:19Z</time>
      </trkpt>
      <trkpt lat="43.60973" lon="1.22773">
        <ele>208</ele>
        <time>2022-12-28T11:22:26Z</time>
      </trkpt>
      <trkpt lat="43.60961" lon="1.22794">
        <ele>208</ele>
        <time>2022-12-28T11:22:33Z</time>
      </trkpt>
      <trkpt lat="43.60954" lon="1.22805">
        <ele>207.8</ele>
        <time>2022-12-28T11:22:36Z</time>
      </trkpt>
      <trkpt lat="43.60946" lon="1.2282">
        <ele>207.8</ele>
        <time>2022-12-28T11:22:40Z</time>
      </trkpt>
      <trkpt lat="43.60933" lon="1.22846">
        <ele>207.8</ele>
        <time>2022-12-28T11:22:47Z</time>
      </trkpt>
      <trkpt lat="43.60915" lon="1.22872">
        <ele>207.6</ele>
        <time>2022-12-28T11:22:54Z</time>
      </trkpt>
      <trkpt lat="43.6089" lon="1.22904">
        <ele>207.4</ele>
        <time>2022-12-28T11:23:02Z</time>
      </trkpt>
      <trkpt lat="43.60862" lon="1.22941">
        <ele>207.4</ele>
        <time>2022-12-28T11:23:11Z</time>
      </trkpt>
      <trkpt lat="43.6086" lon="1.22946">
        <ele>207.4</ele>
        <time>2022-12-28T11:23:12Z</time>
      </trkpt>
      <trkpt lat="43.60857" lon="1.22956">
        <ele>207.6</ele>
        <time>2022-12-28T11:23:14Z</time>
      </trkpt>
      <trkpt lat="43.60853" lon="1.22968">
        <ele>207.6</ele>
        <time>2022-12-28T11:23:16Z</time>
      </trkpt>
      <trkpt lat="43.60851" lon="1.22979">
        <ele>207.4</ele>
        <time>2022-12-28T11:23:18Z</time>
      </trkpt>
      <trkpt lat="43.60849" lon="1.22991">
        <ele>207.4</ele>
        <time>2022-12-28T11:23:20Z</time>
      </trkpt>
      <trkpt lat="43.60845" lon="1.23001">
        <ele>207.4</ele>
        <time>2022-12-28T11:23:22Z</time>
      </trkpt>
      <trkpt lat="43.60843" lon="1.23011">
        <ele>207.4</ele>
        <time>2022-12-28T11:23:24Z</time>
      </trkpt>
      <trkpt lat="43.60833" lon="1.23027">
        <ele>207.4</ele>
        <time>2022-12-28T11:23:28Z</time>
      </trkpt>
      <trkpt lat="43.60808" lon="1.23059">
        <ele>206.8</ele>
        <time>2022-12-28T11:23:36Z</time>
      </trkpt>
      <trkpt lat="43.608" lon="1.23073">
        <ele>206.8</ele>
        <time>2022-12-28T11:23:39Z</time>
      </trkpt>
      <trkpt lat="43.60794" lon="1.23087">
        <ele>206.8</ele>
        <time>2022-12-28T11:23:42Z</time>
      </trkpt>
      <trkpt lat="43.60792" lon="1.23091">
        <ele>206.8</ele>
        <time>2022-12-28T11:23:43Z</time>
      </trkpt>
      <trkpt lat="43.60784" lon="1.23124">
        <ele>207.2</ele>
        <time>2022-12-28T11:23:49Z</time>
      </trkpt>
      <trkpt lat="43.6078" lon="1.2314">
        <ele>207.2</ele>
        <time>2022-12-28T11:23:52Z</time>
      </trkpt>
      <trkpt lat="43.60778" lon="1.23165">
        <ele>207.4</ele>
        <time>2022-12-28T11:23:56Z</time>
      </trkpt>
      <trkpt lat="43.60778" lon="1.23174">
        <ele>207</ele>
        <time>2022-12-28T11:23:58Z</time>
      </trkpt>
      <trkpt lat="43.60778" lon="1.23194">
        <ele>206.4</ele>
        <time>2022-12-28T11:24:02Z</time>
      </trkpt>
      <trkpt lat="43.60783" lon="1.23212">
        <ele>206.2</ele>
        <time>2022-12-28T11:24:06Z</time>
      </trkpt>
      <trkpt lat="43.60787" lon="1.23228">
        <ele>206</ele>
        <time>2022-12-28T11:24:10Z</time>
      </trkpt>
      <trkpt lat="43.60784" lon="1.23248">
        <ele>206.2</ele>
        <time>2022-12-28T11:24:15Z</time>
      </trkpt>
      <trkpt lat="43.60775" lon="1.23275">
        <ele>206.2</ele>
        <time>2022-12-28T11:24:21Z</time>
      </trkpt>
      <trkpt lat="43.60774" lon="1.23296">
        <ele>206</ele>
        <time>2022-12-28T11:24:25Z</time>
      </trkpt>
      <trkpt lat="43.60771" lon="1.23311">
        <ele>206</ele>
        <time>2022-12-28T11:24:28Z</time>
      </trkpt>
      <trkpt lat="43.60771" lon="1.23321">
        <ele>206</ele>
        <time>2022-12-28T11:24:30Z</time>
      </trkpt>
      <trkpt lat="43.60767" lon="1.23333">
        <ele>206</ele>
        <time>2022-12-28T11:24:34Z</time>
      </trkpt>
      <trkpt lat="43.60759" lon="1.2334">
        <ele>206</ele>
        <time>2022-12-28T11:24:37Z</time>
      </trkpt>
      <trkpt lat="43.60759" lon="1.23345">
        <ele>206</ele>
        <time>2022-12-28T11:24:38Z</time>
      </trkpt>
      <trkpt lat="43.60757" lon="1.23373">
        <ele>205.8</ele>
        <time>2022-12-28T11:24:44Z</time>
      </trkpt>
      <trkpt lat="43.60758" lon="1.23404">
        <ele>206</ele>
        <time>2022-12-28T11:24:51Z</time>
      </trkpt>
      <trkpt lat="43.60758" lon="1.23406">
        <ele>206.2</ele>
        <time>2022-12-28T11:24:52Z</time>
      </trkpt>
      <trkpt lat="43.60753" lon="1.23412">
        <ele>206.4</ele>
        <time>2022-12-28T11:24:55Z</time>
      </trkpt>
      <trkpt lat="43.60749" lon="1.23415">
        <ele>206.8</ele>
        <time>2022-12-28T11:24:57Z</time>
      </trkpt>
      <trkpt lat="43.60745" lon="1.23415">
        <ele>206.8</ele>
        <time>2022-12-28T11:24:59Z</time>
      </trkpt>
      <trkpt lat="43.60739" lon="1.23412">
        <ele>207.4</ele>
        <time>2022-12-28T11:25:04Z</time>
      </trkpt>
      <trkpt lat="43.60738" lon="1.23411">
        <ele>207.6</ele>
        <time>2022-12-28T11:25:07Z</time>
      </trkpt>
      <trkpt lat="43.60737" lon="1.23407">
        <ele>207.4</ele>
        <time>2022-12-28T11:25:48Z</time>
      </trkpt>
      <trkpt lat="43.60736" lon="1.23405">
        <ele>207.4</ele>
        <time>2022-12-28T11:25:49Z</time>
      </trkpt>
      <trkpt lat="43.60728" lon="1.23402">
        <ele>207.6</ele>
        <time>2022-12-28T11:25:52Z</time>
      </trkpt>
      <trkpt lat="43.60725" lon="1.23403">
        <ele>207.6</ele>
        <time>2022-12-28T11:25:53Z</time>
      </trkpt>
      <trkpt lat="43.60718" lon="1.23414">
        <ele>207.8</ele>
        <time>2022-12-28T11:25:57Z</time>
      </trkpt>
      <trkpt lat="43.60714" lon="1.23419">
        <ele>207.8</ele>
        <time>2022-12-28T11:25:59Z</time>
      </trkpt>
      <trkpt lat="43.6071" lon="1.23436">
        <ele>208.2</ele>
        <time>2022-12-28T11:26:04Z</time>
      </trkpt>
      <trkpt lat="43.60704" lon="1.23461">
        <ele>208.4</ele>
        <time>2022-12-28T11:26:11Z</time>
      </trkpt>
      <trkpt lat="43.60696" lon="1.23484">
        <ele>208</ele>
        <time>2022-12-28T11:26:17Z</time>
      </trkpt>
      <trkpt lat="43.60685" lon="1.23525">
        <ele>207.4</ele>
        <time>2022-12-28T11:26:25Z</time>
      </trkpt>
      <trkpt lat="43.60677" lon="1.23554">
        <ele>207.6</ele>
        <time>2022-12-28T11:26:30Z</time>
      </trkpt>
      <trkpt lat="43.60667" lon="1.23585">
        <ele>207.8</ele>
        <time>2022-12-28T11:26:35Z</time>
      </trkpt>
      <trkpt lat="43.60666" lon="1.23591">
        <ele>207.8</ele>
        <time>2022-12-28T11:26:36Z</time>
      </trkpt>
      <trkpt lat="43.60659" lon="1.2361">
        <ele>207.8</ele>
        <time>2022-12-28T11:26:39Z</time>
      </trkpt>
      <trkpt lat="43.60657" lon="1.23616">
        <ele>207.8</ele>
        <time>2022-12-28T11:26:40Z</time>
      </trkpt>
      <trkpt lat="43.60656" lon="1.23622">
        <ele>207.8</ele>
        <time>2022-12-28T11:26:41Z</time>
      </trkpt>
      <trkpt lat="43.60651" lon="1.23636">
        <ele>207.6</ele>
        <time>2022-12-28T11:26:43Z</time>
      </trkpt>
      <trkpt lat="43.60648" lon="1.23652">
        <ele>207.4</ele>
        <time>2022-12-28T11:26:45Z</time>
      </trkpt>
      <trkpt lat="43.60646" lon="1.23659">
        <ele>207.4</ele>
        <time>2022-12-28T11:26:46Z</time>
      </trkpt>
      <trkpt lat="43.60638" lon="1.23683">
        <ele>207.2</ele>
        <time>2022-12-28T11:26:50Z</time>
      </trkpt>
      <trkpt lat="43.60632" lon="1.23706">
        <ele>207</ele>
        <time>2022-12-28T11:26:54Z</time>
      </trkpt>
      <trkpt lat="43.60629" lon="1.23719">
        <ele>206.6</ele>
        <time>2022-12-28T11:26:56Z</time>
      </trkpt>
      <trkpt lat="43.60617" lon="1.23759">
        <ele>206.2</ele>
        <time>2022-12-28T11:27:02Z</time>
      </trkpt>
      <trkpt lat="43.60615" lon="1.23765">
        <ele>206.2</ele>
        <time>2022-12-28T11:27:03Z</time>
      </trkpt>
      <trkpt lat="43.60609" lon="1.23782">
        <ele>205.8</ele>
        <time>2022-12-28T11:27:06Z</time>
      </trkpt>
      <trkpt lat="43.60608" lon="1.23787">
        <ele>205.6</ele>
        <time>2022-12-28T11:27:07Z</time>
      </trkpt>
      <trkpt lat="43.60602" lon="1.23815">
        <ele>205.6</ele>
        <time>2022-12-28T11:27:13Z</time>
      </trkpt>
      <trkpt lat="43.60588" lon="1.2386">
        <ele>206.6</ele>
        <time>2022-12-28T11:27:22Z</time>
      </trkpt>
      <trkpt lat="43.60585" lon="1.23871">
        <ele>207</ele>
        <time>2022-12-28T11:27:24Z</time>
      </trkpt>
      <trkpt lat="43.6058" lon="1.2389">
        <ele>207.4</ele>
        <time>2022-12-28T11:27:27Z</time>
      </trkpt>
      <trkpt lat="43.60572" lon="1.23918">
        <ele>207.6</ele>
        <time>2022-12-28T11:27:32Z</time>
      </trkpt>
      <trkpt lat="43.60567" lon="1.23927">
        <ele>207.6</ele>
        <time>2022-12-28T11:27:35Z</time>
      </trkpt>
      <trkpt lat="43.60565" lon="1.23929">
        <ele>207.6</ele>
        <time>2022-12-28T11:27:36Z</time>
      </trkpt>
      <trkpt lat="43.60555" lon="1.23932">
        <ele>207.8</ele>
        <time>2022-12-28T11:27:41Z</time>
      </trkpt>
      <trkpt lat="43.60549" lon="1.23931">
        <ele>208</ele>
        <time>2022-12-28T11:27:46Z</time>
      </trkpt>
      <trkpt lat="43.60543" lon="1.23927">
        <ele>208.4</ele>
        <time>2022-12-28T11:27:57Z</time>
      </trkpt>
      <trkpt lat="43.60538" lon="1.23925">
        <ele>208.4</ele>
        <time>2022-12-28T11:27:59Z</time>
      </trkpt>
      <trkpt lat="43.60519" lon="1.23922">
        <ele>208.4</ele>
        <time>2022-12-28T11:28:05Z</time>
      </trkpt>
      <trkpt lat="43.60516" lon="1.23923">
        <ele>208.4</ele>
        <time>2022-12-28T11:28:06Z</time>
      </trkpt>
      <trkpt lat="43.60511" lon="1.23928">
        <ele>208.6</ele>
        <time>2022-12-28T11:28:08Z</time>
      </trkpt>
      <trkpt lat="43.6051" lon="1.23931">
        <ele>208.6</ele>
        <time>2022-12-28T11:28:09Z</time>
      </trkpt>
      <trkpt lat="43.60502" lon="1.23957">
        <ele>208.8</ele>
        <time>2022-12-28T11:28:15Z</time>
      </trkpt>
      <trkpt lat="43.6049" lon="1.23984">
        <ele>208</ele>
        <time>2022-12-28T11:28:22Z</time>
      </trkpt>
      <trkpt lat="43.60486" lon="1.23991">
        <ele>207.2</ele>
        <time>2022-12-28T11:28:24Z</time>
      </trkpt>
      <trkpt lat="43.60481" lon="1.24001">
        <ele>205.8</ele>
        <time>2022-12-28T11:28:26Z</time>
      </trkpt>
      <trkpt lat="43.6048" lon="1.24007">
        <ele>205.2</ele>
        <time>2022-12-28T11:28:27Z</time>
      </trkpt>
      <trkpt lat="43.60478" lon="1.24011">
        <ele>203.6</ele>
        <time>2022-12-28T11:28:28Z</time>
      </trkpt>
      <trkpt lat="43.60473" lon="1.24023">
        <ele>201.6</ele>
        <time>2022-12-28T11:28:30Z</time>
      </trkpt>
      <trkpt lat="43.60468" lon="1.2403">
        <ele>200</ele>
        <time>2022-12-28T11:28:31Z</time>
      </trkpt>
      <trkpt lat="43.60456" lon="1.24043">
        <ele>197.8</ele>
        <time>2022-12-28T11:28:33Z</time>
      </trkpt>
      <trkpt lat="43.6045" lon="1.24046">
        <ele>197.2</ele>
        <time>2022-12-28T11:28:34Z</time>
      </trkpt>
      <trkpt lat="43.60444" lon="1.2405">
        <ele>196.4</ele>
        <time>2022-12-28T11:28:35Z</time>
      </trkpt>
      <trkpt lat="43.60434" lon="1.24056">
        <ele>195.2</ele>
        <time>2022-12-28T11:28:37Z</time>
      </trkpt>
      <trkpt lat="43.60425" lon="1.24058">
        <ele>194.2</ele>
        <time>2022-12-28T11:28:39Z</time>
      </trkpt>
      <trkpt lat="43.60421" lon="1.24059">
        <ele>193.6</ele>
        <time>2022-12-28T11:28:40Z</time>
      </trkpt>
      <trkpt lat="43.60411" lon="1.24056">
        <ele>192.6</ele>
        <time>2022-12-28T11:28:43Z</time>
      </trkpt>
      <trkpt lat="43.60408" lon="1.24053">
        <ele>192</ele>
        <time>2022-12-28T11:28:44Z</time>
      </trkpt>
      <trkpt lat="43.60388" lon="1.24036">
        <ele>191.6</ele>
        <time>2022-12-28T11:28:50Z</time>
      </trkpt>
      <trkpt lat="43.60355" lon="1.2401">
        <ele>192.2</ele>
        <time>2022-12-28T11:28:58Z</time>
      </trkpt>
      <trkpt lat="43.60325" lon="1.23982">
        <ele>192.6</ele>
        <time>2022-12-28T11:29:06Z</time>
      </trkpt>
      <trkpt lat="43.60322" lon="1.23979">
        <ele>192.6</ele>
        <time>2022-12-28T11:29:07Z</time>
      </trkpt>
      <trkpt lat="43.60315" lon="1.23975">
        <ele>192.6</ele>
        <time>2022-12-28T11:29:09Z</time>
      </trkpt>
      <trkpt lat="43.60311" lon="1.23976">
        <ele>192.6</ele>
        <time>2022-12-28T11:29:10Z</time>
      </trkpt>
      <trkpt lat="43.60301" lon="1.23983">
        <ele>192.6</ele>
        <time>2022-12-28T11:29:14Z</time>
      </trkpt>
      <trkpt lat="43.60295" lon="1.23993">
        <ele>192.6</ele>
        <time>2022-12-28T11:29:19Z</time>
      </trkpt>
      <trkpt lat="43.60283" lon="1.23989">
        <ele>192.6</ele>
        <time>2022-12-28T11:29:23Z</time>
      </trkpt>
      <trkpt lat="43.60272" lon="1.23972">
        <ele>193</ele>
        <time>2022-12-28T11:29:28Z</time>
      </trkpt>
      <trkpt lat="43.60256" lon="1.2395">
        <ele>193.6</ele>
        <time>2022-12-28T11:29:34Z</time>
      </trkpt>
      <trkpt lat="43.60252" lon="1.23946">
        <ele>193.6</ele>
        <time>2022-12-28T11:29:35Z</time>
      </trkpt>
      <trkpt lat="43.60225" lon="1.23918">
        <ele>193.8</ele>
        <time>2022-12-28T11:29:43Z</time>
      </trkpt>
      <trkpt lat="43.60189" lon="1.23899">
        <ele>193.8</ele>
        <time>2022-12-28T11:29:52Z</time>
      </trkpt>
      <trkpt lat="43.60159" lon="1.23881">
        <ele>194.6</ele>
        <time>2022-12-28T11:30:00Z</time>
      </trkpt>
      <trkpt lat="43.60134" lon="1.23882">
        <ele>194.6</ele>
        <time>2022-12-28T11:30:06Z</time>
      </trkpt>
      <trkpt lat="43.60113" lon="1.23887">
        <ele>194.6</ele>
        <time>2022-12-28T11:30:11Z</time>
      </trkpt>
      <trkpt lat="43.60109" lon="1.23885">
        <ele>194.6</ele>
        <time>2022-12-28T11:30:12Z</time>
      </trkpt>
      <trkpt lat="43.60098" lon="1.23881">
        <ele>194.4</ele>
        <time>2022-12-28T11:30:15Z</time>
      </trkpt>
      <trkpt lat="43.60091" lon="1.23883">
        <ele>194.4</ele>
        <time>2022-12-28T11:30:17Z</time>
      </trkpt>
      <trkpt lat="43.6008" lon="1.23903">
        <ele>194.4</ele>
        <time>2022-12-28T11:30:22Z</time>
      </trkpt>
      <trkpt lat="43.60074" lon="1.23911">
        <ele>195.2</ele>
        <time>2022-12-28T11:30:26Z</time>
      </trkpt>
      <trkpt lat="43.60073" lon="1.23912">
        <ele>195.4</ele>
        <time>2022-12-28T11:30:27Z</time>
      </trkpt>
      <trkpt lat="43.60071" lon="1.23913">
        <ele>196.2</ele>
        <time>2022-12-28T11:30:29Z</time>
      </trkpt>
      <trkpt lat="43.60063" lon="1.23914">
        <ele>197.6</ele>
        <time>2022-12-28T11:30:32Z</time>
      </trkpt>
      <trkpt lat="43.60045" lon="1.23924">
        <ele>198.6</ele>
        <time>2022-12-28T11:30:38Z</time>
      </trkpt>
      <trkpt lat="43.60042" lon="1.23927">
        <ele>198.6</ele>
        <time>2022-12-28T11:30:39Z</time>
      </trkpt>
      <trkpt lat="43.60037" lon="1.23939">
        <ele>198.8</ele>
        <time>2022-12-28T11:30:42Z</time>
      </trkpt>
      <trkpt lat="43.60036" lon="1.23974">
        <ele>199.6</ele>
        <time>2022-12-28T11:30:49Z</time>
      </trkpt>
      <trkpt lat="43.60036" lon="1.2398">
        <ele>200</ele>
        <time>2022-12-28T11:30:50Z</time>
      </trkpt>
      <trkpt lat="43.60035" lon="1.23995">
        <ele>200.6</ele>
        <time>2022-12-28T11:30:53Z</time>
      </trkpt>
      <trkpt lat="43.60036" lon="1.24024">
        <ele>201.8</ele>
        <time>2022-12-28T11:30:59Z</time>
      </trkpt>
      <trkpt lat="43.60037" lon="1.24047">
        <ele>202.8</ele>
        <time>2022-12-28T11:31:04Z</time>
      </trkpt>
      <trkpt lat="43.60035" lon="1.24074">
        <ele>204.4</ele>
        <time>2022-12-28T11:31:10Z</time>
      </trkpt>
      <trkpt lat="43.60034" lon="1.24078">
        <ele>204.6</ele>
        <time>2022-12-28T11:31:11Z</time>
      </trkpt>
      <trkpt lat="43.60035" lon="1.24097">
        <ele>205.4</ele>
        <time>2022-12-28T11:31:15Z</time>
      </trkpt>
      <trkpt lat="43.60034" lon="1.24123">
        <ele>206.4</ele>
        <time>2022-12-28T11:31:20Z</time>
      </trkpt>
      <trkpt lat="43.60035" lon="1.24128">
        <ele>206.4</ele>
        <time>2022-12-28T11:31:21Z</time>
      </trkpt>
      <trkpt lat="43.60034" lon="1.2414">
        <ele>207</ele>
        <time>2022-12-28T11:31:24Z</time>
      </trkpt>
      <trkpt lat="43.60033" lon="1.24141">
        <ele>207.4</ele>
        <time>2022-12-28T11:31:25Z</time>
      </trkpt>
      <trkpt lat="43.60033" lon="1.24141">
        <ele>207.6</ele>
        <time>2022-12-28T11:31:26Z</time>
      </trkpt>
      <trkpt lat="43.60029" lon="1.24141">
        <ele>208</ele>
        <time>2022-12-28T11:31:29Z</time>
      </trkpt>
      <trkpt lat="43.60028" lon="1.24143">
        <ele>208.2</ele>
        <time>2022-12-28T11:31:30Z</time>
      </trkpt>
      <trkpt lat="43.60027" lon="1.24148">
        <ele>208.2</ele>
        <time>2022-12-28T11:31:32Z</time>
      </trkpt>
      <trkpt lat="43.60026" lon="1.24151">
        <ele>208.4</ele>
        <time>2022-12-28T11:31:33Z</time>
      </trkpt>
      <trkpt lat="43.60021" lon="1.24152">
        <ele>208.4</ele>
        <time>2022-12-28T11:31:35Z</time>
      </trkpt>
      <trkpt lat="43.60002" lon="1.24154">
        <ele>208.8</ele>
        <time>2022-12-28T11:31:40Z</time>
      </trkpt>
      <trkpt lat="43.59984" lon="1.24167">
        <ele>209.2</ele>
        <time>2022-12-28T11:31:45Z</time>
      </trkpt>
      <trkpt lat="43.59965" lon="1.2419">
        <ele>209.6</ele>
        <time>2022-12-28T11:31:52Z</time>
      </trkpt>
      <trkpt lat="43.59954" lon="1.24202">
        <ele>209.8</ele>
        <time>2022-12-28T11:31:58Z</time>
      </trkpt>
      <trkpt lat="43.59952" lon="1.24205">
        <ele>209.8</ele>
        <time>2022-12-28T11:31:59Z</time>
      </trkpt>
      <trkpt lat="43.59942" lon="1.24221">
        <ele>209.8</ele>
        <time>2022-12-28T11:32:05Z</time>
      </trkpt>
      <trkpt lat="43.59929" lon="1.24238">
        <ele>210</ele>
        <time>2022-12-28T11:32:10Z</time>
      </trkpt>
      <trkpt lat="43.59914" lon="1.24261">
        <ele>210</ele>
        <time>2022-12-28T11:32:16Z</time>
      </trkpt>
      <trkpt lat="43.59895" lon="1.2429">
        <ele>210.2</ele>
        <time>2022-12-28T11:32:23Z</time>
      </trkpt>
      <trkpt lat="43.59877" lon="1.24322">
        <ele>210.4</ele>
        <time>2022-12-28T11:32:30Z</time>
      </trkpt>
      <trkpt lat="43.59875" lon="1.24327">
        <ele>210.4</ele>
        <time>2022-12-28T11:32:31Z</time>
      </trkpt>
      <trkpt lat="43.59856" lon="1.24357">
        <ele>210.4</ele>
        <time>2022-12-28T11:32:37Z</time>
      </trkpt>
      <trkpt lat="43.5985" lon="1.24367">
        <ele>210.4</ele>
        <time>2022-12-28T11:32:39Z</time>
      </trkpt>
      <trkpt lat="43.59836" lon="1.24383">
        <ele>210.4</ele>
        <time>2022-12-28T11:32:43Z</time>
      </trkpt>
      <trkpt lat="43.59833" lon="1.24387">
        <ele>210.6</ele>
        <time>2022-12-28T11:32:44Z</time>
      </trkpt>
      <trkpt lat="43.59831" lon="1.24392">
        <ele>210.6</ele>
        <time>2022-12-28T11:32:45Z</time>
      </trkpt>
      <trkpt lat="43.59825" lon="1.24405">
        <ele>210.6</ele>
        <time>2022-12-28T11:32:48Z</time>
      </trkpt>
      <trkpt lat="43.59821" lon="1.2441">
        <ele>210.6</ele>
        <time>2022-12-28T11:32:49Z</time>
      </trkpt>
      <trkpt lat="43.59815" lon="1.24418">
        <ele>210.6</ele>
        <time>2022-12-28T11:32:51Z</time>
      </trkpt>
      <trkpt lat="43.59804" lon="1.24429">
        <ele>210.4</ele>
        <time>2022-12-28T11:32:54Z</time>
      </trkpt>
      <trkpt lat="43.59771" lon="1.24461">
        <ele>210.6</ele>
        <time>2022-12-28T11:33:03Z</time>
      </trkpt>
      <trkpt lat="43.59767" lon="1.24465">
        <ele>210.6</ele>
        <time>2022-12-28T11:33:04Z</time>
      </trkpt>
      <trkpt lat="43.59742" lon="1.24494">
        <ele>211</ele>
        <time>2022-12-28T11:33:11Z</time>
      </trkpt>
      <trkpt lat="43.59736" lon="1.24502">
        <ele>211.2</ele>
        <time>2022-12-28T11:33:13Z</time>
      </trkpt>
      <trkpt lat="43.59732" lon="1.24505">
        <ele>211.2</ele>
        <time>2022-12-28T11:33:14Z</time>
      </trkpt>
      <trkpt lat="43.59725" lon="1.2451">
        <ele>211.2</ele>
        <time>2022-12-28T11:33:16Z</time>
      </trkpt>
      <trkpt lat="43.59721" lon="1.24514">
        <ele>211.2</ele>
        <time>2022-12-28T11:33:17Z</time>
      </trkpt>
      <trkpt lat="43.59706" lon="1.2453">
        <ele>211.6</ele>
        <time>2022-12-28T11:33:22Z</time>
      </trkpt>
      <trkpt lat="43.59678" lon="1.24557">
        <ele>211.8</ele>
        <time>2022-12-28T11:33:28Z</time>
      </trkpt>
      <trkpt lat="43.59639" lon="1.2459">
        <ele>212</ele>
        <time>2022-12-28T11:33:36Z</time>
      </trkpt>
      <trkpt lat="43.59593" lon="1.24628">
        <ele>212</ele>
        <time>2022-12-28T11:33:45Z</time>
      </trkpt>
      <trkpt lat="43.59542" lon="1.24668">
        <ele>212.2</ele>
        <time>2022-12-28T11:33:54Z</time>
      </trkpt>
      <trkpt lat="43.59538" lon="1.24671">
        <ele>212.2</ele>
        <time>2022-12-28T11:33:55Z</time>
      </trkpt>
      <trkpt lat="43.5952" lon="1.24682">
        <ele>212.2</ele>
        <time>2022-12-28T11:33:58Z</time>
      </trkpt>
      <trkpt lat="43.5947" lon="1.24709">
        <ele>212.6</ele>
        <time>2022-12-28T11:34:07Z</time>
      </trkpt>
      <trkpt lat="43.59423" lon="1.24739">
        <ele>212.8</ele>
        <time>2022-12-28T11:34:16Z</time>
      </trkpt>
      <trkpt lat="43.59419" lon="1.24744">
        <ele>212.8</ele>
        <time>2022-12-28T11:34:17Z</time>
      </trkpt>
      <trkpt lat="43.59408" lon="1.2476">
        <ele>213</ele>
        <time>2022-12-28T11:34:20Z</time>
      </trkpt>
      <trkpt lat="43.59396" lon="1.24776">
        <ele>213</ele>
        <time>2022-12-28T11:34:23Z</time>
      </trkpt>
      <trkpt lat="43.59392" lon="1.2478">
        <ele>212.8</ele>
        <time>2022-12-28T11:34:24Z</time>
      </trkpt>
      <trkpt lat="43.59385" lon="1.24789">
        <ele>212.8</ele>
        <time>2022-12-28T11:34:26Z</time>
      </trkpt>
      <trkpt lat="43.59377" lon="1.24798">
        <ele>212.8</ele>
        <time>2022-12-28T11:34:28Z</time>
      </trkpt>
      <trkpt lat="43.59347" lon="1.24836">
        <ele>213</ele>
        <time>2022-12-28T11:34:36Z</time>
      </trkpt>
      <trkpt lat="43.59309" lon="1.24891">
        <ele>213.2</ele>
        <time>2022-12-28T11:34:46Z</time>
      </trkpt>
      <trkpt lat="43.59269" lon="1.24947">
        <ele>213</ele>
        <time>2022-12-28T11:34:56Z</time>
      </trkpt>
      <trkpt lat="43.59241" lon="1.24984">
        <ele>213</ele>
        <time>2022-12-28T11:35:03Z</time>
      </trkpt>
      <trkpt lat="43.59198" lon="1.25039">
        <ele>212.6</ele>
        <time>2022-12-28T11:35:13Z</time>
      </trkpt>
      <trkpt lat="43.59193" lon="1.25044">
        <ele>212.6</ele>
        <time>2022-12-28T11:35:14Z</time>
      </trkpt>
      <trkpt lat="43.59152" lon="1.25094">
        <ele>212.6</ele>
        <time>2022-12-28T11:35:23Z</time>
      </trkpt>
      <trkpt lat="43.59148" lon="1.251">
        <ele>212.6</ele>
        <time>2022-12-28T11:35:24Z</time>
      </trkpt>
      <trkpt lat="43.59105" lon="1.25151">
        <ele>212.8</ele>
        <time>2022-12-28T11:35:33Z</time>
      </trkpt>
      <trkpt lat="43.59101" lon="1.25157">
        <ele>212.6</ele>
        <time>2022-12-28T11:35:34Z</time>
      </trkpt>
      <trkpt lat="43.5906" lon="1.25207">
        <ele>212.6</ele>
        <time>2022-12-28T11:35:43Z</time>
      </trkpt>
      <trkpt lat="43.59056" lon="1.25213">
        <ele>213</ele>
        <time>2022-12-28T11:35:44Z</time>
      </trkpt>
      <trkpt lat="43.59015" lon="1.25265">
        <ele>213</ele>
        <time>2022-12-28T11:35:53Z</time>
      </trkpt>
      <trkpt lat="43.59011" lon="1.25272">
        <ele>213</ele>
        <time>2022-12-28T11:35:54Z</time>
      </trkpt>
      <trkpt lat="43.58977" lon="1.25331">
        <ele>212.8</ele>
        <time>2022-12-28T11:36:03Z</time>
      </trkpt>
      <trkpt lat="43.58955" lon="1.25372">
        <ele>212.4</ele>
        <time>2022-12-28T11:36:10Z</time>
      </trkpt>
      <trkpt lat="43.58928" lon="1.25423">
        <ele>211.6</ele>
        <time>2022-12-28T11:36:19Z</time>
      </trkpt>
      <trkpt lat="43.58895" lon="1.25484">
        <ele>210.8</ele>
        <time>2022-12-28T11:36:29Z</time>
      </trkpt>
      <trkpt lat="43.58892" lon="1.25491">
        <ele>211</ele>
        <time>2022-12-28T11:36:30Z</time>
      </trkpt>
      <trkpt lat="43.58856" lon="1.25553">
        <ele>210.8</ele>
        <time>2022-12-28T11:36:40Z</time>
      </trkpt>
      <trkpt lat="43.5884" lon="1.25577">
        <ele>210.8</ele>
        <time>2022-12-28T11:36:44Z</time>
      </trkpt>
      <trkpt lat="43.58821" lon="1.25599">
        <ele>210.4</ele>
        <time>2022-12-28T11:36:48Z</time>
      </trkpt>
      <trkpt lat="43.58781" lon="1.25642">
        <ele>209.8</ele>
        <time>2022-12-28T11:36:56Z</time>
      </trkpt>
      <trkpt lat="43.58778" lon="1.25649">
        <ele>209.8</ele>
        <time>2022-12-28T11:36:57Z</time>
      </trkpt>
      <trkpt lat="43.58775" lon="1.25656">
        <ele>209.6</ele>
        <time>2022-12-28T11:36:58Z</time>
      </trkpt>
      <trkpt lat="43.58765" lon="1.2569">
        <ele>209.2</ele>
        <time>2022-12-28T11:37:02Z</time>
      </trkpt>
      <trkpt lat="43.58758" lon="1.25727">
        <ele>208.6</ele>
        <time>2022-12-28T11:37:06Z</time>
      </trkpt>
      <trkpt lat="43.58748" lon="1.25782">
        <ele>208.4</ele>
        <time>2022-12-28T11:37:12Z</time>
      </trkpt>
      <trkpt lat="43.58735" lon="1.25855">
        <ele>208.2</ele>
        <time>2022-12-28T11:37:20Z</time>
      </trkpt>
      <trkpt lat="43.58727" lon="1.259">
        <ele>208</ele>
        <time>2022-12-28T11:37:25Z</time>
      </trkpt>
      <trkpt lat="43.58713" lon="1.2598">
        <ele>207.8</ele>
        <time>2022-12-28T11:37:34Z</time>
      </trkpt>
      <trkpt lat="43.58708" lon="1.2601">
        <ele>208</ele>
        <time>2022-12-28T11:37:37Z</time>
      </trkpt>
      <trkpt lat="43.58703" lon="1.26035">
        <ele>207.8</ele>
        <time>2022-12-28T11:37:40Z</time>
      </trkpt>
      <trkpt lat="43.58687" lon="1.26107">
        <ele>207.6</ele>
        <time>2022-12-28T11:37:48Z</time>
      </trkpt>
      <trkpt lat="43.58685" lon="1.26116">
        <ele>207.4</ele>
        <time>2022-12-28T11:37:49Z</time>
      </trkpt>
      <trkpt lat="43.58665" lon="1.2619">
        <ele>207.2</ele>
        <time>2022-12-28T11:37:57Z</time>
      </trkpt>
      <trkpt lat="43.58661" lon="1.26206">
        <ele>207.2</ele>
        <time>2022-12-28T11:37:59Z</time>
      </trkpt>
      <trkpt lat="43.5865" lon="1.26271">
        <ele>207</ele>
        <time>2022-12-28T11:38:06Z</time>
      </trkpt>
      <trkpt lat="43.58653" lon="1.26323">
        <ele>207</ele>
        <time>2022-12-28T11:38:12Z</time>
      </trkpt>
      <trkpt lat="43.58662" lon="1.26392">
        <ele>207.8</ele>
        <time>2022-12-28T11:38:20Z</time>
      </trkpt>
      <trkpt lat="43.58677" lon="1.26441">
        <ele>207.8</ele>
        <time>2022-12-28T11:38:26Z</time>
      </trkpt>
      <trkpt lat="43.58681" lon="1.26449">
        <ele>207.6</ele>
        <time>2022-12-28T11:38:27Z</time>
      </trkpt>
      <trkpt lat="43.58703" lon="1.26492">
        <ele>206.8</ele>
        <time>2022-12-28T11:38:32Z</time>
      </trkpt>
      <trkpt lat="43.58713" lon="1.26512">
        <ele>206.2</ele>
        <time>2022-12-28T11:38:34Z</time>
      </trkpt>
      <trkpt lat="43.58718" lon="1.2652">
        <ele>205.8</ele>
        <time>2022-12-28T11:38:35Z</time>
      </trkpt>
      <trkpt lat="43.58738" lon="1.26556">
        <ele>204.4</ele>
        <time>2022-12-28T11:38:39Z</time>
      </trkpt>
      <trkpt lat="43.58754" lon="1.26584">
        <ele>203.6</ele>
        <time>2022-12-28T11:38:42Z</time>
      </trkpt>
      <trkpt lat="43.58759" lon="1.26593">
        <ele>203</ele>
        <time>2022-12-28T11:38:43Z</time>
      </trkpt>
      <trkpt lat="43.58774" lon="1.2662">
        <ele>202</ele>
        <time>2022-12-28T11:38:46Z</time>
      </trkpt>
      <trkpt lat="43.58796" lon="1.26663">
        <ele>200.8</ele>
        <time>2022-12-28T11:38:50Z</time>
      </trkpt>
      <trkpt lat="43.5881" lon="1.26696">
        <ele>199.6</ele>
        <time>2022-12-28T11:38:53Z</time>
      </trkpt>
      <trkpt lat="43.58823" lon="1.26728">
        <ele>198.4</ele>
        <time>2022-12-28T11:38:56Z</time>
      </trkpt>
      <trkpt lat="43.58832" lon="1.26752">
        <ele>197.6</ele>
        <time>2022-12-28T11:38:58Z</time>
      </trkpt>
      <trkpt lat="43.58835" lon="1.2676">
        <ele>196.8</ele>
        <time>2022-12-28T11:38:59Z</time>
      </trkpt>
      <trkpt lat="43.58845" lon="1.26793">
        <ele>195.6</ele>
        <time>2022-12-28T11:39:02Z</time>
      </trkpt>
      <trkpt lat="43.58847" lon="1.26802">
        <ele>195.6</ele>
        <time>2022-12-28T11:39:03Z</time>
      </trkpt>
      <trkpt lat="43.58848" lon="1.26814">
        <ele>195.2</ele>
        <time>2022-12-28T11:39:05Z</time>
      </trkpt>
      <trkpt lat="43.58847" lon="1.26819">
        <ele>194.8</ele>
        <time>2022-12-28T11:39:06Z</time>
      </trkpt>
      <trkpt lat="43.58846" lon="1.26822">
        <ele>194.4</ele>
        <time>2022-12-28T11:39:07Z</time>
      </trkpt>
      <trkpt lat="43.58839" lon="1.2683">
        <ele>194</ele>
        <time>2022-12-28T11:39:10Z</time>
      </trkpt>
      <trkpt lat="43.58819" lon="1.26838">
        <ele>193.6</ele>
        <time>2022-12-28T11:39:15Z</time>
      </trkpt>
      <trkpt lat="43.58814" lon="1.26839">
        <ele>193.4</ele>
        <time>2022-12-28T11:39:16Z</time>
      </trkpt>
      <trkpt lat="43.58801" lon="1.26841">
        <ele>193.2</ele>
        <time>2022-12-28T11:39:19Z</time>
      </trkpt>
      <trkpt lat="43.5879" lon="1.26842">
        <ele>193</ele>
        <time>2022-12-28T11:39:21Z</time>
      </trkpt>
      <trkpt lat="43.58776" lon="1.26842">
        <ele>192.6</ele>
        <time>2022-12-28T11:39:24Z</time>
      </trkpt>
      <trkpt lat="43.58754" lon="1.26841">
        <ele>192.4</ele>
        <time>2022-12-28T11:39:28Z</time>
      </trkpt>
      <trkpt lat="43.58741" lon="1.2684">
        <ele>192.4</ele>
        <time>2022-12-28T11:39:30Z</time>
      </trkpt>
      <trkpt lat="43.58704" lon="1.26837">
        <ele>191.6</ele>
        <time>2022-12-28T11:39:36Z</time>
      </trkpt>
      <trkpt lat="43.58692" lon="1.26836">
        <ele>191.2</ele>
        <time>2022-12-28T11:39:38Z</time>
      </trkpt>
      <trkpt lat="43.58651" lon="1.2683">
        <ele>190.4</ele>
        <time>2022-12-28T11:39:44Z</time>
      </trkpt>
      <trkpt lat="43.58637" lon="1.26828">
        <ele>190.2</ele>
        <time>2022-12-28T11:39:46Z</time>
      </trkpt>
      <trkpt lat="43.58581" lon="1.26822">
        <ele>190</ele>
        <time>2022-12-28T11:39:55Z</time>
      </trkpt>
      <trkpt lat="43.58569" lon="1.2682">
        <ele>190.4</ele>
        <time>2022-12-28T11:39:57Z</time>
      </trkpt>
      <trkpt lat="43.58529" lon="1.26815">
        <ele>191.6</ele>
        <time>2022-12-28T11:40:04Z</time>
      </trkpt>
      <trkpt lat="43.585" lon="1.26812">
        <ele>192.2</ele>
        <time>2022-12-28T11:40:09Z</time>
      </trkpt>
      <trkpt lat="43.58458" lon="1.26807">
        <ele>192.6</ele>
        <time>2022-12-28T11:40:16Z</time>
      </trkpt>
      <trkpt lat="43.58434" lon="1.26804">
        <ele>192.6</ele>
        <time>2022-12-28T11:40:20Z</time>
      </trkpt>
      <trkpt lat="43.58377" lon="1.26797">
        <ele>192.2</ele>
        <time>2022-12-28T11:40:29Z</time>
      </trkpt>
      <trkpt lat="43.58371" lon="1.26796">
        <ele>192.2</ele>
        <time>2022-12-28T11:40:30Z</time>
      </trkpt>
      <trkpt lat="43.58326" lon="1.2679">
        <ele>191.8</ele>
        <time>2022-12-28T11:40:37Z</time>
      </trkpt>
      <trkpt lat="43.58304" lon="1.26787">
        <ele>191.6</ele>
        <time>2022-12-28T11:40:40Z</time>
      </trkpt>
      <trkpt lat="43.58249" lon="1.2678">
        <ele>190.8</ele>
        <time>2022-12-28T11:40:48Z</time>
      </trkpt>
      <trkpt lat="43.58242" lon="1.26779">
        <ele>190.6</ele>
        <time>2022-12-28T11:40:49Z</time>
      </trkpt>
      <trkpt lat="43.58216" lon="1.26776">
        <ele>190.4</ele>
        <time>2022-12-28T11:40:53Z</time>
      </trkpt>
      <trkpt lat="43.58159" lon="1.26768">
        <ele>189.8</ele>
        <time>2022-12-28T11:41:02Z</time>
      </trkpt>
      <trkpt lat="43.58139" lon="1.26766">
        <ele>189.8</ele>
        <time>2022-12-28T11:41:05Z</time>
      </trkpt>
      <trkpt lat="43.58125" lon="1.26764">
        <ele>189.8</ele>
        <time>2022-12-28T11:41:07Z</time>
      </trkpt>
      <trkpt lat="43.58119" lon="1.26762">
        <ele>189.6</ele>
        <time>2022-12-28T11:41:08Z</time>
      </trkpt>
      <trkpt lat="43.58107" lon="1.26759">
        <ele>189.6</ele>
        <time>2022-12-28T11:41:10Z</time>
      </trkpt>
      <trkpt lat="43.58065" lon="1.2675">
        <ele>189.2</ele>
        <time>2022-12-28T11:41:16Z</time>
      </trkpt>
      <trkpt lat="43.58017" lon="1.26746">
        <ele>188.8</ele>
        <time>2022-12-28T11:41:23Z</time>
      </trkpt>
      <trkpt lat="43.58012" lon="1.26744">
        <ele>188.8</ele>
        <time>2022-12-28T11:41:24Z</time>
      </trkpt>
      <trkpt lat="43.58008" lon="1.2674">
        <ele>188.8</ele>
        <time>2022-12-28T11:41:25Z</time>
      </trkpt>
      <trkpt lat="43.58" lon="1.26727">
        <ele>188.6</ele>
        <time>2022-12-28T11:41:27Z</time>
      </trkpt>
      <trkpt lat="43.57992" lon="1.26722">
        <ele>188.6</ele>
        <time>2022-12-28T11:41:29Z</time>
      </trkpt>
      <trkpt lat="43.57987" lon="1.26723">
        <ele>188.6</ele>
        <time>2022-12-28T11:41:30Z</time>
      </trkpt>
      <trkpt lat="43.57964" lon="1.26737">
        <ele>188.6</ele>
        <time>2022-12-28T11:41:35Z</time>
      </trkpt>
      <trkpt lat="43.57959" lon="1.26738">
        <ele>188.6</ele>
        <time>2022-12-28T11:41:36Z</time>
      </trkpt>
      <trkpt lat="43.57948" lon="1.26737">
        <ele>188.6</ele>
        <time>2022-12-28T11:41:38Z</time>
      </trkpt>
      <trkpt lat="43.57929" lon="1.26735">
        <ele>188.6</ele>
        <time>2022-12-28T11:41:41Z</time>
      </trkpt>
      <trkpt lat="43.57887" lon="1.26731">
        <ele>188.2</ele>
        <time>2022-12-28T11:41:48Z</time>
      </trkpt>
      <trkpt lat="43.57832" lon="1.26724">
        <ele>188.6</ele>
        <time>2022-12-28T11:41:57Z</time>
      </trkpt>
      <trkpt lat="43.57826" lon="1.26723">
        <ele>188.6</ele>
        <time>2022-12-28T11:41:58Z</time>
      </trkpt>
      <trkpt lat="43.57787" lon="1.26727">
        <ele>188.8</ele>
        <time>2022-12-28T11:42:05Z</time>
      </trkpt>
      <trkpt lat="43.57755" lon="1.26746">
        <ele>188.8</ele>
        <time>2022-12-28T11:42:11Z</time>
      </trkpt>
      <trkpt lat="43.57725" lon="1.26782">
        <ele>188.8</ele>
        <time>2022-12-28T11:42:18Z</time>
      </trkpt>
      <trkpt lat="43.57701" lon="1.26826">
        <ele>188.8</ele>
        <time>2022-12-28T11:42:25Z</time>
      </trkpt>
      <trkpt lat="43.57695" lon="1.26841">
        <ele>188.2</ele>
        <time>2022-12-28T11:42:29Z</time>
      </trkpt>
      <trkpt lat="43.57695" lon="1.26844">
        <ele>187.8</ele>
        <time>2022-12-28T11:42:31Z</time>
      </trkpt>
      <trkpt lat="43.57697" lon="1.26853">
        <ele>187.4</ele>
        <time>2022-12-28T11:42:35Z</time>
      </trkpt>
      <trkpt lat="43.57689" lon="1.2687">
        <ele>187</ele>
        <time>2022-12-28T11:42:41Z</time>
      </trkpt>
      <trkpt lat="43.57684" lon="1.26881">
        <ele>186.8</ele>
        <time>2022-12-28T11:42:45Z</time>
      </trkpt>
      <trkpt lat="43.57682" lon="1.26883">
        <ele>186.8</ele>
        <time>2022-12-28T11:42:46Z</time>
      </trkpt>
      <trkpt lat="43.57676" lon="1.26898">
        <ele>186.8</ele>
        <time>2022-12-28T11:42:51Z</time>
      </trkpt>
      <trkpt lat="43.57676" lon="1.26915">
        <ele>187</ele>
        <time>2022-12-28T11:42:55Z</time>
      </trkpt>
      <trkpt lat="43.57677" lon="1.26925">
        <ele>187</ele>
        <time>2022-12-28T11:42:57Z</time>
      </trkpt>
      <trkpt lat="43.57674" lon="1.26936">
        <ele>187</ele>
        <time>2022-12-28T11:42:59Z</time>
      </trkpt>
      <trkpt lat="43.57669" lon="1.26973">
        <ele>187.6</ele>
        <time>2022-12-28T11:43:06Z</time>
      </trkpt>
      <trkpt lat="43.57668" lon="1.26977">
        <ele>188</ele>
        <time>2022-12-28T11:43:07Z</time>
      </trkpt>
      <trkpt lat="43.57665" lon="1.27">
        <ele>188.8</ele>
        <time>2022-12-28T11:43:12Z</time>
      </trkpt>
      <trkpt lat="43.57662" lon="1.2701">
        <ele>189.4</ele>
        <time>2022-12-28T11:43:14Z</time>
      </trkpt>
      <trkpt lat="43.57656" lon="1.27018">
        <ele>189.6</ele>
        <time>2022-12-28T11:43:16Z</time>
      </trkpt>
      <trkpt lat="43.57644" lon="1.27033">
        <ele>190.4</ele>
        <time>2022-12-28T11:43:21Z</time>
      </trkpt>
      <trkpt lat="43.5764" lon="1.2704">
        <ele>191</ele>
        <time>2022-12-28T11:43:23Z</time>
      </trkpt>
      <trkpt lat="43.57635" lon="1.27054">
        <ele>191.8</ele>
        <time>2022-12-28T11:43:26Z</time>
      </trkpt>
      <trkpt lat="43.57633" lon="1.27076">
        <ele>192.8</ele>
        <time>2022-12-28T11:43:30Z</time>
      </trkpt>
      <trkpt lat="43.57635" lon="1.2708">
        <ele>192.8</ele>
        <time>2022-12-28T11:43:31Z</time>
      </trkpt>
      <trkpt lat="43.57645" lon="1.27093">
        <ele>193.4</ele>
        <time>2022-12-28T11:43:35Z</time>
      </trkpt>
      <trkpt lat="43.57656" lon="1.27104">
        <ele>194</ele>
        <time>2022-12-28T11:43:39Z</time>
      </trkpt>
      <trkpt lat="43.57668" lon="1.27114">
        <ele>194.8</ele>
        <time>2022-12-28T11:43:43Z</time>
      </trkpt>
      <trkpt lat="43.57671" lon="1.27117">
        <ele>195</ele>
        <time>2022-12-28T11:43:44Z</time>
      </trkpt>
      <trkpt lat="43.57684" lon="1.27128">
        <ele>196.4</ele>
        <time>2022-12-28T11:43:48Z</time>
      </trkpt>
      <trkpt lat="43.57692" lon="1.27137">
        <ele>197.2</ele>
        <time>2022-12-28T11:43:51Z</time>
      </trkpt>
      <trkpt lat="43.57696" lon="1.2714">
        <ele>197.6</ele>
        <time>2022-12-28T11:43:52Z</time>
      </trkpt>
      <trkpt lat="43.57708" lon="1.2715">
        <ele>198.6</ele>
        <time>2022-12-28T11:43:56Z</time>
      </trkpt>
      <trkpt lat="43.57713" lon="1.27156">
        <ele>199.8</ele>
        <time>2022-12-28T11:43:58Z</time>
      </trkpt>
      <trkpt lat="43.57716" lon="1.27159">
        <ele>200.2</ele>
        <time>2022-12-28T11:43:59Z</time>
      </trkpt>
      <trkpt lat="43.57722" lon="1.27165">
        <ele>200.8</ele>
        <time>2022-12-28T11:44:01Z</time>
      </trkpt>
      <trkpt lat="43.5773" lon="1.27176">
        <ele>202</ele>
        <time>2022-12-28T11:44:04Z</time>
      </trkpt>
      <trkpt lat="43.57734" lon="1.27182">
        <ele>202.8</ele>
        <time>2022-12-28T11:44:06Z</time>
      </trkpt>
      <trkpt lat="43.57736" lon="1.27185">
        <ele>203</ele>
        <time>2022-12-28T11:44:07Z</time>
      </trkpt>
      <trkpt lat="43.57739" lon="1.27192">
        <ele>204.4</ele>
        <time>2022-12-28T11:44:09Z</time>
      </trkpt>
      <trkpt lat="43.57743" lon="1.27206">
        <ele>205.6</ele>
        <time>2022-12-28T11:44:13Z</time>
      </trkpt>
      <trkpt lat="43.57746" lon="1.2722">
        <ele>207</ele>
        <time>2022-12-28T11:44:17Z</time>
      </trkpt>
      <trkpt lat="43.57747" lon="1.27224">
        <ele>207.2</ele>
        <time>2022-12-28T11:44:18Z</time>
      </trkpt>
      <trkpt lat="43.57754" lon="1.27232">
        <ele>208</ele>
        <time>2022-12-28T11:44:22Z</time>
      </trkpt>
      <trkpt lat="43.57756" lon="1.27232">
        <ele>208.2</ele>
        <time>2022-12-28T11:44:23Z</time>
      </trkpt>
      <trkpt lat="43.57759" lon="1.27235">
        <ele>208.6</ele>
        <time>2022-12-28T11:44:26Z</time>
      </trkpt>
      <trkpt lat="43.5776" lon="1.27236">
        <ele>208.6</ele>
        <time>2022-12-28T11:44:28Z</time>
      </trkpt>
      <trkpt lat="43.5776" lon="1.27236">
        <ele>208.8</ele>
        <time>2022-12-28T11:44:29Z</time>
      </trkpt>
      <trkpt lat="43.57762" lon="1.27242">
        <ele>209.2</ele>
        <time>2022-12-28T11:49:32Z</time>
      </trkpt>
      <trkpt lat="43.57765" lon="1.2725">
        <ele>209.2</ele>
        <time>2022-12-28T11:49:34Z</time>
      </trkpt>
      <trkpt lat="43.57774" lon="1.27262">
        <ele>209.2</ele>
        <time>2022-12-28T11:49:37Z</time>
      </trkpt>
      <trkpt lat="43.57778" lon="1.27264">
        <ele>209.2</ele>
        <time>2022-12-28T11:49:38Z</time>
      </trkpt>
      <trkpt lat="43.57783" lon="1.27265">
        <ele>209.2</ele>
        <time>2022-12-28T11:49:39Z</time>
      </trkpt>
      <trkpt lat="43.57803" lon="1.2727">
        <ele>209.4</ele>
        <time>2022-12-28T11:49:43Z</time>
      </trkpt>
      <trkpt lat="43.57808" lon="1.27271">
        <ele>209.4</ele>
        <time>2022-12-28T11:49:44Z</time>
      </trkpt>
      <trkpt lat="43.57837" lon="1.27276">
        <ele>209.8</ele>
        <time>2022-12-28T11:49:49Z</time>
      </trkpt>
      <trkpt lat="43.57883" lon="1.27284">
        <ele>210.2</ele>
        <time>2022-12-28T11:49:56Z</time>
      </trkpt>
      <trkpt lat="43.57931" lon="1.27295">
        <ele>210.6</ele>
        <time>2022-12-28T11:50:03Z</time>
      </trkpt>
      <trkpt lat="43.57944" lon="1.27299">
        <ele>210.8</ele>
        <time>2022-12-28T11:50:05Z</time>
      </trkpt>
      <trkpt lat="43.5798" lon="1.27307">
        <ele>210.6</ele>
        <time>2022-12-28T11:50:11Z</time>
      </trkpt>
      <trkpt lat="43.57984" lon="1.2731">
        <ele>210.8</ele>
        <time>2022-12-28T11:50:12Z</time>
      </trkpt>
      <trkpt lat="43.57986" lon="1.27316">
        <ele>210.6</ele>
        <time>2022-12-28T11:50:13Z</time>
      </trkpt>
      <trkpt lat="43.57985" lon="1.27323">
        <ele>210.6</ele>
        <time>2022-12-28T11:50:14Z</time>
      </trkpt>
      <trkpt lat="43.57979" lon="1.27361">
        <ele>210.4</ele>
        <time>2022-12-28T11:50:19Z</time>
      </trkpt>
      <trkpt lat="43.57973" lon="1.27406">
        <ele>210.4</ele>
        <time>2022-12-28T11:50:24Z</time>
      </trkpt>
      <trkpt lat="43.57972" lon="1.27415">
        <ele>210.4</ele>
        <time>2022-12-28T11:50:25Z</time>
      </trkpt>
      <trkpt lat="43.5796" lon="1.27492">
        <ele>210.2</ele>
        <time>2022-12-28T11:50:33Z</time>
      </trkpt>
      <trkpt lat="43.5795" lon="1.2756">
        <ele>210</ele>
        <time>2022-12-28T11:50:40Z</time>
      </trkpt>
      <trkpt lat="43.57936" lon="1.27634">
        <ele>210.2</ele>
        <time>2022-12-28T11:50:48Z</time>
      </trkpt>
      <trkpt lat="43.57935" lon="1.27643">
        <ele>210.2</ele>
        <time>2022-12-28T11:50:49Z</time>
      </trkpt>
      <trkpt lat="43.57922" lon="1.27714">
        <ele>210.8</ele>
        <time>2022-12-28T11:50:57Z</time>
      </trkpt>
      <trkpt lat="43.57914" lon="1.27768">
        <ele>210.8</ele>
        <time>2022-12-28T11:51:03Z</time>
      </trkpt>
      <trkpt lat="43.57903" lon="1.27838">
        <ele>210.8</ele>
        <time>2022-12-28T11:51:11Z</time>
      </trkpt>
      <trkpt lat="43.57894" lon="1.279">
        <ele>211.2</ele>
        <time>2022-12-28T11:51:18Z</time>
      </trkpt>
      <trkpt lat="43.57883" lon="1.27962">
        <ele>210.8</ele>
        <time>2022-12-28T11:51:25Z</time>
      </trkpt>
      <trkpt lat="43.57866" lon="1.28027">
        <ele>210.8</ele>
        <time>2022-12-28T11:51:33Z</time>
      </trkpt>
      <trkpt lat="43.57864" lon="1.28035">
        <ele>210.6</ele>
        <time>2022-12-28T11:51:34Z</time>
      </trkpt>
      <trkpt lat="43.57864" lon="1.28053">
        <ele>210.6</ele>
        <time>2022-12-28T11:51:36Z</time>
      </trkpt>
      <trkpt lat="43.57865" lon="1.28061">
        <ele>210.6</ele>
        <time>2022-12-28T11:51:37Z</time>
      </trkpt>
      <trkpt lat="43.57874" lon="1.28128">
        <ele>210.8</ele>
        <time>2022-12-28T11:51:45Z</time>
      </trkpt>
      <trkpt lat="43.57883" lon="1.28204">
        <ele>210.6</ele>
        <time>2022-12-28T11:51:54Z</time>
      </trkpt>
      <trkpt lat="43.57886" lon="1.28222">
        <ele>210.6</ele>
        <time>2022-12-28T11:51:56Z</time>
      </trkpt>
      <trkpt lat="43.57897" lon="1.28301">
        <ele>210.8</ele>
        <time>2022-12-28T11:52:05Z</time>
      </trkpt>
      <trkpt lat="43.57898" lon="1.2831">
        <ele>211</ele>
        <time>2022-12-28T11:52:06Z</time>
      </trkpt>
      <trkpt lat="43.57907" lon="1.28388">
        <ele>211</ele>
        <time>2022-12-28T11:52:15Z</time>
      </trkpt>
      <trkpt lat="43.57908" lon="1.28397">
        <ele>211</ele>
        <time>2022-12-28T11:52:16Z</time>
      </trkpt>
      <trkpt lat="43.57911" lon="1.28423">
        <ele>211</ele>
        <time>2022-12-28T11:52:19Z</time>
      </trkpt>
      <trkpt lat="43.5792" lon="1.28494">
        <ele>210.8</ele>
        <time>2022-12-28T11:52:27Z</time>
      </trkpt>
      <trkpt lat="43.57925" lon="1.28529">
        <ele>210.6</ele>
        <time>2022-12-28T11:52:32Z</time>
      </trkpt>
      <trkpt lat="43.57926" lon="1.28535">
        <ele>210.6</ele>
        <time>2022-12-28T11:52:35Z</time>
      </trkpt>
      <trkpt lat="43.57926" lon="1.28541">
        <ele>210.4</ele>
        <time>2022-12-28T11:52:38Z</time>
      </trkpt>
      <trkpt lat="43.57929" lon="1.28546">
        <ele>210.2</ele>
        <time>2022-12-28T11:52:40Z</time>
      </trkpt>
      <trkpt lat="43.57942" lon="1.28562">
        <ele>210</ele>
        <time>2022-12-28T11:52:44Z</time>
      </trkpt>
      <trkpt lat="43.57945" lon="1.28568">
        <ele>210</ele>
        <time>2022-12-28T11:52:45Z</time>
      </trkpt>
      <trkpt lat="43.57967" lon="1.28604">
        <ele>210</ele>
        <time>2022-12-28T11:52:51Z</time>
      </trkpt>
      <trkpt lat="43.57999" lon="1.28657">
        <ele>210</ele>
        <time>2022-12-28T11:52:59Z</time>
      </trkpt>
      <trkpt lat="43.58034" lon="1.28723">
        <ele>210</ele>
        <time>2022-12-28T11:53:08Z</time>
      </trkpt>
      <trkpt lat="43.58059" lon="1.28792">
        <ele>210.2</ele>
        <time>2022-12-28T11:53:16Z</time>
      </trkpt>
      <trkpt lat="43.58069" lon="1.28859">
        <ele>210</ele>
        <time>2022-12-28T11:53:23Z</time>
      </trkpt>
      <trkpt lat="43.58071" lon="1.28877">
        <ele>209.8</ele>
        <time>2022-12-28T11:53:25Z</time>
      </trkpt>
      <trkpt lat="43.58077" lon="1.2894">
        <ele>209.6</ele>
        <time>2022-12-28T11:53:32Z</time>
      </trkpt>
      <trkpt lat="43.58082" lon="1.28988">
        <ele>209.4</ele>
        <time>2022-12-28T11:53:38Z</time>
      </trkpt>
      <trkpt lat="43.58084" lon="1.29008">
        <ele>209.4</ele>
        <time>2022-12-28T11:53:42Z</time>
      </trkpt>
      <trkpt lat="43.58086" lon="1.29017">
        <ele>209.2</ele>
        <time>2022-12-28T11:53:44Z</time>
      </trkpt>
      <trkpt lat="43.58088" lon="1.29036">
        <ele>209</ele>
        <time>2022-12-28T11:53:47Z</time>
      </trkpt>
      <trkpt lat="43.58092" lon="1.29073">
        <ele>209</ele>
        <time>2022-12-28T11:53:52Z</time>
      </trkpt>
      <trkpt lat="43.581" lon="1.29128">
        <ele>209</ele>
        <time>2022-12-28T11:53:59Z</time>
      </trkpt>
      <trkpt lat="43.58103" lon="1.29144">
        <ele>209</ele>
        <time>2022-12-28T11:54:01Z</time>
      </trkpt>
      <trkpt lat="43.58111" lon="1.29175">
        <ele>209</ele>
        <time>2022-12-28T11:54:05Z</time>
      </trkpt>
      <trkpt lat="43.58119" lon="1.29216">
        <ele>209.2</ele>
        <time>2022-12-28T11:54:11Z</time>
      </trkpt>
      <trkpt lat="43.58119" lon="1.29223">
        <ele>209.2</ele>
        <time>2022-12-28T11:54:12Z</time>
      </trkpt>
      <trkpt lat="43.58125" lon="1.29259">
        <ele>208.8</ele>
        <time>2022-12-28T11:54:17Z</time>
      </trkpt>
      <trkpt lat="43.58132" lon="1.29287">
        <ele>208.6</ele>
        <time>2022-12-28T11:54:21Z</time>
      </trkpt>
      <trkpt lat="43.58135" lon="1.29302">
        <ele>208.8</ele>
        <time>2022-12-28T11:54:23Z</time>
      </trkpt>
      <trkpt lat="43.58146" lon="1.29367">
        <ele>208.8</ele>
        <time>2022-12-28T11:54:32Z</time>
      </trkpt>
      <trkpt lat="43.58154" lon="1.29429">
        <ele>208.8</ele>
        <time>2022-12-28T11:54:40Z</time>
      </trkpt>
      <trkpt lat="43.58157" lon="1.2948">
        <ele>209</ele>
        <time>2022-12-28T11:54:46Z</time>
      </trkpt>
      <trkpt lat="43.58157" lon="1.29507">
        <ele>209</ele>
        <time>2022-12-28T11:54:49Z</time>
      </trkpt>
      <trkpt lat="43.58157" lon="1.29553">
        <ele>209</ele>
        <time>2022-12-28T11:54:54Z</time>
      </trkpt>
      <trkpt lat="43.58156" lon="1.29614">
        <ele>208.8</ele>
        <time>2022-12-28T11:55:01Z</time>
      </trkpt>
      <trkpt lat="43.58152" lon="1.29673">
        <ele>208.8</ele>
        <time>2022-12-28T11:55:08Z</time>
      </trkpt>
      <trkpt lat="43.58145" lon="1.2972">
        <ele>208.6</ele>
        <time>2022-12-28T11:55:14Z</time>
      </trkpt>
      <trkpt lat="43.58143" lon="1.29726">
        <ele>208.8</ele>
        <time>2022-12-28T11:55:15Z</time>
      </trkpt>
      <trkpt lat="43.58141" lon="1.29734">
        <ele>208.8</ele>
        <time>2022-12-28T11:55:16Z</time>
      </trkpt>
      <trkpt lat="43.58141" lon="1.29757">
        <ele>208.8</ele>
        <time>2022-12-28T11:55:19Z</time>
      </trkpt>
      <trkpt lat="43.5814" lon="1.29779">
        <ele>208.8</ele>
        <time>2022-12-28T11:55:22Z</time>
      </trkpt>
      <trkpt lat="43.58141" lon="1.29799">
        <ele>208.6</ele>
        <time>2022-12-28T11:55:25Z</time>
      </trkpt>
      <trkpt lat="43.58142" lon="1.29812">
        <ele>208.6</ele>
        <time>2022-12-28T11:55:27Z</time>
      </trkpt>
      <trkpt lat="43.58143" lon="1.29827">
        <ele>208.6</ele>
        <time>2022-12-28T11:55:29Z</time>
      </trkpt>
      <trkpt lat="43.58142" lon="1.2984">
        <ele>208.6</ele>
        <time>2022-12-28T11:55:31Z</time>
      </trkpt>
      <trkpt lat="43.58142" lon="1.29864">
        <ele>208.6</ele>
        <time>2022-12-28T11:55:34Z</time>
      </trkpt>
      <trkpt lat="43.5814" lon="1.29895">
        <ele>208.4</ele>
        <time>2022-12-28T11:55:38Z</time>
      </trkpt>
      <trkpt lat="43.58139" lon="1.29925">
        <ele>208.6</ele>
        <time>2022-12-28T11:55:42Z</time>
      </trkpt>
      <trkpt lat="43.58138" lon="1.29948">
        <ele>208.6</ele>
        <time>2022-12-28T11:55:45Z</time>
      </trkpt>
      <trkpt lat="43.58134" lon="1.30026">
        <ele>209</ele>
        <time>2022-12-28T11:55:55Z</time>
      </trkpt>
      <trkpt lat="43.58133" lon="1.30034">
        <ele>209</ele>
        <time>2022-12-28T11:55:56Z</time>
      </trkpt>
      <trkpt lat="43.58131" lon="1.3005">
        <ele>209</ele>
        <time>2022-12-28T11:55:58Z</time>
      </trkpt>
      <trkpt lat="43.58129" lon="1.30083">
        <ele>209</ele>
        <time>2022-12-28T11:56:02Z</time>
      </trkpt>
      <trkpt lat="43.58125" lon="1.30115">
        <ele>209</ele>
        <time>2022-12-28T11:56:06Z</time>
      </trkpt>
      <trkpt lat="43.58125" lon="1.30123">
        <ele>209</ele>
        <time>2022-12-28T11:56:07Z</time>
      </trkpt>
      <trkpt lat="43.58127" lon="1.30187">
        <ele>209.2</ele>
        <time>2022-12-28T11:56:15Z</time>
      </trkpt>
      <trkpt lat="43.58126" lon="1.30238">
        <ele>209</ele>
        <time>2022-12-28T11:56:22Z</time>
      </trkpt>
      <trkpt lat="43.58126" lon="1.30251">
        <ele>209.2</ele>
        <time>2022-12-28T11:56:24Z</time>
      </trkpt>
      <trkpt lat="43.5813" lon="1.30261">
        <ele>209</ele>
        <time>2022-12-28T11:56:26Z</time>
      </trkpt>
      <trkpt lat="43.58141" lon="1.30272">
        <ele>209</ele>
        <time>2022-12-28T11:56:29Z</time>
      </trkpt>
      <trkpt lat="43.58144" lon="1.30277">
        <ele>208.8</ele>
        <time>2022-12-28T11:56:30Z</time>
      </trkpt>
      <trkpt lat="43.58161" lon="1.30313">
        <ele>208.8</ele>
        <time>2022-12-28T11:56:36Z</time>
      </trkpt>
      <trkpt lat="43.58163" lon="1.3032">
        <ele>208.6</ele>
        <time>2022-12-28T11:56:37Z</time>
      </trkpt>
      <trkpt lat="43.58176" lon="1.30375">
        <ele>208.6</ele>
        <time>2022-12-28T11:56:44Z</time>
      </trkpt>
      <trkpt lat="43.58201" lon="1.30433">
        <ele>208.6</ele>
        <time>2022-12-28T11:56:52Z</time>
      </trkpt>
      <trkpt lat="43.58236" lon="1.30498">
        <ele>208</ele>
        <time>2022-12-28T11:57:02Z</time>
      </trkpt>
      <trkpt lat="43.58269" lon="1.30561">
        <ele>208</ele>
        <time>2022-12-28T11:57:11Z</time>
      </trkpt>
      <trkpt lat="43.58273" lon="1.30568">
        <ele>208.2</ele>
        <time>2022-12-28T11:57:12Z</time>
      </trkpt>
      <trkpt lat="43.58302" lon="1.30626">
        <ele>208.2</ele>
        <time>2022-12-28T11:57:20Z</time>
      </trkpt>
      <trkpt lat="43.58321" lon="1.30673">
        <ele>208</ele>
        <time>2022-12-28T11:57:26Z</time>
      </trkpt>
      <trkpt lat="43.58343" lon="1.30736">
        <ele>208.4</ele>
        <time>2022-12-28T11:57:34Z</time>
      </trkpt>
      <trkpt lat="43.58369" lon="1.30804">
        <ele>208.4</ele>
        <time>2022-12-28T11:57:43Z</time>
      </trkpt>
      <trkpt lat="43.58375" lon="1.3082">
        <ele>208.4</ele>
        <time>2022-12-28T11:57:45Z</time>
      </trkpt>
      <trkpt lat="43.58379" lon="1.30828">
        <ele>208.4</ele>
        <time>2022-12-28T11:57:46Z</time>
      </trkpt>
      <trkpt lat="43.58395" lon="1.30857">
        <ele>208.4</ele>
        <time>2022-12-28T11:57:50Z</time>
      </trkpt>
      <trkpt lat="43.5843" lon="1.30919">
        <ele>208.2</ele>
        <time>2022-12-28T11:57:59Z</time>
      </trkpt>
      <trkpt lat="43.58434" lon="1.30926">
        <ele>208.2</ele>
        <time>2022-12-28T11:58:00Z</time>
      </trkpt>
      <trkpt lat="43.58471" lon="1.30988">
        <ele>208.2</ele>
        <time>2022-12-28T11:58:09Z</time>
      </trkpt>
      <trkpt lat="43.58475" lon="1.30996">
        <ele>208.2</ele>
        <time>2022-12-28T11:58:10Z</time>
      </trkpt>
      <trkpt lat="43.5851" lon="1.31063">
        <ele>208</ele>
        <time>2022-12-28T11:58:19Z</time>
      </trkpt>
      <trkpt lat="43.58513" lon="1.31069">
        <ele>208</ele>
        <time>2022-12-28T11:58:20Z</time>
      </trkpt>
      <trkpt lat="43.58535" lon="1.31119">
        <ele>207.2</ele>
        <time>2022-12-28T11:58:27Z</time>
      </trkpt>
      <trkpt lat="43.58541" lon="1.31135">
        <ele>206.8</ele>
        <time>2022-12-28T11:58:29Z</time>
      </trkpt>
      <trkpt lat="43.58545" lon="1.31143">
        <ele>206.6</ele>
        <time>2022-12-28T11:58:30Z</time>
      </trkpt>
      <trkpt lat="43.58553" lon="1.31157">
        <ele>206.6</ele>
        <time>2022-12-28T11:58:32Z</time>
      </trkpt>
      <trkpt lat="43.58558" lon="1.31163">
        <ele>206.4</ele>
        <time>2022-12-28T11:58:33Z</time>
      </trkpt>
      <trkpt lat="43.58563" lon="1.31169">
        <ele>206.4</ele>
        <time>2022-12-28T11:58:34Z</time>
      </trkpt>
      <trkpt lat="43.58574" lon="1.31189">
        <ele>206.4</ele>
        <time>2022-12-28T11:58:37Z</time>
      </trkpt>
      <trkpt lat="43.58581" lon="1.31203">
        <ele>206.2</ele>
        <time>2022-12-28T11:58:39Z</time>
      </trkpt>
      <trkpt lat="43.58597" lon="1.31242">
        <ele>206</ele>
        <time>2022-12-28T11:58:44Z</time>
      </trkpt>
      <trkpt lat="43.58602" lon="1.31258">
        <ele>206</ele>
        <time>2022-12-28T11:58:46Z</time>
      </trkpt>
      <trkpt lat="43.58603" lon="1.31283">
        <ele>206</ele>
        <time>2022-12-28T11:58:49Z</time>
      </trkpt>
      <trkpt lat="43.58604" lon="1.31332">
        <ele>206.4</ele>
        <time>2022-12-28T11:58:55Z</time>
      </trkpt>
      <trkpt lat="43.58611" lon="1.31391">
        <ele>206.6</ele>
        <time>2022-12-28T11:59:02Z</time>
      </trkpt>
      <trkpt lat="43.58617" lon="1.31453">
        <ele>206.8</ele>
        <time>2022-12-28T11:59:09Z</time>
      </trkpt>
      <trkpt lat="43.58623" lon="1.31516">
        <ele>206.8</ele>
        <time>2022-12-28T11:59:16Z</time>
      </trkpt>
      <trkpt lat="43.5863" lon="1.31595">
        <ele>206.4</ele>
        <time>2022-12-28T11:59:25Z</time>
      </trkpt>
      <trkpt lat="43.58637" lon="1.31666">
        <ele>206.2</ele>
        <time>2022-12-28T11:59:33Z</time>
      </trkpt>
      <trkpt lat="43.58644" lon="1.31744">
        <ele>206.2</ele>
        <time>2022-12-28T11:59:42Z</time>
      </trkpt>
      <trkpt lat="43.58657" lon="1.31823">
        <ele>206</ele>
        <time>2022-12-28T11:59:51Z</time>
      </trkpt>
      <trkpt lat="43.58668" lon="1.31892">
        <ele>205.4</ele>
        <time>2022-12-28T11:59:59Z</time>
      </trkpt>
      <trkpt lat="43.58674" lon="1.31925">
        <ele>205</ele>
        <time>2022-12-28T12:00:03Z</time>
      </trkpt>
      <trkpt lat="43.58677" lon="1.31948">
        <ele>204.8</ele>
        <time>2022-12-28T12:00:06Z</time>
      </trkpt>
      <trkpt lat="43.58677" lon="1.31956">
        <ele>204.8</ele>
        <time>2022-12-28T12:00:07Z</time>
      </trkpt>
      <trkpt lat="43.58677" lon="1.31964">
        <ele>204.6</ele>
        <time>2022-12-28T12:00:08Z</time>
      </trkpt>
      <trkpt lat="43.58681" lon="1.31979">
        <ele>204.4</ele>
        <time>2022-12-28T12:00:10Z</time>
      </trkpt>
      <trkpt lat="43.58687" lon="1.31994">
        <ele>204.2</ele>
        <time>2022-12-28T12:00:12Z</time>
      </trkpt>
      <trkpt lat="43.58688" lon="1.32011">
        <ele>204</ele>
        <time>2022-12-28T12:00:14Z</time>
      </trkpt>
      <trkpt lat="43.58688" lon="1.32028">
        <ele>203.8</ele>
        <time>2022-12-28T12:00:16Z</time>
      </trkpt>
      <trkpt lat="43.58688" lon="1.32069">
        <ele>203.2</ele>
        <time>2022-12-28T12:00:21Z</time>
      </trkpt>
      <trkpt lat="43.58686" lon="1.32128">
        <ele>203.4</ele>
        <time>2022-12-28T12:00:28Z</time>
      </trkpt>
      <trkpt lat="43.58683" lon="1.32151">
        <ele>203.6</ele>
        <time>2022-12-28T12:00:31Z</time>
      </trkpt>
      <trkpt lat="43.58683" lon="1.3218">
        <ele>203.8</ele>
        <time>2022-12-28T12:00:35Z</time>
      </trkpt>
      <trkpt lat="43.58681" lon="1.32228">
        <ele>203.8</ele>
        <time>2022-12-28T12:00:42Z</time>
      </trkpt>
      <trkpt lat="43.58682" lon="1.32232">
        <ele>203.6</ele>
        <time>2022-12-28T12:00:44Z</time>
      </trkpt>
      <trkpt lat="43.58684" lon="1.32231">
        <ele>203.6</ele>
        <time>2022-12-28T12:00:45Z</time>
      </trkpt>
      <trkpt lat="43.58684" lon="1.32228">
        <ele>203</ele>
        <time>2022-12-28T12:00:48Z</time>
      </trkpt>
      <trkpt lat="43.58684" lon="1.32228">
        <ele>202.8</ele>
        <time>2022-12-28T12:00:49Z</time>
      </trkpt>
    </trkseg>
  </trk>
</gpx>